# Wetter Temperatur Luftdruck Luftfeuchtigkeit Sichtweite Windgeschwindigkeit Windrichtung Zeit
1 Rain 28 1016 42 9000 1 0 20:19 17.10.2019
2 Rain 28 1016 42 9000 1 0 20:19 17.10.2019
3 Clouds 29 1016 37 8000 1.5 290 19:59 17.10.2019
4 Clouds 29 1016 37 8000 1.5 290 19:39 17.10.2019
5 Clouds 29 1016 37 8000 1.5 290 19:19 17.10.2019
6 Haze 29 1016 42 10000 1 300 18:58 17.10.2019
7 Haze 29 1016 42 10000 1 300 18:38 17.10.2019
8 Haze 29 1016 42 10000 1 300 18:19 17.10.2019
9 Clouds 30 1015 38 10000 1.5 290 17:42 17.10.2019
10 Clouds 30 1015 38 10000 1.5 290 17:23 17.10.2019
11 Clouds 32 1016 31 10000 3.1 240 16:57 17.10.2019
12 Clouds 32 1016 31 10000 3.1 240 16:38 17.10.2019
13 Clouds 32 1016 31 10000 3.1 240 16:18 17.10.2019
14 Clouds 33 1016 24 10000 2.6 250 15:55 17.10.2019
15 Clouds 33 1016 24 10000 2.6 250 15:37 17.10.2019
16 Clouds 33 1016 24 10000 2.6 250 15:19 17.10.2019
17 Clouds 33 1016 23 10000 3.6 270 14:43 17.10.2019
18 Clouds 33 1016 23 10000 3.6 270 14:24 17.10.2019
19 Clouds 33 1016 23 10000 3.6 270 14:24 17.10.2019
20 Clouds 33 1016 23 10000 3.6 270 14:24 17.10.2019
21 Clouds 34 1016 20 10000 4.1 300 13:57 17.10.2019
22 Clouds 34 1016 20 10000 4.1 300 13:39 17.10.2019
23 Clouds 34 1016 20 10000 4.1 300 13:19 17.10.2019
24 Clouds 34 1016 20 10000 3.1 310 12:43 17.10.2019
25 Clear 34 1016 20 10000 3.1 310 12:21 17.10.2019
26 Clear 34 1017 24 10000 2.6 280 11:59 17.10.2019
27 Clear 34 1017 24 10000 2.6 280 11:41 17.10.2019
28 Clear 34 1017 24 10000 2.6 280 11:41 17.10.2019
29 Clear 34 1017 24 10000 2.6 280 11:20 17.10.2019
30 Clear 33 1017 26 10000 2.6 270 10:57 17.10.2019
31 Clear 33 1017 26 10000 2.6 270 10:39 17.10.2019
32 Clear 33 1017 26 10000 2.6 270 10:19 17.10.2019
33 Clear 32 1018 22 10000 3.1 270 09:55 17.10.2019
34 Clouds 32 1018 22 10000 3.1 270 09:36 17.10.2019
35 Clear 32 1018 22 10000 3.1 270 09:18 17.10.2019
36 Clear 32 1018 22 10000 3.1 270 09:18 17.10.2019
37 Clear 28 1017 28 9000 3.1 280 08:46 17.10.2019
38 Clear 28 1017 28 9000 3.1 280 08:26 17.10.2019
39 Clouds 26 1017 32 10000 1.5 280 07:56 17.10.2019
40 Clouds 26 1017 32 10000 1.5 280 07:38 17.10.2019
41 Clouds 26 1017 32 10000 1.5 280 07:19 17.10.2019
42 Clear 23 1016 41 10000 2.1 260 06:40 17.10.2019
43 Clear 23 1016 41 10000 2.1 260 06:21 17.10.2019
44 Clear 21 1016 46 10000 1 300 05:58 17.10.2019
45 Clear 21 1016 46 10000 1 300 05:32 17.10.2019
46 Clear 21 1016 43 10000 1 280 04:57 17.10.2019
47 Clear 22 1015 38 10000 2.565 326 03:55 17.10.2019
48 Clouds 22 1015 40 10000 2.6 10 02:53 17.10.2019
49 Clouds 24 1015 40 10000 1.5 40 01:55 17.10.2019
50 Clouds 26 1015 36 10000 1 0 00:41 17.10.2019
51 Clouds 26 1015 36 10000 1 0 00:20 17.10.2019
52 Clouds 26 1015 36 10000 1 0 00:20 17.10.2019
53 Clouds 25 1015 31 10000 2.1 260 23:42 16.10.2019
54 Clouds 25 1015 31 10000 2.1 260 23:21 16.10.2019
55 Clouds 24 1015 29 10000 1.5 290 22:57 16.10.2019
56 Clouds 24 1015 29 10000 1.5 290 22:38 16.10.2019
57 Clouds 24 1015 29 10000 1.5 290 22:19 16.10.2019
58 Clouds 24 1015 29 10000 1.5 290 22:19 16.10.2019
59 Clouds 27 1015 26 10000 2.1 300 21:58 16.10.2019
60 Clouds 27 1015 26 10000 2.1 300 21:38 16.10.2019
61 Clouds 27 1015 26 10000 2.1 300 21:20 16.10.2019
62 Clouds 27 1014 26 10000 2.6 10 20:58 16.10.2019
63 Clouds 27 1014 26 10000 2.6 10 20:40 16.10.2019
64 Clouds 27 1014 26 10000 2.6 10 20:21 16.10.2019
65 Haze 26 1015 24 9000 2.6 270 19:59 16.10.2019
66 Haze 26 1015 24 9000 2.6 270 19:39 16.10.2019
67 Haze 26 1015 24 9000 2.6 270 19:39 16.10.2019
68 Haze 27 1015 24 9000 2.6 270 19:21 16.10.2019
69 Clouds 27 1015 24 10000 2.6 320 18:55 16.10.2019
70 Clouds 27 1015 24 10000 2.6 320 18:36 16.10.2019
71 Clouds 27 1015 24 10000 2.6 320 18:18 16.10.2019
72 Clouds 29 1014 30 10000 2.1 340 17:54 16.10.2019
73 -273 0 0 0 0 0 17:54 16.10.2019
74 Clouds 29 1014 30 10000 2.1 340 17:36 16.10.2019
75 Clouds 29 1014 30 10000 2.1 340 17:18 16.10.2019
76 Clouds 32 1015 22 10000 2.6 250 16:43 16.10.2019
77 Clouds 32 1015 22 10000 2.6 250 16:21 16.10.2019
78 Clouds 33 1015 24 10000 3.1 260 15:58 16.10.2019
79 Clouds 33 1015 24 10000 3.1 260 15:39 16.10.2019
80 Clouds 34 1015 24 10000 4.1 290 15:19 16.10.2019
81 Clouds 34 1015 24 10000 4.1 290 14:58 16.10.2019
82 Clouds 34 1015 24 10000 4.1 290 14:39 16.10.2019
83 Clouds 34 1015 24 10000 4.1 290 14:19 16.10.2019
84 Clouds 34 1015 24 10000 5.1 300 13:57 16.10.2019
85 Clouds 34 1015 24 10000 5.1 300 13:38 16.10.2019
86 Clouds 36 1015 24 10000 5.1 300 13:20 16.10.2019
87 Clouds 35 1015 29 10000 4.1 280 12:42 16.10.2019
88 Clouds 35 1015 29 10000 4.1 280 12:19 16.10.2019
89 Clear 34 1016 28 10000 2.6 270 11:45 16.10.2019
90 Clear 34 1016 28 10000 2.6 270 11:45 16.10.2019
91 Clear 34 1016 28 10000 2.6 270 11:19 16.10.2019
92 Clear 31 1016 29 10000 4.1 270 10:55 16.10.2019
93 Clear 31 1016 29 10000 4.1 270 10:36 16.10.2019
94 Clear 31 1016 29 10000 4.1 270 10:18 16.10.2019
95 Clear 30 1016 20 10000 4.1 290 09:40 16.10.2019
96 Clear 30 1016 20 10000 4.1 290 09:21 16.10.2019
97 Clear 27 1016 21 10000 3.6 290 08:46 16.10.2019
98 Clear 27 1016 21 10000 3.6 290 08:26 16.10.2019
99 Haze 25 1016 24 8000 1.5 0 07:59 16.10.2019
100 Clear 23 1016 31 10000 2.6 270 07:41 16.10.2019
101 Clear 23 1016 31 10000 2.6 270 07:22 16.10.2019
102 Clear 20 1015 35 9000 2.1 290 06:46 16.10.2019
103 Clear 20 1015 35 9000 2.1 290 06:27 16.10.2019
104 Clear 21 1014 30 10000 2.1 290 04:24 16.10.2019
105 Clear 20 1014 37 10000 2.6 320 02:50 16.10.2019
106 Clear 20 1014 35 10000 2.6 360 01:20 16.10.2019
107 Clear 21 1015 32 10000 3.6 330 00:58 16.10.2019
108 Clear 21 1015 25 10000 2.1 290 00:39 16.10.2019
109 Clear 24 1014 25 10000 2.1 330 23:58 15.10.2019
110 Clear 24 1014 25 10000 2.1 330 23:38 15.10.2019
111 Clear 24 1014 25 10000 2.1 330 23:19 15.10.2019
112 Clear 23 1014 23 10000 3.1 320 22:55 15.10.2019
113 Clear 23 1014 23 10000 3.1 320 22:37 15.10.2019
114 Clear 23 1014 23 10000 3.1 320 22:18 15.10.2019
115 Clear 23 1014 23 10000 3.1 320 22:18 15.10.2019
116 Clear 24 1014 22 10000 1.5 290 21:54 15.10.2019
117 Clear 24 1014 22 10000 1.5 290 21:36 15.10.2019
118 Clear 24 1014 22 10000 1.5 290 21:18 15.10.2019
119 Clear 26 1014 20 10000 3.6 270 20:54 15.10.2019
120 Clear 26 1014 20 10000 3.6 270 20:54 15.10.2019
121 Clear 26 1014 20 10000 3.6 270 20:54 15.10.2019
122 Clear 26 1014 20 10000 3.6 270 20:36 15.10.2019
123 Clear 26 1014 20 10000 3.6 270 20:18 15.10.2019
124 Clear 27 1014 20 10000 3.1 250 19:41 15.10.2019
125 Clear 27 1014 20 10000 3.1 250 19:20 15.10.2019
126 Clear 27 1014 20 10000 3.1 250 19:20 15.10.2019
127 Clear 27 1014 20 10000 3.1 250 18:57 15.10.2019
128 Clear 29 1014 16 10000 2.1 260 18:39 15.10.2019
129 Clear 29 1014 16 10000 2.1 260 18:20 15.10.2019
130 Clear 30 1014 18 10000 2.6 260 17:43 15.10.2019
131 Clear 30 1014 18 10000 2.6 260 17:43 15.10.2019
132 Clear 30 1014 18 10000 2.6 260 17:21 15.10.2019
133 Clear 33 1014 17 10000 2.6 260 16:59 15.10.2019
134 Clear 34 1014 14 10000 4.6 250 16:41 15.10.2019
135 Clear 34 1014 14 10000 4.6 250 16:21 15.10.2019
136 Clear 36 1014 14 10000 2.6 350 15:56 15.10.2019
137 Clear 36 1014 14 10000 2.6 350 15:38 15.10.2019
138 Clouds 36 1014 14 10000 2.6 350 15:19 15.10.2019
139 -273 0 0 0 0 0 14:55 15.10.2019
140 Clouds 37 1014 14 10000 3.6 360 14:36 15.10.2019
141 Clouds 37 1014 14 10000 3.6 360 14:18 15.10.2019
142 Clouds 37 1015 13 10000 5.1 310 13:43 15.10.2019
143 Clouds 37 1015 13 10000 5.1 310 13:20 15.10.2019
144 Clouds 35 1015 15 10000 4.6 310 12:56 15.10.2019
145 Clouds 35 1015 15 10000 4.6 310 12:37 15.10.2019
146 Clouds 35 1015 15 10000 4.6 310 12:18 15.10.2019
147 Clouds 35 1016 17 10000 4.6 340 11:42 15.10.2019
148 Clouds 35 1016 17 10000 4.6 340 11:42 15.10.2019
149 Clouds 35 1016 17 10000 4.6 340 11:20 15.10.2019
150 Clouds 34 1016 16 10000 4.1 330 10:55 15.10.2019
151 Clear 33 1016 19 10000 4.1 310 10:37 15.10.2019
152 Clear 33 1016 19 10000 4.1 310 10:18 15.10.2019
153 Clear 29 1017 23 10000 3.6 300 09:40 15.10.2019
154 Clear 29 1017 23 10000 3.6 300 09:40 15.10.2019
155 Clear 29 1017 23 10000 3.6 300 09:21 15.10.2019
156 Clear 29 1017 23 10000 3.6 300 08:58 15.10.2019
157 Clear 29 1017 23 10000 3.6 300 08:58 15.10.2019
158 Clear 27 1017 24 10000 4.1 310 08:40 15.10.2019
159 Clear 27 1017 24 10000 4.1 310 08:20 15.10.2019
160 Clear 27 1017 24 10000 4.1 310 08:19 15.10.2019
161 Clear 24 1017 25 10000 3.6 280 07:43 15.10.2019
162 Clear 24 1017 25 10000 3.6 280 07:22 15.10.2019
163 Clear 20 1016 30 10000 3.6 310 06:57 15.10.2019
164 Clear 20 1016 30 10000 3.6 310 06:39 15.10.2019
165 Clouds 21 1016 30 10000 3.1 320 05:56 15.10.2019
166 Clear 19 1015 28 10000 3.6 290 05:36 15.10.2019
167 Clear 19 1015 30 10000 3.6 310 04:48 15.10.2019
168 Clear 19 1015 30 10000 3.6 310 04:19 15.10.2019
169 Clear 19 1015 32 10000 3.1 320 03:35 15.10.2019
170 Clear 19 1015 32 10000 3.1 320 03:35 15.10.2019
171 Clear 22 1015 36 10000 4.1 290 01:57 15.10.2019
172 Clear 22 1015 36 10000 4.1 290 01:39 15.10.2019
173 Clear 23 1015 38 10000 3.6 270 00:59 15.10.2019
174 Clear 23 1015 38 10000 3.6 270 00:25 15.10.2019
175 Clear 25 1015 31 10000 3.6 270 23:59 14.10.2019
176 Clear 25 1015 31 10000 3.6 270 23:37 14.10.2019
177 Clear 25 1015 31 10000 3.6 270 23:37 14.10.2019
178 Clear 25 1015 31 10000 3.6 270 23:18 14.10.2019
179 Clear 26 1016 27 10000 1 0 22:39 14.10.2019
180 Clear 26 1016 27 10000 1 0 22:21 14.10.2019
181 Clear 25 1016 27 10000 2.1 270 21:58 14.10.2019
182 Clear 25 1016 27 10000 2.1 270 21:40 14.10.2019
183 Clear 25 1016 27 10000 2.1 270 21:21 14.10.2019
184 Clear 27 1016 24 10000 3.6 270 20:58 14.10.2019
185 Clear 27 1016 24 10000 3.6 270 20:38 14.10.2019
186 Clear 27 1016 24 10000 3.6 270 20:38 14.10.2019
187 Clear 27 1016 24 10000 3.6 270 20:19 14.10.2019
188 -273 0 0 0 0 0 19:55 14.10.2019
189 -273 0 0 0 0 0 19:54 14.10.2019
190 Clear 27 1015 24 10000 2.6 270 19:36 14.10.2019
191 Clear 27 1015 24 10000 2.6 270 19:18 14.10.2019
192 Clear 29 1015 22 10000 3.1 270 18:54 14.10.2019
193 Clear 29 1015 22 10000 3.1 270 18:36 14.10.2019
194 Clear 29 1015 22 10000 3.1 270 18:18 14.10.2019
195 Haze 31 1015 20 10000 2.1 270 17:41 14.10.2019
196 Haze 31 1015 20 10000 2.1 270 17:22 14.10.2019
197 Clear 34 1015 17 10000 4.6 240 16:54 14.10.2019
198 Clear 34 1015 17 10000 4.6 240 16:36 14.10.2019
199 Clear 34 1015 17 10000 4.6 240 16:18 14.10.2019
200 Clear 37 1015 13 10000 5.1 270 15:40 14.10.2019
201 Clear 37 1015 13 10000 5.1 270 15:21 14.10.2019
202 Clear 37 1015 17 10000 5.1 260 14:44 14.10.2019
203 Clear 37 1015 17 10000 5.1 260 14:44 14.10.2019
204 Clear 37 1015 17 10000 5.1 260 14:25 14.10.2019
205 Clear 37 1015 17 10000 4.6 260 13:58 14.10.2019
206 -273 0 0 0 0 0 13:40 14.10.2019
207 Clear 37 1015 17 10000 4.6 260 13:21 14.10.2019
208 Clear 36 1016 19 10000 3.6 270 12:42 14.10.2019
209 Clear 36 1016 19 10000 3.6 270 12:21 14.10.2019
210 Clear 36 1016 23 10000 4.6 300 11:55 14.10.2019
211 Clear 36 1016 23 10000 4.6 300 11:54 14.10.2019
212 Clear 36 1016 23 10000 4.6 300 11:36 14.10.2019
213 Clear 36 1016 23 10000 4.6 300 11:18 14.10.2019
214 Clear 34 1017 27 10000 3.1 300 10:43 14.10.2019
215 Clear 34 1017 27 10000 3.1 300 10:21 14.10.2019
216 Clear 31 1017 33 10000 2.6 330 09:59 14.10.2019
217 Clear 31 1017 33 10000 2.6 330 09:38 14.10.2019
218 Clear 31 1017 33 10000 2.6 330 09:19 14.10.2019
219 Clear 28 1017 34 10000 3.1 330 08:47 14.10.2019
220 Clear 28 1017 34 10000 3.1 330 08:23 14.10.2019
221 Clear 24 1016 38 10000 3.6 320 07:44 14.10.2019
222 Clear 24 1016 38 10000 3.6 320 07:21 14.10.2019
223 Clear 21 1016 43 10000 3.6 310 06:55 14.10.2019
224 Clear 21 1016 43 10000 3.6 310 06:27 14.10.2019
225 Clear 20 1015 49 10000 4.1 310 05:52 14.10.2019
226 Clear 21 1015 46 10000 3.1 300 04:53 14.10.2019
227 Clear 21 1015 49 10000 3.6 310 03:49 14.10.2019
228 Clear 21 1015 49 10000 3.6 310 03:22 14.10.2019
229 Clear 23 1015 44 10000 2.6 310 01:52 14.10.2019
230 Clear 23 1015 44 10000 2.6 310 01:18 14.10.2019
231 Clear 25 1015 44 10000 2.1 300 00:40 14.10.2019
232 Clear 25 1015 44 10000 2.1 300 00:18 14.10.2019
233 Clear 23 1014 44 10000 2.1 300 23:40 13.10.2019
234 Clear 23 1014 44 10000 2.1 300 23:19 13.10.2019
235 Clear 26 1014 41 10000 2.6 320 22:55 13.10.2019
236 Clear 26 1014 41 10000 2.6 320 22:37 13.10.2019
237 Clear 26 1014 41 10000 2.6 320 22:19 13.10.2019
238 Clear 28 1014 39 10000 3.6 310 21:55 13.10.2019
239 Clear 28 1014 39 10000 3.6 310 21:36 13.10.2019
240 Clear 28 1014 39 10000 3.6 310 21:18 13.10.2019
241 Clear 28 1014 39 10000 3.6 310 21:18 13.10.2019
242 Clear 28 1014 39 10000 3.6 310 21:18 13.10.2019
243 Clear 29 1014 35 10000 3.6 300 20:55 13.10.2019
244 Clear 29 1014 35 10000 3.6 300 20:37 13.10.2019
245 Clear 29 1014 35 10000 3.6 300 20:18 13.10.2019
246 -273 0 0 0 0 0 19:54 13.10.2019
247 Clear 29 1014 32 10000 3.1 310 19:36 13.10.2019
248 Clear 29 1014 32 10000 3.1 310 19:18 13.10.2019
249 Clear 32 1013 29 10000 2.6 320 18:39 13.10.2019
250 Clear 34 1013 29 10000 2.6 320 18:20 13.10.2019
251 Clear 34 1013 29 10000 2.6 320 18:20 13.10.2019
252 Clear 34 1013 29 10000 2.1 320 17:59 13.10.2019
253 Clear 34 1013 29 10000 2.1 320 17:41 13.10.2019
254 Clear 34 1013 29 10000 2.1 320 17:22 13.10.2019
255 Clear 37 1012 23 10000 3.1 310 16:43 13.10.2019
256 Clear 37 1012 23 10000 3.1 310 16:19 13.10.2019
257 Clear 38 1012 19 10000 3.6 340 15:57 13.10.2019
258 Clear 38 1012 19 10000 3.6 340 15:57 13.10.2019
259 Clear 38 1012 19 10000 3.6 340 15:39 13.10.2019
260 Clear 39 1012 19 10000 3.6 340 15:20 13.10.2019
261 Clear 39 1012 21 10000 3.6 350 14:58 13.10.2019
262 Clear 39 1012 21 10000 3.6 350 14:39 13.10.2019
263 Clear 39 1012 21 10000 3.6 350 14:20 13.10.2019
264 Clear 38 1012 23 10000 3.6 340 13:55 13.10.2019
265 Clear 38 1012 23 10000 3.6 340 13:37 13.10.2019
266 Clear 38 1012 23 10000 3.6 340 13:18 13.10.2019
267 Clouds 37 1012 23 10000 3.1 340 12:55 13.10.2019
268 Clouds 37 1012 23 10000 3.1 340 12:55 13.10.2019
269 Clouds 37 1012 23 10000 3.1 340 12:36 13.10.2019
270 -273 0 0 0 0 0 12:18 13.10.2019
271 Clouds 37 1013 25 10000 3.6 0 11:55 13.10.2019
272 Clouds 37 1013 25 10000 3.6 0 11:36 13.10.2019
273 Clouds 37 1013 25 10000 3.6 0 11:18 13.10.2019
274 Haze 35 1013 28 10000 2.6 340 10:41 13.10.2019
275 Haze 35 1013 28 10000 2.6 340 10:22 13.10.2019
276 Dust 33 1014 24 9000 7.2 50 09:40 13.10.2019
277 Dust 32 1014 24 9000 7.2 50 09:21 13.10.2019
278 Clouds 31 1013 29 10000 3.1 20 08:57 13.10.2019
279 Clouds 31 1013 29 10000 3.1 20 08:38 13.10.2019
280 Clouds 31 1013 29 10000 3.1 20 08:19 13.10.2019
281 Rain 27 1012 39 10000 3.1 20 07:46 13.10.2019
282 Rain 25 1012 56 10000 2.6 330 06:59 13.10.2019
283 Rain 25 1012 56 10000 2.6 330 06:40 13.10.2019
284 Rain 25 1012 56 10000 4.1 310 05:34 13.10.2019
285 Clouds 24 1011 53 10000 4.1 310 04:46 13.10.2019
286 Clear 24 1010 47 10000 3.1 310 03:40 13.10.2019
287 Clear 24 1010 53 10000 3.1 320 02:39 13.10.2019
288 Clear 23 1010 47 10000 3.1 330 01:53 13.10.2019
289 Clear 23 1010 47 10000 3.1 330 01:26 13.10.2019
290 Clear 23 1010 47 10000 3.1 330 01:26 13.10.2019
291 Clear 23 1010 50 10000 3.1 320 00:46 13.10.2019
292 Clear 23 1010 50 10000 3.1 320 00:21 13.10.2019
293 Clear 25 1010 44 10000 2.1 360 23:55 12.10.2019
294 Clear 25 1010 44 10000 2.1 360 23:36 12.10.2019
295 Clear 25 1010 44 10000 2.1 360 23:18 12.10.2019
296 Clear 28 1010 42 10000 1.5 30 22:56 12.10.2019
297 Clear 28 1010 42 10000 1.5 30 22:37 12.10.2019
298 Clear 28 1010 42 10000 1.5 30 22:19 12.10.2019
299 Clear 28 1010 39 10000 3.6 10 21:42 12.10.2019
300 Clear 28 1010 39 10000 3.6 10 21:24 12.10.2019
301 Clear 29 1010 35 10000 2.1 100 20:58 12.10.2019
302 Clear 29 1010 35 10000 2.1 100 20:39 12.10.2019
303 Clear 29 1010 35 10000 2.1 100 20:21 12.10.2019
304 Clouds 30 1009 29 10000 4.6 150 19:37 12.10.2019
305 Clouds 30 1009 29 10000 4.6 150 19:19 12.10.2019
306 Thunderstorm 31 1009 31 10000 5.1 80 18:56 12.10.2019
307 Thunderstorm 31 1009 31 10000 5.1 80 18:37 12.10.2019
308 Thunderstorm 31 1009 31 10000 5.1 80 18:19 12.10.2019
309 Rain 33 1010 26 6000 5.1 40 17:42 12.10.2019
310 Rain 33 1010 26 6000 5.1 40 17:19 12.10.2019
311 Dust 33 1010 26 5000 9.8 10 16:54 12.10.2019
312 Dust 33 1010 26 5000 9.8 10 16:36 12.10.2019
313 Dust 33 1010 26 5000 9.8 10 16:18 12.10.2019
314 Rain 34 1010 24 8000 9.3 360 15:43 12.10.2019
315 Dust 34 1010 24 8000 9.3 360 15:23 12.10.2019
316 Dust 35 1010 23 9000 7.7 10 14:43 12.10.2019
317 Dust 35 1010 23 9000 7.7 10 14:22 12.10.2019
318 Dust 36 1010 20 10000 5.7 340 13:58 12.10.2019
319 Dust 36 1010 20 10000 5.7 340 13:40 12.10.2019
320 Dust 36 1010 20 10000 5.7 340 13:21 12.10.2019
321 Dust 37 1010 18 10000 4.1 350 12:39 12.10.2019
322 Dust 37 1010 18 10000 4.1 350 12:21 12.10.2019
323 Haze 37 1010 21 10000 4.6 350 11:58 12.10.2019
324 Haze 37 1010 21 10000 4.6 350 11:39 12.10.2019
325 Haze 37 1010 21 10000 4.6 350 11:39 12.10.2019
326 Haze 37 1010 21 10000 4.6 350 11:20 12.10.2019
327 Haze 36 1011 23 10000 4.1 330 10:43 12.10.2019
328 Haze 36 1011 23 10000 4.1 330 10:23 12.10.2019
329 Haze 34 1011 23 10000 3.1 340 09:58 12.10.2019
330 Haze 34 1011 23 10000 3.1 340 09:39 12.10.2019
331 Haze 34 1011 23 10000 3.1 340 09:21 12.10.2019
332 Haze 32 1011 29 8000 1.5 30 08:57 12.10.2019
333 Haze 32 1011 29 8000 1.5 30 08:38 12.10.2019
334 Haze 32 1011 29 8000 1.5 30 08:19 12.10.2019
335 Haze 28 1010 39 8000 1 0 07:34 12.10.2019
336 Haze 26 1010 41 10000 1.5 250 06:56 12.10.2019
337 Haze 23 1010 44 10000 2.1 290 05:47 12.10.2019
338 Haze 23 1010 44 10000 2.1 290 05:23 12.10.2019
339 Clear 25 1009 47 10000 2.1 150 04:24 12.10.2019
340 Clear 24 1009 50 10000 1.08 341.599 03:31 12.10.2019
341 Clouds 25 1008 47 6000 1 0 01:45 12.10.2019
342 Clouds 25 1008 47 6000 1 0 01:21 12.10.2019
343 Clouds 26 1008 41 9000 0.5 0 00:42 12.10.2019
344 Clouds 28 1009 34 9000 1.5 160 23:59 11.10.2019
345 Clouds 28 1009 34 9000 1.5 160 23:40 11.10.2019
346 Clouds 28 1009 34 9000 1.5 160 23:20 11.10.2019
347 Clouds 30 1009 30 9000 2.6 210 22:41 11.10.2019
348 Clouds 29 1009 30 9000 2.6 210 22:21 11.10.2019
349 Smoke 29 1009 35 5000 1.5 150 21:57 11.10.2019
350 Smoke 29 1009 35 5000 1.5 150 21:39 11.10.2019
351 Smoke 29 1009 51 5000 2.1 80 21:20 11.10.2019
352 Clear 30 1009 31 6000 1.5 120 20:44 11.10.2019
353 Clear 30 1009 31 6000 1.5 120 20:26 11.10.2019
354 Clear 31 1009 27 10000 1.5 140 19:58 11.10.2019
355 Clear 31 1009 27 10000 1.5 140 19:39 11.10.2019
356 Clear 31 1009 27 10000 1.5 140 19:39 11.10.2019
357 Clear 31 1009 27 10000 1.5 140 19:18 11.10.2019
358 Clear 33 1009 29 10000 1.5 20 18:59 11.10.2019
359 Clear 33 1009 29 10000 1.5 20 18:38 11.10.2019
360 Clear 33 1009 29 10000 1.5 20 18:19 11.10.2019
361 Clear 33 1009 29 10000 1.5 20 18:19 11.10.2019
362 Clear 33 1009 29 10000 1.5 20 18:19 11.10.2019
363 Clear 35 1009 24 10000 1 340 17:58 11.10.2019
364 Clear 35 1009 24 10000 1 340 17:38 11.10.2019
365 Clear 35 1009 24 10000 1 340 17:19 11.10.2019
366 Clear 38 1009 18 10000 1.5 340 16:58 11.10.2019
367 Clear 38 1009 18 10000 1.5 340 16:39 11.10.2019
368 Clear 38 1009 18 10000 1.5 340 16:19 11.10.2019
369 Clear 40 1010 17 10000 2.6 350 15:41 11.10.2019
370 Clear 40 1010 17 10000 2.6 350 15:21 11.10.2019
371 Clear 40 1010 16 10000 2.1 330 14:58 11.10.2019
372 Clear 40 1010 16 10000 2.1 330 14:39 11.10.2019
373 Clear 40 1010 16 10000 2.1 330 14:20 11.10.2019
374 Clear 41 1010 14 10000 2.6 320 13:45 11.10.2019
375 Clear 41 1010 14 10000 2.6 320 13:45 11.10.2019
376 Clear 41 1010 14 10000 2.6 320 13:25 11.10.2019
377 Clear 40 1011 15 10000 2.6 320 12:57 11.10.2019
378 Clear 40 1011 15 10000 2.6 320 12:39 11.10.2019
379 Clear 40 1011 15 10000 2.6 320 12:20 11.10.2019
380 Haze 39 1012 14 10000 3.1 330 11:58 11.10.2019
381 Haze 39 1012 14 10000 3.1 330 11:38 11.10.2019
382 Haze 39 1012 14 10000 3.1 330 11:38 11.10.2019
383 Haze 39 1012 14 10000 3.1 330 11:20 11.10.2019
384 Haze 37 1012 18 10000 2.1 320 10:55 11.10.2019
385 Haze 37 1012 18 10000 2.1 320 10:36 11.10.2019
386 Haze 37 1012 18 10000 2.1 320 10:18 11.10.2019
387 Haze 37 1012 18 10000 2.1 320 10:18 11.10.2019
388 Haze 35 1012 23 10000 2.1 350 09:41 11.10.2019
389 Haze 35 1012 23 10000 2.1 350 09:21 11.10.2019
390 Haze 31 1013 25 9000 2.6 270 08:57 11.10.2019
391 Haze 31 1013 25 9000 2.6 270 08:38 11.10.2019
392 Haze 31 1013 25 9000 2.6 270 08:20 11.10.2019
393 Haze 27 1013 28 10000 2.6 310 07:52 11.10.2019
394 Haze 27 1013 28 10000 2.6 310 07:33 11.10.2019
395 Haze 25 1012 38 10000 2.6 300 06:50 11.10.2019
396 Haze 25 1012 38 10000 2.6 300 06:25 11.10.2019
397 Haze 23 1011 38 10000 3.1 280 05:47 11.10.2019
398 Haze 23 1011 38 10000 3.1 280 05:29 11.10.2019
399 Haze 24 1011 41 10000 2.6 320 04:58 11.10.2019
400 Haze 23 1011 43 10000 2.6 320 03:27 11.10.2019
401 Clear 26 1011 39 10000 2.6 320 01:18 11.10.2019
402 Clear 25 1011 44 10000 1.5 310 00:31 11.10.2019
403 Clear 25 1011 41 10000 2.1 300 23:58 10.10.2019
404 Clear 25 1011 41 10000 2.1 300 23:40 10.10.2019
405 Clear 25 1011 41 10000 2.1 300 23:19 10.10.2019
406 Clear 28 1011 39 10000 1.5 330 22:56 10.10.2019
407 Clear 28 1011 39 10000 1.5 330 22:36 10.10.2019
408 Haze 29 1011 39 10000 1.5 330 22:18 10.10.2019
409 Haze 29 1011 37 10000 3.1 320 21:42 10.10.2019
410 Haze 29 1011 37 10000 3.1 320 21:22 10.10.2019
411 Haze 29 1011 39 8000 2.6 310 20:58 10.10.2019
412 Haze 29 1011 39 8000 2.6 310 20:40 10.10.2019
413 Haze 29 1011 39 8000 2.6 310 20:20 10.10.2019
414 Haze 33 1011 35 10000 1.5 300 19:57 10.10.2019
415 Haze 33 1011 35 10000 1.5 300 19:39 10.10.2019
416 Haze 33 1011 35 10000 1.5 300 19:19 10.10.2019
417 Haze 33 1011 32 10000 1.5 340 18:42 10.10.2019
418 Haze 33 1011 32 10000 1.5 340 18:21 10.10.2019
419 Haze 34 1011 30 10000 2.1 360 17:59 10.10.2019
420 Haze 34 1011 30 10000 2.1 360 17:40 10.10.2019
421 Haze 34 1011 30 10000 2.1 360 17:19 10.10.2019
422 Clear 38 1010 27 10000 3.1 350 16:57 10.10.2019
423 Clear 38 1010 27 10000 3.1 350 16:38 10.10.2019
424 Haze 40 1010 27 10000 3.1 350 16:20 10.10.2019
425 Haze 40 1011 22 10000 2.6 350 15:43 10.10.2019
426 Haze 40 1011 22 10000 2.6 350 15:23 10.10.2019
427 Haze 40 1011 23 10000 3.6 310 14:59 10.10.2019
428 Haze 40 1011 23 10000 3.6 310 14:37 10.10.2019
429 Haze 40 1011 23 10000 3.6 310 14:19 10.10.2019
430 Haze 40 1011 21 10000 3.6 330 13:58 10.10.2019
431 Haze 40 1011 21 10000 3.6 330 13:39 10.10.2019
432 Haze 40 1011 21 10000 3.6 330 13:18 10.10.2019
433 Clear 39 1012 26 10000 2.6 350 12:43 10.10.2019
434 Clear 39 1012 26 10000 2.6 350 12:21 10.10.2019
435 Clear 39 1013 24 10000 3.1 330 11:58 10.10.2019
436 Clear 39 1013 24 10000 3.1 330 11:40 10.10.2019
437 Clear 39 1013 24 10000 3.1 330 11:20 10.10.2019
438 Clear 38 1013 29 9000 3.1 340 10:58 10.10.2019
439 Clear 38 1013 29 9000 3.1 340 10:40 10.10.2019
440 Clear 38 1013 29 9000 3.1 340 10:21 10.10.2019
441 Clear 37 1014 32 9000 3.6 330 09:41 10.10.2019
442 Clear 37 1014 32 9000 3.6 330 09:41 10.10.2019
443 Clear 37 1014 32 9000 3.6 330 09:23 10.10.2019
444 Clear 34 1014 43 8000 2.1 340 08:59 10.10.2019
445 Clear 34 1014 43 8000 2.1 340 08:40 10.10.2019
446 Clear 34 1014 43 8000 2.1 340 08:21 10.10.2019
447 Clear 31 1014 48 9000 2.1 340 07:57 10.10.2019
448 Clear 31 1014 48 9000 2.1 340 07:36 10.10.2019
449 Clear 31 1014 48 9000 2.1 340 07:18 10.10.2019
450 Clear 26 1013 61 10000 2.1 340 06:39 10.10.2019
451 Haze 26 1013 64 10000 2.1 340 05:56 10.10.2019
452 Haze 26 1013 64 10000 2.1 340 05:21 10.10.2019
453 Haze 27 1012 54 10000 1.5 280 04:36 10.10.2019
454 Clear 26 1012 54 10000 1.5 300 02:42 10.10.2019
455 Clear 28 1013 51 10000 3.1 240 01:38 10.10.2019
456 Clear 28 1013 51 10000 3.1 240 01:19 10.10.2019
457 Clear 28 1013 51 10000 1.5 190 00:41 10.10.2019
458 Clear 29 1013 48 10000 4.1 210 23:57 09.10.2019
459 Clear 29 1013 48 10000 4.1 210 23:36 09.10.2019
460 Clear 29 1013 48 10000 4.1 210 23:18 09.10.2019
461 Clear 31 1013 45 10000 1.5 200 22:41 09.10.2019
462 Haze 31 1013 45 10000 1.5 200 22:22 09.10.2019
463 Haze 31 1013 43 10000 1.5 190 21:58 09.10.2019
464 Haze 31 1013 43 10000 1.5 190 21:39 09.10.2019
465 Haze 31 1013 43 10000 1.5 190 21:39 09.10.2019
466 Haze 31 1013 43 10000 1.5 190 21:19 09.10.2019
467 Haze 30 1013 45 10000 1.5 30 20:55 09.10.2019
468 Haze 30 1013 45 10000 1.5 30 20:37 09.10.2019
469 Haze 33 1013 45 10000 1.5 30 20:18 09.10.2019
470 Clear 31 1013 43 10000 1 160 19:45 09.10.2019
471 Clear 31 1013 43 10000 2.6 40 19:23 09.10.2019
472 Clear 33 1012 41 10000 1 40 18:56 09.10.2019
473 Clear 33 1012 41 10000 1 40 18:37 09.10.2019
474 Haze 34 1012 41 10000 1 40 18:18 09.10.2019
475 Haze 34 1012 36 10000 2.6 140 17:54 09.10.2019
476 Haze 34 1012 36 10000 2.6 140 17:36 09.10.2019
477 Haze 34 1012 36 10000 2.6 140 17:18 09.10.2019
478 Haze 37 1012 30 10000 2.1 130 16:40 09.10.2019
479 Haze 37 1012 30 10000 2.1 130 16:21 09.10.2019
480 Haze 37 1012 30 10000 2.1 130 16:21 09.10.2019
481 Haze 38 1012 29 10000 3.1 100 15:57 09.10.2019
482 Haze 38 1012 29 10000 3.1 100 15:57 09.10.2019
483 Haze 38 1012 29 10000 3.1 100 15:39 09.10.2019
484 Haze 38 1012 29 10000 3.1 100 15:19 09.10.2019
485 Clouds 41 1012 15 0 3.97 274.764 14:56 09.10.2019
486 Clouds 41 1012 15 0 3.97 274.764 14:37 09.10.2019
487 Haze 40 1013 28 10000 2.6 160 14:18 09.10.2019
488 Haze 40 1013 28 10000 2.6 160 13:39 09.10.2019
489 Haze 40 1013 28 10000 2.6 160 13:20 09.10.2019
490 Haze 39 1014 27 10000 3.1 110 12:57 09.10.2019
491 Haze 39 1014 27 10000 3.1 110 12:38 09.10.2019
492 Haze 39 1014 27 10000 3.1 110 12:20 09.10.2019
493 Haze 38 1014 29 10000 2.6 90 11:55 09.10.2019
494 Haze 38 1014 29 10000 2.6 90 11:36 09.10.2019
495 Haze 38 1014 29 10000 2.6 90 11:18 09.10.2019
496 Clear 37 1015 32 10000 2.6 60 10:43 09.10.2019
497 Clear 37 1015 32 10000 2.6 60 10:21 09.10.2019
498 Clear 35 1016 36 10000 1.5 0 09:57 09.10.2019
499 Clear 35 1016 36 10000 1.5 0 09:38 09.10.2019
500 Clear 35 1016 36 10000 1.5 0 09:18 09.10.2019
501 Clear 32 1016 38 10000 1 0 08:40 09.10.2019
502 Clear 32 1016 38 10000 1 0 08:21 09.10.2019
503 Smoke 30 1016 40 7000 0.5 0 07:54 09.10.2019
504 Clouds 30 1016 40 7000 0.5 0 07:36 09.10.2019
505 Clouds 30 1016 40 7000 0.5 0 07:18 09.10.2019
506 Smoke 26 1016 47 9000 0.5 0 06:47 09.10.2019
507 Haze 23 1015 56 9000 1.5 350 05:55 09.10.2019
508 Haze 23 1015 56 9000 1.5 350 05:19 09.10.2019
509 Clear 26 1014 50 10000 1.5 80 03:54 09.10.2019
510 Clear 25 1014 50 10000 2.1 90 02:45 09.10.2019
511 Clear 26 1014 44 10000 2.6 100 01:42 09.10.2019
512 Clear 26 1014 44 10000 2.6 100 01:19 09.10.2019
513 Clear 26 1014 44 10000 2.6 100 01:19 09.10.2019
514 Clear 26 1014 41 10000 1 80 00:56 09.10.2019
515 Clear 26 1014 41 10000 1 80 00:38 09.10.2019
516 Clear 26 1014 41 10000 1 80 00:38 09.10.2019
517 Clear 26 1014 41 10000 1 80 00:19 09.10.2019
518 Clear 28 1015 42 10000 2.1 110 23:39 08.10.2019
519 Clear 28 1015 42 10000 2.1 110 23:18 08.10.2019
520 Clear 28 1014 42 9000 3.6 110 22:56 08.10.2019
521 Clear 28 1014 42 9000 3.6 110 22:38 08.10.2019
522 Clear 30 1014 42 9000 3.6 110 22:19 08.10.2019
523 Clear 30 1015 45 8000 1.5 60 21:57 08.10.2019
524 Clear 30 1015 45 8000 1.5 60 21:38 08.10.2019
525 Clear 30 1015 45 8000 1.5 60 21:18 08.10.2019
526 Haze 30 1015 42 10000 1.5 110 20:55 08.10.2019
527 Haze 30 1015 42 10000 1.5 110 20:37 08.10.2019
528 Haze 30 1015 42 10000 1.5 110 20:37 08.10.2019
529 Haze 30 1015 42 10000 1.5 110 20:18 08.10.2019
530 Haze 31 1014 45 10000 1.5 100 19:56 08.10.2019
531 Haze 31 1014 45 10000 1.5 100 19:36 08.10.2019
532 Haze 31 1014 45 10000 1.5 100 19:18 08.10.2019
533 Haze 33 1014 33 10000 2.1 140 18:45 08.10.2019
534 Haze 33 1014 33 10000 2.1 140 18:25 08.10.2019
535 Clear 35 1013 30 10000 1.5 130 17:58 08.10.2019
536 Clear 35 1013 30 10000 1.5 130 17:39 08.10.2019
537 Clear 35 1013 30 10000 1.5 130 17:20 08.10.2019
538 Clear 38 1013 24 10000 2.1 180 16:56 08.10.2019
539 Clear 38 1013 24 10000 2.1 180 16:56 08.10.2019
540 Clear 38 1013 24 10000 2.1 180 16:56 08.10.2019
541 Clear 38 1013 24 10000 2.1 180 16:37 08.10.2019
542 Clear 38 1013 24 10000 2.1 180 16:18 08.10.2019
543 Clouds 39 1013 22 10000 1 0 15:39 08.10.2019
544 Clouds 39 1013 22 10000 1 0 15:39 08.10.2019
545 Clouds 39 1013 22 10000 1 0 15:20 08.10.2019
546 Clouds 39 1013 22 10000 1 0 15:20 08.10.2019
547 Clear 38 1013 24 10000 3.1 150 14:56 08.10.2019
548 Clear 38 1013 24 10000 3.1 150 14:38 08.10.2019
549 Clear 38 1013 24 10000 3.1 150 14:19 08.10.2019
550 -273 0 0 0 0 0 13:55 08.10.2019
551 Clear 39 1013 22 10000 3.6 140 13:37 08.10.2019
552 Clear 39 1013 22 10000 3.6 140 13:18 08.10.2019
553 Clear 39 1013 22 10000 3.6 140 13:18 08.10.2019
554 Clear 38 1014 22 10000 3.6 140 12:41 08.10.2019
555 Clear 38 1014 22 10000 3.6 140 12:20 08.10.2019
556 Clear 38 1014 22 10000 3.6 140 12:20 08.10.2019
557 Clear 37 1014 27 10000 2.6 140 11:58 08.10.2019
558 Clear 37 1014 27 10000 2.6 140 11:39 08.10.2019
559 Clear 37 1014 27 10000 2.6 140 11:21 08.10.2019
560 Clear 35 1015 30 10000 2.6 120 10:42 08.10.2019
561 Clear 33 1015 30 10000 2.6 120 10:23 08.10.2019
562 Clear 33 1015 33 10000 2.6 110 09:59 08.10.2019
563 Clear 33 1015 33 10000 2.6 110 09:40 08.10.2019
564 Clear 33 1015 33 10000 2.6 110 09:22 08.10.2019
565 Clouds 31 1016 35 10000 3.6 110 08:45 08.10.2019
566 Clouds 31 1016 35 10000 3.6 110 08:25 08.10.2019
567 Clear 28 1015 37 10000 3.1 90 07:57 08.10.2019
568 Clear 28 1015 37 10000 3.1 90 07:38 08.10.2019
569 Clear 28 1015 37 10000 3.1 90 07:19 08.10.2019
570 Haze 25 1015 38 4000 2.6 60 06:45 08.10.2019
571 Haze 26 1015 38 4000 2.6 60 06:21 08.10.2019
572 Haze 24 1015 41 6000 2.6 50 05:43 08.10.2019
573 Haze 24 1015 41 6000 2.6 50 05:43 08.10.2019
574 Haze 24 1015 41 6000 2.6 50 05:19 08.10.2019
575 Haze 25 1014 36 9000 2.6 80 03:31 08.10.2019
576 Clouds 24 1012 21 0 2.69 47.623 02:43 08.10.2019
577 Clouds 24 1012 21 0 2.69 47.623 02:25 08.10.2019
578 Clouds 24 1012 21 0 2.69 47.623 01:41 08.10.2019
579 Clouds 24 1013 44 6000 1 330 00:56 08.10.2019
580 Clouds 24 1013 44 6000 1 330 00:25 08.10.2019
581 Clouds 27 1013 36 8000 0.5 0 23:56 07.10.2019
582 Clouds 27 1013 36 8000 0.5 0 23:37 07.10.2019
583 Clouds 27 1013 36 8000 0.5 0 23:19 07.10.2019
584 Clouds 27 1013 42 9000 0.5 10 22:54 07.10.2019
585 Clouds 27 1013 42 9000 0.5 10 22:54 07.10.2019
586 Clouds 27 1013 42 9000 0.5 10 22:36 07.10.2019
587 Clouds 29 1013 42 9000 0.5 10 22:18 07.10.2019
588 Clouds 29 1012 34 8000 1 90 21:54 07.10.2019
589 Clouds 29 1012 34 8000 1 90 21:36 07.10.2019
590 Clear 29 1012 34 8000 1 90 21:18 07.10.2019
591 Clear 29 1012 34 8000 1 90 21:18 07.10.2019
592 Clear 29 1012 32 10000 1.5 20 20:54 07.10.2019
593 Clear 29 1012 32 10000 1.5 20 20:36 07.10.2019
594 Clear 29 1012 32 10000 1.5 20 20:18 07.10.2019
595 Haze 31 1012 30 10000 1 0 19:41 07.10.2019
596 Haze 31 1012 30 10000 1 0 19:21 07.10.2019
597 Haze 31 1011 30 10000 1.5 340 18:59 07.10.2019
598 Haze 31 1011 30 10000 1.5 340 18:59 07.10.2019
599 Haze 31 1011 30 10000 1.5 340 18:40 07.10.2019
600 Haze 31 1011 30 10000 1.5 340 18:19 07.10.2019
601 Haze 34 1011 26 10000 1 0 17:56 07.10.2019
602 Haze 34 1011 26 10000 1 0 17:38 07.10.2019
603 Haze 34 1011 26 10000 1 0 17:18 07.10.2019
604 Haze 36 1010 20 10000 2.6 0 16:44 07.10.2019
605 Haze 36 1010 20 10000 2.6 0 16:25 07.10.2019
606 Clear 37 1010 18 10000 2.1 290 15:57 07.10.2019
607 Clear 37 1010 18 10000 2.1 290 15:38 07.10.2019
608 Clear 37 1010 18 10000 2.1 290 15:20 07.10.2019
609 Haze 37 1010 17 10000 3.1 230 14:41 07.10.2019
610 Haze 37 1010 17 10000 3.1 230 14:23 07.10.2019
611 Haze 37 1010 19 10000 4.6 210 13:45 07.10.2019
612 Haze 37 1010 19 10000 4.6 210 13:21 07.10.2019
613 Clear 36 1010 22 10000 5.1 200 12:58 07.10.2019
614 Clear 36 1010 22 10000 5.1 200 12:39 07.10.2019
615 Clear 36 1010 22 10000 5.1 200 12:20 07.10.2019
616 Haze 35 1011 23 10000 2.6 190 11:59 07.10.2019
617 Haze 35 1011 23 10000 2.6 190 11:40 07.10.2019
618 Haze 35 1011 23 10000 2.6 190 11:40 07.10.2019
619 Haze 35 1011 23 10000 2.6 190 11:21 07.10.2019
620 Haze 34 1011 24 10000 3.1 170 10:56 07.10.2019
621 Haze 34 1011 24 10000 3.1 170 10:37 07.10.2019
622 Haze 34 1011 24 10000 3.1 170 10:19 07.10.2019
623 Haze 33 1011 19 10000 3.6 130 09:38 07.10.2019
624 Haze 33 1011 19 10000 3.6 130 09:20 07.10.2019
625 Haze 30 1011 25 10000 2.6 130 08:44 07.10.2019
626 Haze 30 1011 25 10000 2.6 130 08:21 07.10.2019
627 Haze 27 1010 35 6000 1.5 70 07:55 07.10.2019
628 Haze 27 1010 35 6000 1.5 70 07:36 07.10.2019
629 Haze 27 1010 35 6000 1.5 70 07:18 07.10.2019
630 Clear 22 1010 49 10000 1.5 50 06:43 07.10.2019
631 Clear 22 1010 49 10000 1.5 50 06:20 07.10.2019
632 Haze 21 1009 49 10000 1.5 50 05:27 07.10.2019
633 Clear 22 1009 46 10000 0.95 111.251 04:54 07.10.2019
634 Clear 24 1008 39 10000 2.1 220 03:48 07.10.2019
635 Clear 24 1008 39 10000 2.1 220 03:30 07.10.2019
636 Clear 23 1008 49 10000 0.5 0 02:39 07.10.2019
637 Clear 23 1008 49 10000 0.5 0 02:19 07.10.2019
638 Clear 26 1008 36 10000 1.5 200 01:24 07.10.2019
639 Clear 24 1007 44 10000 0.5 220 00:53 07.10.2019
640 Clear 24 1007 44 10000 0.5 220 00:26 07.10.2019
641 Clear 26 1008 39 10000 1 130 23:59 06.10.2019
642 Clear 26 1008 39 10000 1 130 23:40 06.10.2019
643 Clear 26 1008 39 10000 1 130 23:20 06.10.2019
644 Clear 26 1008 34 10000 2.05 316.784 22:57 06.10.2019
645 Clear 26 1008 34 10000 2.05 316.784 22:39 06.10.2019
646 Haze 27 1008 34 10000 2.05 316.784 22:20 06.10.2019
647 Haze 27 1008 34 10000 2.05 316.784 22:20 06.10.2019
648 Haze 27 1008 32 10000 3.1 150 21:55 06.10.2019
649 Haze 27 1008 32 10000 3.1 150 21:37 06.10.2019
650 Haze 27 1008 32 10000 3.1 150 21:19 06.10.2019
651 Haze 29 1007 32 10000 1.5 310 20:56 06.10.2019
652 Haze 29 1007 32 10000 1.5 310 20:38 06.10.2019
653 Haze 29 1007 32 10000 1.5 310 20:19 06.10.2019
654 Haze 29 1007 25 10000 2.1 280 19:56 06.10.2019
655 Haze 29 1007 25 10000 2.1 280 19:37 06.10.2019
656 Haze 29 1007 25 10000 2.1 280 19:18 06.10.2019
657 Clear 30 1007 25 10000 2.1 230 18:56 06.10.2019
658 Clear 30 1007 25 10000 2.1 230 18:56 06.10.2019
659 Clear 30 1007 25 10000 2.1 230 18:37 06.10.2019
660 Clear 30 1007 25 10000 2.1 230 18:18 06.10.2019
661 Haze 32 1007 24 10000 2.6 210 17:43 06.10.2019
662 Haze 32 1007 24 10000 2.6 210 17:20 06.10.2019
663 Haze 35 1007 23 10000 2.1 270 16:56 06.10.2019
664 Haze 35 1007 23 10000 2.1 270 16:38 06.10.2019
665 Rain 35 1007 17 9000 1 0 16:19 06.10.2019
666 Rain 35 1007 19 10000 5.7 290 15:44 06.10.2019
667 Rain 35 1007 19 10000 5.7 290 15:44 06.10.2019
668 Rain 35 1007 19 10000 5.7 290 15:22 06.10.2019
669 Haze 36 1007 17 10000 3.6 280 14:58 06.10.2019
670 Haze 36 1007 17 10000 3.6 280 14:40 06.10.2019
671 Haze 36 1007 17 10000 3.6 280 14:21 06.10.2019
672 Haze 36 1007 18 10000 3.1 300 13:54 06.10.2019
673 Haze 36 1007 18 10000 3.1 300 13:36 06.10.2019
674 Haze 36 1007 18 10000 3.1 300 13:18 06.10.2019
675 Haze 36 1007 19 10000 1.5 0 12:55 06.10.2019
676 Haze 36 1007 19 10000 1.5 0 12:55 06.10.2019
677 Haze 36 1007 19 10000 1.5 0 12:37 06.10.2019
678 Haze 36 1007 19 10000 1.5 0 12:19 06.10.2019
679 Haze 35 1008 19 10000 2.6 0 11:42 06.10.2019
680 Haze 35 1008 19 10000 2.6 0 11:24 06.10.2019
681 Haze 35 1008 19 10000 2.6 0 11:24 06.10.2019
682 Haze 34 1009 21 10000 2.1 260 10:56 06.10.2019
683 Haze 34 1009 21 10000 2.1 260 10:56 06.10.2019
684 Haze 34 1009 21 10000 2.1 260 10:38 06.10.2019
685 Haze 34 1009 21 10000 2.1 260 10:19 06.10.2019
686 Haze 31 1009 25 10000 2.1 290 09:41 06.10.2019
687 Haze 31 1009 25 10000 2.1 290 09:20 06.10.2019
688 Haze 29 1009 30 10000 2.6 290 08:50 06.10.2019
689 Haze 29 1009 30 10000 2.6 290 08:30 06.10.2019
690 Haze 25 1009 39 10000 2.1 250 07:59 06.10.2019
691 Haze 25 1009 39 10000 2.1 250 07:59 06.10.2019
692 Haze 25 1009 39 10000 2.1 250 07:40 06.10.2019
693 Haze 21 1008 46 10000 2.6 260 06:59 06.10.2019
694 Haze 21 1008 49 10000 1.5 270 05:41 06.10.2019
695 Haze 21 1008 49 10000 1.5 270 05:41 06.10.2019
696 Clouds 21 1007 43 10000 1 310 04:44 06.10.2019
697 Clear 23 1006 43 9000 2.1 300 02:56 06.10.2019
698 Clear 23 1006 43 9000 2.1 300 02:34 06.10.2019
699 Clear 22 1006 46 10000 1.5 290 01:50 06.10.2019
700 Clear 22 1006 46 10000 1.5 290 01:31 06.10.2019
701 Clear 22 1006 46 10000 1.5 290 01:31 06.10.2019
702 Clear 22 1006 53 10000 1 290 00:59 06.10.2019
703 Clear 22 1006 53 10000 1 290 00:38 06.10.2019
704 Clear 22 1006 53 10000 1 290 00:38 06.10.2019
705 Clear 22 1006 53 10000 1 290 00:19 06.10.2019
706 Clear 21 1007 49 10000 0.5 180 23:42 05.10.2019
707 Clear 21 1007 49 10000 0.5 180 23:21 05.10.2019
708 Clear 24 1007 41 10000 1 130 22:56 05.10.2019
709 Clear 24 1007 41 10000 1 130 22:37 05.10.2019
710 Clear 26 1007 41 10000 1 130 22:19 05.10.2019
711 Clear 26 1007 36 10000 1 0 21:42 05.10.2019
712 Clear 26 1007 36 10000 0.5 0 21:23 05.10.2019
713 Clear 26 1007 34 10000 1 0 20:58 05.10.2019
714 Clear 26 1007 34 10000 1 0 20:58 05.10.2019
715 Clear 26 1007 34 10000 1 0 20:39 05.10.2019
716 Clear 26 1007 34 10000 1 0 20:19 05.10.2019
717 Clear 27 1007 30 10000 0.5 190 19:56 05.10.2019
718 Clear 27 1007 30 10000 0.5 190 19:37 05.10.2019
719 Clear 27 1007 30 10000 0.5 190 19:18 05.10.2019
720 Clear 29 1007 25 10000 1 0 18:55 05.10.2019
721 Clear 29 1007 25 10000 1 0 18:36 05.10.2019
722 Clear 29 1007 25 10000 1 0 18:18 05.10.2019
723 Clear 31 1007 22 10000 3.1 310 17:42 05.10.2019
724 Clear 31 1007 22 10000 3.1 310 17:21 05.10.2019
725 Haze 35 1007 20 10000 6.2 290 16:55 05.10.2019
726 Haze 35 1007 20 10000 6.2 290 16:37 05.10.2019
727 Haze 35 1007 20 10000 6.2 290 16:18 05.10.2019
728 Clear 36 1007 20 10000 5.7 280 15:55 05.10.2019
729 Clear 36 1007 20 10000 5.7 280 15:37 05.10.2019
730 Clear 36 1007 20 10000 5.7 280 15:18 05.10.2019
731 Clear 37 1007 20 10000 4.6 280 14:42 05.10.2019
732 Clear 37 1007 20 10000 4.6 280 14:23 05.10.2019
733 Clear 37 1007 20 10000 5.7 280 13:44 05.10.2019
734 Clear 37 1007 20 10000 5.7 280 13:26 05.10.2019
735 Haze 36 1008 23 10000 6.2 290 12:58 05.10.2019
736 Haze 36 1008 23 10000 6.2 290 12:40 05.10.2019
737 Haze 36 1008 23 10000 6.2 290 12:19 05.10.2019
738 Haze 35 1009 26 10000 6.2 270 11:41 05.10.2019
739 Haze 35 1009 26 10000 6.2 270 11:41 05.10.2019
740 Haze 35 1009 26 10000 6.2 270 11:20 05.10.2019
741 Haze 33 1009 33 10000 3.6 260 10:57 05.10.2019
742 Haze 33 1009 33 10000 3.6 260 10:38 05.10.2019
743 Haze 33 1009 33 10000 3.6 260 10:38 05.10.2019
744 Haze 33 1009 33 10000 3.6 260 10:19 05.10.2019
745 Haze 33 1009 33 10000 3.6 260 10:19 05.10.2019
746 Haze 31 1010 33 10000 4.1 290 09:40 05.10.2019
747 Haze 31 1010 33 10000 4.1 290 09:22 05.10.2019
748 Haze 28 1010 54 10000 3.1 310 08:42 05.10.2019
749 Haze 28 1010 54 10000 3.1 310 08:23 05.10.2019
750 Clear 26 1010 53 10000 3.6 310 07:59 05.10.2019
751 Clear 26 1010 53 10000 3.6 310 07:59 05.10.2019
752 Clear 26 1010 53 10000 3.6 310 07:39 05.10.2019
753 Clear 26 1010 53 10000 3.6 310 07:20 05.10.2019
754 Clear 21 1009 53 10000 2.6 270 06:52 05.10.2019
755 Clear 21 1009 53 10000 2.6 270 06:52 05.10.2019
756 Clear 21 1009 53 10000 2.6 270 06:20 05.10.2019
757 Clear 22 1009 56 10000 2.1 260 04:46 05.10.2019
758 Clear 21 1008 60 10000 2.1 320 03:32 05.10.2019
759 Clear 22 1009 49 10000 2.1 290 02:26 05.10.2019
760 Clear 23 1009 46 10000 1.5 250 01:26 05.10.2019
761 Clear 22 1009 46 10000 2.6 320 00:48 05.10.2019
762 Clear 22 1009 46 10000 2.6 320 00:48 05.10.2019
763 Clear 22 1009 46 10000 2.6 320 00:48 05.10.2019
764 Clear 22 1009 46 10000 2.6 320 00:27 05.10.2019
765 Clear 23 1010 40 10000 1.5 290 23:56 04.10.2019
766 Clear 23 1010 40 10000 1.5 290 23:56 04.10.2019
767 Clear 23 1010 40 10000 1.5 290 23:37 04.10.2019
768 Clear 23 1010 40 10000 1.5 290 23:18 04.10.2019
769 Clear 24 1010 36 10000 1.5 290 22:42 04.10.2019
770 Clear 26 1010 36 10000 1.5 290 22:24 04.10.2019
771 Clear 26 1010 29 10000 1.5 270 21:59 04.10.2019
772 Clear 26 1010 29 10000 1.5 270 21:40 04.10.2019
773 Clear 26 1010 29 10000 1.5 270 21:22 04.10.2019
774 Clear 26 1010 31 10000 1.5 260 20:58 04.10.2019
775 Clear 26 1010 31 10000 1.5 260 20:40 04.10.2019
776 Clear 26 1010 31 10000 1.5 260 20:22 04.10.2019
777 -273 0 0 0 0 0 19:56 04.10.2019
778 -273 0 0 0 0 0 19:55 04.10.2019
779 -273 0 0 0 0 0 19:55 04.10.2019
780 -273 0 0 0 0 0 19:55 04.10.2019
781 Clear 27 1010 26 10000 2.1 280 19:36 04.10.2019
782 Clear 27 1010 26 10000 2.1 280 19:18 04.10.2019
783 Haze 27 1010 28 10000 3.1 300 18:39 04.10.2019
784 Haze 27 1010 28 10000 3.1 300 18:19 04.10.2019
785 Smoke 29 1009 25 10000 3.6 320 17:57 04.10.2019
786 Smoke 29 1009 25 10000 3.6 320 17:38 04.10.2019
787 Smoke 29 1009 25 10000 3.6 320 17:20 04.10.2019
788 Clear 34 1009 20 10000 5.7 310 16:55 04.10.2019
789 Clear 34 1009 20 10000 5.7 310 16:36 04.10.2019
790 Clear 34 1009 20 10000 5.7 310 16:18 04.10.2019
791 Smoke 35 1010 16 10000 7.2 300 15:55 04.10.2019
792 Smoke 35 1010 16 10000 7.2 300 15:36 04.10.2019
793 Smoke 35 1010 16 10000 7.2 300 15:18 04.10.2019
794 Smoke 35 1010 12 10000 7.2 290 14:42 04.10.2019
795 Smoke 36 1010 12 10000 7.2 290 14:22 04.10.2019
796 Clear 35 1010 18 10000 7.2 300 13:59 04.10.2019
797 Clear 35 1010 18 10000 7.2 300 13:40 04.10.2019
798 Clear 35 1010 18 10000 7.2 300 13:19 04.10.2019
799 Clear 35 1011 20 10000 7.2 310 12:45 04.10.2019
800 Clear 35 1011 20 10000 7.2 310 12:27 04.10.2019
801 Clear 34 1011 24 10000 5.7 290 11:55 04.10.2019
802 Clear 34 1011 24 10000 5.7 290 11:37 04.10.2019
803 Clear 34 1011 24 10000 5.7 290 11:18 04.10.2019
804 Haze 33 1012 27 10000 5.1 310 10:39 04.10.2019
805 Haze 33 1012 27 10000 5.1 310 10:20 04.10.2019
806 Haze 33 1012 27 10000 5.1 310 10:20 04.10.2019
807 Clear 31 1012 31 10000 4.6 310 09:44 04.10.2019
808 Clear 31 1012 31 10000 4.6 310 09:26 04.10.2019
809 Clear 31 1012 31 10000 4.6 310 09:26 04.10.2019
810 Clear 29 1012 34 10000 5.7 320 08:55 04.10.2019
811 Clear 29 1012 34 10000 5.7 320 08:37 04.10.2019
812 Clear 29 1012 34 10000 5.7 320 08:37 04.10.2019
813 Clear 29 1012 34 10000 5.7 320 08:18 04.10.2019
814 Clear 26 1012 33 10000 4.1 300 07:42 04.10.2019
815 Clear 26 1012 33 10000 4.1 300 07:20 04.10.2019
816 Clear 21 1011 40 10000 3.6 290 06:41 04.10.2019
817 Clear 21 1011 40 10000 3.6 290 06:23 04.10.2019
818 Clear 20 1010 45 10000 3.6 310 05:23 04.10.2019
819 Clear 20 1010 43 10000 4.1 320 04:56 04.10.2019
820 Clear 22 1010 43 10000 3.1 320 03:43 04.10.2019
821 Clear 22 1009 43 10000 2.6 330 02:53 04.10.2019
822 Clear 23 1009 40 10000 3.1 320 01:55 04.10.2019
823 Clear 23 1009 40 10000 3.1 320 01:55 04.10.2019
824 Clear 23 1009 40 10000 3.1 320 01:29 04.10.2019
825 Clear 23 1009 43 10000 3.1 320 00:56 04.10.2019
826 Clear 25 1009 41 10000 2.6 320 23:55 03.10.2019
827 Clear 25 1009 41 10000 2.6 320 23:36 03.10.2019
828 Clear 25 1009 41 10000 2.6 320 23:18 03.10.2019
829 Clear 25 1009 41 10000 2.6 320 23:18 03.10.2019
830 Clear 26 1009 39 10000 3.6 320 22:55 03.10.2019
831 Clear 26 1009 39 10000 3.6 320 22:36 03.10.2019
832 Clear 28 1009 39 10000 3.6 320 22:18 03.10.2019
833 Clear 29 1009 32 10000 4.1 320 21:54 03.10.2019
834 Clear 29 1009 32 10000 4.1 320 21:36 03.10.2019
835 Clear 29 1009 32 10000 4.1 320 21:18 03.10.2019
836 Clear 29 1009 32 10000 2.6 300 20:41 03.10.2019
837 Clear 29 1009 32 10000 2.6 300 20:23 03.10.2019
838 Clear 31 1008 25 10000 4.1 300 19:59 03.10.2019
839 Clear 31 1008 25 10000 4.1 300 19:41 03.10.2019
840 Clear 31 1008 25 10000 4.1 300 19:22 03.10.2019
841 Haze 32 1008 26 10000 4.1 270 18:58 03.10.2019
842 Haze 32 1008 26 10000 4.1 270 18:38 03.10.2019
843 Haze 32 1008 26 10000 4.1 270 18:38 03.10.2019
844 Haze 32 1008 26 10000 4.1 270 18:19 03.10.2019
845 Smoke 35 1007 20 10000 3.6 290 17:55 03.10.2019
846 Smoke 35 1007 20 10000 3.6 290 17:55 03.10.2019
847 Smoke 35 1007 20 10000 3.6 290 17:55 03.10.2019
848 Smoke 35 1007 20 10000 3.6 290 17:37 03.10.2019
849 Smoke 35 1007 20 10000 3.6 290 17:19 03.10.2019
850 Smoke 38 1007 16 10000 6.2 300 16:41 03.10.2019
851 Smoke 38 1007 16 10000 6.2 300 16:23 03.10.2019
852 Clear 39 1007 15 10000 6.2 310 15:55 03.10.2019
853 Clear 39 1007 15 10000 6.2 310 15:37 03.10.2019
854 Clear 39 1007 15 10000 6.2 310 15:19 03.10.2019
855 Clear 40 1008 16 10000 7.2 300 14:45 03.10.2019
856 Clear 40 1008 16 10000 7.2 300 14:26 03.10.2019
857 Clear 40 1008 21 10000 7.2 300 13:57 03.10.2019
858 Clear 40 1008 21 10000 7.2 300 13:39 03.10.2019
859 Clear 40 1008 21 10000 7.2 300 13:19 03.10.2019
860 Clear 39 1008 27 10000 5.7 280 12:55 03.10.2019
861 Clear 39 1008 27 10000 5.7 280 12:55 03.10.2019
862 Clear 39 1008 27 10000 5.7 280 12:55 03.10.2019
863 Clear 39 1008 27 10000 5.7 280 12:36 03.10.2019
864 Clear 39 1008 27 10000 5.7 280 12:18 03.10.2019
865 Clear 38 1008 27 10000 4.6 280 11:41 03.10.2019
866 Clear 38 1008 27 10000 4.6 280 11:22 03.10.2019
867 Clear 37 1009 27 10000 3.6 280 10:58 03.10.2019
868 Clear 37 1009 27 10000 3.6 280 10:58 03.10.2019
869 Clear 37 1009 27 10000 3.6 280 10:40 03.10.2019
870 Clear 37 1009 27 10000 3.6 280 10:18 03.10.2019
871 Clouds 35 1009 28 8000 4.1 300 09:57 03.10.2019
872 Clouds 35 1009 28 8000 4.1 300 09:39 03.10.2019
873 Clouds 35 1009 28 8000 4.1 300 09:20 03.10.2019
874 Dust 32 1008 33 3500 4.1 280 08:44 03.10.2019
875 Dust 32 1008 33 3500 4.1 280 08:26 03.10.2019
876 Dust 30 1008 33 3900 1 10 07:57 03.10.2019
877 Dust 30 1008 33 3900 1 10 07:38 03.10.2019
878 Dust 30 1008 33 3900 1 10 07:19 03.10.2019
879 Haze 26 1008 44 5000 0.5 0 06:46 03.10.2019
880 Haze 26 1008 44 5000 0.5 0 06:20 03.10.2019
881 Haze 27 1008 39 5000 1.5 330 05:43 03.10.2019
882 Clouds 27 1007 34 5000 0.5 0 04:51 03.10.2019
883 Clouds 27 1007 34 5000 0.5 0 04:25 03.10.2019
884 Clear 27 1006 42 8000 1 60 03:23 03.10.2019
885 Clear 28 1006 34 8000 1 120 02:38 03.10.2019
886 Clear 29 1007 32 8000 1 70 01:51 03.10.2019
887 Clear 29 1007 32 8000 1 70 01:32 03.10.2019
888 Clear 28 1007 34 8000 2.1 50 00:47 03.10.2019
889 Clear 28 1007 34 8000 2.1 50 00:19 03.10.2019
890 Clear 30 1007 35 10000 1.5 30 23:43 02.10.2019
891 Clear 30 1007 35 10000 1.5 30 23:21 02.10.2019
892 Clouds 34 1008 26 7000 4.1 130 22:44 02.10.2019
893 Clouds 31 1008 26 7000 4.1 130 22:22 02.10.2019
894 Clouds 31 1008 26 7000 4.1 130 21:57 02.10.2019
895 Clouds 31 1008 26 7000 4.1 130 21:57 02.10.2019
896 Clouds 31 1008 26 7000 4.1 130 21:38 02.10.2019
897 Clear 31 1008 27 5000 1 0 21:20 02.10.2019
898 Clear 31 1008 27 5000 1 0 21:20 02.10.2019
899 Clear 32 1007 29 5000 2.1 60 20:57 02.10.2019
900 Clear 32 1007 29 5000 2.1 60 20:38 02.10.2019
901 Clear 32 1007 29 5000 2.1 60 20:20 02.10.2019
902 Clear 31 1007 35 6000 2.1 360 19:55 02.10.2019
903 Clear 31 1007 35 6000 2.1 360 19:55 02.10.2019
904 Clear 31 1007 35 6000 2.1 360 19:54 02.10.2019
905 Clear 31 1007 35 6000 2.1 360 19:54 02.10.2019
906 -273 0 0 0 0 0 19:54 02.10.2019
907 Clear 31 1007 35 6000 2.1 360 19:36 02.10.2019
908 Clear 31 1007 35 6000 2.1 360 19:18 02.10.2019
909 Clear 32 1007 29 10000 2.1 340 18:56 02.10.2019
910 Clear 32 1007 29 10000 2.1 340 18:36 02.10.2019
911 Clear 32 1007 29 10000 2.1 340 18:18 02.10.2019
912 Clear 37 1007 22 10000 2.1 120 17:42 02.10.2019
913 Haze 38 1007 22 10000 2.1 120 17:21 02.10.2019
914 Haze 39 1007 17 10000 2.6 130 16:58 02.10.2019
915 Haze 39 1007 17 10000 2.6 130 16:39 02.10.2019
916 Haze 41 1007 15 10000 2.1 80 16:20 02.10.2019
917 Haze 41 1007 15 10000 2.1 80 15:57 02.10.2019
918 Haze 41 1007 15 10000 2.1 80 15:38 02.10.2019
919 Haze 41 1007 15 10000 2.1 80 15:18 02.10.2019
920 Haze 41 1007 15 10000 3.1 90 14:55 02.10.2019
921 Haze 41 1007 15 10000 3.1 90 14:36 02.10.2019
922 Haze 41 1007 15 10000 3.1 90 14:18 02.10.2019
923 Haze 41 1007 15 10000 3.6 50 13:41 02.10.2019
924 Haze 41 1007 15 10000 3.6 50 13:22 02.10.2019
925 Haze 41 1008 15 10000 3.6 60 12:54 02.10.2019
926 Haze 41 1008 15 10000 3.6 60 12:36 02.10.2019
927 Haze 41 1008 15 10000 3.6 60 12:18 02.10.2019
928 Haze 39 1008 15 10000 5.7 40 11:42 02.10.2019
929 Haze 39 1008 15 10000 5.7 40 11:21 02.10.2019
930 Haze 39 1009 16 10000 6.2 40 10:41 02.10.2019
931 Haze 39 1009 16 10000 6.2 40 10:19 02.10.2019
932 Haze 37 1009 15 10000 5.7 30 09:42 02.10.2019
933 Haze 37 1009 15 10000 5.7 30 09:21 02.10.2019
934 Haze 34 1009 19 10000 4.6 30 08:59 02.10.2019
935 Haze 34 1009 19 10000 4.6 30 08:41 02.10.2019
936 Haze 34 1009 19 10000 4.6 30 08:22 02.10.2019
937 Clouds 32 1009 22 10000 2.6 20 07:55 02.10.2019
938 Clouds 32 1009 22 10000 2.6 20 07:37 02.10.2019
939 Clouds 32 1009 22 10000 2.6 20 07:18 02.10.2019
940 Clouds 32 1009 22 10000 2.6 20 07:18 02.10.2019
941 Clouds 29 1009 26 10000 2.6 20 06:29 02.10.2019
942 Clouds 28 1008 32 10000 2.1 10 05:51 02.10.2019
943 Clouds 28 1008 32 10000 2.1 10 05:22 02.10.2019
944 Clouds 28 1008 34 10000 2.6 360 04:18 02.10.2019
945 Clouds 28 1008 34 10000 2.1 340 03:50 02.10.2019
946 Clear 25 1007 36 10000 2.1 330 02:38 02.10.2019
947 Clear 25 1007 36 10000 2.1 330 02:20 02.10.2019
948 Clear 26 1007 36 10000 2.1 330 01:18 02.10.2019
949 Clear 26 1007 41 10000 2.6 350 00:30 02.10.2019
950 Clear 28 1007 34 10000 1 0 23:59 01.10.2019
951 Clear 28 1007 34 10000 1 0 23:41 01.10.2019
952 Clear 28 1007 34 10000 1 0 23:22 01.10.2019
953 Clear 27 1007 34 10000 1.5 350 22:58 01.10.2019
954 Clear 27 1007 34 10000 1.5 350 22:38 01.10.2019
955 Clear 31 1007 34 10000 1.5 350 22:18 01.10.2019
956 Clouds 31 1007 30 8000 2.1 300 21:44 01.10.2019
957 Clouds 31 1007 30 8000 2.1 300 21:24 01.10.2019
958 Clouds 32 1007 33 7000 1.5 350 20:59 01.10.2019
959 Clouds 32 1007 33 7000 1.5 350 20:39 01.10.2019
960 Clouds 32 1007 33 7000 1.5 350 20:21 01.10.2019
961 Clouds 32 1007 27 9000 1 0 19:59 01.10.2019
962 Clouds 32 1007 27 9000 1 0 19:41 01.10.2019
963 Clouds 32 1007 27 9000 1 0 19:23 01.10.2019
964 Haze 33 1007 29 10000 2.6 30 18:58 01.10.2019
965 Haze 33 1007 29 10000 2.6 30 18:38 01.10.2019
966 Haze 33 1007 29 10000 2.6 30 18:19 01.10.2019
967 Clouds 35 1007 23 10000 2.1 330 17:55 01.10.2019
968 Clouds 35 1007 23 10000 2.1 330 17:36 01.10.2019
969 Clouds 35 1007 23 10000 2.1 330 17:18 01.10.2019
970 Clouds 38 1007 12 9000 2.6 360 16:42 01.10.2019
971 Clouds 38 1007 12 9000 2.6 360 16:22 01.10.2019
972 Haze 39 1007 15 10000 3.6 10 15:59 01.10.2019
973 Haze 39 1007 15 10000 3.6 10 15:40 01.10.2019
974 Haze 39 1007 15 10000 3.6 10 15:21 01.10.2019
975 Haze 39 1007 14 10000 4.1 30 14:41 01.10.2019
976 Haze 39 1007 14 10000 4.1 30 14:20 01.10.2019
977 Haze 39 1007 15 10000 4.1 10 13:57 01.10.2019
978 Haze 39 1007 15 10000 4.1 10 13:38 01.10.2019
979 Haze 39 1007 15 10000 4.1 10 13:19 01.10.2019
980 Clouds 38 1008 16 10000 4.1 360 12:56 01.10.2019
981 Clouds 38 1008 16 10000 4.1 360 12:38 01.10.2019
982 Haze 38 1008 17 10000 3.1 360 12:18 01.10.2019
983 Haze 38 1008 17 10000 3.1 360 11:57 01.10.2019
984 Haze 38 1008 17 10000 3.1 360 11:57 01.10.2019
985 Haze 38 1008 17 10000 3.1 360 11:37 01.10.2019
986 Haze 38 1008 17 10000 3.1 360 11:18 01.10.2019
987 Haze 36 1009 18 10000 4.1 360 10:48 01.10.2019
988 Haze 36 1009 18 10000 4.1 360 10:28 01.10.2019
989 Haze 35 1009 18 10000 4.1 350 09:47 01.10.2019
990 Haze 35 1009 18 10000 4.1 350 09:27 01.10.2019
991 Haze 32 1009 23 9000 3.1 360 08:46 01.10.2019
992 Haze 32 1009 23 9000 3.1 360 08:28 01.10.2019
993 Haze 27 1009 32 10000 2.1 340 07:59 01.10.2019
994 Haze 27 1009 32 10000 2.1 340 07:41 01.10.2019
995 Haze 27 1009 32 10000 2.1 340 07:20 01.10.2019
996 Clouds 24 1009 38 10000 2.1 320 06:43 01.10.2019
997 Clouds 24 1009 38 10000 2.1 320 06:18 01.10.2019
998 Clouds 23 1008 35 10000 1 0 05:45 01.10.2019
999 Clear 22 1008 38 10000 1.5 330 04:49 01.10.2019
1000 Clear 24 1007 40 10000 2.6 340 03:58 01.10.2019
1001 Clear 23 1007 40 10000 2.6 350 02:24 01.10.2019
1002 Clear 24 1008 38 10000 2.1 340 01:57 01.10.2019
1003 Clear 23 1008 40 10000 2.1 330 00:53 01.10.2019
1004 Clear 23 1008 40 10000 2.1 330 00:26 01.10.2019
1005 Clear 26 1008 36 10000 1.5 340 23:55 30.09.2019
1006 Clear 26 1008 36 10000 1.5 340 23:37 30.09.2019
1007 Clear 26 1008 36 10000 1.5 340 23:18 30.09.2019
1008 Clear 26 1008 36 10000 3.1 320 22:42 30.09.2019
1009 Haze 27 1008 36 10000 3.1 320 22:24 30.09.2019
1010 Haze 27 1008 36 8000 1.5 320 21:56 30.09.2019
1011 Haze 27 1008 36 8000 1.5 320 21:38 30.09.2019
1012 Haze 27 1008 36 8000 1.5 320 21:38 30.09.2019
1013 Haze 27 1008 36 8000 1.5 320 21:19 30.09.2019
1014 Haze 28 1008 36 9000 2.6 300 20:56 30.09.2019
1015 Haze 28 1008 36 9000 2.6 300 20:38 30.09.2019
1016 Haze 28 1008 36 9000 2.6 300 20:19 30.09.2019
1017 Haze 30 1008 28 10000 2.6 300 19:56 30.09.2019
1018 Haze 30 1008 28 10000 2.6 300 19:38 30.09.2019
1019 Haze 30 1008 28 10000 2.6 300 19:19 30.09.2019
1020 Haze 31 1007 25 10000 2.1 330 18:56 30.09.2019
1021 Haze 31 1007 25 10000 2.1 330 18:37 30.09.2019
1022 Haze 31 1007 25 10000 2.1 330 18:37 30.09.2019
1023 Haze 31 1007 25 10000 2.1 330 18:19 30.09.2019
1024 Haze 33 1007 23 10000 1.5 350 17:41 30.09.2019
1025 Haze 33 1007 23 10000 1.5 350 17:22 30.09.2019
1026 Haze 38 1007 19 10000 4.1 10 16:56 30.09.2019
1027 Haze 38 1007 19 10000 4.1 10 16:38 30.09.2019
1028 Haze 38 1007 19 10000 4.1 10 16:19 30.09.2019
1029 Haze 38 1007 18 10000 5.1 340 15:57 30.09.2019
1030 Haze 38 1007 18 10000 5.1 340 15:37 30.09.2019
1031 Haze 38 1007 18 10000 5.1 340 15:19 30.09.2019
1032 Haze 38 1007 17 10000 5.1 340 14:57 30.09.2019
1033 Haze 38 1007 17 10000 5.1 340 14:37 30.09.2019
1034 Haze 38 1007 17 10000 5.1 340 14:18 30.09.2019
1035 Haze 38 1008 17 10000 3.6 350 13:56 30.09.2019
1036 Haze 38 1008 17 10000 3.6 350 13:37 30.09.2019
1037 Haze 38 1008 17 10000 3.6 350 13:19 30.09.2019
1038 Haze 39 1008 17 10000 4.6 340 12:41 30.09.2019
1039 Haze 39 1008 17 10000 4.6 340 12:21 30.09.2019
1040 Haze 37 1009 18 10000 5.1 340 11:56 30.09.2019
1041 Haze 37 1009 18 10000 5.1 340 11:37 30.09.2019
1042 Haze 37 1009 18 10000 5.1 340 11:18 30.09.2019
1043 Haze 37 1009 22 10000 3.6 350 10:41 30.09.2019
1044 Haze 37 1009 22 10000 3.6 350 10:19 30.09.2019
1045 Haze 33 1009 26 10000 3.1 340 09:59 30.09.2019
1046 Haze 33 1009 26 10000 3.1 340 09:39 30.09.2019
1047 Haze 33 1009 26 10000 3.1 340 09:20 30.09.2019
1048 Haze 30 1009 27 10000 2.6 340 08:47 30.09.2019
1049 Haze 30 1009 27 10000 2.6 340 08:47 30.09.2019
1050 Haze 30 1009 27 10000 2.6 340 08:29 30.09.2019
1051 Clear 28 1009 30 10000 2.6 330 07:46 30.09.2019
1052 Clear 28 1009 30 10000 2.6 330 07:28 30.09.2019
1053 Clear 23 1008 40 10000 3.1 300 06:56 30.09.2019
1054 Clear 23 1008 40 10000 3.1 300 06:56 30.09.2019
1055 Clear 23 1008 40 10000 3.1 300 06:34 30.09.2019
1056 Clear 23 1008 40 10000 3.1 300 06:34 30.09.2019
1057 Clear 22 1008 40 10000 3.1 310 05:48 30.09.2019
1058 Clear 22 1008 40 10000 3.1 310 04:53 30.09.2019
1059 Clear 23 1007 40 10000 3.1 320 02:48 30.09.2019
1060 Clear 25 1007 38 10000 3.6 330 01:39 30.09.2019
1061 Clear 27 1007 34 10000 2.6 330 00:43 30.09.2019
1062 Clear 27 1007 34 10000 2.6 330 00:23 30.09.2019
1063 Clear 27 1007 34 10000 3.6 320 23:56 29.09.2019
1064 Clear 27 1007 34 10000 3.6 320 23:38 29.09.2019
1065 Clear 27 1007 34 10000 3.6 320 23:19 29.09.2019
1066 Clear 27 1007 28 10000 4.1 310 22:42 29.09.2019
1067 Clear 27 1007 28 10000 4.1 310 22:23 29.09.2019
1068 Clear 27 1007 28 9000 3.1 290 21:58 29.09.2019
1069 Clear 27 1007 28 9000 3.1 290 21:38 29.09.2019
1070 Clear 28 1007 28 9000 3.1 290 21:19 29.09.2019
1071 Clear 28 1007 28 9000 3.1 290 21:19 29.09.2019
1072 Clear 28 1007 28 9000 3.1 290 21:19 29.09.2019
1073 Clear 29 1007 25 10000 2.6 300 20:55 29.09.2019
1074 Clear 29 1007 25 10000 2.6 300 20:55 29.09.2019
1075 Clear 29 1007 25 10000 2.6 300 20:37 29.09.2019
1076 Clear 29 1007 25 10000 2.6 300 20:19 29.09.2019
1077 Clear 31 1006 19 10000 3.6 290 19:39 29.09.2019
1078 Clear 31 1006 19 10000 3.6 290 19:19 29.09.2019
1079 Clear 33 1006 18 10000 3.6 290 18:57 29.09.2019
1080 Clear 33 1006 18 10000 3.6 290 18:57 29.09.2019
1081 Clear 33 1006 18 10000 3.6 290 18:39 29.09.2019
1082 Clear 33 1006 18 10000 3.6 290 18:20 29.09.2019
1083 Clear 35 1006 15 10000 4.1 290 17:59 29.09.2019
1084 Clear 35 1006 15 10000 4.1 290 17:41 29.09.2019
1085 Clear 35 1006 15 10000 4.1 290 17:20 29.09.2019
1086 Clear 39 1006 11 10000 6.7 300 17:00 29.09.2019
1087 Clear 39 1006 11 10000 6.7 300 17:00 29.09.2019
1088 Clear 39 1006 11 10000 6.7 300 16:41 29.09.2019
1089 Clear 39 1006 11 10000 6.7 300 16:20 29.09.2019
1090 Clear 40 1006 12 10000 7.7 300 15:58 29.09.2019
1091 Clear 40 1006 12 10000 7.7 300 15:37 29.09.2019
1092 Clear 40 1006 12 10000 7.7 300 15:18 29.09.2019
1093 Clear 40 1006 12 10000 7.7 300 15:18 29.09.2019
1094 Clear 41 1006 11 10000 6.7 310 14:57 29.09.2019
1095 Clear 41 1006 11 10000 6.7 310 14:37 29.09.2019
1096 Clear 41 1006 11 10000 6.7 310 14:19 29.09.2019
1097 Haze 41 1006 11 10000 8.2 290 13:55 29.09.2019
1098 Haze 41 1006 11 10000 8.2 290 13:36 29.09.2019
1099 Haze 41 1006 11 10000 8.2 290 13:18 29.09.2019
1100 Haze 39 1006 14 10000 6.7 290 12:56 29.09.2019
1101 Haze 39 1006 14 10000 6.7 290 12:38 29.09.2019
1102 Haze 39 1006 14 10000 6.7 290 12:20 29.09.2019
1103 Haze 38 1007 19 10000 5.1 310 11:41 29.09.2019
1104 Haze 38 1007 19 10000 5.1 310 11:20 29.09.2019
1105 Haze 37 1007 18 5000 4.6 280 10:58 29.09.2019
1106 Haze 35 1007 23 10000 4.6 300 10:39 29.09.2019
1107 Haze 35 1007 23 10000 4.6 300 10:20 29.09.2019
1108 Clear 33 1007 22 10000 3.6 300 09:57 29.09.2019
1109 Clear 33 1007 22 10000 3.6 300 09:39 29.09.2019
1110 Clear 33 1007 22 10000 3.6 300 09:39 29.09.2019
1111 Clear 33 1007 22 10000 3.6 300 09:19 29.09.2019
1112 Smoke 31 1007 25 10000 4.1 290 08:43 29.09.2019
1113 Smoke 31 1007 25 10000 4.1 290 08:22 29.09.2019
1114 Haze 28 1007 34 10000 4.6 270 07:44 29.09.2019
1115 Haze 28 1007 34 10000 4.6 270 07:44 29.09.2019
1116 Dust 28 1007 34 5000 3.1 250 07:26 29.09.2019
1117 Haze 28 1006 36 7000 1.5 280 06:50 29.09.2019
1118 Haze 25 1006 41 7000 1.5 310 06:22 29.09.2019
1119 Clear 26 1005 41 10000 1.5 130 04:46 29.09.2019
1120 Clear 26 1005 41 10000 1.5 130 04:24 29.09.2019
1121 Clear 27 1004 44 10000 2.1 90 02:59 29.09.2019
1122 Clear 27 1004 44 10000 2.1 90 02:19 29.09.2019
1123 Clear 29 1005 30 10000 1.5 0 01:45 29.09.2019
1124 Clouds 27 1005 34 10000 5.7 290 00:59 29.09.2019
1125 Clouds 27 1005 34 10000 5.7 290 00:59 29.09.2019
1126 Clouds 27 1005 34 10000 5.7 290 00:40 29.09.2019
1127 Clouds 27 1005 34 10000 5.7 290 00:19 29.09.2019
1128 Clouds 27 1005 34 10000 5.7 290 00:19 29.09.2019
1129 Clear 29 1004 28 10000 3.1 160 23:38 28.09.2019
1130 Clear 29 1004 28 10000 3.1 160 23:19 28.09.2019
1131 Clear 29 1005 30 10000 3.6 150 22:40 28.09.2019
1132 Clear 32 1005 30 10000 3.6 150 22:22 28.09.2019
1133 Clear 31 1005 30 10000 4.1 150 21:58 28.09.2019
1134 Clear 31 1005 30 10000 4.1 150 21:58 28.09.2019
1135 Clear 31 1005 30 10000 4.1 150 21:40 28.09.2019
1136 Clear 31 1005 30 10000 4.1 150 21:21 28.09.2019
1137 Haze 32 1005 30 10000 3.6 140 20:58 28.09.2019
1138 Haze 32 1005 30 10000 3.6 140 20:58 28.09.2019
1139 Haze 32 1005 30 10000 3.6 140 20:39 28.09.2019
1140 Haze 32 1005 30 10000 3.6 140 20:20 28.09.2019
1141 Haze 33 1005 26 9000 2.1 120 19:57 28.09.2019
1142 Haze 33 1005 26 9000 2.1 120 19:38 28.09.2019
1143 Haze 33 1005 26 9000 2.1 120 19:20 28.09.2019
1144 Haze 34 1005 26 10000 3.1 120 18:57 28.09.2019
1145 Haze 34 1005 26 10000 3.1 120 18:39 28.09.2019
1146 Haze 34 1005 26 10000 3.1 120 18:20 28.09.2019
1147 Smoke 37 1005 19 10000 2.6 120 17:56 28.09.2019
1148 Smoke 37 1005 19 10000 2.6 120 17:37 28.09.2019
1149 Smoke 37 1005 19 10000 2.6 120 17:19 28.09.2019
1150 Smoke 37 1005 19 10000 2.6 120 17:19 28.09.2019
1151 Smoke 40 1006 14 10000 1.5 170 16:43 28.09.2019
1152 Smoke 40 1006 14 10000 1.5 170 16:25 28.09.2019
1153 Smoke 40 1006 14 10000 2.1 190 15:42 28.09.2019
1154 Smoke 40 1006 14 10000 2.1 190 15:42 28.09.2019
1155 Smoke 40 1006 14 10000 2.1 190 15:23 28.09.2019
1156 Haze 41 1007 13 10000 2.6 270 14:58 28.09.2019
1157 Haze 41 1007 13 10000 2.6 270 14:40 28.09.2019
1158 Haze 41 1007 13 10000 2.6 270 14:21 28.09.2019
1159 Clear 41 1007 12 10000 3.1 180 13:58 28.09.2019
1160 Clear 41 1007 12 10000 3.1 180 13:38 28.09.2019
1161 Clear 41 1007 12 10000 3.1 180 13:20 28.09.2019
1162 Haze 41 1007 13 10000 2.1 200 12:45 28.09.2019
1163 Haze 41 1007 13 10000 2.1 200 12:20 28.09.2019
1164 Haze 41 1008 13 10000 2.1 70 11:59 28.09.2019
1165 Haze 41 1008 13 10000 2.1 70 11:39 28.09.2019
1166 Haze 41 1008 13 10000 2.1 70 11:18 28.09.2019
1167 Haze 39 1009 15 10000 2.1 0 10:43 28.09.2019
1168 Haze 39 1009 15 10000 2.1 0 10:21 28.09.2019
1169 Haze 37 1010 19 10000 1.5 80 09:58 28.09.2019
1170 Haze 37 1010 19 10000 1.5 80 09:40 28.09.2019
1171 Haze 37 1010 19 10000 1.5 80 09:40 28.09.2019
1172 Haze 37 1010 19 10000 1.5 80 09:18 28.09.2019
1173 Clear 34 1010 23 9000 1.5 50 08:46 28.09.2019
1174 Clear 34 1010 23 9000 1.5 50 08:28 28.09.2019
1175 Clear 29 1010 33 7000 1 0 07:46 28.09.2019
1176 Clear 29 1010 33 7000 1 0 07:24 28.09.2019
1177 Clear 25 1010 46 10000 1.5 10 06:56 28.09.2019
1178 Clear 25 1010 46 10000 1.5 10 06:32 28.09.2019
1179 Clear 25 1010 40 10000 1.5 300 05:57 28.09.2019
1180 Clear 25 1010 40 10000 1.5 300 05:24 28.09.2019
1181 Clear 25 1010 38 10000 1.5 290 04:41 28.09.2019
1182 Clear 25 1009 41 10000 1 0 03:59 28.09.2019
1183 Clear 25 1009 41 10000 1 0 03:25 28.09.2019
1184 Clear 24 1010 41 10000 1.5 20 02:57 28.09.2019
1185 Clear 24 1010 41 10000 1.5 20 02:35 28.09.2019
1186 Clear 25 1010 36 10000 1.5 320 01:51 28.09.2019
1187 Clear 25 1010 36 10000 1.5 320 01:51 28.09.2019
1188 Clear 25 1010 36 10000 1.5 320 01:27 28.09.2019
1189 Clear 26 1011 34 10000 1.5 330 00:58 28.09.2019
1190 Clear 26 1011 34 10000 1.5 330 00:39 28.09.2019
1191 Clear 26 1011 34 10000 1.5 330 00:18 28.09.2019
1192 Clear 26 1011 34 10000 2.1 320 23:38 27.09.2019
1193 Clear 26 1011 34 10000 2.1 320 23:38 27.09.2019
1194 Clear 26 1011 34 10000 2.1 320 23:19 27.09.2019
1195 Clear 26 1011 31 10000 2.6 320 22:47 27.09.2019
1196 Clear 31 1011 31 10000 2.6 320 22:20 27.09.2019
1197 Clear 30 1011 32 10000 2.1 320 21:59 27.09.2019
1198 Clear 30 1011 32 10000 2.1 320 21:39 27.09.2019
1199 Clear 30 1011 32 10000 2.1 320 21:20 27.09.2019
1200 Clear 29 1011 32 10000 2.1 320 20:58 27.09.2019
1201 Clear 29 1011 32 10000 2.1 320 20:58 27.09.2019
1202 Clear 29 1011 32 10000 2.1 320 20:40 27.09.2019
1203 Clear 29 1011 32 10000 2.1 320 20:19 27.09.2019
1204 Clear 29 1011 32 10000 2.1 320 20:19 27.09.2019
1205 Clear 31 1010 25 10000 1 0 19:57 27.09.2019
1206 Clear 31 1010 25 10000 1 0 19:38 27.09.2019
1207 Clear 31 1010 25 10000 1 0 19:38 27.09.2019
1208 Clear 31 1010 25 10000 1 0 19:19 27.09.2019
1209 Smoke 34 1010 22 10000 1 350 18:41 27.09.2019
1210 Smoke 34 1010 22 10000 1 350 18:41 27.09.2019
1211 Smoke 34 1010 22 10000 1 350 18:23 27.09.2019
1212 Haze 35 1010 19 10000 2.6 360 17:56 27.09.2019
1213 Haze 35 1010 19 10000 2.6 360 17:38 27.09.2019
1214 Haze 35 1010 19 10000 2.6 360 17:19 27.09.2019
1215 Clear 39 1010 15 10000 3.6 360 16:57 27.09.2019
1216 Clear 39 1010 15 10000 3.6 360 16:37 27.09.2019
1217 Clear 39 1010 15 10000 3.6 360 16:18 27.09.2019
1218 Clear 39 1010 15 10000 3.6 360 16:18 27.09.2019
1219 Clear 39 1010 15 10000 3.6 360 16:18 27.09.2019
1220 Clear 40 1010 15 10000 4.6 340 15:45 27.09.2019
1221 Clear 40 1010 15 10000 4.6 340 15:21 27.09.2019
1222 Clear 40 1010 14 10000 4.6 340 14:58 27.09.2019
1223 Clear 40 1010 14 10000 4.6 340 14:40 27.09.2019
1224 Clear 40 1010 14 10000 4.6 340 14:21 27.09.2019
1225 Clear 40 1010 16 10000 4.1 340 13:57 27.09.2019
1226 Clear 40 1010 16 10000 4.1 340 13:39 27.09.2019
1227 Clear 40 1010 16 10000 4.1 340 13:21 27.09.2019
1228 Clear 39 1011 15 10000 4.1 330 12:54 27.09.2019
1229 Clear 39 1011 15 10000 4.1 330 12:23 27.09.2019
1230 Haze 39 1011 18 10000 4.6 350 11:58 27.09.2019
1231 Haze 39 1011 18 10000 4.6 350 11:38 27.09.2019
1232 Haze 39 1011 18 10000 4.6 350 11:19 27.09.2019
1233 Haze 39 1011 18 10000 4.6 350 11:19 27.09.2019
1234 Haze 37 1011 19 10000 4.6 350 10:43 27.09.2019
1235 Haze 37 1011 19 10000 4.6 350 10:23 27.09.2019
1236 Haze 34 1012 24 10000 3.6 350 09:58 27.09.2019
1237 Haze 34 1012 24 10000 3.6 350 09:40 27.09.2019
1238 Haze 34 1012 24 10000 3.6 350 09:19 27.09.2019
1239 Smoke 31 1012 25 10000 3.6 330 08:42 27.09.2019
1240 Smoke 31 1012 25 10000 3.6 330 08:21 27.09.2019
1241 Smoke 28 1012 32 10000 2.6 310 07:57 27.09.2019
1242 Smoke 28 1012 32 10000 2.6 310 07:39 27.09.2019
1243 Smoke 28 1012 32 10000 2.6 310 07:19 27.09.2019
1244 Haze 23 1011 38 10000 3.1 320 06:40 27.09.2019
1245 Haze 23 1011 38 10000 3.1 320 06:21 27.09.2019
1246 Clear 21 1010 40 10000 3.1 310 05:47 27.09.2019
1247 Clear 21 1010 40 10000 3.1 310 05:29 27.09.2019
1248 Clear 23 1009 36 10000 3.6 330 03:40 27.09.2019
1249 Clear 28 1009 28 10000 4.6 330 01:56 27.09.2019
1250 Clear 28 1009 28 10000 4.6 330 01:56 27.09.2019
1251 Clear 28 1009 28 10000 4.6 330 01:32 27.09.2019
1252 Clear 29 1009 30 10000 5.1 320 00:44 27.09.2019
1253 Clear 31 1009 29 10000 8.2 300 23:58 26.09.2019
1254 Clear 31 1009 29 10000 8.2 300 23:40 26.09.2019
1255 Clear 31 1009 29 10000 8.2 300 23:22 26.09.2019
1256 Clear 31 1008 23 10000 4.6 320 22:59 26.09.2019
1257 Clear 31 1008 23 10000 4.6 320 22:40 26.09.2019
1258 Clear 29 1008 23 10000 4.6 320 22:19 26.09.2019
1259 Clear 30 1008 22 10000 4.1 290 21:59 26.09.2019
1260 Clear 30 1008 22 10000 4.1 290 21:59 26.09.2019
1261 Clear 30 1008 22 10000 4.1 290 21:38 26.09.2019
1262 Clear 30 1008 22 10000 4.1 290 21:20 26.09.2019
1263 Clear 31 1008 25 10000 1.5 310 20:59 26.09.2019
1264 Clear 31 1008 25 10000 1.5 310 20:40 26.09.2019
1265 Clear 31 1008 25 10000 1.5 310 20:40 26.09.2019
1266 Clear 31 1008 25 10000 1.5 310 20:22 26.09.2019
1267 Clear 31 1008 25 10000 1.5 310 20:22 26.09.2019
1268 Clear 31 1007 22 10000 3.6 300 19:59 26.09.2019
1269 Clear 31 1007 22 10000 3.6 300 19:40 26.09.2019
1270 Clear 33 1007 25 10000 2.6 310 19:18 26.09.2019
1271 Clear 33 1007 25 10000 2.6 310 18:58 26.09.2019
1272 Clear 33 1007 25 10000 2.6 310 18:38 26.09.2019
1273 Clear 33 1007 25 10000 2.6 310 18:38 26.09.2019
1274 Clear 33 1007 25 10000 2.6 310 18:20 26.09.2019
1275 Haze 35 1006 20 10000 4.1 310 17:39 26.09.2019
1276 Haze 35 1006 20 10000 4.1 310 17:19 26.09.2019
1277 Haze 40 1006 13 10000 5.1 290 16:59 26.09.2019
1278 Haze 40 1006 13 10000 5.1 290 16:39 26.09.2019
1279 Haze 40 1006 13 10000 5.1 290 16:20 26.09.2019
1280 Haze 40 1006 13 10000 5.1 290 16:20 26.09.2019
1281 Haze 42 1006 12 10000 4.6 270 15:57 26.09.2019
1282 Haze 42 1006 12 10000 4.6 270 15:37 26.09.2019
1283 Haze 42 1006 12 10000 4.6 270 15:19 26.09.2019
1284 Haze 43 1006 13 10000 7.2 220 14:56 26.09.2019
1285 Haze 43 1006 13 10000 7.2 220 14:37 26.09.2019
1286 Haze 43 1006 13 10000 7.2 220 14:19 26.09.2019
1287 Haze 42 1006 11 10000 6.2 180 13:41 26.09.2019
1288 Haze 42 1006 11 10000 6.2 180 13:20 26.09.2019
1289 Haze 42 1006 11 10000 6.2 180 13:20 26.09.2019
1290 Haze 41 1007 11 10000 5.1 200 12:57 26.09.2019
1291 Haze 41 1007 11 10000 5.1 200 12:39 26.09.2019
1292 Haze 41 1007 11 10000 5.1 200 12:20 26.09.2019
1293 Haze 39 1007 13 10000 5.7 190 11:42 26.09.2019
1294 Haze 39 1007 13 10000 5.7 190 11:22 26.09.2019
1295 Haze 36 1008 19 10000 4.1 180 10:56 26.09.2019
1296 Haze 36 1008 19 10000 4.1 180 10:38 26.09.2019
1297 -273 0 0 0 0 0 10:20 26.09.2019
1298 Haze 36 1008 19 10000 4.1 180 10:20 26.09.2019
1299 Haze 34 1009 20 10000 2.6 210 09:44 26.09.2019
1300 Haze 34 1009 20 10000 2.6 210 09:26 26.09.2019
1301 Haze 32 1009 22 10000 1 0 08:57 26.09.2019
1302 Haze 32 1009 22 10000 1 0 08:39 26.09.2019
1303 Haze 32 1009 22 10000 1 0 08:21 26.09.2019
1304 Haze 29 1009 27 8000 3.7 168.205 07:43 26.09.2019
1305 Haze 29 1009 27 8000 3.7 168.205 07:21 26.09.2019
1306 Clear 27 1008 28 8000 0.5 0 06:45 26.09.2019
1307 Clear 26 1008 30 10000 1.5 200 06:25 26.09.2019
1308 Clear 25 1007 33 10000 4.1 100 05:44 26.09.2019
1309 Clear 25 1007 33 10000 4.1 100 05:25 26.09.2019
1310 Clear 26 1006 34 10000 2.1 90 02:53 26.09.2019
1311 Clear 26 1007 36 10000 2.1 40 01:54 26.09.2019
1312 Clear 26 1007 36 10000 2.1 40 01:54 26.09.2019
1313 Clear 26 1007 36 10000 2.1 40 01:31 26.09.2019
1314 Clear 27 1007 34 9000 2.6 360 00:56 26.09.2019
1315 Clear 27 1007 34 9000 2.6 360 00:38 26.09.2019
1316 Clear 27 1007 34 9000 2.6 360 00:19 26.09.2019
1317 Clear 31 1007 27 10000 3.1 70 23:42 25.09.2019
1318 Clear 31 1007 27 10000 3.1 70 23:18 25.09.2019
1319 Clear 30 1007 27 9000 3.1 60 22:42 25.09.2019
1320 Clear 31 1007 27 9000 3.1 60 22:21 25.09.2019
1321 Clear 30 1008 28 10000 4.1 330 21:58 25.09.2019
1322 Clear 30 1008 28 10000 4.1 330 21:40 25.09.2019
1323 Clear 30 1008 28 10000 4.1 330 21:19 25.09.2019
1324 Clear 31 1007 27 8000 3.1 80 20:58 25.09.2019
1325 Clear 31 1007 27 8000 3.1 80 20:40 25.09.2019
1326 Clear 31 1007 27 8000 3.1 80 20:22 25.09.2019
1327 Clear 31 1008 26 8000 3.1 60 19:55 25.09.2019
1328 Clear 31 1008 25 9000 2.6 50 19:36 25.09.2019
1329 Clear 32 1008 35 10000 1 160 19:18 25.09.2019
1330 Clear 32 1008 35 10000 1 160 18:55 25.09.2019
1331 Clear 33 1008 24 10000 1.5 30 18:37 25.09.2019
1332 Clear 33 1008 24 10000 1.5 30 18:18 25.09.2019
1333 Clear 35 1008 21 10000 2.1 350 17:39 25.09.2019
1334 Clear 35 1008 21 10000 2.1 350 17:19 25.09.2019
1335 Clear 38 1008 16 10000 2.6 360 16:56 25.09.2019
1336 Clear 38 1008 16 10000 2.6 360 16:36 25.09.2019
1337 Clear 38 1008 16 10000 2.6 360 16:18 25.09.2019
1338 Smoke 39 1008 15 10000 3.6 10 15:41 25.09.2019
1339 Smoke 39 1008 15 10000 3.6 10 15:41 25.09.2019
1340 Smoke 39 1008 15 10000 3.6 10 15:23 25.09.2019
1341 Clear 40 1008 13 10000 2.1 30 14:57 25.09.2019
1342 Clear 40 1008 13 10000 2.1 30 14:57 25.09.2019
1343 Clear 40 1008 13 10000 2.1 30 14:39 25.09.2019
1344 Clear 40 1008 13 10000 2.1 30 14:21 25.09.2019
1345 Clear 40 1009 14 10000 2.6 350 13:56 25.09.2019
1346 Clear 40 1009 14 10000 2.6 350 13:37 25.09.2019
1347 Clear 40 1009 14 10000 2.6 350 13:19 25.09.2019
1348 Clear 39 1009 14 10000 3.6 360 12:41 25.09.2019
1349 Clear 39 1009 14 10000 3.6 360 12:23 25.09.2019
1350 Clear 39 1010 16 10000 4.1 20 11:57 25.09.2019
1351 Clear 39 1010 16 10000 4.1 20 11:38 25.09.2019
1352 Clear 39 1010 16 10000 4.1 20 11:19 25.09.2019
1353 Haze 38 1010 15 10000 5.1 30 10:43 25.09.2019
1354 Haze 38 1010 15 10000 5.1 30 10:25 25.09.2019
1355 Haze 38 1010 15 10000 5.1 30 10:25 25.09.2019
1356 Clear 36 1011 14 10000 5.7 30 09:57 25.09.2019
1357 Clear 36 1011 14 10000 5.7 30 09:37 25.09.2019
1358 Clear 36 1011 14 10000 5.7 30 09:19 25.09.2019
1359 Clear 33 1010 19 10000 4.6 30 08:44 25.09.2019
1360 Clear 33 1010 19 10000 4.6 30 08:21 25.09.2019
1361 Clear 31 1010 18 10000 4.6 40 07:57 25.09.2019
1362 Clear 31 1010 18 10000 4.6 40 07:38 25.09.2019
1363 Clear 31 1010 18 10000 4.6 40 07:20 25.09.2019
1364 Clear 27 1010 23 10000 2.6 40 06:43 25.09.2019
1365 Clear 27 1010 23 10000 2.6 40 06:22 25.09.2019
1366 Clear 25 1009 23 10000 3.1 40 05:31 25.09.2019
1367 Clear 27 1009 24 10000 3.1 40 04:55 25.09.2019
1368 Clear 28 1008 24 10000 3.1 30 02:31 25.09.2019
1369 Clear 26 1008 31 10000 2.6 10 00:46 25.09.2019
1370 Clear 26 1008 31 10000 2.6 10 00:27 25.09.2019
1371 Clear 24 1009 33 10000 2.1 340 23:59 24.09.2019
1372 Clear 24 1009 33 10000 2.1 340 23:40 24.09.2019
1373 Clear 24 1009 33 10000 2.1 340 23:21 24.09.2019
1374 Clear 26 1009 29 10000 2.6 330 22:40 24.09.2019
1375 Clear 29 1009 29 10000 2.6 330 22:22 24.09.2019
1376 Clear 29 1009 28 10000 2.6 320 21:58 24.09.2019
1377 Clear 29 1009 28 10000 2.6 320 21:58 24.09.2019
1378 Clear 29 1009 28 10000 2.6 320 21:58 24.09.2019
1379 Clear 29 1009 28 10000 2.6 320 21:38 24.09.2019
1380 Clear 29 1009 28 10000 2.6 320 21:19 24.09.2019
1381 Clear 31 1009 23 10000 3.6 300 20:59 24.09.2019
1382 Clear 31 1009 23 10000 3.6 300 20:41 24.09.2019
1383 Clear 31 1009 23 10000 3.6 300 20:22 24.09.2019
1384 Clear 29 1009 30 10000 2.1 310 19:59 24.09.2019
1385 Clear 29 1009 30 10000 2.1 310 19:41 24.09.2019
1386 Clear 29 1009 30 10000 2.1 310 19:19 24.09.2019
1387 Smoke 32 1009 24 10000 0.5 340 18:55 24.09.2019
1388 Smoke 32 1009 24 10000 0.5 340 18:55 24.09.2019
1389 Smoke 32 1009 24 10000 0.5 340 18:55 24.09.2019
1390 Smoke 32 1009 24 10000 0.5 340 18:37 24.09.2019
1391 Smoke 32 1009 24 10000 0.5 340 18:19 24.09.2019
1392 Clear 34 1008 21 10000 2.6 340 17:55 24.09.2019
1393 Clear 34 1008 21 10000 2.6 340 17:37 24.09.2019
1394 Smoke 37 1008 21 10000 2.6 340 17:18 24.09.2019
1395 Smoke 38 1009 17 10000 3.1 330 16:41 24.09.2019
1396 Smoke 38 1009 17 10000 3.1 330 16:20 24.09.2019
1397 Clear 39 1008 14 10000 4.1 350 15:57 24.09.2019
1398 Clear 39 1008 14 10000 4.1 350 15:38 24.09.2019
1399 Clear 39 1008 14 10000 4.1 350 15:19 24.09.2019
1400 Clear 40 1008 14 10000 4.1 330 14:37 24.09.2019
1401 Clear 40 1008 14 10000 4.1 330 14:18 24.09.2019
1402 Clear 39 1009 14 10000 4.1 340 13:41 24.09.2019
1403 Clear 39 1009 14 10000 4.1 340 13:21 24.09.2019
1404 Clear 38 1009 14 10000 4.6 10 12:42 24.09.2019
1405 Clear 38 1009 14 10000 4.6 10 12:22 24.09.2019
1406 Clear 38 1010 14 10000 4.6 340 11:58 24.09.2019
1407 Clear 38 1010 14 10000 4.6 340 11:40 24.09.2019
1408 Clear 38 1010 14 10000 4.6 340 11:21 24.09.2019
1409 Clear 37 1011 16 10000 5.7 350 10:42 24.09.2019
1410 Clear 37 1011 16 10000 5.7 350 10:22 24.09.2019
1411 Clear 35 1011 16 10000 6.2 350 09:59 24.09.2019
1412 Clear 35 1011 16 10000 6.2 350 09:41 24.09.2019
1413 Clear 35 1011 16 10000 6.2 350 09:20 24.09.2019
1414 Haze 33 1011 18 10000 5.1 350 08:55 24.09.2019
1415 Haze 33 1011 18 10000 5.1 350 08:37 24.09.2019
1416 Haze 33 1011 18 10000 5.1 350 08:19 24.09.2019
1417 Haze 28 1011 22 10000 3.6 360 07:42 24.09.2019
1418 Haze 28 1011 22 10000 3.6 360 07:24 24.09.2019
1419 Haze 24 1010 31 10000 2.1 320 06:48 24.09.2019
1420 Haze 24 1010 31 10000 2.1 320 06:28 24.09.2019
1421 Haze 22 1010 32 10000 3.6 330 05:51 24.09.2019
1422 Haze 22 1010 32 10000 3.6 330 05:18 24.09.2019
1423 Clear 27 1009 21 10000 3.6 10 03:43 24.09.2019
1424 Clear 28 1009 21 10000 3.1 20 02:46 24.09.2019
1425 Clear 27 1009 28 10000 2.6 350 01:50 24.09.2019
1426 Clear 28 1009 26 10000 3.6 340 00:43 24.09.2019
1427 Clear 28 1009 26 10000 3.6 340 00:23 24.09.2019
1428 Clear 27 1009 30 10000 3.6 340 23:56 23.09.2019
1429 Clear 27 1009 30 10000 3.6 340 23:37 23.09.2019
1430 Clear 27 1009 30 10000 3.6 340 23:19 23.09.2019
1431 Clear 26 1010 29 10000 4.1 330 22:39 23.09.2019
1432 Clear 29 1010 29 10000 4.1 330 22:20 23.09.2019
1433 Clear 28 1010 31 10000 3.6 320 21:57 23.09.2019
1434 Clear 28 1010 31 10000 3.6 320 21:38 23.09.2019
1435 Clear 28 1010 31 10000 3.6 320 21:19 23.09.2019
1436 Clear 30 1009 28 10000 3.1 300 20:41 23.09.2019
1437 Clear 30 1009 28 10000 3.1 300 20:20 23.09.2019
1438 Clear 30 1009 28 10000 3.1 300 20:20 23.09.2019
1439 Clear 31 1009 26 10000 2.6 310 19:59 23.09.2019
1440 Clear 31 1009 26 10000 2.6 310 19:39 23.09.2019
1441 Clear 31 1009 26 10000 2.6 310 19:21 23.09.2019
1442 Clear 31 1009 21 10000 3.6 350 18:55 23.09.2019
1443 Clear 31 1008 23 10000 2.6 330 18:36 23.09.2019
1444 Smoke 33 1008 23 10000 2.6 330 18:18 23.09.2019
1445 Smoke 34 1008 21 10000 3.1 330 17:55 23.09.2019
1446 Smoke 34 1008 21 10000 3.1 330 17:55 23.09.2019
1447 -273 0 0 0 0 0 17:55 23.09.2019
1448 Smoke 34 1008 21 10000 3.1 330 17:36 23.09.2019
1449 Smoke 34 1008 21 10000 3.1 330 17:18 23.09.2019
1450 Clear 38 1008 18 10000 4.1 340 16:39 23.09.2019
1451 Clear 38 1008 18 10000 4.1 340 16:21 23.09.2019
1452 Clear 39 1008 16 10000 4.6 340 15:59 23.09.2019
1453 Clear 39 1008 16 10000 4.6 340 15:41 23.09.2019
1454 Clear 39 1008 16 10000 4.6 340 15:20 23.09.2019
1455 Clear 39 1008 17 10000 5.1 350 14:58 23.09.2019
1456 Clear 39 1008 17 10000 5.1 350 14:39 23.09.2019
1457 Clear 39 1008 17 10000 5.1 350 14:19 23.09.2019
1458 Clear 38 1008 17 10000 6.2 340 13:57 23.09.2019
1459 Clear 38 1008 17 10000 6.2 340 13:36 23.09.2019
1460 Clear 37 1009 17 10000 6.7 330 13:18 23.09.2019
1461 Clear 37 1009 17 10000 6.7 330 13:18 23.09.2019
1462 Clear 37 1009 17 10000 6.7 330 12:40 23.09.2019
1463 Clear 38 1009 17 10000 6.7 330 12:21 23.09.2019
1464 Clear 38 1010 16 10000 7.2 340 11:55 23.09.2019
1465 Clear 38 1010 16 10000 7.2 340 11:36 23.09.2019
1466 Clear 38 1010 16 10000 7.2 340 11:18 23.09.2019
1467 Clear 35 1011 15 10000 7.2 330 10:42 23.09.2019
1468 Clear 35 1011 15 10000 7.2 330 10:20 23.09.2019
1469 Clear 34 1011 18 10000 4.6 330 09:43 23.09.2019
1470 Clear 34 1011 18 10000 4.6 330 09:25 23.09.2019
1471 Clear 30 1011 21 10000 4.1 340 08:58 23.09.2019
1472 Clear 30 1011 21 10000 4.1 340 08:39 23.09.2019
1473 Clear 30 1011 21 10000 4.1 340 08:19 23.09.2019
1474 Smoke 27 1011 26 10000 3.1 320 07:38 23.09.2019
1475 Smoke 27 1011 26 10000 3.1 320 07:20 23.09.2019
1476 Smoke 24 1010 27 10000 3.1 310 06:20 23.09.2019
1477 Clear 21 1010 26 10000 4.1 320 05:38 23.09.2019
1478 Clear 22 1010 27 10000 3.6 320 04:58 23.09.2019
1479 Clear 22 1010 27 10000 3.6 320 04:37 23.09.2019
1480 Clear 26 1009 24 10000 4.6 330 01:26 23.09.2019
1481 Clear 26 1009 27 10000 3.6 330 00:39 23.09.2019
1482 Clear 26 1009 27 10000 3.6 330 00:19 23.09.2019
1483 Clear 28 1009 26 10000 5.1 320 23:44 22.09.2019
1484 Clear 28 1009 26 10000 5.1 320 23:44 22.09.2019
1485 Clear 28 1009 26 10000 5.1 320 23:26 22.09.2019
1486 Clear 27 1009 30 10000 4.1 310 22:56 22.09.2019
1487 Clear 27 1009 30 10000 4.1 310 22:37 22.09.2019
1488 Clear 29 1009 30 10000 4.1 310 22:19 22.09.2019
1489 Clear 29 1009 25 10000 4.1 320 21:43 22.09.2019
1490 Clear 29 1009 25 10000 4.1 320 21:43 22.09.2019
1491 Clear 29 1009 25 10000 4.1 320 21:21 22.09.2019
1492 Clear 30 1009 25 10000 5.1 290 20:46 22.09.2019
1493 Clear 30 1009 25 10000 5.1 290 20:28 22.09.2019
1494 Clear 31 1008 22 10000 3.1 290 20:00 22.09.2019
1495 Clear 31 1008 22 10000 3.1 290 19:41 22.09.2019
1496 Clear 31 1008 22 10000 3.1 290 19:22 22.09.2019
1497 Clouds 31 1008 22 10000 3.1 320 18:58 22.09.2019
1498 Clear 31 1007 27 10000 2.6 320 18:38 22.09.2019
1499 Clouds 34 1007 20 9000 4.1 290 18:19 22.09.2019
1500 Clear 34 1007 23 10000 2.6 350 17:56 22.09.2019
1501 Clear 34 1007 23 10000 2.6 350 17:37 22.09.2019
1502 Clear 34 1007 23 10000 2.6 350 17:18 22.09.2019
1503 Clear 38 1007 19 10000 4.1 360 16:42 22.09.2019
1504 Clear 38 1007 19 10000 4.1 360 16:23 22.09.2019
1505 Clear 39 1007 17 10000 4.6 340 15:47 22.09.2019
1506 Clear 39 1007 17 10000 4.6 340 15:28 22.09.2019
1507 Clear 39 1007 15 10000 6.2 320 14:59 22.09.2019
1508 Clear 39 1007 15 10000 6.2 320 14:59 22.09.2019
1509 Clear 39 1007 15 10000 6.2 320 14:40 22.09.2019
1510 Clear 39 1007 15 10000 6.2 320 14:22 22.09.2019
1511 Haze 39 1007 15 10000 5.7 330 13:55 22.09.2019
1512 Haze 39 1007 15 10000 5.7 330 13:36 22.09.2019
1513 Haze 39 1007 15 10000 5.7 330 13:18 22.09.2019
1514 Haze 38 1007 17 10000 5.7 330 12:42 22.09.2019
1515 Haze 38 1007 17 10000 5.7 330 12:22 22.09.2019
1516 Clear 37 1008 18 10000 5.7 320 11:56 22.09.2019
1517 Clear 37 1008 18 10000 5.7 320 11:38 22.09.2019
1518 Clear 37 1008 18 10000 5.7 320 11:19 22.09.2019
1519 Haze 36 1008 23 10000 4.6 320 10:44 22.09.2019
1520 Haze 36 1008 23 10000 4.6 320 10:20 22.09.2019
1521 Haze 34 1009 27 10000 3.6 290 09:57 22.09.2019
1522 Haze 34 1009 27 10000 3.6 290 09:38 22.09.2019
1523 Haze 34 1009 27 10000 3.6 290 09:19 22.09.2019
1524 Haze 31 1009 30 10000 3.6 300 08:44 22.09.2019
1525 Haze 31 1009 30 10000 3.6 300 08:23 22.09.2019
1526 Clear 28 1008 34 10000 4.1 320 07:53 22.09.2019
1527 Clear 28 1008 34 10000 4.1 320 07:34 22.09.2019
1528 Clear 24 1008 32 10000 4.6 320 06:59 22.09.2019
1529 Clear 23 1008 38 10000 3.1 310 06:38 22.09.2019
1530 Clear 21 1007 37 10000 3.1 300 05:23 22.09.2019
1531 Clear 24 1005 31 10000 4.1 320 02:59 22.09.2019
1532 Clear 24 1005 31 10000 4.1 320 02:36 22.09.2019
1533 Clear 24 1005 31 10000 4.1 320 02:18 22.09.2019
1534 Clear 27 1005 39 10000 2.6 330 00:58 22.09.2019
1535 Clear 27 1005 39 10000 2.6 330 00:33 22.09.2019
1536 Clear 27 1005 44 10000 3.1 330 23:57 21.09.2019
1537 Clear 27 1005 44 10000 3.1 330 23:39 21.09.2019
1538 Clear 28 1005 37 10000 3.6 310 22:59 21.09.2019
1539 Clear 28 1005 37 10000 3.6 310 22:39 21.09.2019
1540 Clear 30 1005 37 10000 3.6 310 22:20 21.09.2019
1541 Clear 30 1005 29 10000 4.6 290 21:42 21.09.2019
1542 Clear 30 1005 29 10000 4.6 290 21:20 21.09.2019
1543 Clear 32 1005 21 10000 4.6 290 20:58 21.09.2019
1544 Clear 32 1005 21 10000 4.6 290 20:38 21.09.2019
1545 Clear 32 1005 21 10000 4.6 290 20:19 21.09.2019
1546 Clear 32 1005 21 10000 4.6 290 20:19 21.09.2019
1547 Clear 32 1005 21 10000 4.6 290 20:19 21.09.2019
1548 Clear 32 1004 19 10000 5.1 290 19:47 21.09.2019
1549 Clear 33 1004 16 10000 5.7 300 19:23 21.09.2019
1550 Haze 34 1004 18 10000 5.7 290 18:55 21.09.2019
1551 Haze 34 1004 18 10000 5.7 290 18:37 21.09.2019
1552 Haze 34 1004 18 10000 5.7 290 18:18 21.09.2019
1553 Haze 37 1003 19 10000 4.1 270 17:40 21.09.2019
1554 Haze 37 1003 19 10000 4.1 270 17:20 21.09.2019
1555 Haze 40 1003 16 10000 4.6 280 16:43 21.09.2019
1556 Haze 40 1003 16 10000 4.6 280 16:24 21.09.2019
1557 Haze 42 1003 16 10000 5.1 270 15:48 21.09.2019
1558 Haze 42 1003 16 10000 5.1 270 15:25 21.09.2019
1559 Haze 42 1003 14 8000 4.1 290 14:55 21.09.2019
1560 Haze 42 1003 14 8000 4.1 290 14:37 21.09.2019
1561 Haze 41 1003 14 8000 4.1 290 14:19 21.09.2019
1562 Haze 41 1003 19 10000 4.6 280 13:41 21.09.2019
1563 Haze 41 1003 19 10000 4.6 280 13:23 21.09.2019
1564 Haze 41 1004 20 10000 3.6 260 12:57 21.09.2019
1565 Haze 41 1004 20 10000 3.6 260 12:38 21.09.2019
1566 Haze 41 1004 20 10000 3.6 260 12:20 21.09.2019
1567 Haze 40 1004 16 10000 3.6 240 11:50 21.09.2019
1568 Haze 40 1004 16 10000 3.6 240 11:25 21.09.2019
1569 Haze 39 1005 22 10000 3.6 270 10:56 21.09.2019
1570 Haze 39 1005 22 10000 3.6 270 10:37 21.09.2019
1571 Haze 39 1005 22 10000 3.6 270 10:19 21.09.2019
1572 Haze 37 1005 19 10000 3.6 200 09:55 21.09.2019
1573 Haze 37 1005 19 10000 3.6 200 09:36 21.09.2019
1574 Haze 37 1005 19 10000 3.6 200 09:18 21.09.2019
1575 Haze 35 1005 20 10000 3.1 110 08:42 21.09.2019
1576 Haze 32 1005 26 9000 1.5 140 07:58 21.09.2019
1577 Haze 32 1005 26 9000 1.5 140 07:39 21.09.2019
1578 Smoke 28 1005 44 5000 2.1 130 07:18 21.09.2019
1579 Smoke 28 1005 44 5000 2.1 130 06:35 21.09.2019
1580 Haze 25 1005 46 4400 1.5 190 05:51 21.09.2019
1581 Clear 27 1004 44 9000 0.5 0 04:39 21.09.2019
1582 Clear 27 1004 44 9000 0.5 0 04:39 21.09.2019
1583 Clear 26 1004 47 10000 1.5 110 03:31 21.09.2019
1584 Clear 26 1004 41 8000 0.5 0 02:25 21.09.2019
1585 Clear 27 1005 51 10000 0.5 40 01:48 21.09.2019
1586 Clear 27 1005 51 10000 0.5 40 01:23 21.09.2019
1587 Clear 27 1005 39 9000 0.5 0 00:23 21.09.2019
1588 Clear 30 1005 33 9000 1 0 23:49 20.09.2019
1589 Clear 30 1005 33 9000 1 0 23:30 20.09.2019
1590 Clear 29 1005 35 9000 1 0 22:55 20.09.2019
1591 Clear 29 1005 35 9000 1 0 22:55 20.09.2019
1592 Clear 29 1005 35 9000 1 0 22:36 20.09.2019
1593 Clear 32 1005 35 9000 1 0 22:18 20.09.2019
1594 Clear 33 1006 27 9000 1.5 170 21:40 20.09.2019
1595 Clear 33 1006 27 9000 1.5 170 21:22 20.09.2019
1596 Clear 32 1006 27 10000 1 130 20:59 20.09.2019
1597 Clear 32 1006 27 10000 1 130 20:41 20.09.2019
1598 Clear 32 1006 27 10000 1 130 20:20 20.09.2019
1599 Haze 34 1006 30 10000 1.5 60 19:56 20.09.2019
1600 Haze 34 1006 30 10000 1.5 60 19:37 20.09.2019
1601 Haze 34 1006 26 10000 2.6 30 19:18 20.09.2019
1602 Haze 34 1006 26 10000 2.6 30 18:39 20.09.2019
1603 Haze 34 1006 26 10000 2.6 30 18:20 20.09.2019
1604 Haze 38 1006 17 10000 2.1 280 17:56 20.09.2019
1605 Haze 38 1006 17 10000 2.1 280 17:56 20.09.2019
1606 Haze 38 1006 17 10000 2.1 280 17:38 20.09.2019
1607 Haze 38 1006 17 10000 2.1 280 17:18 20.09.2019
1608 Haze 42 1006 18 10000 4.6 250 16:38 20.09.2019
1609 Haze 42 1006 18 10000 4.6 250 16:19 20.09.2019
1610 Clear 35 1004 13 0 2.44 20.08 15:42 20.09.2019
1611 Clear 42 1006 13 10000 5.1 260 15:23 20.09.2019
1612 Clear 42 1006 13 10000 5.1 260 15:23 20.09.2019
1613 Clear 42 1006 13 10000 5.1 260 14:56 20.09.2019
1614 Clear 42 1006 13 10000 5.1 260 14:38 20.09.2019
1615 Clear 42 1006 13 10000 5.1 260 14:18 20.09.2019
1616 Clear 43 1005 8 0 4.42 297.505 13:45 20.09.2019
1617 Haze 43 1007 13 10000 3.6 330 13:27 20.09.2019
1618 Haze 43 1007 13 10000 3.6 330 12:56 20.09.2019
1619 Haze 43 1007 13 10000 3.6 330 12:36 20.09.2019
1620 Haze 41 1008 15 10000 3.6 330 12:18 20.09.2019
1621 Haze 41 1008 15 10000 3.6 330 12:18 20.09.2019
1622 Haze 41 1008 15 10000 3.6 330 12:18 20.09.2019
1623 Haze 41 1008 15 10000 3.6 330 11:44 20.09.2019
1624 Haze 41 1008 15 10000 3.6 330 11:19 20.09.2019
1625 Haze 39 1009 15 10000 4.1 330 10:43 20.09.2019
1626 Haze 39 1009 15 10000 4.1 330 10:43 20.09.2019
1627 Haze 39 1009 15 10000 4.1 330 10:43 20.09.2019
1628 Haze 39 1009 15 10000 4.1 330 10:23 20.09.2019
1629 Haze 37 1009 19 10000 3.6 320 09:39 20.09.2019
1630 Haze 37 1009 19 10000 3.6 320 09:19 20.09.2019
1631 Haze 32 1010 22 10000 2.6 320 08:59 20.09.2019
1632 Haze 32 1010 22 10000 2.6 320 08:59 20.09.2019
1633 Haze 32 1010 22 10000 2.6 320 08:40 20.09.2019
1634 Haze 32 1010 22 10000 2.6 320 08:40 20.09.2019
1635 Haze 32 1010 22 10000 2.6 320 08:21 20.09.2019
1636 Haze 29 1009 30 10000 2.6 340 07:45 20.09.2019
1637 Haze 29 1009 30 10000 2.6 340 07:25 20.09.2019
1638 Clear 26 1009 41 10000 2.1 330 06:44 20.09.2019
1639 Clear 26 1009 41 10000 2.1 330 06:44 20.09.2019
1640 Clear 26 1009 41 10000 2.1 330 06:20 20.09.2019
1641 Clear 25 1009 46 10000 1.5 310 05:42 20.09.2019
1642 Clear 24 1009 38 10000 3.6 320 03:31 20.09.2019
1643 Clear 25 1009 38 10000 4.6 310 02:51 20.09.2019
1644 Clear 25 1009 38 10000 4.6 310 02:51 20.09.2019
1645 Clear 25 1009 33 10000 2.6 310 01:44 20.09.2019
1646 Clear 27 1009 28 10000 2.6 290 00:46 20.09.2019
1647 Clear 27 1009 28 10000 2.6 290 00:21 20.09.2019
1648 Clear 27 1009 28 10000 2.6 290 00:21 20.09.2019
1649 Clear 27 1009 28 10000 2.6 320 23:41 19.09.2019
1650 Clear 27 1009 28 10000 2.6 320 23:19 19.09.2019
1651 Clear 28 1010 26 10000 3.1 330 22:54 19.09.2019
1652 Clear 28 1010 26 10000 3.1 330 22:36 19.09.2019
1653 Clear 28 1010 26 10000 3.1 330 22:18 19.09.2019
1654 Clear 30 1010 21 10000 4.6 270 21:55 19.09.2019
1655 Clear 30 1010 21 10000 4.6 270 21:36 19.09.2019
1656 Clear 30 1010 21 10000 4.6 270 21:18 19.09.2019
1657 Clear 30 1010 21 10000 4.6 270 21:18 19.09.2019
1658 Clear 31 1010 22 10000 2.6 270 20:43 19.09.2019
1659 Clear 31 1010 22 10000 2.6 270 20:20 19.09.2019
1660 Clear 32 1010 23 10000 1.5 270 19:55 19.09.2019
1661 Clear 32 1010 23 10000 1.5 270 19:37 19.09.2019
1662 Clear 33 1010 22 10000 1.5 270 19:18 19.09.2019
1663 Haze 32 1010 21 10000 2.1 280 18:42 19.09.2019
1664 Haze 32 1010 21 10000 2.1 280 18:42 19.09.2019
1665 Haze 32 1010 21 10000 2.1 280 18:23 19.09.2019
1666 Haze 39 1010 18 10000 3.6 270 17:44 19.09.2019
1667 Haze 39 1010 18 10000 3.6 270 17:25 19.09.2019
1668 Haze 41 1010 14 10000 5.7 280 16:59 19.09.2019
1669 Haze 41 1010 14 10000 5.7 280 16:40 19.09.2019
1670 Haze 41 1010 14 10000 5.7 280 16:20 19.09.2019
1671 Haze 41 1010 14 10000 6.2 310 15:41 19.09.2019
1672 Haze 41 1010 14 10000 6.2 310 15:22 19.09.2019
1673 Haze 41 1010 15 10000 5.7 310 14:58 19.09.2019
1674 Haze 41 1010 15 10000 5.7 310 14:39 19.09.2019
1675 Haze 41 1010 15 10000 5.7 310 14:21 19.09.2019
1676 Haze 41 1010 12 10000 6.7 320 13:57 19.09.2019
1677 Haze 41 1010 12 10000 6.7 320 13:37 19.09.2019
1678 Haze 41 1010 12 10000 6.7 320 13:18 19.09.2019
1679 Haze 39 1011 15 10000 5.1 310 12:37 19.09.2019
1680 Haze 39 1011 15 10000 5.1 310 12:18 19.09.2019
1681 Haze 39 1011 16 10000 4.6 300 11:41 19.09.2019
1682 Haze 39 1011 16 10000 4.6 300 11:22 19.09.2019
1683 Haze 37 1012 20 10000 4.1 300 10:59 19.09.2019
1684 Haze 37 1012 20 10000 4.1 300 10:39 19.09.2019
1685 Haze 37 1012 20 10000 4.1 300 10:21 19.09.2019
1686 Haze 37 1012 20 10000 4.1 300 10:21 19.09.2019
1687 Clear 35 1012 23 10000 3.6 320 09:57 19.09.2019
1688 Clear 35 1012 23 10000 3.6 320 09:39 19.09.2019
1689 Clear 35 1012 23 10000 3.6 320 09:19 19.09.2019
1690 Smoke 31 1012 23 10000 3.1 330 08:50 19.09.2019
1691 Smoke 31 1012 23 10000 3.1 330 08:23 19.09.2019
1692 Smoke 27 1012 26 10000 3.1 300 07:44 19.09.2019
1693 Smoke 27 1012 26 10000 3.1 300 07:22 19.09.2019
1694 Clear 24 1011 31 10000 2.6 310 06:57 19.09.2019
1695 Clear 24 1011 31 10000 2.6 310 06:37 19.09.2019
1696 Clear 24 1011 31 10000 2.6 310 06:19 19.09.2019
1697 Clear 21 1011 40 10000 3.1 310 05:42 19.09.2019
1698 Clear 22 1011 30 10000 2.6 330 04:19 19.09.2019
1699 Clear 25 1011 33 10000 2.6 300 03:20 19.09.2019
1700 Clear 26 1010 27 10000 4.1 310 01:40 19.09.2019
1701 Clear 26 1010 27 10000 4.1 310 01:19 19.09.2019
1702 Clear 26 1011 29 10000 3.1 330 00:42 19.09.2019
1703 Clear 26 1011 29 10000 3.1 330 00:18 19.09.2019
1704 Clear 28 1011 26 10000 4.1 320 23:37 18.09.2019
1705 Clear 28 1011 26 10000 4.1 320 23:19 18.09.2019
1706 Clear 29 1011 25 10000 5.1 320 22:39 18.09.2019
1707 Clear 28 1011 25 10000 5.1 320 22:19 18.09.2019
1708 Clear 28 1011 30 10000 4.6 310 21:57 18.09.2019
1709 Clear 28 1011 30 10000 4.6 310 21:39 18.09.2019
1710 Clear 28 1011 30 10000 4.6 310 21:18 18.09.2019
1711 Clear 28 1011 30 10000 3.1 300 20:57 18.09.2019
1712 Clear 28 1011 30 10000 3.1 300 20:39 18.09.2019
1713 Clear 31 1011 23 10000 5.1 300 20:20 18.09.2019
1714 Clear 31 1011 23 10000 5.1 300 19:56 18.09.2019
1715 Clear 31 1011 23 10000 5.1 300 19:37 18.09.2019
1716 Clear 32 1010 22 10000 3.1 300 19:18 18.09.2019
1717 Clear 32 1010 22 10000 3.1 300 19:18 18.09.2019
1718 Clear 32 1010 22 10000 3.1 300 19:18 18.09.2019
1719 Clear 32 1010 22 10000 3.1 300 18:55 18.09.2019
1720 Clear 32 1010 22 10000 3.1 300 18:36 18.09.2019
1721 Clear 32 1010 22 10000 3.1 300 18:18 18.09.2019
1722 Clear 36 1010 18 10000 3.6 330 17:54 18.09.2019
1723 Clear 36 1010 18 10000 3.6 330 17:36 18.09.2019
1724 Clear 36 1010 18 10000 3.6 330 17:18 18.09.2019
1725 Haze 39 1010 16 10000 5.1 340 16:43 18.09.2019
1726 Haze 39 1010 16 10000 5.1 340 16:22 18.09.2019
1727 Haze 40 1009 15 10000 6.2 340 15:59 18.09.2019
1728 Haze 40 1009 15 10000 6.2 340 15:59 18.09.2019
1729 Haze 40 1009 15 10000 6.2 340 15:40 18.09.2019
1730 Haze 40 1009 15 10000 6.2 340 15:20 18.09.2019
1731 Clear 41 1010 13 10000 7.7 320 14:58 18.09.2019
1732 Clear 41 1010 13 10000 7.7 320 14:40 18.09.2019
1733 Clear 41 1010 13 10000 7.7 320 14:40 18.09.2019
1734 Haze 40 1010 13 10000 7.7 320 14:22 18.09.2019
1735 Haze 40 1010 14 10000 6.7 340 13:58 18.09.2019
1736 Haze 40 1010 14 10000 6.7 340 13:38 18.09.2019
1737 Clear 39 1010 14 10000 6.2 340 13:18 18.09.2019
1738 Clear 39 1010 14 10000 6.2 340 12:45 18.09.2019
1739 Haze 39 1010 14 10000 6.2 340 12:27 18.09.2019
1740 Clear 38 1011 17 10000 7.7 340 11:41 18.09.2019
1741 Clear 38 1011 17 10000 7.7 340 11:41 18.09.2019
1742 Haze 38 1011 17 10000 7.7 340 11:21 18.09.2019
1743 Haze 38 1011 18 10000 8.7 330 10:58 18.09.2019
1744 Haze 38 1011 18 10000 8.7 330 10:40 18.09.2019
1745 Haze 38 1011 18 10000 8.7 330 10:20 18.09.2019
1746 Haze 36 1011 22 10000 7.7 340 09:58 18.09.2019
1747 Haze 36 1011 22 10000 7.7 340 09:37 18.09.2019
1748 Haze 36 1011 22 10000 7.7 340 09:37 18.09.2019
1749 Haze 36 1011 22 10000 7.7 340 09:19 18.09.2019
1750 Clear 34 1011 26 10000 6.7 340 08:41 18.09.2019
1751 Clear 34 1011 26 10000 6.7 340 08:41 18.09.2019
1752 Clear 34 1011 26 10000 6.7 340 08:23 18.09.2019
1753 Clear 32 1011 27 10000 6.7 350 07:52 18.09.2019
1754 Clear 32 1011 27 10000 6.7 350 07:33 18.09.2019
1755 Haze 31 1011 29 10000 6.2 350 06:55 18.09.2019
1756 Haze 30 1010 30 10000 5.7 340 06:35 18.09.2019
1757 Haze 30 1010 32 10000 6.2 340 05:41 18.09.2019
1758 Clear 30 1009 28 10000 6.7 340 04:42 18.09.2019
1759 Clear 30 1008 30 10000 5.1 330 02:41 18.09.2019
1760 Clear 30 1008 30 10000 5.1 330 02:18 18.09.2019
1761 Clear 31 1008 29 10000 5.7 330 01:20 18.09.2019
1762 Clear 31 1008 29 10000 6.2 330 00:47 18.09.2019
1763 Clear 31 1008 29 10000 6.2 330 00:19 18.09.2019
1764 Clear 31 1008 29 10000 4.6 330 23:44 17.09.2019
1765 Clear 31 1008 29 10000 4.6 330 23:22 17.09.2019
1766 Clear 31 1008 31 10000 3.6 330 22:42 17.09.2019
1767 Clear 32 1008 31 10000 3.6 330 22:24 17.09.2019
1768 Clear 32 1008 29 10000 4.1 330 21:55 17.09.2019
1769 Clear 32 1008 29 10000 4.1 330 21:37 17.09.2019
1770 Clear 32 1008 29 10000 4.1 330 21:18 17.09.2019
1771 Clear 33 1008 27 10000 3.6 320 20:57 17.09.2019
1772 Clear 33 1008 27 10000 3.6 320 20:39 17.09.2019
1773 Clear 33 1008 27 10000 3.6 320 20:21 17.09.2019
1774 Clear 34 1007 23 10000 5.1 300 19:58 17.09.2019
1775 Clear 36 1007 23 10000 5.1 300 19:39 17.09.2019
1776 Haze 35 1007 23 10000 5.1 300 19:19 17.09.2019
1777 Haze 35 1007 23 10000 5.1 300 18:56 17.09.2019
1778 Clear 37 1006 22 10000 4.1 290 18:38 17.09.2019
1779 Haze 37 1006 22 10000 4.1 290 18:19 17.09.2019
1780 Haze 37 1006 21 10000 2.6 320 17:45 17.09.2019
1781 Haze 37 1006 21 10000 2.6 320 17:19 17.09.2019
1782 Haze 37 1006 21 10000 2.6 320 17:19 17.09.2019
1783 Haze 41 1006 19 10000 3.6 340 16:56 17.09.2019
1784 Haze 41 1006 19 10000 3.6 340 16:37 17.09.2019
1785 Haze 41 1006 19 10000 3.6 340 16:19 17.09.2019
1786 Haze 42 1006 18 10000 3.6 340 15:39 17.09.2019
1787 Haze 42 1006 18 10000 3.6 340 15:20 17.09.2019
1788 Haze 43 1006 18 10000 3.6 340 14:56 17.09.2019
1789 Haze 43 1006 18 10000 3.6 340 14:56 17.09.2019
1790 Haze 43 1006 18 10000 3.6 340 14:38 17.09.2019
1791 Haze 43 1006 18 10000 3.6 340 14:19 17.09.2019
1792 Haze 43 1007 17 10000 4.1 330 13:54 17.09.2019
1793 Haze 43 1007 17 10000 4.1 330 13:36 17.09.2019
1794 Haze 43 1007 17 10000 4.1 330 13:18 17.09.2019
1795 Haze 42 1008 18 10000 4.6 330 12:41 17.09.2019
1796 Haze 42 1008 18 10000 4.6 330 12:19 17.09.2019
1797 Haze 41 1008 20 10000 4.6 350 11:44 17.09.2019
1798 Haze 41 1008 20 10000 4.6 350 11:25 17.09.2019
1799 Haze 41 1008 20 10000 4.6 350 10:57 17.09.2019
1800 Haze 41 1008 20 10000 4.6 350 10:39 17.09.2019
1801 Haze 41 1008 20 10000 4.6 350 10:20 17.09.2019
1802 Haze 38 1009 22 10000 4.6 340 09:43 17.09.2019
1803 Haze 38 1009 22 10000 4.6 340 09:24 17.09.2019
1804 Haze 35 1009 26 10000 5.1 340 08:57 17.09.2019
1805 Haze 35 1009 26 10000 5.1 340 08:39 17.09.2019
1806 Haze 35 1009 26 10000 5.1 340 08:20 17.09.2019
1807 Haze 32 1009 31 10000 3.6 340 07:42 17.09.2019
1808 Haze 32 1009 31 10000 3.6 340 07:24 17.09.2019
1809 Clear 28 1008 39 10000 3.1 320 06:52 17.09.2019
1810 Clear 28 1008 39 10000 3.1 320 06:29 17.09.2019
1811 Clear 27 1008 44 10000 3.6 330 05:51 17.09.2019
1812 Clear 27 1008 41 10000 3.1 320 04:46 17.09.2019
1813 Clear 28 1007 36 10000 3.6 330 03:40 17.09.2019
1814 Clear 26 1007 36 10000 3.6 330 02:39 17.09.2019
1815 Clear 26 1007 36 10000 3.6 330 02:39 17.09.2019
1816 Clear 28 1008 32 10000 4.1 330 01:49 17.09.2019
1817 Clear 28 1008 32 10000 3.6 320 00:46 17.09.2019
1818 Clear 28 1008 34 10000 3.1 320 23:41 16.09.2019
1819 Clear 28 1008 34 10000 3.1 320 23:20 16.09.2019
1820 Clear 28 1008 39 10000 3.1 320 22:58 16.09.2019
1821 Clear 28 1008 39 10000 3.1 320 22:40 16.09.2019
1822 Haze 30 1008 39 10000 3.1 320 22:21 16.09.2019
1823 Haze 30 1008 39 10000 3.1 320 22:21 16.09.2019
1824 Haze 30 1008 35 10000 3.1 320 21:56 16.09.2019
1825 Haze 30 1008 35 10000 3.1 320 21:38 16.09.2019
1826 Haze 30 1008 35 10000 3.1 320 21:19 16.09.2019
1827 Haze 31 1008 33 10000 3.1 320 20:42 16.09.2019
1828 Haze 31 1008 33 10000 3.1 320 20:23 16.09.2019
1829 Haze 33 1008 29 10000 4.6 320 19:58 16.09.2019
1830 Haze 33 1008 29 10000 4.6 320 19:39 16.09.2019
1831 Haze 33 1008 29 10000 4.6 320 19:20 16.09.2019
1832 Haze 34 1008 26 10000 2.1 330 18:56 16.09.2019
1833 Haze 34 1008 26 10000 2.1 330 18:37 16.09.2019
1834 Smoke 37 1007 22 10000 2.6 340 18:18 16.09.2019
1835 Smoke 37 1007 22 10000 2.6 340 17:42 16.09.2019
1836 Smoke 37 1007 22 10000 2.6 340 17:24 16.09.2019
1837 Haze 40 1007 17 10000 3.6 330 16:58 16.09.2019
1838 Haze 40 1007 17 10000 3.6 330 16:38 16.09.2019
1839 Haze 40 1007 17 10000 3.6 330 16:20 16.09.2019
1840 Haze 41 1008 18 10000 3.6 340 15:56 16.09.2019
1841 Haze 41 1008 18 10000 3.6 340 15:37 16.09.2019
1842 Haze 41 1008 18 10000 3.6 340 15:18 16.09.2019
1843 Clear 42 1008 18 10000 3.6 320 14:44 16.09.2019
1844 Clear 42 1008 18 10000 3.6 320 14:23 16.09.2019
1845 Smoke 41 1008 20 10000 4.6 320 13:59 16.09.2019
1846 Smoke 41 1008 20 10000 4.6 320 13:39 16.09.2019
1847 Smoke 41 1008 20 10000 4.6 320 13:39 16.09.2019
1848 Smoke 41 1008 20 10000 4.6 320 13:39 16.09.2019
1849 Haze 40 1008 20 10000 2.6 0 13:21 16.09.2019
1850 Haze 40 1008 20 10000 2.6 0 12:45 16.09.2019
1851 Haze 40 1008 20 10000 2.6 0 12:27 16.09.2019
1852 Haze 39 1009 21 10000 4.1 340 11:58 16.09.2019
1853 Haze 39 1009 21 10000 4.1 340 11:39 16.09.2019
1854 Haze 38 1009 22 10000 3.6 10 11:21 16.09.2019
1855 Haze 38 1009 22 10000 3.6 10 10:39 16.09.2019
1856 Haze 38 1009 22 10000 3.6 10 10:21 16.09.2019
1857 Haze 36 1010 30 10000 3.1 340 09:58 16.09.2019
1858 Haze 36 1010 30 10000 3.1 340 09:39 16.09.2019
1859 Haze 36 1010 30 10000 3.1 340 09:19 16.09.2019
1860 Haze 33 1010 33 10000 3.1 340 08:47 16.09.2019
1861 Haze 33 1010 33 10000 3.1 340 08:28 16.09.2019
1862 Haze 31 1009 37 10000 4.1 330 07:56 16.09.2019
1863 Haze 31 1009 37 10000 4.1 330 07:56 16.09.2019
1864 Haze 31 1009 37 10000 4.1 330 07:38 16.09.2019
1865 Haze 31 1009 37 10000 4.1 330 07:20 16.09.2019
1866 Clear 26 1009 47 10000 1 290 06:46 16.09.2019
1867 Clear 25 1009 47 10000 1 290 06:28 16.09.2019
1868 Clear 24 1008 47 10000 1 340 05:53 16.09.2019
1869 Clear 24 1008 47 10000 1 340 05:32 16.09.2019
1870 -273 0 0 0 0 0 04:55 16.09.2019
1871 Clear 28 1007 32 10000 2.6 260 03:31 16.09.2019
1872 Clear 30 1006 33 10000 2.6 300 00:44 16.09.2019
1873 Clear 30 1006 33 10000 2.6 300 00:26 16.09.2019
1874 Clear 31 1005 29 10000 2.6 300 23:45 15.09.2019
1875 Clear 31 1005 29 10000 2.6 300 23:22 15.09.2019
1876 Clear 33 1005 26 10000 2.6 240 22:59 15.09.2019
1877 Clear 33 1005 26 10000 2.6 240 22:38 15.09.2019
1878 Haze 33 1005 26 10000 2.6 240 22:18 15.09.2019
1879 Haze 33 1005 29 10000 3.1 170 21:56 15.09.2019
1880 Haze 33 1005 29 10000 3.1 170 21:37 15.09.2019
1881 Haze 33 1005 29 10000 3.1 170 21:37 15.09.2019
1882 Haze 33 1005 29 10000 3.1 170 21:19 15.09.2019
1883 Haze 35 1004 23 10000 5.1 180 20:44 15.09.2019
1884 Haze 35 1004 23 10000 5.1 180 20:44 15.09.2019
1885 Haze 35 1004 23 10000 5.1 180 20:26 15.09.2019
1886 Haze 35 1003 24 10000 4.1 140 19:56 15.09.2019
1887 Clear 35 1003 24 10000 4.1 140 19:37 15.09.2019
1888 Haze 37 1003 24 10000 4.1 140 19:19 15.09.2019
1889 Haze 37 1002 21 10000 6.2 120 18:40 15.09.2019
1890 Haze 37 1002 21 10000 6.2 120 18:20 15.09.2019
1891 Haze 39 1002 20 10000 5.1 120 17:43 15.09.2019
1892 Haze 39 1002 20 10000 5.1 120 17:22 15.09.2019
1893 Haze 42 1002 17 10000 5.1 130 16:58 15.09.2019
1894 Haze 42 1002 17 10000 5.1 130 16:40 15.09.2019
1895 Haze 42 1002 17 10000 5.1 130 16:22 15.09.2019
1896 Haze 43 1002 13 10000 8.7 140 15:56 15.09.2019
1897 Clear 44 1002 13 10000 8.7 140 15:38 15.09.2019
1898 Haze 43 1002 13 10000 8.7 140 15:19 15.09.2019
1899 Haze 44 1003 14 10000 7.2 120 14:55 15.09.2019
1900 Clear 45 1003 14 10000 7.2 120 14:37 15.09.2019
1901 Haze 44 1003 14 10000 7.2 120 14:18 15.09.2019
1902 Haze 43 1003 16 10000 6.2 110 13:43 15.09.2019
1903 Haze 43 1003 16 10000 6.2 110 13:21 15.09.2019
1904 Haze 43 1004 14 10000 6.7 130 12:42 15.09.2019
1905 Haze 43 1004 14 10000 6.7 130 12:24 15.09.2019
1906 Haze 41 1005 17 10000 6.2 140 11:58 15.09.2019
1907 Haze 41 1005 17 10000 6.2 140 11:40 15.09.2019
1908 Haze 40 1005 18 10000 5.7 130 11:20 15.09.2019
1909 Haze 40 1005 18 10000 5.7 130 10:42 15.09.2019
1910 Haze 40 1005 18 10000 5.7 130 10:22 15.09.2019
1911 Haze 37 1006 20 10000 4.6 140 09:58 15.09.2019
1912 Haze 37 1006 20 10000 4.6 140 09:37 15.09.2019
1913 Haze 37 1006 20 10000 4.6 140 09:19 15.09.2019
1914 Haze 35 1006 22 10000 2.1 130 08:45 15.09.2019
1915 Haze 35 1006 22 10000 2.1 130 08:26 15.09.2019
1916 Haze 32 1006 26 10000 2.6 120 07:48 15.09.2019
1917 Haze 32 1006 26 10000 2.6 120 07:26 15.09.2019
1918 Haze 28 1005 35 10000 1.4 122.183 06:39 15.09.2019
1919 Clear 27 1004 39 9000 1 0 03:25 15.09.2019
1920 Clear 31 1004 27 10000 2.1 60 02:33 15.09.2019
1921 Clear 31 1004 29 10000 2.1 60 01:39 15.09.2019
1922 Clear 31 1004 29 10000 2.1 60 01:39 15.09.2019
1923 Clear 31 1004 29 10000 2.1 60 01:19 15.09.2019
1924 Clear 31 1005 31 10000 3.1 60 00:41 15.09.2019
1925 Clear 31 1005 31 10000 3.1 60 00:21 15.09.2019
1926 Clear 31 1005 35 9000 2.6 80 23:58 14.09.2019
1927 Clear 31 1005 35 9000 2.6 80 23:39 14.09.2019
1928 Clear 31 1005 35 9000 2.6 80 23:21 14.09.2019
1929 Clear 32 1006 31 8000 3.1 50 22:59 14.09.2019
1930 Clear 32 1006 31 8000 3.1 50 22:40 14.09.2019
1931 Clear 32 1006 31 8000 3.1 50 22:19 14.09.2019
1932 Clear 32 1006 31 10000 2.6 50 21:55 14.09.2019
1933 Clear 32 1006 31 10000 2.6 50 21:36 14.09.2019
1934 Clear 32 1006 31 10000 2.6 50 21:18 14.09.2019
1935 Clear 32 1006 27 10000 2.1 30 20:40 14.09.2019
1936 Clear 32 1006 27 10000 2.1 30 20:22 14.09.2019
1937 Clear 32 1006 27 10000 2.1 30 20:22 14.09.2019
1938 Clear 33 1006 28 10000 2.1 40 19:57 14.09.2019
1939 Clear 33 1006 28 10000 2.1 40 19:37 14.09.2019
1940 Clear 33 1006 28 10000 2.1 40 19:19 14.09.2019
1941 Smoke 36 1005 26 10000 2.1 20 18:41 14.09.2019
1942 Smoke 36 1005 26 10000 2.1 20 18:21 14.09.2019
1943 Smoke 38 1005 21 10000 3.1 20 17:58 14.09.2019
1944 Smoke 38 1005 21 10000 3.1 20 17:39 14.09.2019
1945 Smoke 38 1005 21 10000 3.1 20 17:21 14.09.2019
1946 Haze 40 1005 20 10000 2.1 60 16:44 14.09.2019
1947 Haze 40 1005 20 10000 2.1 60 16:22 14.09.2019
1948 Haze 40 1006 19 10000 2.1 40 15:56 14.09.2019
1949 Haze 40 1006 19 10000 2.1 40 15:37 14.09.2019
1950 Haze 40 1006 19 10000 2.1 40 15:18 14.09.2019
1951 Haze 40 1006 18 10000 3.6 300 14:43 14.09.2019
1952 Haze 40 1006 18 10000 3.6 300 14:19 14.09.2019
1953 Haze 40 1006 16 10000 1.5 10 13:47 14.09.2019
1954 Haze 40 1006 16 10000 1.5 10 13:22 14.09.2019
1955 Haze 40 1007 19 10000 1.5 0 12:48 14.09.2019
1956 Haze 40 1007 19 10000 1.5 0 12:27 14.09.2019
1957 Haze 40 1007 17 10000 2.1 70 11:56 14.09.2019
1958 Haze 40 1007 17 10000 2.1 70 11:37 14.09.2019
1959 Haze 40 1007 17 10000 2.1 70 11:19 14.09.2019
1960 Haze 39 1008 19 10000 1.5 0 10:37 14.09.2019
1961 Haze 39 1008 19 10000 1.5 0 10:19 14.09.2019
1962 Haze 37 1008 21 10000 1.5 80 09:57 14.09.2019
1963 Haze 37 1008 21 10000 1.5 80 09:38 14.09.2019
1964 Haze 37 1008 21 10000 1.5 80 09:19 14.09.2019
1965 Haze 35 1008 22 10000 1 0 08:46 14.09.2019
1966 Haze 35 1008 22 10000 1 0 08:23 14.09.2019
1967 Clear 33 1008 22 10000 0.5 0 07:47 14.09.2019
1968 Clear 32 1008 29 9000 1 300 07:28 14.09.2019
1969 Clear 30 1008 31 8000 1 300 06:52 14.09.2019
1970 Clear 29 1007 39 7000 1 290 06:28 14.09.2019
1971 Clear 26 1007 50 7000 0.5 300 05:26 14.09.2019
1972 Clear 26 1006 47 7000 2.1 320 03:46 14.09.2019
1973 Clear 25 1006 44 8000 1 320 02:54 14.09.2019
1974 Clear 25 1006 44 8000 1 320 02:54 14.09.2019
1975 Clear 26 1006 41 8000 1.5 310 01:54 14.09.2019
1976 Clear 26 1006 41 8000 1.5 310 01:23 14.09.2019
1977 Clear 28 1006 37 10000 1 0 00:59 14.09.2019
1978 Clear 28 1006 37 10000 1 0 00:39 14.09.2019
1979 Clear 28 1006 37 10000 1 0 00:20 14.09.2019
1980 Clear 28 1006 34 10000 1 10 23:38 13.09.2019
1981 Clear 28 1006 34 10000 1 10 23:19 13.09.2019
1982 Clear 29 1007 35 10000 2.1 110 22:59 13.09.2019
1983 Clear 29 1007 35 10000 2.1 110 22:38 13.09.2019
1984 Clear 31 1007 35 10000 2.1 110 22:20 13.09.2019
1985 Clear 31 1007 29 10000 1.5 130 21:54 13.09.2019
1986 Clear 31 1007 29 10000 1.5 130 21:36 13.09.2019
1987 Clear 31 1007 29 10000 1.5 130 21:18 13.09.2019
1988 Clear 32 1007 29 10000 1 0 20:55 13.09.2019
1989 Clear 32 1007 29 10000 1 0 20:36 13.09.2019
1990 Clear 32 1007 29 10000 1 0 20:18 13.09.2019
1991 Clear 32 1006 29 10000 2.1 30 19:42 13.09.2019
1992 Clear 33 1006 27 10000 2.1 340 19:20 13.09.2019
1993 Clear 33 1006 27 10000 2.1 340 18:57 13.09.2019
1994 Clear 33 1006 27 10000 2.1 340 18:37 13.09.2019
1995 Clear 37 1005 19 10000 3.1 270 18:18 13.09.2019
1996 Clear 37 1005 19 10000 3.1 270 17:41 13.09.2019
1997 Clear 37 1005 19 10000 3.1 270 17:19 13.09.2019
1998 Clear 39 1006 19 10000 3.1 270 16:54 13.09.2019
1999 Clear 39 1005 18 10000 3.1 310 16:36 13.09.2019
2000 Clear 39 1005 18 10000 3.1 310 16:18 13.09.2019
2001 Clouds 40 1005 20 10000 2.1 250 15:40 13.09.2019
2002 Clouds 40 1005 20 10000 2.1 250 15:20 13.09.2019
2003 Clouds 39 1005 19 10000 2.6 200 14:44 13.09.2019
2004 Clouds 39 1005 19 10000 2.6 200 14:23 13.09.2019
2005 Clouds 40 1006 20 10000 3.1 310 13:58 13.09.2019
2006 Clouds 40 1006 20 10000 3.1 310 13:39 13.09.2019
2007 Clouds 40 1006 20 10000 3.1 310 13:21 13.09.2019
2008 Haze 40 1007 17 10000 2.6 0 12:44 13.09.2019
2009 Haze 40 1007 17 10000 2.6 0 12:23 13.09.2019
2010 Haze 38 1007 18 10000 3.6 260 11:56 13.09.2019
2011 Haze 38 1007 18 10000 3.6 260 11:20 13.09.2019
2012 Haze 38 1007 23 10000 3.1 250 10:41 13.09.2019
2013 Haze 38 1007 23 10000 3.1 250 10:20 13.09.2019
2014 Haze 36 1007 23 10000 2.6 300 09:47 13.09.2019
2015 Haze 36 1007 23 10000 2.6 300 09:26 13.09.2019
2016 Haze 33 1007 27 10000 3.1 310 08:59 13.09.2019
2017 Haze 33 1007 27 10000 3.1 310 08:41 13.09.2019
2018 Haze 33 1007 27 10000 3.1 310 08:21 13.09.2019
2019 Haze 30 1007 30 10000 2.6 270 07:57 13.09.2019
2020 Haze 30 1007 30 10000 2.6 270 07:39 13.09.2019
2021 Haze 28 1007 27 8000 2.1 20 06:49 13.09.2019
2022 Haze 25 1006 26 9000 2.6 30 05:50 13.09.2019
2023 Haze 23 1006 43 10000 2.1 300 05:26 13.09.2019
2024 Clear 25 1005 39 10000 2.6 260 03:42 13.09.2019
2025 Clear 25 1005 38 10000 1.5 260 02:50 13.09.2019
2026 Clear 25 1005 38 10000 1.5 260 02:19 13.09.2019
2027 Clear 27 1005 34 10000 2.1 290 01:35 13.09.2019
2028 Clear 27 1005 34 10000 2.1 290 01:35 13.09.2019
2029 Clear 28 1005 32 10000 2.1 320 00:59 13.09.2019
2030 Clear 28 1005 32 10000 2.1 320 00:33 13.09.2019
2031 Clear 27 1005 32 10000 3.1 320 23:46 12.09.2019
2032 Clear 27 1005 32 10000 3.1 320 23:22 12.09.2019
2033 Clear 28 1006 28 10000 3.6 310 22:56 12.09.2019
2034 Clear 28 1006 28 10000 3.6 310 22:37 12.09.2019
2035 Haze 28 1006 23 10000 2.6 300 22:18 12.09.2019
2036 Haze 28 1006 23 10000 2.6 300 21:54 12.09.2019
2037 Haze 28 1006 23 10000 2.6 300 21:36 12.09.2019
2038 Haze 28 1006 23 10000 2.6 300 21:18 12.09.2019
2039 Haze 30 1006 22 10000 2.1 300 20:41 12.09.2019
2040 Haze 30 1006 22 10000 2.1 300 20:21 12.09.2019
2041 Clear 31 1006 22 10000 2.6 280 19:56 12.09.2019
2042 Clear 31 1006 22 10000 2.6 280 19:37 12.09.2019
2043 Clear 34 1005 20 10000 3.1 270 19:19 12.09.2019
2044 Clear 34 1005 20 10000 3.1 270 19:19 12.09.2019
2045 Clear 34 1005 20 10000 3.1 270 19:19 12.09.2019
2046 Clear 34 1005 20 10000 3.1 270 18:39 12.09.2019
2047 Clear 34 1005 20 10000 3.1 270 18:20 12.09.2019
2048 Clear 37 1005 15 10000 3.6 280 17:59 12.09.2019
2049 Clear 37 1005 15 10000 3.6 280 17:39 12.09.2019
2050 Clear 37 1005 15 10000 3.6 280 17:20 12.09.2019
2051 Clear 39 1005 14 10000 5.7 300 16:55 12.09.2019
2052 Clear 39 1005 14 10000 5.7 300 16:36 12.09.2019
2053 Clear 39 1005 14 10000 5.7 300 16:18 12.09.2019
2054 Clear 40 1006 14 10000 5.1 290 15:39 12.09.2019
2055 Clear 40 1006 14 10000 5.1 290 15:21 12.09.2019
2056 Clear 39 1006 15 10000 5.7 270 14:45 12.09.2019
2057 Clear 39 1006 15 10000 5.7 270 14:45 12.09.2019
2058 Clear 39 1006 15 10000 5.7 270 14:21 12.09.2019
2059 Clear 40 1006 15 10000 5.7 280 13:55 12.09.2019
2060 Clear 40 1006 15 10000 5.7 280 13:37 12.09.2019
2061 Clear 40 1006 15 10000 5.7 280 13:18 12.09.2019
2062 Haze 38 1007 17 10000 7.7 290 12:43 12.09.2019
2063 Haze 38 1007 17 10000 7.7 290 12:19 12.09.2019
2064 Haze 37 1008 19 10000 5.1 280 11:55 12.09.2019
2065 Haze 37 1008 19 10000 5.1 280 11:37 12.09.2019
2066 Haze 37 1008 19 10000 5.1 280 11:19 12.09.2019
2067 Haze 36 1008 22 10000 4.6 270 10:44 12.09.2019
2068 Haze 36 1008 22 10000 4.6 270 10:24 12.09.2019
2069 Haze 33 1008 28 10000 3.6 260 09:44 12.09.2019
2070 Haze 33 1008 28 10000 3.6 260 09:23 12.09.2019
2071 Haze 31 1008 31 10000 3.6 260 08:58 12.09.2019
2072 Haze 31 1008 31 10000 3.6 260 08:39 12.09.2019
2073 Haze 31 1008 31 10000 3.6 260 08:21 12.09.2019
2074 Haze 29 1008 35 10000 4.1 270 07:39 12.09.2019
2075 Haze 25 1008 39 10000 4.6 250 07:19 12.09.2019
2076 Haze 25 1008 39 10000 4.6 250 06:50 12.09.2019
2077 Haze 25 1008 39 10000 4.6 250 06:50 12.09.2019
2078 Haze 25 1008 39 10000 4.6 250 06:19 12.09.2019
2079 Haze 22 1007 41 10000 4.6 250 05:49 12.09.2019
2080 Haze 23 1007 41 10000 4.6 250 05:29 12.09.2019
2081 Clear 23 1007 44 10000 2.6 240 04:35 12.09.2019
2082 Clear 25 1006 44 10000 2.6 270 02:24 12.09.2019
2083 Clear 24 1006 47 10000 2.1 270 01:30 12.09.2019
2084 Clear 24 1007 44 10000 2.6 290 00:59 12.09.2019
2085 Clear 24 1007 44 10000 2.6 290 00:41 12.09.2019
2086 Clear 24 1007 44 10000 2.6 290 00:23 12.09.2019
2087 Clear 27 1007 34 10000 1.5 300 23:41 11.09.2019
2088 Clear 27 1007 34 10000 1.5 300 23:41 11.09.2019
2089 Clear 27 1007 34 10000 1.5 300 23:21 11.09.2019
2090 Clear 28 1007 34 10000 2.21 329.727 22:56 11.09.2019
2091 Clear 28 1007 34 10000 2.21 329.727 22:37 11.09.2019
2092 Clear 28 1007 34 10000 2.21 329.727 22:18 11.09.2019
2093 Clear 28 1007 37 10000 1 350 21:42 11.09.2019
2094 Clear 28 1007 37 10000 1 350 21:42 11.09.2019
2095 Clear 30 1007 37 10000 1 350 21:24 11.09.2019
2096 Clear 30 1007 30 10000 2.1 320 20:57 11.09.2019
2097 Clear 30 1007 30 10000 2.1 320 20:39 11.09.2019
2098 Clear 30 1007 30 10000 2.1 320 20:19 11.09.2019
2099 Clear 31 1007 30 10000 1 330 19:58 11.09.2019
2100 Clear 31 1007 30 10000 1 330 19:39 11.09.2019
2101 Clear 31 1007 30 10000 1 330 19:39 11.09.2019
2102 Clear 31 1007 30 10000 1 330 19:39 11.09.2019
2103 Clear 31 1007 30 10000 1 330 19:21 11.09.2019
2104 Clear 32 1007 26 10000 2.1 330 18:58 11.09.2019
2105 Clear 32 1007 26 10000 2.1 330 18:38 11.09.2019
2106 Clear 32 1007 26 10000 2.1 330 18:19 11.09.2019
2107 Clear 32 1007 26 10000 2.1 330 18:19 11.09.2019
2108 Haze 36 1007 23 10000 5.1 320 17:55 11.09.2019
2109 Haze 36 1007 23 10000 5.1 320 17:37 11.09.2019
2110 Haze 36 1007 23 10000 5.1 320 17:19 11.09.2019
2111 Clear 38 1007 19 10000 6.7 320 16:46 11.09.2019
2112 Clear 39 1007 19 10000 6.7 320 16:25 11.09.2019
2113 Clear 39 1007 17 10000 6.7 310 15:54 11.09.2019
2114 Clear 39 1007 17 10000 6.7 310 15:54 11.09.2019
2115 Clear 39 1007 17 10000 6.7 310 15:36 11.09.2019
2116 Clear 39 1007 17 10000 6.7 310 15:18 11.09.2019
2117 Clear 39 1007 16 10000 8.2 300 14:41 11.09.2019
2118 Clear 39 1007 16 10000 8.2 300 14:21 11.09.2019
2119 Clear 39 1007 18 10000 8.7 310 13:59 11.09.2019
2120 Clear 39 1007 18 10000 8.7 310 13:37 11.09.2019
2121 Clear 39 1007 18 10000 8.7 310 13:37 11.09.2019
2122 Clear 39 1007 18 10000 8.7 310 13:19 11.09.2019
2123 Clear 38 1008 20 10000 7.2 300 12:44 11.09.2019
2124 Clear 38 1008 20 10000 7.2 300 12:23 11.09.2019
2125 Clear 38 1008 15 10000 7.7 300 11:59 11.09.2019
2126 Haze 37 1008 21 10000 7.2 300 11:39 11.09.2019
2127 Haze 37 1008 21 10000 7.2 300 11:21 11.09.2019
2128 Haze 36 1008 23 10000 4.6 290 10:55 11.09.2019
2129 Haze 36 1008 23 10000 4.6 290 10:37 11.09.2019
2130 Haze 36 1008 23 10000 4.6 290 10:19 11.09.2019
2131 Haze 36 1008 23 10000 4.6 320 09:38 11.09.2019
2132 Haze 36 1008 23 10000 4.6 320 09:19 11.09.2019
2133 Haze 33 1008 24 10000 3.6 320 08:42 11.09.2019
2134 Haze 33 1008 24 10000 3.6 320 08:22 11.09.2019
2135 Haze 30 1008 28 10000 3.1 320 07:59 11.09.2019
2136 Haze 30 1008 28 10000 3.1 320 07:39 11.09.2019
2137 Haze 30 1008 28 10000 3.1 320 07:21 11.09.2019
2138 Haze 25 1007 34 10000 2.6 310 06:46 11.09.2019
2139 Haze 25 1007 34 10000 2.6 310 06:24 11.09.2019
2140 Haze 22 1007 38 10000 2.1 300 05:36 11.09.2019
2141 Clear 22 1006 40 10000 2.6 300 04:59 11.09.2019
2142 Clear 22 1006 40 10000 2.6 300 04:21 11.09.2019
2143 Clear 22 1006 43 10000 3.1 300 03:29 11.09.2019
2144 Clear 24 1005 41 10000 2.6 290 02:37 11.09.2019
2145 Clear 25 1005 41 10000 2.1 270 01:33 11.09.2019
2146 Clear 26 1005 36 10000 1.5 300 00:40 11.09.2019
2147 Clear 26 1005 36 10000 1.5 300 00:20 11.09.2019
2148 Clear 26 1005 36 10000 1.5 300 00:20 11.09.2019
2149 Clear 28 1005 34 10000 1.5 300 23:41 10.09.2019
2150 Clear 28 1005 34 10000 1.5 300 23:22 10.09.2019
2151 Clear 28 1005 34 10000 2.6 310 22:57 10.09.2019
2152 Clear 28 1005 34 10000 2.6 310 22:38 10.09.2019
2153 Clear 30 1005 34 10000 2.6 310 22:19 10.09.2019
2154 Clear 30 1005 32 10000 3.1 320 21:55 10.09.2019
2155 Clear 30 1005 32 10000 3.1 320 21:37 10.09.2019
2156 Clear 30 1005 32 10000 3.1 320 21:18 10.09.2019
2157 Clear 31 1005 29 10000 1.5 310 20:56 10.09.2019
2158 Clear 31 1005 29 10000 1.5 310 20:38 10.09.2019
2159 Clear 31 1005 29 10000 1.5 310 20:19 10.09.2019
2160 Smoke 31 1005 33 10000 3.1 320 19:55 10.09.2019
2161 Smoke 31 1005 33 10000 3.1 320 19:36 10.09.2019
2162 Clear 34 1004 27 10000 2.6 330 19:18 10.09.2019
2163 Clear 34 1004 27 10000 2.6 330 18:45 10.09.2019
2164 Clear 34 1004 27 10000 2.6 330 18:23 10.09.2019
2165 Clear 34 1004 27 10000 2.6 330 18:23 10.09.2019
2166 Clear 36 1004 23 10000 5.1 320 17:59 10.09.2019
2167 Clear 36 1004 23 10000 5.1 320 17:41 10.09.2019
2168 Clear 36 1004 23 10000 5.1 320 17:21 10.09.2019
2169 Clear 38 1004 21 10000 6.7 300 16:57 10.09.2019
2170 Clear 38 1004 21 10000 6.7 300 16:38 10.09.2019
2171 Clear 38 1004 21 10000 6.7 300 16:19 10.09.2019
2172 Clear 39 1004 18 10000 7.7 320 15:44 10.09.2019
2173 Clear 39 1004 18 10000 7.7 320 15:44 10.09.2019
2174 Clear 39 1004 18 10000 7.7 320 15:23 10.09.2019
2175 Clear 39 1004 18 10000 8.2 300 14:59 10.09.2019
2176 Clear 39 1004 18 10000 8.2 300 14:59 10.09.2019
2177 Clear 39 1004 18 10000 8.2 300 14:40 10.09.2019
2178 Clear 39 1004 18 10000 8.2 300 14:22 10.09.2019
2179 Clear 39 1004 20 10000 7.7 300 13:48 10.09.2019
2180 Clear 39 1004 20 10000 7.7 300 13:24 10.09.2019
2181 Clouds 39 1005 20 10000 6.7 300 12:56 10.09.2019
2182 Clouds 39 1005 20 10000 6.7 300 12:37 10.09.2019
2183 Clear 39 1005 17 10000 5.7 300 12:19 10.09.2019
2184 Clear 39 1005 17 10000 5.7 300 12:19 10.09.2019
2185 Clear 38 1005 21 10000 5.1 310 11:42 10.09.2019
2186 Clear 38 1005 21 10000 5.1 310 11:23 10.09.2019
2187 Haze 37 1006 25 10000 4.6 310 10:59 10.09.2019
2188 Haze 37 1006 25 10000 4.6 310 10:38 10.09.2019
2189 Haze 35 1006 22 8000 5.7 320 10:18 10.09.2019
2190 Haze 35 1006 26 10000 3.6 300 09:46 10.09.2019
2191 Haze 35 1006 26 10000 3.6 300 09:20 10.09.2019
2192 Haze 33 1006 29 10000 3.6 320 08:57 10.09.2019
2193 Haze 33 1006 29 10000 3.6 320 08:38 10.09.2019
2194 Haze 33 1006 29 10000 3.6 320 08:20 10.09.2019
2195 Clear 29 1006 30 10000 3.6 300 07:44 10.09.2019
2196 Clear 29 1006 30 10000 3.6 300 07:25 10.09.2019
2197 Clear 26 1005 36 10000 3.1 290 06:46 10.09.2019
2198 Clear 26 1005 36 10000 3.1 290 06:28 10.09.2019
2199 Clear 26 1004 38 10000 2.1 320 04:38 10.09.2019
2200 Clear 27 1004 36 10000 3.6 350 02:44 10.09.2019
2201 Clear 27 1004 36 10000 3.6 350 02:22 10.09.2019
2202 Clear 27 1004 36 10000 3.6 350 02:22 10.09.2019
2203 Clear 28 1004 34 10000 4.6 340 01:52 10.09.2019
2204 Clear 28 1004 34 10000 4.6 340 01:52 10.09.2019
2205 Clear 28 1004 34 10000 4.6 340 01:52 10.09.2019
2206 Clear 28 1004 34 10000 4.6 340 01:52 10.09.2019
2207 Clear 28 1004 34 10000 4.6 340 01:52 10.09.2019
2208 Clear 28 1004 34 10000 4.6 340 01:23 10.09.2019
2209 Clear 29 1004 35 10000 6.2 330 00:44 10.09.2019
2210 Clear 29 1004 35 10000 6.2 330 00:23 10.09.2019
2211 Clear 30 1004 28 10000 5.7 310 23:41 09.09.2019
2212 Clear 32 1004 22 10000 5.7 290 23:19 09.09.2019
2213 Clear 32 1004 22 10000 5.7 290 22:55 09.09.2019
2214 Clear 32 1004 22 10000 5.7 290 22:37 09.09.2019
2215 Clear 30 1004 21 10000 5.1 290 22:19 09.09.2019
2216 Clear 30 1004 21 10000 5.1 290 21:56 09.09.2019
2217 Clear 30 1004 21 10000 5.1 290 21:37 09.09.2019
2218 Clear 31 1004 21 10000 4.1 290 21:19 09.09.2019
2219 Clear 31 1004 21 10000 4.1 290 20:55 09.09.2019
2220 Clear 31 1004 21 10000 4.1 290 20:37 09.09.2019
2221 Clear 33 1003 21 10000 3.1 280 20:18 09.09.2019
2222 Clear 33 1003 21 10000 3.1 280 19:56 09.09.2019
2223 Clear 33 1003 21 10000 3.1 280 19:38 09.09.2019
2224 Clear 33 1003 21 10000 3.1 280 19:19 09.09.2019
2225 Clear 33 1003 21 10000 3.1 280 19:19 09.09.2019
2226 Clear 34 1003 19 10000 4.6 290 18:56 09.09.2019
2227 Clear 34 1003 19 10000 4.6 290 18:37 09.09.2019
2228 Clear 37 1003 19 10000 4.6 290 18:19 09.09.2019
2229 Clear 36 1003 19 10000 4.6 290 17:56 09.09.2019
2230 Clear 37 1003 20 10000 6.2 310 17:38 09.09.2019
2231 Clear 38 1003 19 10000 7.2 310 17:20 09.09.2019
2232 Clear 38 1003 19 10000 7.2 310 17:20 09.09.2019
2233 Clear 38 1003 19 10000 7.2 310 16:55 09.09.2019
2234 Clear 38 1003 19 10000 7.2 310 16:36 09.09.2019
2235 Clouds 39 1002 22 10000 7.2 300 16:18 09.09.2019
2236 Clouds 39 1002 22 10000 7.2 300 15:42 09.09.2019
2237 Clouds 39 1002 22 10000 7.2 300 15:24 09.09.2019
2238 Clear 39 1003 21 10000 7.2 280 14:58 09.09.2019
2239 Clear 39 1003 21 10000 7.2 280 14:40 09.09.2019
2240 Clear 39 1003 21 10000 7.2 280 14:40 09.09.2019
2241 Clear 39 1003 21 10000 7.2 280 14:40 09.09.2019
2242 Clear 39 1003 21 10000 7.2 280 14:21 09.09.2019
2243 Clear 39 1003 22 10000 7.2 290 13:55 09.09.2019
2244 Clear 39 1003 22 10000 7.2 290 13:37 09.09.2019
2245 Clear 38 1003 22 10000 7.2 290 13:18 09.09.2019
2246 Clear 38 1003 22 10000 7.2 290 12:54 09.09.2019
2247 Clouds 38 1004 26 10000 6.2 290 12:36 09.09.2019
2248 Clear 37 1004 21 10000 6.7 290 12:18 09.09.2019
2249 Haze 37 1004 27 10000 5.7 320 11:43 09.09.2019
2250 Haze 36 1004 23 9000 5.7 280 11:20 09.09.2019
2251 Haze 36 1005 25 10000 5.7 290 10:42 09.09.2019
2252 Haze 36 1005 25 10000 5.7 290 10:24 09.09.2019
2253 Haze 35 1004 22 8000 5.1 280 09:59 09.09.2019
2254 Haze 35 1004 22 8000 5.1 280 09:59 09.09.2019
2255 Haze 34 1005 23 10000 5.1 310 09:40 09.09.2019
2256 Haze 34 1005 23 10000 5.1 310 09:22 09.09.2019
2257 Haze 33 1005 24 8000 4.1 290 08:56 09.09.2019
2258 Haze 32 1005 26 10000 6.7 300 08:37 09.09.2019
2259 Haze 31 1005 27 8000 3.6 300 08:18 09.09.2019
2260 Haze 30 1005 29 10000 6.7 300 07:41 09.09.2019
2261 Haze 29 1005 28 8000 4.1 300 07:20 09.09.2019
2262 Clear 28 1005 34 10000 4.6 300 06:53 09.09.2019
2263 Clear 28 1005 34 10000 4.6 300 06:53 09.09.2019
2264 Haze 25 1005 34 10000 4.6 300 06:27 09.09.2019
2265 Clear 25 1003 36 10000 2.6 310 03:21 09.09.2019
2266 Clear 26 1003 39 10000 3.6 320 02:42 09.09.2019
2267 Clear 28 1003 34 10000 4.1 310 01:24 09.09.2019
2268 Clear 29 1003 35 10000 4.6 320 00:24 09.09.2019
2269 Clear 32 1003 29 10000 6.2 310 23:56 08.09.2019
2270 Clear 32 1003 29 10000 6.2 310 23:38 08.09.2019
2271 Clear 32 1002 29 10000 4.1 280 23:19 08.09.2019
2272 Clear 32 1002 29 10000 4.1 280 22:41 08.09.2019
2273 Clear 31 1002 29 10000 4.1 280 22:22 08.09.2019
2274 Clear 31 1002 33 10000 1.5 210 21:58 08.09.2019
2275 Clear 31 1002 33 10000 1.5 210 21:40 08.09.2019
2276 Clear 31 1002 33 10000 1.5 210 21:22 08.09.2019
2277 Clear 31 1002 33 10000 2.1 210 20:54 08.09.2019
2278 Clear 31 1002 33 10000 2.1 210 20:36 08.09.2019
2279 Clear 32 1002 27 10000 1 0 20:18 08.09.2019
2280 Clear 32 1002 27 10000 1 0 20:18 08.09.2019
2281 Clear 32 1002 27 10000 1 0 20:18 08.09.2019
2282 Clear 32 1002 27 10000 1 0 19:39 08.09.2019
2283 Clear 34 1002 26 10000 1.5 290 19:21 08.09.2019
2284 Clear 34 1002 26 10000 1.5 290 18:58 08.09.2019
2285 Clear 34 1002 26 10000 1.5 290 18:39 08.09.2019
2286 Haze 37 1001 21 10000 5.1 290 18:19 08.09.2019
2287 Haze 37 1001 21 10000 5.1 290 17:59 08.09.2019
2288 Clear 38 1001 21 10000 5.1 290 17:37 08.09.2019
2289 Clear 39 1001 18 10000 6.2 310 17:19 08.09.2019
2290 Clear 39 1001 18 10000 6.2 310 17:19 08.09.2019
2291 Clear 39 1001 18 10000 6.2 310 17:19 08.09.2019
2292 Clear 39 1001 18 10000 6.2 310 17:19 08.09.2019
2293 Clear 39 1001 18 10000 6.2 310 17:19 08.09.2019
2294 Clear 39 1001 18 10000 6.2 310 16:56 08.09.2019
2295 Clear 39 1001 18 10000 6.2 310 16:37 08.09.2019
2296 Clear 39 1001 22 10000 5.1 280 16:19 08.09.2019
2297 Clear 39 1001 22 10000 5.1 280 15:42 08.09.2019
2298 Clear 39 1001 22 10000 5.1 280 15:22 08.09.2019
2299 Clear 39 1001 24 10000 5.7 260 14:59 08.09.2019
2300 Clear 39 1001 24 10000 5.7 260 14:39 08.09.2019
2301 Clear 39 1001 24 10000 5.7 260 14:39 08.09.2019
2302 Clear 39 1001 24 10000 5.7 260 14:21 08.09.2019
2303 Clear 39 1002 26 10000 6.2 250 13:57 08.09.2019
2304 Clear 39 1002 26 10000 6.2 250 13:39 08.09.2019
2305 Clear 39 1002 26 10000 6.2 250 13:21 08.09.2019
2306 Haze 37 1002 27 10000 6.2 230 12:55 08.09.2019
2307 Haze 37 1002 27 10000 6.2 230 12:37 08.09.2019
2308 Haze 37 1002 27 8000 4.1 260 12:18 08.09.2019
2309 Haze 37 1002 27 8000 4.1 260 11:56 08.09.2019
2310 Haze 36 1003 32 10000 4.6 270 11:37 08.09.2019
2311 Haze 34 1003 36 10000 4.6 290 11:18 08.09.2019
2312 Haze 34 1003 36 10000 4.6 290 10:42 08.09.2019
2313 Haze 34 1003 36 10000 4.6 290 10:23 08.09.2019
2314 Haze 34 1003 38 8000 3.6 290 09:56 08.09.2019
2315 Haze 33 1004 41 10000 4.6 300 09:37 08.09.2019
2316 Clear 32 1004 43 10000 6.7 300 09:19 08.09.2019
2317 Clear 32 1004 43 10000 6.7 300 08:39 08.09.2019
2318 Clear 31 1003 40 10000 5.7 320 08:19 08.09.2019
2319 Clear 30 1003 48 10000 6.7 300 07:43 08.09.2019
2320 Clear 29 1003 42 10000 5.7 320 07:22 08.09.2019
2321 Clear 29 1003 42 10000 5.7 320 06:57 08.09.2019
2322 Clear 28 1003 48 10000 4.6 310 06:38 08.09.2019
2323 Clear 26 1003 53 10000 2.6 310 05:40 08.09.2019
2324 Clear 26 1003 53 10000 2.6 310 05:21 08.09.2019
2325 Clear 25 1002 50 10000 2.1 200 03:23 08.09.2019
2326 Clear 27 1001 51 10000 1 260 02:48 08.09.2019
2327 Clear 28 1001 45 10000 2.1 280 01:54 08.09.2019
2328 Clear 28 1001 45 10000 2.1 280 01:29 08.09.2019
2329 Clear 29 1002 42 10000 2.1 270 00:49 08.09.2019
2330 Clear 29 1002 42 10000 2.1 270 00:30 08.09.2019
2331 Clear 28 1002 39 10000 2.6 310 23:57 07.09.2019
2332 Clear 28 1002 39 10000 2.6 310 23:37 07.09.2019
2333 Clear 29 1002 35 10000 3.1 310 23:18 07.09.2019
2334 Clear 29 1002 35 10000 3.1 310 22:43 07.09.2019
2335 Clear 31 1002 35 10000 3.1 310 22:25 07.09.2019
2336 Clear 31 1002 29 10000 3.1 300 21:56 07.09.2019
2337 Clear 31 1002 29 10000 3.1 300 21:38 07.09.2019
2338 Clear 31 1002 31 10000 4.1 290 21:20 07.09.2019
2339 Clear 31 1002 31 10000 4.1 290 21:20 07.09.2019
2340 Clear 32 1002 33 10000 2.6 320 20:40 07.09.2019
2341 Clear 32 1002 33 10000 2.6 320 20:21 07.09.2019
2342 Clear 33 1002 29 10000 3.1 320 19:57 07.09.2019
2343 Clear 33 1002 29 10000 3.1 320 19:38 07.09.2019
2344 Clear 34 1002 27 10000 4.6 270 19:19 07.09.2019
2345 Clear 34 1002 27 10000 4.6 270 18:59 07.09.2019
2346 Haze 35 1002 26 10000 3.6 320 18:39 07.09.2019
2347 Haze 37 1001 24 9000 5.1 270 18:20 07.09.2019
2348 Haze 37 1001 24 9000 5.1 270 17:59 07.09.2019
2349 Clear 38 1002 22 10000 6.2 300 17:39 07.09.2019
2350 Clear 40 1001 20 10000 5.7 300 17:18 07.09.2019
2351 Clear 40 1001 20 10000 5.7 300 16:56 07.09.2019
2352 Clear 40 1001 20 10000 5.7 300 16:38 07.09.2019
2353 Clear 41 1001 19 10000 6.7 280 16:18 07.09.2019
2354 Clear 41 1001 19 10000 6.7 280 15:44 07.09.2019
2355 Clear 41 1001 19 10000 6.7 280 15:25 07.09.2019
2356 Haze 41 1002 18 10000 8.2 280 14:56 07.09.2019
2357 Haze 41 1002 18 10000 8.2 280 14:36 07.09.2019
2358 Clear 41 1002 18 9000 8.2 280 14:18 07.09.2019
2359 Clear 41 1002 18 9000 8.2 280 13:56 07.09.2019
2360 Clear 41 1002 18 9000 8.2 280 13:56 07.09.2019
2361 Clear 41 1002 18 9000 8.2 280 13:37 07.09.2019
2362 Clear 40 1002 18 9000 8.2 280 13:19 07.09.2019
2363 Clear 40 1002 23 10000 6.7 300 12:43 07.09.2019
2364 Clear 40 1002 23 10000 6.7 300 12:24 07.09.2019
2365 Haze 39 1003 26 10000 5.7 290 11:41 07.09.2019
2366 Haze 39 1003 26 10000 5.7 290 11:22 07.09.2019
2367 Haze 38 1003 27 10000 5.1 320 10:58 07.09.2019
2368 Haze 38 1003 27 10000 5.1 320 10:37 07.09.2019
2369 Haze 36 1003 27 9000 5.7 300 10:19 07.09.2019
2370 Haze 36 1004 28 10000 5.1 310 09:43 07.09.2019
2371 Haze 36 1004 28 10000 5.1 310 09:23 07.09.2019
2372 Haze 35 1003 28 9000 5.1 310 08:57 07.09.2019
2373 Haze 33 1004 28 10000 5.7 310 08:36 07.09.2019
2374 Haze 32 1004 29 9000 4.6 320 08:18 07.09.2019
2375 Clear 32 1004 31 10000 5.1 310 07:43 07.09.2019
2376 Clear 32 1004 31 10000 5.1 310 07:22 07.09.2019
2377 Clear 28 1003 37 10000 4.6 310 06:43 07.09.2019
2378 Clear 28 1003 37 10000 4.6 310 06:19 07.09.2019
2379 Clear 27 1002 41 10000 3.1 310 04:33 07.09.2019
2380 Clear 28 1002 42 10000 3.6 320 03:44 07.09.2019
2381 Clear 29 1002 37 10000 3.6 330 02:31 07.09.2019
2382 Clear 28 1002 39 10000 3.6 330 01:44 07.09.2019
2383 Clear 28 1002 39 10000 3.6 330 00:55 07.09.2019
2384 Clear 29 1003 35 10000 4.1 320 00:37 07.09.2019
2385 Clear 29 1003 35 10000 4.1 320 00:18 07.09.2019
2386 Clear 30 1003 33 10000 4.1 320 23:38 06.09.2019
2387 Clear 30 1003 33 10000 4.1 320 23:20 06.09.2019
2388 Clear 34 1004 26 10000 4.6 300 22:57 06.09.2019
2389 Clear 34 1004 26 10000 4.6 300 22:37 06.09.2019
2390 Clear 33 1004 24 10000 3.6 280 22:19 06.09.2019
2391 Clear 33 1004 24 10000 3.6 280 21:56 06.09.2019
2392 Clear 33 1004 24 10000 3.6 280 21:38 06.09.2019
2393 Clear 34 1004 22 10000 4.1 280 21:19 06.09.2019
2394 Clear 34 1004 22 10000 4.1 280 20:54 06.09.2019
2395 Clear 34 1004 22 10000 4.1 280 20:36 06.09.2019
2396 Clear 34 1003 22 10000 3.1 290 20:18 06.09.2019
2397 Clear 34 1003 22 10000 3.1 290 20:18 06.09.2019
2398 Clear 34 1003 22 10000 3.1 290 19:41 06.09.2019
2399 Clear 34 1003 22 10000 3.1 290 19:23 06.09.2019
2400 Clear 34 1003 22 10000 3.1 290 18:58 06.09.2019
2401 Haze 36 1003 21 10000 4.1 280 18:39 06.09.2019
2402 Haze 40 1003 21 10000 4.1 280 18:21 06.09.2019
2403 Haze 40 1003 19 10000 5.7 280 17:40 06.09.2019
2404 Haze 40 1003 19 10000 5.7 280 17:21 06.09.2019
2405 Haze 41 1003 16 10000 6.2 290 16:58 06.09.2019
2406 Haze 41 1003 16 10000 6.2 290 16:38 06.09.2019
2407 Haze 42 1003 15 9000 4.1 320 16:18 06.09.2019
2408 Haze 42 1003 15 10000 6.2 270 15:41 06.09.2019
2409 Haze 42 1003 15 10000 6.2 270 15:22 06.09.2019
2410 Haze 42 1003 16 10000 7.2 280 14:48 06.09.2019
2411 Haze 42 1003 15 10000 4.6 280 14:20 06.09.2019
2412 Haze 42 1003 15 10000 4.6 280 13:45 06.09.2019
2413 Haze 42 1003 15 10000 4.6 280 13:26 06.09.2019
2414 Haze 42 1004 14 9000 5.7 310 12:59 06.09.2019
2415 Haze 42 1004 16 10000 4.1 340 12:37 06.09.2019
2416 Haze 41 1004 15 9000 5.7 290 12:18 06.09.2019
2417 Haze 41 1004 15 9000 5.7 290 12:18 06.09.2019
2418 Haze 41 1005 18 10000 5.7 330 11:43 06.09.2019
2419 Haze 41 1005 18 10000 5.7 330 11:24 06.09.2019
2420 Haze 40 1005 20 10000 5.1 330 10:58 06.09.2019
2421 Haze 40 1005 20 10000 5.1 330 10:40 06.09.2019
2422 Haze 40 1005 20 10000 5.1 330 10:21 06.09.2019
2423 Clear 38 1005 22 10000 4.6 340 09:40 06.09.2019
2424 Clear 38 1005 22 10000 4.6 340 09:21 06.09.2019
2425 Clear 35 1005 28 10000 4.1 320 08:58 06.09.2019
2426 Clear 35 1005 28 10000 4.1 320 08:39 06.09.2019
2427 Clear 35 1005 28 10000 4.1 320 08:21 06.09.2019
2428 Clear 33 1005 29 10000 5.7 310 07:45 06.09.2019
2429 Clear 33 1005 29 10000 5.7 310 07:27 06.09.2019
2430 Clear 33 1005 27 10000 4.6 310 06:56 06.09.2019
2431 Clear 27 1005 28 10000 2.6 310 06:21 06.09.2019
2432 Clear 26 1004 34 10000 2.6 290 05:43 06.09.2019
2433 Clear 29 1004 32 10000 2.1 290 04:48 06.09.2019
2434 Clear 29 1003 36 10000 3.1 320 03:52 06.09.2019
2435 Clear 28 1003 39 10000 3.1 320 02:23 06.09.2019
2436 Clear 28 1002 39 10000 2.1 310 00:44 06.09.2019
2437 -273 0 0 0 0 0 23:55 05.09.2019
2438 Clear 30 1002 33 10000 1 310 23:37 05.09.2019
2439 Clear 31 1002 31 10000 3.47 18.268 23:18 05.09.2019
2440 Clear 31 1002 31 10000 3.47 18.268 22:42 05.09.2019
2441 Clear 33 1002 31 10000 3.47 18.268 22:24 05.09.2019
2442 Clear 33 1002 29 9000 0.5 0 21:56 05.09.2019
2443 Clear 33 1002 29 9000 0.5 0 21:37 05.09.2019
2444 Clear 33 1003 31 10000 3.88 359.262 21:19 05.09.2019
2445 Clear 33 1003 31 10000 3.88 359.262 20:57 05.09.2019
2446 Clear 33 1002 29 8000 1 330 20:37 05.09.2019
2447 Clear 34 1003 24 10000 1.5 0 20:19 05.09.2019
2448 Clear 34 1002 26 10000 1 340 19:42 05.09.2019
2449 Clear 34 1002 26 10000 1 340 19:24 05.09.2019
2450 Clear 34 1002 26 10000 1 340 18:58 05.09.2019
2451 Haze 38 1002 23 10000 1.5 350 18:40 05.09.2019
2452 Haze 38 1002 23 10000 1.5 350 18:20 05.09.2019
2453 Haze 38 1002 23 10000 1.5 350 17:56 05.09.2019
2454 Haze 40 1002 21 10000 3.1 350 17:38 05.09.2019
2455 Haze 41 1001 19 10000 3.1 340 17:20 05.09.2019
2456 Haze 42 1001 16 10000 3.6 340 16:41 05.09.2019
2457 Haze 42 1001 16 10000 3.6 340 16:21 05.09.2019
2458 Haze 42 1002 14 9000 3.6 290 15:58 05.09.2019
2459 Haze 43 1001 17 10000 2.1 330 15:39 05.09.2019
2460 Haze 43 1002 14 10000 3.6 350 15:19 05.09.2019
2461 Haze 43 1002 14 10000 3.6 350 15:19 05.09.2019
2462 Haze 43 1002 14 10000 3.6 350 14:44 05.09.2019
2463 Haze 43 1002 14 10000 3.6 350 14:23 05.09.2019
2464 Haze 43 1002 15 10000 2.6 350 13:59 05.09.2019
2465 Haze 43 1002 15 10000 2.6 350 13:39 05.09.2019
2466 Haze 43 1002 15 10000 2.6 350 13:18 05.09.2019
2467 Haze 42 1003 15 10000 2.6 340 12:42 05.09.2019
2468 Haze 42 1003 15 10000 2.6 340 12:23 05.09.2019
2469 Haze 41 1003 16 10000 3.1 330 11:45 05.09.2019
2470 Haze 41 1003 16 10000 3.1 330 11:20 05.09.2019
2471 Haze 40 1003 19 10000 3.1 340 10:59 05.09.2019
2472 Haze 40 1003 19 10000 3.1 340 10:37 05.09.2019
2473 Haze 39 1004 13 9000 2.1 0 10:19 05.09.2019
2474 Haze 39 1004 20 10000 2.1 330 09:41 05.09.2019
2475 Haze 36 1004 24 10000 2.1 280 09:22 05.09.2019
2476 Haze 36 1004 24 10000 2.1 280 08:57 05.09.2019
2477 Haze 36 1004 24 10000 2.1 280 08:39 05.09.2019
2478 Haze 36 1004 24 10000 2.1 280 08:21 05.09.2019
2479 Clear 33 1004 31 10000 2.1 260 07:44 05.09.2019
2480 Clear 33 1004 31 10000 2.1 260 07:25 05.09.2019
2481 Clear 29 1003 37 10000 2.1 270 06:48 05.09.2019
2482 Clear 29 1003 37 10000 2.1 270 06:28 05.09.2019
2483 Clear 25 1002 36 10000 2.6 300 05:47 05.09.2019
2484 Clear 25 1002 36 10000 2.6 300 05:28 05.09.2019
2485 Clear 27 1001 36 10000 3.1 310 04:45 05.09.2019
2486 Clear 27 1002 23 10000 3.1 20 04:19 05.09.2019
2487 Clear 27 1001 36 10000 2.6 320 03:22 05.09.2019
2488 Clear 26 1001 31 10000 1.5 300 02:40 05.09.2019
2489 Clouds 29 1001 25 10000 1 300 02:18 05.09.2019
2490 Clear 30 1001 27 10000 2.6 360 01:19 05.09.2019
2491 Clear 30 1001 27 10000 2.6 360 00:40 05.09.2019
2492 Clear 30 1001 27 10000 2.6 360 00:19 05.09.2019
2493 Clear 32 1001 22 10000 1.5 360 23:42 04.09.2019
2494 Clear 32 1001 22 10000 1.5 360 23:23 04.09.2019
2495 Clear 32 1002 22 10000 2.6 360 22:49 04.09.2019
2496 Clear 32 1002 22 10000 2.6 360 22:22 04.09.2019
2497 Clear 32 1002 25 10000 1.5 360 21:58 04.09.2019
2498 Clear 32 1002 25 10000 1.5 360 21:39 04.09.2019
2499 Clear 33 1002 24 10000 3.1 340 21:20 04.09.2019
2500 Clear 33 1002 24 10000 3.1 340 20:55 04.09.2019
2501 Clear 33 1002 24 10000 3.1 340 20:37 04.09.2019
2502 Clear 33 1002 24 10000 3.1 340 20:18 04.09.2019
2503 Clear 34 1002 20 10000 2.1 320 19:44 04.09.2019
2504 Clear 34 1002 20 10000 2.1 320 19:24 04.09.2019
2505 Haze 37 1002 16 10000 3.6 280 18:55 04.09.2019
2506 Haze 37 1002 16 10000 3.6 280 18:37 04.09.2019
2507 Haze 37 1002 16 10000 3.6 280 18:19 04.09.2019
2508 Clear 40 1001 14 10000 5.1 290 17:41 04.09.2019
2509 Clear 40 1001 14 10000 5.1 290 17:23 04.09.2019
2510 Clear 41 1001 12 10000 2.6 270 16:57 04.09.2019
2511 Clear 41 1001 12 10000 5.7 270 16:39 04.09.2019
2512 Clear 42 1001 10 10000 6.2 290 16:20 04.09.2019
2513 Clear 42 1001 10 10000 6.2 290 15:55 04.09.2019
2514 Clear 42 1001 10 10000 6.2 290 15:37 04.09.2019
2515 Clear 42 1001 13 10000 5.1 290 15:18 04.09.2019
2516 Clear 42 1001 13 10000 5.1 290 14:54 04.09.2019
2517 Clear 42 1001 13 10000 5.1 290 14:36 04.09.2019
2518 Clear 42 1002 12 10000 5.1 290 14:18 04.09.2019
2519 Clear 42 1002 12 10000 5.1 290 13:39 04.09.2019
2520 Clear 42 1002 12 10000 5.1 290 13:21 04.09.2019
2521 Clear 42 1002 14 10000 3.6 260 12:46 04.09.2019
2522 Clear 42 1002 14 10000 3.6 260 12:26 04.09.2019
2523 Clear 42 1002 14 10000 3.6 260 12:26 04.09.2019
2524 Clear 41 1003 15 10000 4.6 330 11:58 04.09.2019
2525 Clear 41 1003 15 10000 4.6 330 11:40 04.09.2019
2526 Haze 40 1003 16 10000 4.1 320 11:21 04.09.2019
2527 Haze 40 1003 16 10000 4.1 320 10:57 04.09.2019
2528 Haze 40 1003 16 10000 4.1 320 10:38 04.09.2019
2529 Haze 40 1003 16 10000 4.1 320 10:20 04.09.2019
2530 Haze 37 1003 20 10000 4.6 310 09:45 04.09.2019
2531 Haze 37 1003 20 10000 4.6 310 09:21 04.09.2019
2532 Clear 34 1003 26 10000 3.6 320 08:43 04.09.2019
2533 Clear 34 1003 26 10000 3.6 320 08:24 04.09.2019
2534 Clear 32 1003 20 10000 3.1 330 08:00 04.09.2019
2535 Clear 31 1003 31 10000 4.6 310 07:40 04.09.2019
2536 Clear 31 1003 31 10000 4.6 310 07:22 04.09.2019
2537 Clear 28 1003 37 10000 3.1 300 06:39 04.09.2019
2538 Haze 24 1002 40 9000 2.1 320 04:56 04.09.2019
2539 Clear 24 1002 44 10000 2.6 310 04:24 04.09.2019
2540 Clear 24 1002 47 10000 2.1 300 03:21 04.09.2019
2541 Clear 27 1002 39 10000 1.5 250 01:21 04.09.2019
2542 Clear 30 1002 35 10000 1.5 210 00:46 04.09.2019
2543 Clear 30 1002 35 10000 1.5 210 00:27 04.09.2019
2544 Clear 29 1002 32 10000 1 290 23:53 03.09.2019
2545 Clear 29 1002 32 10000 1 290 23:27 03.09.2019
2546 Clear 31 1002 31 10000 1 290 22:57 03.09.2019
2547 Clear 31 1002 31 10000 1 290 22:57 03.09.2019
2548 Clear 31 1002 31 10000 1 290 22:38 03.09.2019
2549 Clear 31 1002 29 10000 1 320 22:20 03.09.2019
2550 Clear 31 1002 29 10000 1 320 21:55 03.09.2019
2551 Clear 31 1002 29 10000 1 320 21:36 03.09.2019
2552 Clear 31 1002 33 10000 1 230 21:18 03.09.2019
2553 Clear 31 1002 29 10000 3.59 339.857 20:41 03.09.2019
2554 Clear 33 1002 29 10000 3.59 339.857 20:21 03.09.2019
2555 Clear 33 1002 29 10000 3.59 339.857 19:55 03.09.2019
2556 Clear 33 1002 24 10000 3.59 339.857 19:37 03.09.2019
2557 Clear 33 1002 24 10000 3.59 339.857 19:18 03.09.2019
2558 Haze 35 1002 25 10000 2.1 340 18:43 03.09.2019
2559 Haze 35 1002 25 10000 2.1 340 18:25 03.09.2019
2560 Haze 35 1002 25 10000 2.1 340 18:25 03.09.2019
2561 Haze 35 1002 25 10000 2.1 340 17:57 03.09.2019
2562 -273 0 0 0 0 0 17:39 03.09.2019
2563 Clear 42 1002 15 10000 4.6 290 17:19 03.09.2019
2564 Clear 42 1002 15 10000 4.6 290 16:43 03.09.2019
2565 Clear 42 1002 15 10000 4.6 290 16:23 03.09.2019
2566 Clear 42 1002 11 10000 6.2 290 15:59 03.09.2019
2567 Clear 42 1002 14 10000 6.2 310 15:39 03.09.2019
2568 Clear 43 1002 14 10000 6.2 310 15:21 03.09.2019
2569 Clear 43 1002 15 10000 5.1 300 14:57 03.09.2019
2570 Clear 43 1002 15 10000 5.1 300 14:39 03.09.2019
2571 Clear 42 1003 14 10000 5.7 300 14:20 03.09.2019
2572 Clear 42 1003 14 10000 5.7 300 13:56 03.09.2019
2573 Clear 42 1003 14 10000 5.7 300 13:37 03.09.2019
2574 Clear 42 1003 14 10000 5.7 300 13:19 03.09.2019
2575 Clear 41 1003 17 10000 5.1 310 12:48 03.09.2019
2576 Clear 41 1003 17 10000 5.1 310 12:29 03.09.2019
2577 Clear 41 1003 15 10000 4.1 300 11:57 03.09.2019
2578 Haze 40 1004 18 10000 3.6 290 11:38 03.09.2019
2579 Clear 39 1004 21 10000 4.6 340 11:18 03.09.2019
2580 Clear 39 1004 21 10000 4.6 340 10:41 03.09.2019
2581 Clear 38 1004 22 10000 3.1 0 10:22 03.09.2019
2582 Clear 38 1004 22 10000 3.1 0 09:53 03.09.2019
2583 Clear 37 1004 25 10000 4.6 330 09:34 03.09.2019
2584 Clear 35 1004 20 10000 3.1 0 08:59 03.09.2019
2585 Clear 35 1004 28 10000 3.1 340 08:39 03.09.2019
2586 Clear 35 1004 28 10000 3.1 340 08:20 03.09.2019
2587 Haze 33 1004 31 10000 3.1 320 07:54 03.09.2019
2588 Haze 33 1004 31 10000 3.1 320 07:36 03.09.2019
2589 Haze 33 1004 31 10000 3.1 320 07:18 03.09.2019
2590 Clear 28 1004 35 10000 2.6 310 06:41 03.09.2019
2591 Clear 27 1002 39 10000 3.1 310 03:45 03.09.2019
2592 Clear 29 1003 32 10000 2.6 310 02:59 03.09.2019
2593 Clear 30 1002 35 10000 2.6 320 02:38 03.09.2019
2594 Clear 29 1002 37 10000 3.1 320 02:20 03.09.2019
2595 Clear 29 1002 37 10000 3.1 320 01:43 03.09.2019
2596 Clear 29 1002 37 10000 3.1 320 01:25 03.09.2019
2597 Clear 33 1002 29 10000 2.1 310 00:31 03.09.2019
2598 Clear 33 1002 29 10000 2.1 310 23:57 02.09.2019
2599 Clear 33 1002 29 10000 2.1 310 23:57 02.09.2019
2600 Clear 30 1002 37 10000 3.6 320 23:37 02.09.2019
2601 Clear 33 1002 31 7000 2.1 310 23:18 02.09.2019
2602 Clear 33 1002 31 7000 2.1 310 22:55 02.09.2019
2603 Clear 33 1002 31 7000 2.1 310 22:55 02.09.2019
2604 Clear 33 1002 31 7000 2.1 310 22:55 02.09.2019
2605 Clear 32 1002 31 7000 2.1 310 22:36 02.09.2019
2606 Clear 32 1002 31 10000 0.5 0 22:18 02.09.2019
2607 Clear 32 1002 31 10000 0.5 0 21:55 02.09.2019
2608 Clear 32 1002 31 10000 0.5 0 21:36 02.09.2019
2609 Clear 33 1002 31 10000 3.6 280 21:18 02.09.2019
2610 Clear 34 1002 27 10000 2.1 310 20:41 02.09.2019
2611 Clear 34 1002 27 10000 2.1 310 20:23 02.09.2019
2612 Clear 34 1002 27 10000 2.1 310 19:58 02.09.2019
2613 Haze 35 1001 26 10000 2.1 160 19:40 02.09.2019
2614 Haze 35 1001 26 10000 2.1 160 19:21 02.09.2019
2615 Clear 37 1001 24 10000 1 110 18:56 02.09.2019
2616 Clear 37 1001 24 10000 1 110 18:36 02.09.2019
2617 Clear 39 1001 24 10000 1 110 18:18 02.09.2019
2618 Clear 40 1001 21 10000 2.1 340 17:40 02.09.2019
2619 Clear 42 1001 16 10000 2.6 290 17:21 02.09.2019
2620 Clear 42 1001 16 10000 2.6 290 16:59 02.09.2019
2621 Clear 42 1001 16 10000 2.6 290 16:39 02.09.2019
2622 Clear 43 1002 17 10000 2.6 310 16:20 02.09.2019
2623 Clear 43 1002 17 10000 2.6 310 16:20 02.09.2019
2624 Clear 43 1002 17 10000 2.6 310 15:46 02.09.2019
2625 Clear 43 1002 17 10000 2.6 310 15:27 02.09.2019
2626 Clear 43 1002 16 10000 2.1 0 14:58 02.09.2019
2627 Clear 43 1002 16 10000 2.1 0 14:39 02.09.2019
2628 Clear 43 1002 16 10000 2.1 0 14:21 02.09.2019
2629 Clear 42 1002 14 10000 2.6 0 13:56 02.09.2019
2630 Clear 43 1003 17 10000 3.1 310 13:37 02.09.2019
2631 Clear 42 1003 14 10000 3.1 0 13:18 02.09.2019
2632 Clear 42 1004 16 10000 3.6 230 12:45 02.09.2019
2633 Clear 42 1004 16 10000 3.6 230 12:25 02.09.2019
2634 Clear 41 1004 15 10000 3.1 0 11:58 02.09.2019
2635 Clear 42 1004 16 10000 3.1 360 11:39 02.09.2019
2636 Clear 42 1004 16 10000 3.1 360 11:20 02.09.2019
2637 Clear 41 1004 13 10000 2.6 0 10:57 02.09.2019
2638 Clear 41 1004 19 10000 2.6 350 10:38 02.09.2019
2639 Clear 41 1004 19 10000 2.6 350 10:38 02.09.2019
2640 Clear 39 1004 14 10000 2.1 0 10:19 02.09.2019
2641 Clear 39 1005 21 10000 2.6 280 09:46 02.09.2019
2642 Clear 39 1005 21 10000 2.6 280 09:22 02.09.2019
2643 Clear 37 1005 16 10000 1.5 0 09:22 02.09.2019
2644 Clear 36 1005 23 10000 3.1 290 08:45 02.09.2019
2645 Clear 36 1005 23 10000 3.1 290 08:24 02.09.2019
2646 Clear 34 1005 19 10000 2.1 0 07:59 02.09.2019
2647 Haze 32 1005 25 10000 4.1 300 07:40 02.09.2019
2648 Haze 32 1005 25 10000 4.1 300 07:21 02.09.2019
2649 Haze 29 1004 32 10000 3.1 300 06:44 02.09.2019
2650 Haze 29 1004 32 10000 3.1 300 06:25 02.09.2019
2651 Clear 26 1003 36 10000 3.1 290 05:47 02.09.2019
2652 Clear 27 1003 34 10000 4.1 320 05:18 02.09.2019
2653 Clear 28 1003 39 10000 2.1 330 02:59 02.09.2019
2654 Clear 28 1002 39 10000 2.1 330 01:45 02.09.2019
2655 Clear 29 1002 30 10000 1 0 00:47 02.09.2019
2656 Clear 29 1002 30 10000 1 0 00:28 02.09.2019
2657 Clear 29 1003 30 10000 1 200 23:43 01.09.2019
2658 Clear 29 1003 30 10000 1 200 23:22 01.09.2019
2659 Clear 30 1002 28 10000 0.5 330 22:58 01.09.2019
2660 Clear 30 1002 28 10000 0.5 330 22:39 01.09.2019
2661 Clear 30 1002 28 10000 0.5 330 22:39 01.09.2019
2662 Clear 33 1003 25 10000 2.1 350 22:19 01.09.2019
2663 Clear 33 1003 25 10000 2.1 350 21:57 01.09.2019
2664 Clear 33 1003 25 10000 2.1 350 21:37 01.09.2019
2665 Clear 33 1003 24 10000 2.6 330 21:19 01.09.2019
2666 Clear 33 1003 24 10000 2.6 330 20:56 01.09.2019
2667 Clear 33 1003 24 10000 2.6 330 20:36 01.09.2019
2668 Clear 34 1003 24 10000 2.6 330 20:18 01.09.2019
2669 Clear 34 1003 24 10000 2.6 330 19:56 01.09.2019
2670 Clear 34 1003 23 10000 3.1 330 19:37 01.09.2019
2671 Clear 34 1003 23 10000 3.1 330 19:18 01.09.2019
2672 Clear 35 1002 23 10000 3.1 320 18:42 01.09.2019
2673 Clear 40 1002 23 10000 3.1 320 18:24 01.09.2019
2674 Clear 41 1002 17 10000 4.1 300 17:55 01.09.2019
2675 Clear 41 1002 17 10000 4.1 300 17:37 01.09.2019
2676 Clear 42 1002 15 10000 6.7 300 17:18 01.09.2019
2677 Clear 42 1002 15 10000 6.7 300 16:39 01.09.2019
2678 Clear 43 1002 16 10000 6.2 290 16:18 01.09.2019
2679 Clear 42 1002 16 10000 6.2 290 15:47 01.09.2019
2680 Clear 42 1002 16 10000 6.2 290 15:29 01.09.2019
2681 Clear 43 1002 14 10000 8.2 300 14:56 01.09.2019
2682 Clear 43 1002 14 10000 8.2 300 14:37 01.09.2019
2683 Clear 43 1002 14 10000 7.2 290 14:19 01.09.2019
2684 Clear 43 1002 14 10000 7.2 290 13:42 01.09.2019
2685 Clear 43 1002 14 10000 7.2 290 13:24 01.09.2019
2686 Clear 42 1002 14 10000 7.2 290 12:56 01.09.2019
2687 Clear 42 1003 15 10000 5.1 290 12:37 01.09.2019
2688 Clear 42 1003 14 10000 4.1 290 12:19 01.09.2019
2689 Clear 41 1003 15 10000 4.6 270 11:40 01.09.2019
2690 Clear 40 1003 15 10000 4.6 270 11:20 01.09.2019
2691 Clear 40 1003 18 10000 4.6 310 10:57 01.09.2019
2692 Clear 40 1003 18 10000 4.6 310 10:57 01.09.2019
2693 Clear 40 1003 18 10000 4.6 310 10:38 01.09.2019
2694 Clear 38 1004 19 10000 4.6 320 10:20 01.09.2019
2695 Clear 38 1004 19 10000 4.6 320 09:42 01.09.2019
2696 Clear 38 1004 19 10000 4.6 320 09:23 01.09.2019
2697 Clear 35 1004 24 10000 4.1 300 08:43 01.09.2019
2698 Clear 33 1003 20 10000 2.6 0 08:22 01.09.2019
2699 Clear 32 1003 31 10000 3.1 270 07:49 01.09.2019
2700 Clear 32 1003 31 10000 3.1 270 07:31 01.09.2019
2701 Clear 30 1003 39 10000 1.5 310 06:42 01.09.2019
2702 Clear 28 1002 23 10000 2.1 40 06:19 01.09.2019
2703 Clear 27 1002 44 10000 2.1 290 05:38 01.09.2019
2704 Clear 28 1002 42 10000 2.6 310 04:27 01.09.2019
2705 Clear 26 1001 50 10000 2.6 320 03:39 01.09.2019
2706 Clear 27 1001 47 10000 2.6 320 02:57 01.09.2019
2707 Clear 27 1001 47 10000 2.6 320 02:26 01.09.2019
2708 Clear 28 1001 42 10000 3.1 330 01:50 01.09.2019
2709 Clear 28 1001 42 10000 3.1 330 01:22 01.09.2019
2710 Clear 28 1002 42 10000 3.6 320 00:45 01.09.2019
2711 Clear 28 1002 42 10000 3.6 320 00:21 01.09.2019
2712 Clear 30 1002 37 10000 3.1 320 23:48 31.08.2019
2713 Clear 30 1002 37 10000 3.1 320 23:22 31.08.2019
2714 Clear 31 1002 33 10000 3.1 320 22:57 31.08.2019
2715 Clear 31 1002 33 10000 3.1 320 22:39 31.08.2019
2716 Clear 33 1002 33 10000 3.1 320 22:21 31.08.2019
2717 Clear 33 1002 29 10000 3.6 310 21:55 31.08.2019
2718 Clear 33 1002 29 10000 3.6 310 21:37 31.08.2019
2719 Clear 34 1002 29 10000 4.1 320 21:19 31.08.2019
2720 Clear 33 1002 29 10000 4.1 320 20:46 31.08.2019
2721 Clear 35 1002 29 10000 4.1 320 20:28 31.08.2019
2722 Clear 36 1001 23 10000 4.1 300 19:47 31.08.2019
2723 Clear 36 1001 23 10000 4.1 300 19:47 31.08.2019
2724 Clear 36 1001 23 10000 4.1 300 19:24 31.08.2019
2725 Clear 36 1001 23 10000 4.1 300 18:59 31.08.2019
2726 Clear 37 1000 25 10000 4.1 310 18:39 31.08.2019
2727 Clear 40 1000 21 10000 5.7 320 18:20 31.08.2019
2728 Clear 40 1000 21 10000 5.7 320 17:55 31.08.2019
2729 Clear 40 1000 21 10000 5.7 320 17:37 31.08.2019
2730 Haze 43 1000 19 10000 6.7 300 17:18 31.08.2019
2731 Haze 43 1000 19 10000 6.7 300 16:55 31.08.2019
2732 Haze 43 1000 19 10000 6.7 300 16:37 31.08.2019
2733 Haze 44 1000 16 9000 6.7 300 16:18 31.08.2019
2734 Clear 44 1000 16 10000 7.7 300 15:42 31.08.2019
2735 Clear 45 1000 17 10000 7.2 300 15:19 31.08.2019
2736 -273 0 0 0 0 0 14:55 31.08.2019
2737 Clear 45 1000 17 10000 7.2 300 14:37 31.08.2019
2738 Clear 44 1000 18 10000 6.7 280 14:19 31.08.2019
2739 Clear 44 1000 18 10000 6.7 280 13:40 31.08.2019
2740 Clear 44 1000 16 10000 5.1 290 13:21 31.08.2019
2741 Clear 44 1000 16 10000 5.1 290 12:58 31.08.2019
2742 Clear 44 1000 16 10000 5.1 290 12:38 31.08.2019
2743 Clear 43 1001 18 10000 5.1 280 12:19 31.08.2019
2744 Clear 43 1001 18 10000 5.1 280 11:46 31.08.2019
2745 Clear 43 1001 18 10000 5.1 280 11:46 31.08.2019
2746 Clear 43 1001 18 10000 5.1 280 11:28 31.08.2019
2747 Clear 41 1001 26 10000 4.6 300 10:58 31.08.2019
2748 Clear 41 1001 26 10000 4.6 300 10:40 31.08.2019
2749 Clear 38 1001 31 10000 5.1 300 10:19 31.08.2019
2750 Clear 38 1001 31 10000 5.1 300 09:54 31.08.2019
2751 Clear 38 1001 31 10000 5.1 300 09:36 31.08.2019
2752 Clear 36 1001 30 10000 5.1 310 09:18 31.08.2019
2753 Clear 36 1001 30 10000 5.1 310 08:41 31.08.2019
2754 Clear 36 1001 30 10000 5.1 310 08:41 31.08.2019
2755 Clear 36 1001 30 10000 5.1 310 08:22 31.08.2019
2756 Smoke 35 1001 28 10000 6.2 300 07:40 31.08.2019
2757 Smoke 35 1001 28 10000 6.2 300 07:20 31.08.2019
2758 Smoke 31 1001 25 9000 1.5 340 06:28 31.08.2019
2759 Smoke 31 1001 25 9000 1.5 340 05:55 31.08.2019
2760 Clear 30 1000 31 10000 2.1 260 05:30 31.08.2019
2761 Clear 31 1000 33 10000 2.1 300 04:30 31.08.2019
2762 Clear 32 1000 35 10000 4.6 310 03:44 31.08.2019
2763 Clouds 33 999 33 10000 3.1 210 02:29 31.08.2019
2764 Clouds 33 1000 31 9000 3.1 240 01:52 31.08.2019
2765 Clouds 33 1000 31 9000 3.1 240 01:31 31.08.2019
2766 Clouds 33 1000 29 9000 1.5 190 00:49 31.08.2019
2767 Clouds 33 1000 29 9000 1.5 190 00:28 31.08.2019
2768 Clouds 33 1000 29 9000 1.5 190 23:57 30.08.2019
2769 Clouds 34 1000 28 7000 1.5 120 23:38 30.08.2019
2770 Clouds 36 1000 25 8000 2.1 90 23:18 30.08.2019
2771 Clouds 36 1000 25 8000 2.1 90 22:40 30.08.2019
2772 Haze 38 1000 25 8000 2.1 90 22:22 30.08.2019
2773 Haze 38 1000 25 8000 2.1 90 21:58 30.08.2019
2774 Haze 38 1001 28 9000 2.6 60 21:37 30.08.2019
2775 Haze 37 1001 20 9000 3.1 80 21:19 30.08.2019
2776 Haze 37 1001 20 9000 3.1 80 20:58 30.08.2019
2777 Haze 38 1001 34 10000 2.6 70 20:39 30.08.2019
2778 Haze 37 1001 22 10000 1 80 20:20 30.08.2019
2779 Haze 37 1001 22 10000 1 80 19:57 30.08.2019
2780 Haze 37 1001 22 10000 1 80 19:38 30.08.2019
2781 Haze 37 1001 22 10000 1 80 19:19 30.08.2019
2782 Haze 41 1001 19 10000 1.5 40 18:46 30.08.2019
2783 Haze 41 1001 19 10000 1.5 40 18:25 30.08.2019
2784 Haze 44 1001 19 10000 1.5 40 17:58 30.08.2019
2785 Haze 44 1001 15 10000 2.1 10 17:40 30.08.2019
2786 Haze 45 1001 14 10000 4.6 350 17:19 30.08.2019
2787 Haze 45 1001 14 10000 4.6 350 16:57 30.08.2019
2788 Haze 45 1001 14 10000 4.6 350 16:39 30.08.2019
2789 Haze 45 1001 14 10000 4.6 350 16:21 30.08.2019
2790 Haze 46 1002 14 10000 3.6 340 15:43 30.08.2019
2791 Haze 46 1002 13 10000 4.1 330 15:22 30.08.2019
2792 Haze 46 1002 13 10000 4.1 330 14:46 30.08.2019
2793 Haze 46 1002 13 10000 4.1 330 14:28 30.08.2019
2794 Haze 47 1003 13 10000 3.1 340 13:58 30.08.2019
2795 Haze 47 1003 13 10000 3.1 340 13:40 30.08.2019
2796 Haze 47 1003 13 10000 3.1 340 13:21 30.08.2019
2797 Haze 45 1003 14 10000 4.1 350 12:45 30.08.2019
2798 Haze 45 1003 14 10000 4.1 350 12:26 30.08.2019
2799 Haze 44 1004 18 10000 3.6 330 11:58 30.08.2019
2800 Haze 44 1004 18 10000 3.6 330 11:39 30.08.2019
2801 Haze 44 1004 18 10000 3.6 330 11:21 30.08.2019
2802 Haze 44 1004 18 10000 4.6 350 10:39 30.08.2019
2803 Haze 42 1005 21 10000 4.6 330 10:20 30.08.2019
2804 Haze 42 1005 21 10000 4.6 330 09:56 30.08.2019
2805 Haze 42 1005 21 10000 4.6 330 09:56 30.08.2019
2806 Haze 42 1005 21 10000 4.6 330 09:36 30.08.2019
2807 Haze 42 1005 21 10000 4.6 330 09:36 30.08.2019
2808 Haze 39 1004 22 10000 2.6 330 09:18 30.08.2019
2809 Haze 39 1004 22 10000 2.6 330 08:44 30.08.2019
2810 Haze 39 1004 22 10000 2.6 330 08:24 30.08.2019
2811 Haze 38 1004 17 6000 5.1 40 07:57 30.08.2019
2812 Haze 36 1004 22 10000 1.5 340 07:37 30.08.2019
2813 Haze 34 1004 19 6000 5.1 20 07:19 30.08.2019
2814 Haze 34 1004 31 10000 3.1 320 06:40 30.08.2019
2815 Haze 33 1004 20 6000 4.6 20 06:22 30.08.2019
2816 Haze 33 1003 31 10000 2.6 320 05:32 30.08.2019
2817 Clouds 33 1003 21 10000 4.1 70 03:57 30.08.2019
2818 Clear 33 1003 29 10000 3.1 360 03:37 30.08.2019
2819 Clear 33 1003 29 10000 3.1 360 03:37 30.08.2019
2820 Clear 31 1004 33 10000 3.6 310 02:45 30.08.2019
2821 Clear 31 1004 33 9000 3.1 300 02:19 30.08.2019
2822 Clear 32 1003 29 9000 3.89 22.392 00:58 30.08.2019
2823 Clear 32 1003 29 9000 3.89 22.392 00:25 30.08.2019
2824 Clear 33 1004 36 10000 1 0 23:56 29.08.2019
2825 Clear 33 1004 36 10000 1 0 23:37 29.08.2019
2826 Clear 34 1004 30 9000 1.5 320 23:19 29.08.2019
2827 Clear 34 1004 30 9000 1.5 320 22:42 29.08.2019
2828 Clear 36 1004 30 9000 1.5 320 22:23 29.08.2019
2829 Clear 35 1004 28 7000 2.1 300 21:42 29.08.2019
2830 Clear 35 1004 28 7000 2.1 300 21:22 29.08.2019
2831 Clear 35 1004 28 7000 2.1 300 21:22 29.08.2019
2832 Clear 38 1004 23 10000 2.1 270 20:59 29.08.2019
2833 Clear 38 1004 23 10000 2.1 270 20:41 29.08.2019
2834 Clear 38 1004 23 10000 2.1 270 20:20 29.08.2019
2835 Clear 38 1004 19 10000 1 0 19:57 29.08.2019
2836 Clear 38 1004 19 10000 1 0 19:39 29.08.2019
2837 Haze 41 1004 19 10000 1 0 19:21 29.08.2019
2838 Haze 41 1003 20 10000 1.5 330 18:42 29.08.2019
2839 Haze 41 1003 20 10000 1.5 330 18:20 29.08.2019
2840 Haze 44 1003 16 10000 2.6 350 17:56 29.08.2019
2841 Haze 44 1003 16 10000 2.6 350 17:38 29.08.2019
2842 Haze 44 1003 16 10000 2.6 350 17:19 29.08.2019
2843 Clear 45 1003 12 10000 4.6 360 16:55 29.08.2019
2844 Clear 43 1003 9 0 6.22 302.128 16:36 29.08.2019
2845 Clear 46 1003 13 10000 4.1 10 16:18 29.08.2019
2846 Clear 46 1003 13 10000 4.1 10 15:38 29.08.2019
2847 Clear 46 1004 13 10000 5.7 360 15:20 29.08.2019
2848 Clear 46 1004 13 10000 5.7 360 14:50 29.08.2019
2849 Clear 46 1004 13 10000 5.7 360 14:23 29.08.2019
2850 Clear 46 1004 13 10000 6.2 350 13:59 29.08.2019
2851 Clear 46 1004 13 10000 6.2 350 13:39 29.08.2019
2852 Clear 46 1004 13 10000 4.6 350 13:20 29.08.2019
2853 Clear 46 1004 13 10000 4.6 350 12:59 29.08.2019
2854 Clear 46 1004 13 10000 4.6 350 12:39 29.08.2019
2855 Clear 45 1005 12 10000 3.6 20 12:21 29.08.2019
2856 Clear 45 1005 12 10000 3.6 20 11:58 29.08.2019
2857 Clear 45 1005 12 10000 3.6 20 11:38 29.08.2019
2858 Clear 45 1005 13 10000 3.6 20 11:19 29.08.2019
2859 Clear 45 1005 13 10000 3.6 20 10:44 29.08.2019
2860 Clear 45 1005 13 10000 3.6 20 10:25 29.08.2019
2861 Clear 43 1005 14 10000 3.1 20 09:56 29.08.2019
2862 Clear 43 1005 14 10000 3.1 20 09:38 29.08.2019
2863 Clear 41 1006 11 10000 2.1 0 09:18 29.08.2019
2864 Haze 40 1005 15 10000 3.6 20 08:40 29.08.2019
2865 Haze 40 1005 15 10000 3.6 20 08:22 29.08.2019
2866 Clear 37 1005 22 9000 2.6 10 07:51 29.08.2019
2867 Clear 37 1005 22 9000 2.6 10 07:29 29.08.2019
2868 Clouds 35 1006 18 10000 3.1 20 06:53 29.08.2019
2869 Clear 33 1005 26 10000 1 340 06:33 29.08.2019
2870 Clear 34 1005 23 10000 1 0 05:43 29.08.2019
2871 Clear 34 1004 24 10000 5.1 90 04:51 29.08.2019
2872 Clear 34 1004 24 10000 5.1 90 04:30 29.08.2019
2873 Clear 31 1005 27 10000 3.1 340 03:35 29.08.2019
2874 Clear 31 1005 29 10000 3.1 300 01:52 29.08.2019
2875 Clear 31 1005 29 10000 3.1 300 01:32 29.08.2019
2876 Clear 33 1005 24 10000 3.1 280 00:45 29.08.2019
2877 Clear 34 1005 24 10000 2.6 310 00:21 29.08.2019
2878 Clear 34 1005 24 10000 2.6 310 23:56 28.08.2019
2879 Clear 34 1005 24 10000 2.6 310 23:38 28.08.2019
2880 Clear 34 1004 24 10000 1.5 330 23:19 28.08.2019
2881 Clear 34 1004 24 10000 1.5 330 22:39 28.08.2019
2882 Clear 36 1004 26 10000 2.6 330 22:19 28.08.2019
2883 Clear 35 1004 26 10000 2.6 330 21:59 28.08.2019
2884 Clear 35 1004 26 10000 2.6 330 21:41 28.08.2019
2885 Clear 35 1004 26 10000 2.6 330 21:21 28.08.2019
2886 Clear 35 1005 20 10000 2.1 310 20:56 28.08.2019
2887 Clear 34 1004 28 10000 2.6 320 20:37 28.08.2019
2888 Clear 36 1004 25 10000 3.1 310 20:19 28.08.2019
2889 Clear 36 1004 25 10000 3.1 310 19:40 28.08.2019
2890 Clear 36 1004 25 10000 3.1 310 19:21 28.08.2019
2891 Clear 40 1003 24 10000 2.1 350 18:56 28.08.2019
2892 Clear 40 1003 24 10000 2.1 350 18:37 28.08.2019
2893 Clear 42 1003 20 10000 2.1 340 18:18 28.08.2019
2894 Clear 42 1003 20 10000 2.1 340 17:37 28.08.2019
2895 Clear 45 1003 16 10000 3.6 350 17:19 28.08.2019
2896 Clear 45 1003 16 10000 3.6 350 16:43 28.08.2019
2897 Clear 45 1003 16 10000 3.6 350 16:21 28.08.2019
2898 Clear 46 1003 15 10000 4.1 340 15:59 28.08.2019
2899 Clear 46 1003 15 10000 4.1 340 15:37 28.08.2019
2900 Clear 46 1003 13 10000 5.1 330 15:19 28.08.2019
2901 Clear 46 1003 13 10000 5.1 330 14:57 28.08.2019
2902 Clear 46 1003 13 10000 5.1 330 14:38 28.08.2019
2903 Clear 46 1003 14 10000 5.7 340 14:20 28.08.2019
2904 Clear 46 1003 14 10000 5.7 340 13:58 28.08.2019
2905 Clear 46 1003 14 10000 5.7 340 13:37 28.08.2019
2906 Clear 46 1003 14 10000 5.7 340 13:19 28.08.2019
2907 Clear 46 1004 14 10000 6.2 350 12:42 28.08.2019
2908 Clouds 45 1004 10 10000 5.1 330 12:23 28.08.2019
2909 Clear 46 1004 14 10000 6.2 350 12:23 28.08.2019
2910 Clouds 45 1004 10 10000 5.1 330 11:55 28.08.2019
2911 Clear 45 1004 15 10000 6.7 350 11:36 28.08.2019
2912 Clear 45 1005 16 10000 5.1 10 11:18 28.08.2019
2913 Clear 45 1005 16 10000 5.1 10 10:41 28.08.2019
2914 Clear 45 1005 16 10000 5.1 10 10:21 28.08.2019
2915 Clear 42 1005 18 10000 6.2 360 09:59 28.08.2019
2916 Clear 42 1005 18 10000 6.2 360 09:40 28.08.2019
2917 Clouds 41 1005 13 10000 5.7 20 09:19 28.08.2019
2918 Clear 39 1005 20 10000 5.7 350 08:39 28.08.2019
2919 Clear 39 1005 20 10000 5.7 350 08:20 28.08.2019
2920 Clear 36 1004 20 10000 4.6 360 07:43 28.08.2019
2921 Clear 36 1004 20 10000 4.6 360 07:24 28.08.2019
2922 Clouds 34 1005 19 10000 5.1 10 06:56 28.08.2019
2923 Haze 34 1004 18 9000 5.1 10 06:37 28.08.2019
2924 Haze 33 1004 26 10000 4.1 340 05:44 28.08.2019
2925 Clear 30 1004 29 10000 4.1 300 03:32 28.08.2019
2926 Clear 35 1004 20 10000 5.7 290 01:37 28.08.2019
2927 Clear 36 1004 20 10000 5.1 280 01:18 28.08.2019
2928 Clear 36 1004 20 10000 5.1 280 00:41 28.08.2019
2929 Clear 34 1003 23 10000 3.1 250 23:59 27.08.2019
2930 Clear 34 1003 23 10000 3.1 250 23:40 27.08.2019
2931 Clear 34 1003 23 10000 3.1 250 23:21 27.08.2019
2932 Clear 33 1003 24 10000 2.6 300 22:56 27.08.2019
2933 Clear 33 1003 24 10000 2.6 300 22:38 27.08.2019
2934 Clear 36 1003 23 10000 3.1 330 22:19 27.08.2019
2935 Clear 36 1003 23 10000 3.1 330 21:55 27.08.2019
2936 Clear 36 1003 23 10000 3.1 330 21:55 27.08.2019
2937 Clear 36 1003 23 10000 3.1 330 21:36 27.08.2019
2938 Clear 35 1004 18 10000 2.6 330 21:18 27.08.2019
2939 Clear 36 1003 23 10000 2.1 320 20:41 27.08.2019
2940 Clear 36 1003 23 10000 2.1 320 20:21 27.08.2019
2941 Clear 37 1003 22 10000 2.6 320 19:58 27.08.2019
2942 Clear 37 1003 22 10000 2.6 320 19:39 27.08.2019
2943 Clear 39 1003 22 10000 2.6 320 19:21 27.08.2019
2944 Clear 41 1003 16 10000 4.1 300 18:43 27.08.2019
2945 Clear 43 1003 16 10000 4.1 300 18:19 27.08.2019
2946 Clear 42 1003 16 10000 4.1 300 17:59 27.08.2019
2947 Clear 43 1002 14 10000 4.1 310 17:41 27.08.2019
2948 Clear 43 1002 14 10000 4.1 310 17:22 27.08.2019
2949 Clear 46 1002 13 10000 4.6 320 16:47 27.08.2019
2950 Clear 46 1002 13 10000 4.6 320 16:28 27.08.2019
2951 Clear 48 1002 13 10000 4.1 340 15:58 27.08.2019
2952 Clear 48 1002 13 10000 4.1 340 15:40 27.08.2019
2953 Clear 48 1002 13 10000 4.1 340 15:21 27.08.2019
2954 Clear 48 1003 12 10000 3.6 340 14:57 27.08.2019
2955 Clear 48 1003 12 10000 3.6 340 14:39 27.08.2019
2956 Clear 48 1003 14 10000 4.1 340 14:19 27.08.2019
2957 Clear 48 1003 14 10000 4.1 340 13:42 27.08.2019
2958 Clear 48 1003 14 10000 4.1 340 13:21 27.08.2019
2959 Clear 47 1003 14 10000 5.1 360 12:55 27.08.2019
2960 Clear 47 1003 14 10000 5.1 360 12:36 27.08.2019
2961 Clouds 46 1004 9 10000 4.1 10 12:18 27.08.2019
2962 Clouds 46 1004 9 10000 4.1 10 12:18 27.08.2019
2963 Clouds 46 1004 9 10000 4.1 10 12:18 27.08.2019
2964 Clear 47 1004 15 10000 5.1 340 11:42 27.08.2019
2965 Clear 47 1004 15 10000 5.1 340 11:22 27.08.2019
2966 Clear 46 1004 16 10000 3.6 20 10:42 27.08.2019
2967 Clear 46 1004 16 10000 3.6 20 10:20 27.08.2019
2968 Haze 42 1005 20 10000 5.1 350 09:57 27.08.2019
2969 Haze 42 1005 20 10000 5.1 350 09:38 27.08.2019
2970 Haze 42 1005 20 10000 5.1 350 09:20 27.08.2019
2971 Haze 40 1005 24 10000 4.1 340 08:46 27.08.2019
2972 Haze 40 1005 24 10000 4.1 340 08:27 27.08.2019
2973 Haze 40 1005 24 10000 4.1 340 08:27 27.08.2019
2974 Haze 36 1005 26 10000 4.1 330 07:59 27.08.2019
2975 Haze 36 1005 26 10000 4.1 330 07:38 27.08.2019
2976 Haze 36 1005 26 10000 4.1 330 07:19 27.08.2019
2977 Haze 33 1005 22 9000 4.1 350 06:50 27.08.2019
2978 Haze 33 1005 22 9000 4.1 350 06:50 27.08.2019
2979 Haze 33 1005 22 9000 4.1 350 06:21 27.08.2019
2980 Haze 32 1004 24 9000 4.1 340 05:30 27.08.2019
2981 Haze 31 1004 35 10000 5.7 310 04:28 27.08.2019
2982 Haze 32 1004 26 10000 6.2 280 03:32 27.08.2019
2983 Clear 29 1003 37 9000 2.6 310 02:22 27.08.2019
2984 Clear 31 1003 31 10000 3.1 300 01:34 27.08.2019
2985 Clear 33 1003 31 9000 1.5 310 00:50 27.08.2019
2986 Clear 33 1003 31 9000 1.5 310 00:29 27.08.2019
2987 Clear 33 1003 27 8000 1 350 23:54 26.08.2019
2988 Clear 33 1003 27 8000 1 350 23:36 26.08.2019
2989 Clear 35 1003 26 10000 2.1 360 23:18 26.08.2019
2990 Clear 35 1003 26 10000 2.1 360 22:38 26.08.2019
2991 Haze 37 1003 26 10000 2.1 360 22:19 26.08.2019
2992 Haze 37 1003 25 10000 1.5 20 21:55 26.08.2019
2993 Haze 37 1003 25 10000 1.5 20 21:37 26.08.2019
2994 Haze 37 1003 25 10000 1.5 20 21:18 26.08.2019
2995 Haze 38 1003 25 10000 3.1 330 20:41 26.08.2019
2996 Haze 38 1003 25 10000 3.1 330 20:22 26.08.2019
2997 Haze 39 1003 21 10000 2.1 320 19:59 26.08.2019
2998 Haze 39 1003 21 10000 2.1 320 19:41 26.08.2019
2999 Haze 39 1003 21 10000 2.1 320 19:19 26.08.2019
3000 Haze 39 1003 21 10000 2.1 320 19:19 26.08.2019
3001 Haze 43 1002 20 10000 2.1 350 18:55 26.08.2019
3002 Clear 41 1002 20 10000 2.1 350 18:37 26.08.2019
3003 Haze 44 1002 20 10000 2.1 350 18:18 26.08.2019
3004 Haze 44 1002 20 10000 2.1 350 18:18 26.08.2019
3005 Haze 45 1002 16 10000 2.6 350 17:43 26.08.2019
3006 Haze 45 1002 16 10000 2.6 350 17:19 26.08.2019
3007 Clouds 47 1002 10 10000 2.6 360 16:57 26.08.2019
3008 Clouds 47 1002 10 10000 2.6 360 16:38 26.08.2019
3009 Clouds 47 1002 10 10000 2.6 360 16:18 26.08.2019
3010 Clear 48 1002 11 10000 3.6 340 15:44 26.08.2019
3011 Clear 48 1002 11 10000 3.6 340 15:22 26.08.2019
3012 Clouds 48 1002 11 10000 3.6 360 14:58 26.08.2019
3013 Clouds 48 1002 11 10000 3.6 360 14:39 26.08.2019
3014 Clouds 48 1002 11 10000 3.6 360 14:21 26.08.2019
3015 Clouds 48 1003 10 10000 3.1 350 13:43 26.08.2019
3016 Clouds 48 1003 10 10000 3.1 350 13:23 26.08.2019
3017 Clouds 48 1003 11 10000 3.1 0 12:56 26.08.2019
3018 Clouds 48 1003 11 10000 3.1 0 12:37 26.08.2019
3019 Clouds 48 1003 11 10000 3.1 0 12:19 26.08.2019
3020 Haze 47 1004 16 10000 3.1 340 11:38 26.08.2019
3021 Haze 47 1004 16 10000 3.1 340 11:20 26.08.2019
3022 Haze 45 1004 20 10000 2.6 350 10:57 26.08.2019
3023 Haze 45 1004 20 10000 2.6 350 10:39 26.08.2019
3024 Haze 45 1004 20 10000 2.6 350 10:18 26.08.2019
3025 Haze 42 1004 19 10000 2.6 300 09:42 26.08.2019
3026 Haze 42 1004 19 10000 2.6 300 09:23 26.08.2019
3027 Haze 38 1004 24 9000 2.6 290 08:56 26.08.2019
3028 Haze 38 1004 24 9000 2.6 290 08:38 26.08.2019
3029 Haze 38 1004 24 9000 2.6 290 08:19 26.08.2019
3030 Haze 35 1004 28 9000 2.1 300 07:42 26.08.2019
3031 Haze 35 1004 28 9000 2.1 300 07:24 26.08.2019
3032 Haze 31 1003 35 10000 2.6 250 06:57 26.08.2019
3033 Haze 31 1003 35 10000 2.6 250 06:38 26.08.2019
3034 Haze 31 1003 35 10000 2.6 250 06:18 26.08.2019
3035 Clear 29 1002 34 10000 3.6 300 04:54 26.08.2019
3036 Clear 31 1002 35 10000 1.5 290 03:49 26.08.2019
3037 Clear 32 1002 31 10000 2.1 310 02:38 26.08.2019
3038 Clear 29 1002 42 6000 2.6 310 01:23 26.08.2019
3039 Clear 31 1002 40 5000 1 290 00:44 26.08.2019
3040 Clear 31 1002 40 5000 1 290 00:26 26.08.2019
3041 Clear 32 1002 33 8000 1 290 23:45 25.08.2019
3042 Clear 32 1002 33 8000 1 290 23:20 25.08.2019
3043 Clear 34 1002 30 9000 2.1 260 22:59 25.08.2019
3044 Clear 34 1002 30 9000 2.1 260 22:40 25.08.2019
3045 Clear 35 1002 30 9000 2.1 260 22:20 25.08.2019
3046 Clear 35 1003 25 10000 1 170 21:58 25.08.2019
3047 Clear 35 1003 25 10000 1 170 21:39 25.08.2019
3048 Clear 35 1003 25 10000 1 170 21:19 25.08.2019
3049 Clear 35 1002 28 10000 1 290 20:55 25.08.2019
3050 Clear 35 1002 28 10000 1 290 20:55 25.08.2019
3051 Clear 35 1002 28 10000 1 290 20:36 25.08.2019
3052 Clear 35 1002 28 10000 1 290 20:18 25.08.2019
3053 Clear 39 1002 21 10000 1 320 19:40 25.08.2019
3054 Clear 39 1002 21 10000 1 320 19:21 25.08.2019
3055 Clear 39 1002 21 10000 1 320 18:59 25.08.2019
3056 Clear 40 1002 23 10000 1.5 350 18:40 25.08.2019
3057 Clear 44 1002 23 10000 1.5 350 18:22 25.08.2019
3058 Clear 44 1001 18 10000 2.6 350 17:56 25.08.2019
3059 Clear 44 1001 18 10000 2.6 350 17:38 25.08.2019
3060 Clear 44 1001 18 10000 2.6 350 17:19 25.08.2019
3061 Clear 46 1001 13 10000 2.1 290 16:40 25.08.2019
3062 Clear 46 1001 13 10000 2.1 290 16:22 25.08.2019
3063 Clouds 47 1002 14 10000 2.1 260 15:47 25.08.2019
3064 Clouds 47 1002 14 10000 2.1 260 15:26 25.08.2019
3065 Clouds 46 1002 14 10000 1.5 220 14:56 25.08.2019
3066 Clouds 46 1002 14 10000 1.5 220 14:38 25.08.2019
3067 Clouds 47 1002 14 10000 1.5 220 14:19 25.08.2019
3068 Clouds 47 1002 14 10000 3.6 290 13:43 25.08.2019
3069 Clouds 47 1002 14 10000 3.6 290 13:21 25.08.2019
3070 Clear 47 1003 13 10000 2.1 190 12:54 25.08.2019
3071 Clear 47 1003 13 10000 2.1 190 12:36 25.08.2019
3072 Clear 47 1003 13 10000 2.1 190 12:18 25.08.2019
3073 Haze 46 1003 15 10000 3.6 230 11:54 25.08.2019
3074 Haze 46 1003 15 10000 3.6 230 11:36 25.08.2019
3075 Haze 46 1003 15 10000 3.6 230 11:18 25.08.2019
3076 Haze 45 1003 15 10000 1.5 30 10:40 25.08.2019
3077 Haze 45 1003 15 10000 1.5 30 10:20 25.08.2019
3078 Haze 44 1004 21 6000 1 0 09:56 25.08.2019
3079 Haze 44 1004 21 6000 1 0 09:37 25.08.2019
3080 Haze 44 1004 21 6000 1 0 09:19 25.08.2019
3081 Haze 41 1004 24 9000 1.5 220 08:42 25.08.2019
3082 Haze 41 1004 24 9000 1.5 220 08:21 25.08.2019
3083 Haze 38 1004 22 10000 0.5 0 07:38 25.08.2019
3084 Haze 38 1004 22 10000 0.5 0 07:19 25.08.2019
3085 Haze 35 1003 32 10000 0.5 0 06:22 25.08.2019
3086 Clear 33 1003 29 10000 1 0 04:41 25.08.2019
3087 Clear 34 1002 27 10000 0.5 70 03:36 25.08.2019
3088 Clear 35 1003 24 10000 0.5 0 02:39 25.08.2019
3089 Clear 33 1003 31 10000 2.6 20 01:35 25.08.2019
3090 Clear 32 1003 33 9000 2.1 40 00:40 25.08.2019
3091 Clear 32 1003 33 9000 2.1 40 00:21 25.08.2019
3092 Clear 33 1003 29 10000 1 340 23:52 24.08.2019
3093 Clear 33 1003 29 10000 1 340 23:22 24.08.2019
3094 Clear 33 1004 29 10000 1 280 22:56 24.08.2019
3095 Clear 33 1004 29 10000 1 280 22:38 24.08.2019
3096 Clear 35 1004 29 10000 1 280 22:19 24.08.2019
3097 Clear 35 1004 29 10000 1 280 22:19 24.08.2019
3098 Clear 35 1004 26 10000 1 0 21:56 24.08.2019
3099 Clear 35 1004 26 10000 1 0 21:37 24.08.2019
3100 Clear 35 1004 26 10000 1 0 21:19 24.08.2019
3101 Clear 36 1004 21 10000 2.6 260 20:55 24.08.2019
3102 Clear 36 1004 21 10000 2.6 260 20:55 24.08.2019
3103 -273 0 0 0 0 0 20:55 24.08.2019
3104 Clear 36 1004 21 10000 2.6 260 20:37 24.08.2019
3105 Clear 36 1004 21 10000 2.6 260 20:18 24.08.2019
3106 Clear 39 1004 21 10000 2.6 240 19:55 24.08.2019
3107 Clear 39 1004 21 10000 2.6 240 19:37 24.08.2019
3108 Clear 39 1004 21 10000 2.6 240 19:18 24.08.2019
3109 Clear 41 1003 16 10000 1.5 270 18:41 24.08.2019
3110 Clear 41 1003 16 10000 1.5 270 18:21 24.08.2019
3111 Haze 43 1003 17 10000 1.5 310 17:45 24.08.2019
3112 Haze 44 1003 16 10000 2.1 330 17:25 24.08.2019
3113 Haze 46 1003 13 10000 2.1 0 16:51 24.08.2019
3114 Haze 46 1003 13 10000 2.1 0 16:21 24.08.2019
3115 Haze 46 1003 12 10000 3.1 320 15:59 24.08.2019
3116 Haze 46 1003 12 10000 3.1 320 15:41 24.08.2019
3117 Haze 46 1003 12 10000 3.1 320 15:23 24.08.2019
3118 Haze 47 1004 13 10000 3.6 330 14:44 24.08.2019
3119 Haze 47 1004 13 10000 3.6 330 14:23 24.08.2019
3120 Haze 47 1004 11 10000 4.1 360 13:59 24.08.2019
3121 Haze 47 1004 11 10000 4.1 360 13:40 24.08.2019
3122 Haze 47 1004 11 10000 4.1 360 13:21 24.08.2019
3123 Haze 46 1004 9 10000 5.7 20 12:58 24.08.2019
3124 Haze 46 1004 9 10000 5.7 20 12:39 24.08.2019
3125 Haze 46 1004 9 10000 5.7 20 12:20 24.08.2019
3126 Haze 46 1005 11 10000 5.7 30 11:45 24.08.2019
3127 Haze 46 1005 11 10000 5.7 30 11:22 24.08.2019
3128 Haze 43 1006 14 10000 3.6 10 10:52 24.08.2019
3129 Haze 43 1006 14 10000 3.6 10 10:24 24.08.2019
3130 Haze 41 1006 16 10000 4.1 20 09:45 24.08.2019
3131 Haze 41 1006 16 10000 4.1 20 09:23 24.08.2019
3132 Haze 38 1006 20 10000 4.1 340 08:59 24.08.2019
3133 Haze 38 1006 20 10000 4.1 340 08:40 24.08.2019
3134 Haze 38 1006 20 10000 4.1 340 08:22 24.08.2019
3135 Haze 35 1006 24 10000 2.6 340 07:49 24.08.2019
3136 Haze 35 1006 24 10000 2.6 340 07:27 24.08.2019
3137 Haze 35 1006 24 10000 2.6 340 07:27 24.08.2019
3138 Clear 32 1005 24 10000 3.1 300 06:30 24.08.2019
3139 Clear 31 1004 21 10000 3.1 20 05:42 24.08.2019
3140 Clear 31 1004 21 10000 3.1 20 05:22 24.08.2019
3141 Clear 31 1004 24 10000 4.1 360 03:38 24.08.2019
3142 Clear 29 1003 32 10000 3.1 350 02:27 24.08.2019
3143 Clear 29 1003 32 10000 2.1 350 01:38 24.08.2019
3144 Clear 29 1003 32 10000 2.1 350 01:18 24.08.2019
3145 Clear 30 1004 27 10000 2.6 310 00:41 24.08.2019
3146 Clear 30 1004 27 10000 2.6 310 00:18 24.08.2019
3147 Clear 31 1004 27 10000 2.1 330 23:42 23.08.2019
3148 Clear 31 1004 27 10000 2.1 330 23:19 23.08.2019
3149 Clear 30 1004 28 10000 3.1 320 22:43 23.08.2019
3150 Clear 32 1004 28 10000 3.1 320 22:24 23.08.2019
3151 Clear 32 1004 22 10000 3.1 320 21:54 23.08.2019
3152 Clear 32 1004 22 10000 3.1 320 21:36 23.08.2019
3153 Clear 32 1004 22 10000 3.1 320 21:18 23.08.2019
3154 Clear 33 1004 24 10000 2.6 340 20:40 23.08.2019
3155 Clear 33 1004 24 10000 2.6 340 20:22 23.08.2019
3156 Clear 34 1004 24 10000 3.1 350 19:45 23.08.2019
3157 Clear 34 1004 24 10000 3.1 350 19:19 23.08.2019
3158 Smoke 36 1003 22 10000 3.1 350 18:49 23.08.2019
3159 Smoke 36 1003 22 10000 3.1 350 18:31 23.08.2019
3160 Smoke 41 1003 16 10000 3.6 350 17:59 23.08.2019
3161 Smoke 41 1003 16 10000 3.6 350 17:40 23.08.2019
3162 Smoke 41 1003 16 10000 3.6 350 17:21 23.08.2019
3163 Clear 43 1003 15 10000 5.1 340 16:48 23.08.2019
3164 Clear 43 1003 15 10000 5.1 340 16:29 23.08.2019
3165 Clear 44 1003 12 10000 7.7 330 15:58 23.08.2019
3166 Clear 44 1003 12 10000 7.7 330 15:38 23.08.2019
3167 Clear 44 1003 12 10000 7.7 330 15:20 23.08.2019
3168 Clear 44 1003 12 10000 7.7 310 14:43 23.08.2019
3169 Clear 44 1003 12 10000 7.7 310 14:21 23.08.2019
3170 Clear 44 1004 13 10000 7.2 330 13:58 23.08.2019
3171 Clear 44 1004 13 10000 7.2 330 13:58 23.08.2019
3172 Clear 44 1004 13 10000 7.2 330 13:40 23.08.2019
3173 Clear 44 1004 13 10000 7.2 330 13:22 23.08.2019
3174 Clear 43 1004 15 10000 7.7 330 12:58 23.08.2019
3175 Clear 43 1004 15 10000 7.7 330 12:40 23.08.2019
3176 Clear 43 1004 15 10000 7.7 330 12:21 23.08.2019
3177 Clear 42 1004 18 10000 6.7 330 11:56 23.08.2019
3178 Clear 42 1004 18 10000 6.7 330 11:38 23.08.2019
3179 Clear 42 1004 18 10000 6.7 330 11:38 23.08.2019
3180 Clear 42 1004 18 10000 6.7 330 11:18 23.08.2019
3181 Clear 40 1005 21 10000 6.2 340 10:45 23.08.2019
3182 Clear 40 1005 21 10000 6.2 340 10:23 23.08.2019
3183 Clear 38 1005 25 10000 6.7 330 09:58 23.08.2019
3184 Clear 38 1005 25 10000 6.7 330 09:40 23.08.2019
3185 Clear 38 1005 25 10000 6.7 330 09:20 23.08.2019
3186 Clear 34 1005 28 10000 7.2 340 08:44 23.08.2019
3187 Clear 34 1005 28 10000 7.2 340 08:20 23.08.2019
3188 Clear 32 1004 31 10000 3.6 330 07:45 23.08.2019
3189 Clear 32 1004 31 10000 3.6 330 07:25 23.08.2019
3190 Clear 28 1004 32 10000 4.1 320 06:59 23.08.2019
3191 Clear 28 1004 32 10000 4.1 320 06:40 23.08.2019
3192 Clear 28 1004 32 10000 4.1 320 06:21 23.08.2019
3193 Clear 23 1004 41 10000 3.6 310 05:43 23.08.2019
3194 Clear 23 1004 41 10000 3.6 310 05:23 23.08.2019
3195 Clear 27 1003 37 10000 4.1 330 03:36 23.08.2019
3196 Clear 28 1003 37 10000 3.6 320 02:37 23.08.2019
3197 Clear 28 1003 37 10000 3.6 320 02:18 23.08.2019
3198 Clear 30 1004 37 10000 4.6 320 00:46 23.08.2019
3199 Clear 30 1004 37 10000 4.6 320 00:23 23.08.2019
3200 Clear 32 1004 31 10000 5.1 300 23:59 22.08.2019
3201 Clear 32 1004 31 10000 5.1 300 23:40 22.08.2019
3202 Clear 32 1004 31 10000 5.1 300 23:20 22.08.2019
3203 Clear 33 1004 31 10000 5.7 300 22:42 22.08.2019
3204 Clear 30 1004 31 10000 5.7 300 22:23 22.08.2019
3205 Clear 31 1004 30 10000 5.7 290 21:58 22.08.2019
3206 Clear 31 1004 30 10000 5.7 290 21:40 22.08.2019
3207 Clear 31 1004 30 10000 5.7 290 21:21 22.08.2019
3208 Clear 32 1004 26 10000 7.2 290 20:57 22.08.2019
3209 Clear 32 1004 26 10000 7.2 290 20:39 22.08.2019
3210 Clear 32 1004 26 10000 7.2 290 20:19 22.08.2019
3211 Clear 34 1003 23 10000 6.2 280 19:56 22.08.2019
3212 Clear 34 1003 23 10000 6.2 280 19:37 22.08.2019
3213 Clear 34 1003 23 10000 6.2 280 19:19 22.08.2019
3214 Clear 36 1003 18 10000 6.7 290 18:56 22.08.2019
3215 Clear 36 1003 18 10000 6.7 290 18:38 22.08.2019
3216 Clear 36 1003 18 10000 6.7 290 18:18 22.08.2019
3217 Clear 40 1003 17 10000 7.2 280 17:43 22.08.2019
3218 Clear 42 1003 15 10000 8.7 290 17:23 22.08.2019
3219 Clear 42 1003 15 10000 8.7 290 17:23 22.08.2019
3220 Clear 42 1003 15 10000 8.7 290 16:59 22.08.2019
3221 Clear 42 1003 15 10000 8.7 290 16:40 22.08.2019
3222 Clear 42 1003 15 10000 8.7 290 16:21 22.08.2019
3223 Clear 42 1003 15 10000 8.7 290 16:21 22.08.2019
3224 Haze 43 1003 14 10000 9.8 300 15:59 22.08.2019
3225 Haze 43 1003 14 10000 9.8 300 15:59 22.08.2019
3226 Haze 43 1003 14 10000 9.8 300 15:39 22.08.2019
3227 Haze 43 1003 14 10000 9.8 300 15:20 22.08.2019
3228 Haze 43 1003 14 10000 9.8 300 15:20 22.08.2019
3229 Haze 43 1003 14 10000 10.3 300 14:56 22.08.2019
3230 Haze 43 1003 14 10000 10.3 300 14:38 22.08.2019
3231 Haze 43 1003 14 10000 10.3 300 14:18 22.08.2019
3232 Haze 43 1004 14 10000 10.8 300 13:42 22.08.2019
3233 Haze 43 1004 14 10000 10.8 300 13:24 22.08.2019
3234 Haze 42 1004 16 10000 9.8 300 12:59 22.08.2019
3235 Haze 42 1004 16 10000 9.8 300 12:40 22.08.2019
3236 Haze 42 1004 16 10000 9.8 300 12:21 22.08.2019
3237 -273 0 0 0 0 0 11:55 22.08.2019
3238 -273 0 0 0 0 0 11:55 22.08.2019
3239 Haze 41 1004 19 10000 9.3 320 11:36 22.08.2019
3240 Haze 41 1004 19 10000 9.3 320 11:18 22.08.2019
3241 Haze 40 1005 19 10000 10.3 320 10:56 22.08.2019
3242 Haze 40 1005 19 10000 10.3 320 10:36 22.08.2019
3243 Haze 40 1005 19 10000 10.3 320 10:18 22.08.2019
3244 Haze 39 1005 22 10000 9.3 330 09:39 22.08.2019
3245 Haze 39 1005 22 10000 9.3 330 09:21 22.08.2019
3246 Haze 35 1005 26 10000 6.7 330 08:58 22.08.2019
3247 Haze 35 1005 26 10000 6.7 330 08:39 22.08.2019
3248 Haze 35 1005 26 10000 6.7 330 08:20 22.08.2019
3249 Clear 33 1005 31 10000 5.7 330 07:41 22.08.2019
3250 Clear 33 1005 31 10000 5.7 330 07:23 22.08.2019
3251 Clear 30 1005 32 10000 5.1 330 06:55 22.08.2019
3252 -273 0 0 0 0 0 06:25 22.08.2019
3253 Clear 28 1005 36 10000 4.1 320 05:59 22.08.2019
3254 Clear 27 1004 33 10000 4.1 310 04:39 22.08.2019
3255 Clear 31 1004 25 10000 5.1 330 02:52 22.08.2019
3256 Clear 31 1004 25 10000 5.1 330 02:34 22.08.2019
3257 Clear 32 1004 25 10000 6.7 320 01:26 22.08.2019
3258 Clear 33 1004 27 10000 6.2 310 00:47 22.08.2019
3259 Clear 33 1004 27 10000 6.2 310 00:28 22.08.2019
3260 Clear 34 1004 26 10000 6.7 300 23:58 21.08.2019
3261 Clear 34 1004 26 10000 6.7 300 23:37 21.08.2019
3262 Clear 34 1004 26 10000 6.7 300 23:19 21.08.2019
3263 Clear 35 1004 26 10000 5.7 290 22:55 21.08.2019
3264 Clear 35 1004 26 10000 5.7 290 22:37 21.08.2019
3265 Clear 34 1004 26 10000 5.7 290 22:19 21.08.2019
3266 Clear 34 1004 23 10000 6.7 280 21:55 21.08.2019
3267 Clear 34 1004 23 10000 6.7 280 21:36 21.08.2019
3268 Clear 34 1004 23 10000 6.7 280 21:18 21.08.2019
3269 Clear 36 1004 25 10000 6.7 280 20:42 21.08.2019
3270 Clear 36 1004 25 10000 6.7 280 20:24 21.08.2019
3271 Clear 38 1004 24 10000 6.2 280 19:56 21.08.2019
3272 Clear 38 1003 22 10000 4.1 290 19:38 21.08.2019
3273 Clear 38 1003 22 10000 4.1 290 19:20 21.08.2019
3274 Clear 40 1003 21 10000 4.6 280 18:43 21.08.2019
3275 Clear 40 1003 21 10000 4.6 280 18:23 21.08.2019
3276 Clear 43 1003 17 10000 6.2 280 17:57 21.08.2019
3277 Clear 43 1003 17 10000 6.2 280 17:38 21.08.2019
3278 Clear 43 1003 17 10000 6.2 280 17:20 21.08.2019
3279 Clear 45 1003 16 10000 5.7 260 16:54 21.08.2019
3280 Clear 45 1003 16 10000 5.7 260 16:36 21.08.2019
3281 Clear 45 1003 16 10000 5.7 260 16:18 21.08.2019
3282 Clear 46 1003 14 10000 5.1 240 15:42 21.08.2019
3283 Clear 46 1003 14 10000 5.1 240 15:22 21.08.2019
3284 Clear 46 1003 14 10000 5.1 250 14:58 21.08.2019
3285 Clear 46 1003 14 10000 5.1 250 14:39 21.08.2019
3286 Clear 46 1003 14 10000 5.1 250 14:21 21.08.2019
3287 Clear 46 1003 14 10000 5.1 250 14:21 21.08.2019
3288 Clear 46 1004 15 10000 5.7 240 13:58 21.08.2019
3289 Clear 46 1004 15 10000 5.7 240 13:40 21.08.2019
3290 Clear 46 1004 15 10000 5.7 240 13:19 21.08.2019
3291 Clear 45 1004 17 10000 4.1 270 12:57 21.08.2019
3292 Clear 45 1004 17 10000 4.1 270 12:38 21.08.2019
3293 Clear 45 1004 17 10000 4.1 270 12:18 21.08.2019
3294 Clear 44 1004 18 10000 4.6 270 11:43 21.08.2019
3295 Clear 44 1005 19 10000 5.1 260 11:22 21.08.2019
3296 Clear 43 1005 19 10000 4.1 290 10:58 21.08.2019
3297 Clear 43 1005 19 10000 4.1 290 10:38 21.08.2019
3298 Clear 43 1005 19 10000 4.1 290 10:20 21.08.2019
3299 Haze 41 1006 26 10000 4.1 300 09:57 21.08.2019
3300 Haze 41 1006 26 10000 4.1 300 09:37 21.08.2019
3301 Haze 41 1006 26 10000 4.1 300 09:18 21.08.2019
3302 Haze 41 1006 26 10000 4.1 300 09:18 21.08.2019
3303 Haze 37 1006 30 10000 4.1 280 08:46 21.08.2019
3304 Haze 37 1006 30 10000 4.1 280 08:24 21.08.2019
3305 Haze 36 1005 23 10000 5.1 310 07:44 21.08.2019
3306 Haze 36 1005 23 10000 5.1 310 07:24 21.08.2019
3307 Smoke 32 1005 24 10000 4.6 300 06:50 21.08.2019
3308 Smoke 31 1005 24 10000 4.1 280 06:32 21.08.2019
3309 Smoke 27 1004 39 10000 1 340 05:57 21.08.2019
3310 Smoke 27 1004 39 10000 1 340 05:28 21.08.2019
3311 Clear 27 1004 34 10000 2.1 270 04:26 21.08.2019
3312 Clear 30 1003 28 10000 1 0 01:56 21.08.2019
3313 Clear 30 1003 28 10000 1 0 01:24 21.08.2019
3314 Clear 31 1003 27 10000 1.5 230 00:39 21.08.2019
3315 Clear 31 1003 27 10000 1.5 230 00:20 21.08.2019
3316 Clear 33 1004 26 10000 0.5 0 23:44 20.08.2019
3317 Clear 33 1004 26 10000 0.5 0 23:20 20.08.2019
3318 Clear 33 1004 26 10000 2.1 10 22:58 20.08.2019
3319 Clear 33 1004 26 10000 2.1 10 22:40 20.08.2019
3320 Clear 34 1004 26 10000 2.1 10 22:21 20.08.2019
3321 Clear 34 1004 24 10000 1.5 20 21:58 20.08.2019
3322 Clear 34 1004 24 10000 1.5 20 21:39 20.08.2019
3323 Clear 34 1004 24 10000 1.5 20 21:19 20.08.2019
3324 Smoke 34 1004 23 10000 2.1 330 20:58 20.08.2019
3325 Smoke 34 1004 23 10000 2.1 330 20:39 20.08.2019
3326 Smoke 34 1004 23 10000 2.1 330 20:21 20.08.2019
3327 Smoke 38 1004 17 10000 2.6 280 19:39 20.08.2019
3328 Smoke 38 1004 17 10000 2.6 280 19:21 20.08.2019
3329 Smoke 40 1004 16 10000 3.6 260 18:56 20.08.2019
3330 Clear 36 1003 12 0 3.33 284.695 18:38 20.08.2019
3331 Smoke 44 1004 12 10000 4.1 270 18:19 20.08.2019
3332 Smoke 44 1004 12 10000 4.1 270 18:19 20.08.2019
3333 Smoke 44 1004 12 10000 4.1 270 17:56 20.08.2019
3334 Smoke 44 1004 12 10000 4.1 270 17:38 20.08.2019
3335 Clear 45 1004 12 10000 4.6 260 17:19 20.08.2019
3336 Clear 45 1004 12 10000 4.6 260 16:44 20.08.2019
3337 Clear 45 1004 12 10000 4.6 260 16:25 20.08.2019
3338 Clear 46 1004 10 10000 4.1 270 15:43 20.08.2019
3339 Clear 45 1004 9 10000 5.7 290 15:19 20.08.2019
3340 Clear 45 1004 9 10000 5.7 290 14:59 20.08.2019
3341 Clear 46 1004 13 10000 3.6 0 14:41 20.08.2019
3342 Clear 46 1004 13 10000 3.6 0 14:21 20.08.2019
3343 Clear 46 1004 12 10000 4.1 280 13:56 20.08.2019
3344 Clear 46 1004 13 10000 4.1 270 13:38 20.08.2019
3345 Clear 45 1005 12 10000 2.6 0 13:20 20.08.2019
3346 Clear 45 1005 12 10000 2.6 0 12:51 20.08.2019
3347 Clear 45 1005 12 10000 2.6 0 12:28 20.08.2019
3348 Clear 45 1006 13 10000 4.1 350 11:58 20.08.2019
3349 Clear 45 1006 13 10000 4.1 350 11:38 20.08.2019
3350 Haze 44 1006 18 10000 3.6 340 11:19 20.08.2019
3351 Haze 44 1006 18 10000 3.6 340 10:57 20.08.2019
3352 Haze 44 1006 18 10000 3.6 340 10:57 20.08.2019
3353 Haze 44 1006 18 10000 3.6 340 10:57 20.08.2019
3354 Haze 44 1006 18 10000 3.6 340 10:38 20.08.2019
3355 Haze 42 1006 19 10000 4.1 340 10:19 20.08.2019
3356 Haze 42 1006 19 10000 4.1 340 09:43 20.08.2019
3357 Haze 42 1006 19 10000 4.1 340 09:25 20.08.2019
3358 Haze 39 1006 18 10000 5.1 350 08:57 20.08.2019
3359 Haze 39 1006 18 10000 5.1 350 08:39 20.08.2019
3360 Haze 39 1006 18 10000 5.1 350 08:20 20.08.2019
3361 Smoke 34 1005 28 10000 3.6 360 07:56 20.08.2019
3362 Smoke 34 1005 28 10000 3.6 360 07:37 20.08.2019
3363 Smoke 32 1006 21 9000 4.6 340 07:18 20.08.2019
3364 Clear 31 1005 33 10000 2.1 320 06:28 20.08.2019
3365 Clear 27 1005 41 10000 1.5 300 05:51 20.08.2019
3366 Clear 27 1005 41 10000 1.5 300 05:30 20.08.2019
3367 Clear 30 1005 34 10000 1 270 04:21 20.08.2019
3368 Clear 28 1004 32 10000 1 290 02:46 20.08.2019
3369 Clear 31 1004 27 10000 2.6 310 01:43 20.08.2019
3370 Clear 30 1004 30 10000 2.1 350 01:19 20.08.2019
3371 Clear 30 1004 30 10000 2.1 350 00:43 20.08.2019
3372 Clear 28 1004 32 10000 2.6 330 00:21 20.08.2019
3373 Clear 28 1004 32 10000 2.6 330 23:40 19.08.2019
3374 Clear 32 1004 25 10000 1.5 330 23:18 19.08.2019
3375 Clear 32 1004 25 10000 1.5 330 22:57 19.08.2019
3376 Clear 32 1004 25 10000 1.5 330 22:39 19.08.2019
3377 Clear 34 1005 26 10000 2.1 320 22:19 19.08.2019
3378 Clear 34 1005 26 10000 2.1 320 21:56 19.08.2019
3379 Clear 34 1005 26 10000 2.1 320 21:38 19.08.2019
3380 Clear 35 1005 20 10000 4.6 280 21:19 19.08.2019
3381 Clear 34 1005 20 10000 4.1 290 20:40 19.08.2019
3382 Clear 36 1005 20 10000 4.1 290 20:21 19.08.2019
3383 Clear 36 1005 20 10000 4.1 290 19:59 19.08.2019
3384 Clear 37 1004 18 10000 2.6 280 19:40 19.08.2019
3385 Clear 39 1005 17 9000 4.1 280 19:19 19.08.2019
3386 Smoke 39 1004 15 10000 1.5 270 18:58 19.08.2019
3387 Smoke 39 1004 15 10000 1.5 270 18:39 19.08.2019
3388 Clear 42 1004 13 10000 3.1 230 18:21 19.08.2019
3389 Clear 42 1004 13 10000 3.1 230 17:55 19.08.2019
3390 Clear 42 1004 13 10000 3.1 230 17:36 19.08.2019
3391 Clear 44 1003 14 10000 3.6 240 17:18 19.08.2019
3392 Clear 44 1003 14 10000 3.6 240 16:38 19.08.2019
3393 Clear 44 1003 14 10000 3.6 240 16:20 19.08.2019
3394 Haze 45 1004 13 10000 3.6 250 15:56 19.08.2019
3395 Haze 45 1004 13 10000 3.6 250 15:38 19.08.2019
3396 Haze 45 1004 13 10000 3.6 250 15:19 19.08.2019
3397 Haze 44 1004 14 10000 3.1 230 14:44 19.08.2019
3398 Haze 44 1004 14 10000 3.1 230 14:23 19.08.2019
3399 Haze 44 1004 13 10000 4.1 290 13:58 19.08.2019
3400 Haze 44 1004 13 10000 4.1 290 13:39 19.08.2019
3401 Haze 44 1004 13 10000 4.1 290 13:20 19.08.2019
3402 Haze 44 1005 19 10000 3.6 270 12:58 19.08.2019
3403 Haze 44 1005 19 10000 3.6 270 12:40 19.08.2019
3404 Haze 44 1005 19 10000 3.6 270 12:20 19.08.2019
3405 Haze 43 1005 18 10000 3.6 290 11:40 19.08.2019
3406 Haze 43 1005 18 10000 3.6 290 11:22 19.08.2019
3407 Haze 42 1005 19 10000 2.1 300 10:58 19.08.2019
3408 Haze 42 1005 19 10000 2.1 300 10:38 19.08.2019
3409 Haze 42 1005 19 10000 2.1 300 10:18 19.08.2019
3410 Haze 40 1005 24 10000 2.1 340 09:45 19.08.2019
3411 Haze 40 1005 24 10000 2.1 340 09:24 19.08.2019
3412 Clear 38 1005 27 10000 2.1 280 08:59 19.08.2019
3413 Clear 38 1005 27 10000 2.1 280 08:41 19.08.2019
3414 Clear 38 1005 27 10000 2.1 280 08:41 19.08.2019
3415 Clear 38 1005 27 10000 2.1 280 08:20 19.08.2019
3416 Clear 34 1005 33 10000 3.1 250 07:50 19.08.2019
3417 Clear 34 1005 33 10000 3.1 250 07:31 19.08.2019
3418 Clear 32 1004 38 10000 3.1 250 06:58 19.08.2019
3419 Clear 32 1004 38 10000 3.1 250 06:36 19.08.2019
3420 Clear 30 1004 39 10000 2.1 280 05:25 19.08.2019
3421 Clear 31 1003 37 10000 2.6 270 04:32 19.08.2019
3422 Clear 31 1003 33 10000 1.5 340 03:24 19.08.2019
3423 Clear 33 1002 29 10000 3.1 10 02:29 19.08.2019
3424 Clear 32 1002 25 0 4.36 17.345 01:36 19.08.2019
3425 Clear 33 1002 31 10000 4.1 350 00:44 19.08.2019
3426 Clear 33 1002 31 10000 4.1 350 00:23 19.08.2019
3427 Clear 31 1002 31 10000 3.6 330 23:43 18.08.2019
3428 Clear 31 1002 31 10000 3.6 330 23:22 18.08.2019
3429 Clear 32 1002 31 10000 3.1 330 22:57 18.08.2019
3430 Clear 32 1002 31 10000 3.1 330 22:38 18.08.2019
3431 Clear 33 1002 31 10000 3.1 330 22:20 18.08.2019
3432 Clear 33 1002 31 10000 2.6 320 21:56 18.08.2019
3433 Clear 33 1002 31 10000 2.6 320 21:37 18.08.2019
3434 Clear 33 1002 31 10000 2.6 320 21:19 18.08.2019
3435 Clear 34 1002 29 10000 2.6 300 20:44 18.08.2019
3436 Clear 35 1002 29 10000 2.6 300 20:26 18.08.2019
3437 Clear 35 1002 29 10000 2.6 300 20:26 18.08.2019
3438 Clear 36 1002 23 10000 2.6 290 19:59 18.08.2019
3439 Clear 36 1002 23 10000 2.6 290 19:40 18.08.2019
3440 Clear 36 1002 23 10000 2.6 290 19:40 18.08.2019
3441 Clear 36 1002 23 10000 2.6 290 19:22 18.08.2019
3442 Clear 38 1001 23 10000 3.1 310 18:54 18.08.2019
3443 Clear 38 1001 23 10000 3.1 310 18:36 18.08.2019
3444 Clear 38 1001 23 10000 3.1 310 18:18 18.08.2019
3445 Clear 41 1001 19 10000 5.7 290 17:43 18.08.2019
3446 Clear 41 1001 19 10000 5.7 290 17:19 18.08.2019
3447 Clear 42 1001 17 10000 6.7 280 16:59 18.08.2019
3448 Clear 42 1001 17 10000 6.7 280 16:40 18.08.2019
3449 Clear 42 1001 17 10000 6.7 280 16:20 18.08.2019
3450 Clear 42 1001 17 10000 6.2 280 15:58 18.08.2019
3451 Clear 42 1001 17 10000 6.2 280 15:38 18.08.2019
3452 Clear 42 1001 17 10000 6.2 280 15:20 18.08.2019
3453 Clear 42 1001 17 10000 6.2 280 15:20 18.08.2019
3454 Clouds 42 1001 18 10000 7.2 270 14:56 18.08.2019
3455 Clouds 42 1001 18 10000 7.2 270 14:37 18.08.2019
3456 Clouds 42 1001 18 10000 7.2 270 14:18 18.08.2019
3457 Clear 42 1001 18 10000 6.7 270 13:43 18.08.2019
3458 Clear 42 1001 18 10000 6.7 270 13:24 18.08.2019
3459 Haze 41 1001 26 10000 7.2 260 12:59 18.08.2019
3460 Haze 41 1001 26 10000 7.2 260 12:39 18.08.2019
3461 Haze 41 1001 26 10000 7.2 260 12:21 18.08.2019
3462 Haze 41 1001 26 10000 7.2 260 12:21 18.08.2019
3463 Clear 41 1001 26 10000 4.6 280 11:44 18.08.2019
3464 Clear 41 1001 26 10000 4.6 280 11:23 18.08.2019
3465 Haze 39 1001 33 10000 5.1 280 10:59 18.08.2019
3466 Haze 39 1001 33 10000 5.1 280 10:40 18.08.2019
3467 Haze 39 1001 33 10000 5.1 280 10:40 18.08.2019
3468 Haze 39 1001 33 10000 5.1 280 10:19 18.08.2019
3469 Haze 37 1001 35 10000 5.1 300 09:45 18.08.2019
3470 Haze 37 1001 35 10000 5.1 300 09:21 18.08.2019
3471 Clear 34 1001 36 10000 7.7 310 08:54 18.08.2019
3472 Clear 34 1001 36 10000 7.7 310 08:36 18.08.2019
3473 Clear 34 1001 36 10000 7.7 310 08:18 18.08.2019
3474 Clear 33 1001 41 10000 7.2 300 07:41 18.08.2019
3475 Clear 33 1001 41 10000 7.2 300 07:23 18.08.2019
3476 Clear 27 1000 45 10000 1 230 05:46 18.08.2019
3477 Clear 28 1000 45 10000 2.1 270 04:51 18.08.2019
3478 Clear 28 999 42 10000 3.6 260 03:23 18.08.2019
3479 Clear 30 999 42 10000 3.6 260 02:46 18.08.2019
3480 Clear 30 999 40 10000 2.6 290 02:19 18.08.2019
3481 Clear 28 999 42 10000 3.1 310 01:30 18.08.2019
3482 Clear 31 999 35 10000 2.6 300 00:44 18.08.2019
3483 Clear 31 999 35 10000 2.6 300 00:24 18.08.2019
3484 Clear 32 999 31 10000 3.1 270 23:58 17.08.2019
3485 Clear 32 999 31 10000 3.1 270 23:40 17.08.2019
3486 Clear 32 999 31 10000 3.1 270 23:22 17.08.2019
3487 Clear 33 999 31 10000 3.6 260 22:59 17.08.2019
3488 Clear 33 999 31 10000 3.6 260 22:41 17.08.2019
3489 Clear 32 999 31 10000 3.6 260 22:23 17.08.2019
3490 Clear 33 999 26 10000 3.1 270 21:59 17.08.2019
3491 Clear 33 999 26 10000 3.1 270 21:40 17.08.2019
3492 Clear 33 999 26 10000 3.1 270 21:21 17.08.2019
3493 Clear 34 999 26 10000 2.6 290 20:40 17.08.2019
3494 Clear 34 999 26 10000 2.6 290 20:21 17.08.2019
3495 Clear 34 999 27 10000 2.1 290 19:58 17.08.2019
3496 Clear 35 999 24 10000 2.6 290 19:39 17.08.2019
3497 Clear 35 999 24 10000 2.6 290 19:20 17.08.2019
3498 Smoke 36 999 23 10000 3.6 290 18:41 17.08.2019
3499 Smoke 36 999 23 10000 3.6 290 18:19 17.08.2019
3500 Clear 40 999 20 10000 6.2 300 17:58 17.08.2019
3501 Clear 40 999 20 10000 6.2 300 17:40 17.08.2019
3502 Clear 40 999 20 10000 6.2 300 17:21 17.08.2019
3503 Haze 41 999 20 10000 6.7 290 16:45 17.08.2019
3504 Haze 41 999 20 10000 6.7 290 16:26 17.08.2019
3505 Haze 41 999 20 10000 5.7 300 15:59 17.08.2019
3506 Haze 41 999 20 10000 5.7 300 15:40 17.08.2019
3507 Haze 41 999 20 10000 5.7 300 15:21 17.08.2019
3508 Haze 41 1000 19 10000 7.2 290 14:56 17.08.2019
3509 Haze 41 1000 19 10000 7.2 290 14:36 17.08.2019
3510 Haze 41 1000 19 10000 7.2 290 14:18 17.08.2019
3511 Haze 41 1001 19 10000 7.2 280 13:42 17.08.2019
3512 Haze 41 1001 19 10000 7.2 280 13:19 17.08.2019
3513 Haze 40 1001 20 10000 7.2 280 12:42 17.08.2019
3514 Haze 40 1001 20 10000 7.2 280 12:19 17.08.2019
3515 Haze 39 1002 20 10000 5.7 300 11:57 17.08.2019
3516 Haze 39 1002 20 10000 5.7 300 11:37 17.08.2019
3517 Haze 39 1002 20 10000 5.7 300 11:19 17.08.2019
3518 Haze 39 1002 18 10000 5.7 290 10:39 17.08.2019
3519 Haze 39 1002 18 10000 5.7 290 10:20 17.08.2019
3520 Clear 37 1002 22 10000 6.7 310 09:52 17.08.2019
3521 Clear 37 1002 22 10000 6.7 310 09:32 17.08.2019
3522 Clear 34 1002 26 10000 5.7 320 08:57 17.08.2019
3523 Clear 34 1002 26 10000 5.7 320 08:28 17.08.2019
3524 Clear 32 1002 35 10000 6.2 310 07:55 17.08.2019
3525 Clear 32 1002 35 10000 6.2 310 07:36 17.08.2019
3526 Clear 32 1002 35 10000 6.2 310 07:18 17.08.2019
3527 Clear 26 1002 35 10000 4.1 290 05:58 17.08.2019
3528 Clear 27 1001 32 10000 3.1 260 04:31 17.08.2019
3529 Clear 28 1001 36 10000 2.1 320 03:37 17.08.2019
3530 Clouds 29 1001 32 10000 4.6 320 01:59 17.08.2019
3531 Clouds 29 1001 32 10000 4.6 320 01:36 17.08.2019
3532 Clouds 29 1001 32 10000 4.6 320 01:18 17.08.2019
3533 Clouds 29 1001 32 10000 4.6 320 01:18 17.08.2019
3534 Clear 29 1001 28 10000 3.6 300 00:39 17.08.2019
3535 Clear 32 1002 24 10000 3.1 290 23:57 16.08.2019
3536 Clear 32 1002 24 10000 3.1 290 23:38 16.08.2019
3537 Clear 32 1002 24 10000 3.1 290 23:19 16.08.2019
3538 Clear 33 1002 22 10000 4.6 290 22:40 16.08.2019
3539 Clear 34 1002 22 10000 4.6 290 22:19 16.08.2019
3540 Clear 35 1002 19 10000 5.7 290 21:42 16.08.2019
3541 Clear 36 1002 19 10000 5.7 290 21:22 16.08.2019
3542 Clear 36 1002 19 10000 4.6 270 20:58 16.08.2019
3543 Clear 36 1002 19 10000 4.6 270 20:40 16.08.2019
3544 Clear 36 1002 19 10000 4.6 270 20:19 16.08.2019
3545 Clear 36 1001 19 10000 3.6 270 19:45 16.08.2019
3546 Clear 36 1001 19 10000 3.6 270 19:24 16.08.2019
3547 Clear 38 1001 18 10000 5.1 290 18:59 16.08.2019
3548 Clear 39 1001 18 10000 5.1 290 18:41 16.08.2019
3549 Clear 41 1001 18 10000 5.1 290 18:22 16.08.2019
3550 Clear 41 1001 18 10000 6.2 290 17:45 16.08.2019
3551 Clear 41 1001 18 10000 6.2 290 17:25 16.08.2019
3552 Clear 43 1001 16 10000 7.7 280 16:56 16.08.2019
3553 Clear 43 1001 16 10000 7.7 280 16:38 16.08.2019
3554 Clear 43 1001 16 10000 7.7 280 16:18 16.08.2019
3555 Clear 43 1001 16 10000 7.2 280 15:55 16.08.2019
3556 Clear 42 1001 16 10000 7.2 280 15:37 16.08.2019
3557 Clear 42 1001 16 10000 7.2 280 15:19 16.08.2019
3558 Clear 43 1001 14 10000 7.2 290 14:42 16.08.2019
3559 Haze 44 1001 14 10000 7.2 290 14:19 16.08.2019
3560 Haze 44 1002 14 10000 7.7 290 13:59 16.08.2019
3561 Haze 44 1002 14 10000 7.7 290 13:38 16.08.2019
3562 Haze 44 1002 14 10000 7.7 290 13:20 16.08.2019
3563 Haze 43 1002 22 10000 6.7 270 12:40 16.08.2019
3564 Haze 43 1002 22 10000 6.7 270 12:20 16.08.2019
3565 Haze 43 1002 22 10000 6.7 270 12:20 16.08.2019
3566 Haze 42 1003 23 10000 6.2 290 11:43 16.08.2019
3567 Haze 42 1003 23 10000 6.2 290 11:24 16.08.2019
3568 Haze 42 1003 23 10000 6.2 290 11:24 16.08.2019
3569 Haze 39 1003 31 10000 5.7 290 10:59 16.08.2019
3570 Haze 39 1003 31 10000 5.7 290 10:41 16.08.2019
3571 Haze 39 1003 31 10000 5.7 290 10:20 16.08.2019
3572 Haze 38 1004 33 10000 5.7 310 09:38 16.08.2019
3573 Haze 38 1004 33 10000 5.7 310 09:19 16.08.2019
3574 Haze 35 1004 39 10000 6.2 300 08:57 16.08.2019
3575 Haze 35 1004 39 10000 6.2 300 08:38 16.08.2019
3576 Haze 35 1004 39 10000 6.2 300 08:19 16.08.2019
3577 Clear 33 1004 41 10000 7.2 310 07:44 16.08.2019
3578 Clear 33 1004 41 10000 7.2 310 07:25 16.08.2019
3579 Clear 31 1004 33 10000 5.1 310 06:43 16.08.2019
3580 Clear 30 1003 23 10000 5.7 290 05:58 16.08.2019
3581 Clear 30 1003 23 10000 5.7 290 05:33 16.08.2019
3582 Clear 31 1002 18 10000 3.6 260 03:19 16.08.2019
3583 Clear 34 1002 18 10000 6.2 250 01:50 16.08.2019
3584 Clear 34 1002 18 10000 6.2 250 01:25 16.08.2019
3585 Clear 34 1002 18 10000 6.2 250 01:25 16.08.2019
3586 Clear 34 1002 23 10000 4.1 260 00:48 16.08.2019
3587 Clear 34 1002 23 10000 4.1 260 00:23 16.08.2019
3588 Clear 36 1002 22 10000 4.6 240 23:57 15.08.2019
3589 Clear 36 1002 22 10000 4.6 240 23:38 15.08.2019
3590 Clear 36 1002 22 10000 4.6 240 23:18 15.08.2019
3591 Clear 37 1002 22 10000 3.6 230 22:41 15.08.2019
3592 Clear 37 1002 22 10000 3.6 230 22:41 15.08.2019
3593 Clear 36 1002 22 10000 3.6 230 22:22 15.08.2019
3594 Clear 36 1002 26 10000 1.5 280 21:58 15.08.2019
3595 Clear 36 1002 26 10000 1.5 280 21:39 15.08.2019
3596 Clear 36 1002 26 10000 1.5 280 21:19 15.08.2019
3597 Clear 38 1002 25 10000 3.1 220 20:57 15.08.2019
3598 Clear 37 1002 25 10000 3.1 220 20:38 15.08.2019
3599 Clear 37 1002 25 10000 3.1 220 20:20 15.08.2019
3600 Clear 38 1001 22 10000 2.1 290 19:40 15.08.2019
3601 Clear 38 1001 22 10000 2.1 290 19:21 15.08.2019
3602 Clear 42 1000 18 10000 3.1 270 18:57 15.08.2019
3603 Clear 42 1000 18 10000 3.1 270 18:39 15.08.2019
3604 Clear 44 1000 18 10000 3.1 270 18:21 15.08.2019
3605 Clear 44 1000 17 10000 4.1 280 17:54 15.08.2019
3606 Clear 44 1000 17 10000 4.1 280 17:36 15.08.2019
3607 Clear 44 1000 17 10000 4.1 280 17:18 15.08.2019
3608 Clear 45 1000 15 10000 4.6 290 16:42 15.08.2019
3609 Clear 46 1000 15 10000 4.6 290 16:23 15.08.2019
3610 Clear 46 1000 14 10000 5.7 260 15:55 15.08.2019
3611 Clear 46 1000 14 10000 5.7 260 15:36 15.08.2019
3612 Clear 46 1000 14 10000 5.7 260 15:18 15.08.2019
3613 Clear 46 1001 14 10000 6.7 250 14:41 15.08.2019
3614 Clear 46 1001 14 10000 6.7 250 14:22 15.08.2019
3615 Clear 46 1001 15 10000 7.2 260 13:57 15.08.2019
3616 Clear 46 1001 15 10000 7.2 260 13:39 15.08.2019
3617 Clear 46 1001 15 10000 7.2 260 13:20 15.08.2019
3618 Haze 45 1002 20 10000 6.2 250 12:55 15.08.2019
3619 Haze 45 1002 20 10000 6.2 250 12:36 15.08.2019
3620 Haze 45 1002 20 10000 6.2 250 12:18 15.08.2019
3621 Haze 44 1002 25 10000 6.2 250 11:40 15.08.2019
3622 Haze 44 1002 25 10000 6.2 250 11:21 15.08.2019
3623 Haze 41 1003 26 10000 5.1 250 10:59 15.08.2019
3624 Haze 41 1003 26 10000 5.1 250 10:38 15.08.2019
3625 Haze 41 1003 26 10000 5.1 250 10:38 15.08.2019
3626 Haze 41 1003 26 10000 5.1 250 10:20 15.08.2019
3627 Haze 39 1003 27 10000 5.7 240 09:45 15.08.2019
3628 Haze 39 1003 27 10000 5.7 240 09:24 15.08.2019
3629 Haze 38 1002 27 10000 6.2 270 08:57 15.08.2019
3630 Haze 38 1002 27 10000 6.2 270 08:37 15.08.2019
3631 Haze 38 1002 27 10000 6.2 270 08:37 15.08.2019
3632 Haze 38 1002 27 10000 6.2 270 08:18 15.08.2019
3633 Haze 35 1002 26 10000 4.6 260 07:44 15.08.2019
3634 Haze 35 1002 26 10000 4.6 260 07:26 15.08.2019
3635 Haze 33 1002 27 10000 5.1 250 06:54 15.08.2019
3636 Haze 33 1002 27 10000 5.1 250 06:33 15.08.2019
3637 Haze 33 1001 25 10000 3.1 240 05:48 15.08.2019
3638 Haze 33 1001 25 10000 3.1 240 05:28 15.08.2019
3639 Haze 33 1001 25 10000 3.1 240 04:34 15.08.2019
3640 Haze 33 1000 20 10000 3.1 270 03:39 15.08.2019
3641 Clear 35 1000 20 10000 2.6 270 02:45 15.08.2019
3642 Clear 36 1000 20 10000 2.1 240 01:52 15.08.2019
3643 Clear 36 1000 20 10000 2.1 240 01:31 15.08.2019
3644 Clear 36 1000 22 10000 2.1 290 00:41 15.08.2019
3645 Clear 36 1000 22 10000 2.1 290 00:21 15.08.2019
3646 Clouds 37 1000 23 10000 1.5 220 23:57 14.08.2019
3647 Clouds 37 1000 23 10000 1.5 220 23:38 14.08.2019
3648 Clouds 37 1000 23 10000 1.5 220 23:19 14.08.2019
3649 Clouds 38 1000 22 10000 1 0 22:57 14.08.2019
3650 Clouds 38 1000 22 10000 1 0 22:38 14.08.2019
3651 Clouds 37 1000 22 10000 1 0 22:19 14.08.2019
3652 Clear 38 1000 22 10000 2.1 240 21:55 14.08.2019
3653 Clear 38 1000 22 10000 2.1 240 21:55 14.08.2019
3654 Clear 38 1000 22 10000 2.1 240 21:55 14.08.2019
3655 -273 0 0 0 0 0 21:55 14.08.2019
3656 Clear 38 1000 22 10000 2.1 240 21:37 14.08.2019
3657 Clear 38 1000 22 10000 2.1 240 21:37 14.08.2019
3658 Clear 38 1000 22 10000 2.1 240 21:18 14.08.2019
3659 Clouds 39 1000 21 10000 2.6 240 20:42 14.08.2019
3660 Clouds 39 1000 21 10000 2.6 240 20:21 14.08.2019
3661 Clear 38 999 11 0 3.02 278.216 19:56 14.08.2019
3662 Clear 38 999 11 0 3.02 278.216 19:38 14.08.2019
3663 Clouds 42 999 19 10000 1.5 0 19:19 14.08.2019
3664 Clouds 42 999 19 10000 1.5 0 18:57 14.08.2019
3665 Clouds 42 999 19 10000 1.5 0 18:38 14.08.2019
3666 Clouds 42 999 19 10000 1.5 0 18:19 14.08.2019
3667 Clear 46 999 16 10000 3.1 150 17:56 14.08.2019
3668 Clear 46 999 16 10000 3.1 150 17:37 14.08.2019
3669 Clear 46 999 16 10000 3.1 150 17:18 14.08.2019
3670 Clear 47 999 14 10000 1.5 210 16:42 14.08.2019
3671 Clear 48 999 14 10000 1.5 210 16:20 14.08.2019
3672 Clear 48 999 12 10000 3.1 190 15:55 14.08.2019
3673 Clear 48 999 12 10000 3.1 190 15:55 14.08.2019
3674 Clear 48 999 12 10000 3.1 190 15:36 14.08.2019
3675 Clear 48 999 12 10000 3.1 190 15:18 14.08.2019
3676 Clouds 48 999 12 10000 2.6 230 14:40 14.08.2019
3677 Clouds 48 999 12 10000 2.6 230 14:19 14.08.2019
3678 Haze 47 999 11 10000 3.1 200 13:59 14.08.2019
3679 Clear 47 999 11 10000 3.1 200 13:40 14.08.2019
3680 Haze 47 999 11 10000 3.1 200 13:22 14.08.2019
3681 Haze 47 1000 12 10000 2.6 210 12:56 14.08.2019
3682 Haze 47 1000 12 10000 2.6 210 12:37 14.08.2019
3683 Haze 47 1000 12 10000 2.6 210 12:19 14.08.2019
3684 Haze 46 1001 12 10000 2.1 0 11:46 14.08.2019
3685 Haze 46 1001 12 10000 2.1 0 11:23 14.08.2019
3686 Haze 45 1001 13 10000 2.1 70 10:58 14.08.2019
3687 Haze 45 1001 13 10000 2.1 70 10:38 14.08.2019
3688 Haze 45 1001 13 10000 2.1 70 10:38 14.08.2019
3689 Haze 45 1001 13 10000 2.1 70 10:38 14.08.2019
3690 Haze 45 1001 13 10000 2.1 70 10:20 14.08.2019
3691 Haze 42 1001 19 9000 2.6 90 09:44 14.08.2019
3692 Haze 42 1001 19 9000 2.6 90 09:44 14.08.2019
3693 Haze 42 1001 19 9000 2.6 90 09:21 14.08.2019
3694 Haze 42 1001 19 9000 2.6 90 09:21 14.08.2019
3695 Haze 38 1001 22 10000 1.5 120 08:47 14.08.2019
3696 Haze 38 1001 22 10000 1.5 120 08:29 14.08.2019
3697 Haze 36 1000 23 10000 2.1 110 07:57 14.08.2019
3698 Haze 36 1000 23 10000 2.1 110 07:38 14.08.2019
3699 Haze 36 1000 23 10000 2.1 110 07:19 14.08.2019
3700 Haze 34 1000 22 10000 1.5 120 06:43 14.08.2019
3701 Haze 31 1000 25 10000 2.1 140 05:35 14.08.2019
3702 Clear 32 999 33 10000 2.6 20 04:45 14.08.2019
3703 Clear 32 998 25 10000 1 0 02:47 14.08.2019
3704 Clear 32 998 25 10000 1 0 02:25 14.08.2019
3705 Clear 33 998 24 10000 2.6 180 01:30 14.08.2019
3706 Clear 34 998 23 10000 3.1 160 00:47 14.08.2019
3707 Clear 36 998 22 10000 1 170 23:46 13.08.2019
3708 Clear 36 998 22 10000 1 170 23:20 13.08.2019
3709 Clear 38 998 19 10000 2.6 170 22:57 13.08.2019
3710 Clear 38 998 19 10000 2.6 170 22:39 13.08.2019
3711 Clear 37 998 19 10000 2.6 170 22:20 13.08.2019
3712 Clear 37 998 23 10000 1.5 160 21:56 13.08.2019
3713 Clear 37 998 23 10000 1.5 160 21:37 13.08.2019
3714 Clear 37 998 23 10000 1.5 160 21:18 13.08.2019
3715 Clear 41 998 21 10000 2.1 180 20:44 13.08.2019
3716 Clear 38 998 21 10000 2.1 180 20:20 13.08.2019
3717 Clear 36 998 22 10000 2.1 180 19:58 13.08.2019
3718 Clear 39 997 21 10000 2.1 160 19:40 13.08.2019
3719 Clear 41 997 21 10000 2.1 160 19:21 13.08.2019
3720 Clear 41 997 19 10000 2.6 170 18:42 13.08.2019
3721 Clear 41 997 19 10000 2.6 170 18:23 13.08.2019
3722 Clear 46 996 16 10000 2.6 180 17:58 13.08.2019
3723 Clear 46 996 16 10000 2.6 180 17:39 13.08.2019
3724 Clear 47 996 16 10000 2.6 180 17:19 13.08.2019
3725 Clear 47 996 12 10000 3.6 180 16:56 13.08.2019
3726 Clear 47 996 12 10000 3.6 180 16:37 13.08.2019
3727 Clear 49 996 12 10000 3.6 180 16:19 13.08.2019
3728 Clear 46 996 15 10000 4.1 190 15:39 13.08.2019
3729 Clear 48 996 15 10000 4.1 190 15:20 13.08.2019
3730 Clear 49 996 12 10000 4.1 240 14:57 13.08.2019
3731 Clear 49 996 12 10000 4.1 240 14:57 13.08.2019
3732 Clear 49 996 12 10000 4.1 240 14:38 13.08.2019
3733 Clear 49 996 12 10000 4.1 240 14:18 13.08.2019
3734 Clear 49 997 16 10000 3.6 210 13:42 13.08.2019
3735 Clear 49 997 16 10000 3.6 210 13:21 13.08.2019
3736 Haze 48 997 14 10000 5.1 220 12:59 13.08.2019
3737 Haze 48 997 14 10000 5.1 220 12:40 13.08.2019
3738 Haze 48 997 14 10000 5.1 220 12:22 13.08.2019
3739 Haze 46 997 20 10000 4.1 200 11:58 13.08.2019
3740 Haze 46 997 20 10000 4.1 200 11:38 13.08.2019
3741 Haze 46 997 20 10000 4.1 200 11:18 13.08.2019
3742 Haze 45 997 21 10000 3.6 210 10:56 13.08.2019
3743 Haze 45 997 21 10000 3.6 210 10:56 13.08.2019
3744 Haze 45 997 21 10000 3.6 210 10:36 13.08.2019
3745 Haze 45 997 21 10000 3.6 210 10:18 13.08.2019
3746 Haze 43 997 19 10000 2.1 280 09:42 13.08.2019
3747 Haze 43 997 19 10000 2.1 280 09:23 13.08.2019
3748 Clear 39 997 26 10000 2.6 220 08:43 13.08.2019
3749 Clear 39 997 26 10000 2.6 220 08:22 13.08.2019
3750 Clear 38 997 22 10000 1.5 0 07:56 13.08.2019
3751 Clear 38 997 23 10000 4.1 310 07:34 13.08.2019
3752 Haze 36 996 24 10000 3.6 290 06:55 13.08.2019
3753 Haze 35 997 22 10000 2.1 230 06:34 13.08.2019
3754 Haze 32 996 30 10000 2.6 190 05:35 13.08.2019
3755 Clear 34 995 21 10000 3.1 240 02:52 13.08.2019
3756 Clear 34 995 21 10000 3.1 240 02:19 13.08.2019
3757 Clear 33 995 26 10000 0.5 0 00:59 13.08.2019
3758 Clear 35 995 26 10000 2.1 210 00:40 13.08.2019
3759 Clear 34 995 34 10000 1 0 23:56 12.08.2019
3760 Clear 34 995 34 10000 1 0 23:36 12.08.2019
3761 Clear 34 995 34 10000 1 0 23:18 12.08.2019
3762 Clear 36 995 28 10000 1.5 0 22:40 12.08.2019
3763 Clear 35 995 28 10000 1.5 0 22:19 12.08.2019
3764 Clear 35 995 26 10000 0.5 0 21:55 12.08.2019
3765 Clear 36 995 25 10000 1.5 200 21:37 12.08.2019
3766 Clear 36 995 25 10000 1.5 200 21:18 12.08.2019
3767 Clear 37 995 24 10000 1 210 20:56 12.08.2019
3768 Clear 37 995 24 10000 1 210 20:55 12.08.2019
3769 Clear 37 995 24 10000 1 210 20:36 12.08.2019
3770 Clear 37 995 24 10000 1 210 20:18 12.08.2019
3771 Clear 39 995 20 10000 1.5 240 19:55 12.08.2019
3772 Clear 39 995 20 10000 1.5 240 19:36 12.08.2019
3773 Clear 39 995 20 10000 1.5 240 19:18 12.08.2019
3774 Clear 42 994 18 10000 3.1 230 18:54 12.08.2019
3775 Clear 42 994 18 10000 3.1 230 18:36 12.08.2019
3776 Clear 42 994 18 10000 3.1 230 18:18 12.08.2019
3777 Clear 45 994 15 10000 4.1 240 17:46 12.08.2019
3778 Clear 45 994 15 10000 4.1 240 17:27 12.08.2019
3779 Clear 46 994 15 10000 4.1 240 16:56 12.08.2019
3780 Clear 47 994 14 10000 5.1 230 16:38 12.08.2019
3781 Clear 47 994 14 10000 5.1 230 16:19 12.08.2019
3782 Clear 47 994 14 10000 5.1 230 16:19 12.08.2019
3783 -273 0 0 0 0 0 15:57 12.08.2019
3784 -273 0 0 0 0 0 15:57 12.08.2019
3785 Clear 46 994 14 10000 5.7 230 15:38 12.08.2019
3786 Clear 47 994 14 10000 5.7 230 15:20 12.08.2019
3787 Clear 47 995 16 10000 5.7 210 14:43 12.08.2019
3788 Clear 47 995 16 10000 5.7 210 14:23 12.08.2019
3789 Clear 47 995 16 10000 5.1 240 13:59 12.08.2019
3790 Clear 47 995 16 10000 5.1 240 13:41 12.08.2019
3791 Clear 47 995 16 10000 5.1 240 13:23 12.08.2019
3792 Clear 47 995 18 10000 5.7 260 12:43 12.08.2019
3793 Clear 46 995 19 10000 5.7 260 12:22 12.08.2019
3794 Haze 44 996 21 10000 5.7 280 11:48 12.08.2019
3795 Haze 44 996 21 10000 5.7 280 11:29 12.08.2019
3796 Haze 42 996 23 10000 4.1 270 10:59 12.08.2019
3797 Haze 42 996 23 10000 4.1 270 10:40 12.08.2019
3798 Haze 42 996 23 10000 4.1 270 10:22 12.08.2019
3799 Haze 42 996 23 10000 4.1 270 10:22 12.08.2019
3800 Haze 40 997 27 10000 5.7 280 09:56 12.08.2019
3801 Haze 40 997 27 10000 5.7 280 09:37 12.08.2019
3802 Haze 40 997 27 10000 5.7 280 09:18 12.08.2019
3803 Haze 36 996 30 10000 5.7 280 08:41 12.08.2019
3804 Haze 36 996 30 10000 5.7 280 08:23 12.08.2019
3805 Haze 33 996 26 10000 6.2 280 07:56 12.08.2019
3806 Haze 33 996 26 10000 6.2 280 07:36 12.08.2019
3807 Clear 31 996 27 10000 4.6 280 06:58 12.08.2019
3808 Clear 31 996 27 10000 4.6 280 06:22 12.08.2019
3809 Clear 29 995 27 10000 3.1 260 04:31 12.08.2019
3810 Clear 32 995 24 10000 3.6 290 02:43 12.08.2019
3811 Clear 33 995 21 10000 3.6 290 01:48 12.08.2019
3812 Clear 33 995 21 10000 3.6 290 01:19 12.08.2019
3813 Clear 35 995 20 10000 4.1 290 00:55 12.08.2019
3814 Clear 35 995 20 10000 4.1 290 00:37 12.08.2019
3815 Clear 35 995 20 10000 4.1 290 00:18 12.08.2019
3816 Clear 34 996 23 10000 3.6 270 23:40 11.08.2019
3817 Clear 34 996 23 10000 3.6 270 23:20 11.08.2019
3818 Clear 35 995 24 10000 3.1 270 22:57 11.08.2019
3819 Clear 35 995 24 10000 3.1 270 22:38 11.08.2019
3820 Clear 35 995 24 10000 3.1 270 22:18 11.08.2019
3821 Clear 36 996 22 10000 2.6 260 21:56 11.08.2019
3822 Clear 36 996 22 10000 2.6 260 21:38 11.08.2019
3823 Clear 36 996 22 10000 2.6 260 21:19 11.08.2019
3824 Clear 37 996 22 10000 1.5 280 20:44 11.08.2019
3825 Clear 37 996 22 10000 1.5 280 20:23 11.08.2019
3826 Clear 38 995 21 10000 3.1 260 19:56 11.08.2019
3827 Clear 38 995 21 10000 3.1 260 19:37 11.08.2019
3828 Clear 40 995 21 10000 3.1 260 19:18 11.08.2019
3829 Clear 40 995 18 10000 2.6 270 18:40 11.08.2019
3830 Clear 40 995 18 10000 2.6 270 18:20 11.08.2019
3831 Clear 45 995 14 10000 3.6 280 17:56 11.08.2019
3832 Clear 44 995 14 10000 3.6 280 17:38 11.08.2019
3833 Clear 45 995 14 10000 3.6 280 17:19 11.08.2019
3834 Clear 45 995 13 10000 5.7 290 16:55 11.08.2019
3835 Clear 45 995 13 10000 5.7 290 16:37 11.08.2019
3836 Clear 45 995 13 10000 5.7 290 16:18 11.08.2019
3837 Clear 46 995 15 10000 5.1 270 15:42 11.08.2019
3838 Clear 46 995 15 10000 5.1 270 15:22 11.08.2019
3839 Clear 46 995 15 10000 6.2 280 14:56 11.08.2019
3840 Clear 46 995 15 10000 6.2 280 14:38 11.08.2019
3841 Clear 46 995 15 10000 6.2 280 14:19 11.08.2019
3842 Clear 45 996 18 10000 6.2 270 13:43 11.08.2019
3843 Clear 45 996 18 10000 6.2 270 13:24 11.08.2019
3844 Clear 43 996 22 10000 5.7 280 12:48 11.08.2019
3845 Clear 43 996 22 10000 5.7 280 12:23 11.08.2019
3846 Clear 42 997 26 10000 4.6 270 11:54 11.08.2019
3847 Clear 42 997 26 10000 4.6 270 11:36 11.08.2019
3848 Clear 42 997 26 10000 4.6 270 11:18 11.08.2019
3849 Clear 40 997 29 10000 5.1 300 10:41 11.08.2019
3850 Clear 40 997 29 10000 5.1 300 10:22 11.08.2019
3851 Clear 38 997 33 10000 6.2 300 09:58 11.08.2019
3852 Clear 38 997 33 10000 6.2 300 09:38 11.08.2019
3853 Clear 38 997 33 10000 6.2 300 09:19 11.08.2019
3854 Haze 36 997 25 9000 4.1 310 08:44 11.08.2019
3855 Haze 36 997 25 9000 4.1 310 08:26 11.08.2019
3856 Haze 33 996 26 8000 4.6 300 07:54 11.08.2019
3857 Haze 31 996 26 8000 4.6 300 07:23 11.08.2019
3858 Haze 30 997 33 10000 3.6 270 06:44 11.08.2019
3859 Haze 27 996 28 10000 3.1 270 05:35 11.08.2019
3860 Clear 28 995 28 10000 2.1 260 03:43 11.08.2019
3861 Clear 30 995 25 10000 2.6 250 02:49 11.08.2019
3862 Clear 30 995 23 10000 2.1 240 01:39 11.08.2019
3863 Clear 30 995 23 10000 2.1 240 01:19 11.08.2019
3864 Clear 31 996 22 10000 3.1 220 00:44 11.08.2019
3865 Clear 31 996 22 10000 3.1 220 00:25 11.08.2019
3866 Clear 33 996 21 10000 2.6 240 23:43 10.08.2019
3867 Clear 33 996 21 10000 2.6 240 23:24 10.08.2019
3868 Clear 33 996 21 10000 2.6 230 22:43 10.08.2019
3869 Clear 32 996 21 10000 2.6 230 22:25 10.08.2019
3870 Clear 33 997 23 10000 2.6 230 21:58 10.08.2019
3871 Clear 33 997 23 10000 2.6 230 21:58 10.08.2019
3872 Clear 33 997 23 10000 2.6 230 21:38 10.08.2019
3873 Clear 33 997 23 10000 2.6 230 21:19 10.08.2019
3874 Clear 33 997 21 10000 1 0 20:56 10.08.2019
3875 Clear 33 997 21 10000 1 0 20:37 10.08.2019
3876 Clear 33 997 21 10000 1 0 20:18 10.08.2019
3877 Clear 36 996 17 10000 2.1 240 19:39 10.08.2019
3878 Clear 36 996 17 10000 2.1 240 19:21 10.08.2019
3879 Clear 39 996 16 10000 3.6 240 18:41 10.08.2019
3880 Clear 39 996 16 10000 3.6 240 18:22 10.08.2019
3881 Clear 42 996 14 10000 4.6 240 17:46 10.08.2019
3882 Clear 42 996 14 10000 4.6 240 17:25 10.08.2019
3883 Clear 43 996 11 10000 6.7 260 16:47 10.08.2019
3884 Clear 43 996 11 10000 6.7 260 16:29 10.08.2019
3885 Clear 43 996 11 10000 6.7 270 15:58 10.08.2019
3886 Clear 43 996 11 10000 6.7 270 15:40 10.08.2019
3887 Clear 43 996 11 10000 6.7 270 15:21 10.08.2019
3888 Clear 43 996 14 10000 7.2 280 14:43 10.08.2019
3889 Clear 43 996 14 10000 7.2 280 14:18 10.08.2019
3890 Clear 42 997 17 10000 7.2 270 13:39 10.08.2019
3891 Clear 43 997 17 10000 7.2 270 13:18 10.08.2019
3892 Clear 42 998 14 10000 8.2 290 12:42 10.08.2019
3893 Clear 42 998 14 10000 8.2 290 12:22 10.08.2019
3894 Haze 40 998 19 10000 7.2 280 11:57 10.08.2019
3895 Haze 40 998 19 10000 7.2 280 11:39 10.08.2019
3896 Haze 40 998 19 10000 7.2 280 11:20 10.08.2019
3897 Haze 38 999 24 10000 6.2 270 10:39 10.08.2019
3898 Haze 38 999 24 10000 6.2 270 10:20 10.08.2019
3899 Haze 36 999 27 10000 6.7 270 09:59 10.08.2019
3900 Haze 36 999 27 10000 6.7 270 09:38 10.08.2019
3901 Haze 36 999 27 10000 6.7 270 09:20 10.08.2019
3902 Haze 34 998 32 10000 8.2 290 08:39 10.08.2019
3903 Haze 34 998 32 10000 8.2 290 08:19 10.08.2019
3904 Clear 32 998 40 10000 6.2 280 07:52 10.08.2019
3905 Clear 32 998 40 10000 6.2 280 07:27 10.08.2019
3906 Clear 29 997 40 10000 4.1 280 06:48 10.08.2019
3907 Clear 29 997 40 10000 4.1 280 06:21 10.08.2019
3908 Clear 27 997 37 10000 3.1 310 05:24 10.08.2019
3909 Clear 27 997 26 10000 3.6 270 04:21 10.08.2019
3910 Clear 30 996 18 0 4.38 293.482 02:54 10.08.2019
3911 Clear 30 995 27 10000 1 0 01:59 10.08.2019
3912 Clear 30 995 27 10000 1 0 01:40 10.08.2019
3913 Clear 30 995 27 10000 1 0 01:20 10.08.2019
3914 Clear 31 996 22 10000 2.1 240 00:44 10.08.2019
3915 Clear 31 996 22 10000 2.1 240 00:22 10.08.2019
3916 Clear 31 996 22 10000 1 230 23:43 09.08.2019
3917 Clear 31 996 22 10000 1 230 23:23 09.08.2019
3918 Clear 32 996 17 10000 1.5 220 22:57 09.08.2019
3919 Clear 32 996 17 10000 1.5 220 22:38 09.08.2019
3920 Clear 31 996 17 10000 1.5 220 22:20 09.08.2019
3921 Clear 31 997 19 10000 1 0 21:43 09.08.2019
3922 Clear 31 997 19 10000 1 0 21:23 09.08.2019
3923 Clear 33 997 19 10000 1.5 250 20:59 09.08.2019
3924 Clear 33 997 19 10000 1.5 250 20:40 09.08.2019
3925 Clear 33 997 19 10000 1.5 250 20:21 09.08.2019
3926 Clear 35 996 17 10000 3.1 230 19:56 09.08.2019
3927 Clear 35 996 17 10000 3.1 230 19:38 09.08.2019
3928 Clear 37 996 17 10000 3.1 230 19:18 09.08.2019
3929 Clear 39 996 11 10000 3.6 240 18:41 09.08.2019
3930 Clear 41 996 11 10000 3.6 240 18:22 09.08.2019
3931 Clear 41 996 9 10000 5.1 250 17:57 09.08.2019
3932 Clear 41 996 9 10000 5.1 250 17:39 09.08.2019
3933 Clear 41 996 9 10000 5.1 250 17:20 09.08.2019
3934 Clear 43 996 12 10000 6.2 240 16:41 09.08.2019
3935 Clear 43 996 12 10000 6.2 240 16:23 09.08.2019
3936 Clear 43 996 11 10000 6.7 280 15:57 09.08.2019
3937 Clear 43 996 11 10000 6.7 280 15:39 09.08.2019
3938 Clear 43 996 11 10000 6.7 280 15:20 09.08.2019
3939 Clear 43 996 11 10000 6.7 280 15:20 09.08.2019
3940 Clear 43 996 11 10000 6.7 240 14:55 09.08.2019
3941 -273 0 0 0 0 0 14:55 09.08.2019
3942 Clear 43 996 11 10000 6.7 240 14:36 09.08.2019
3943 Clear 43 996 11 10000 6.7 240 14:18 09.08.2019
3944 Haze 43 997 12 10000 7.2 280 13:42 09.08.2019
3945 Haze 43 997 12 10000 7.2 280 13:20 09.08.2019
3946 Clear 42 998 15 10000 7.2 290 12:46 09.08.2019
3947 Haze 41 998 15 10000 7.2 290 12:24 09.08.2019
3948 Haze 41 998 16 9000 9.3 280 11:58 09.08.2019
3949 Haze 41 998 16 9000 9.3 280 11:37 09.08.2019
3950 Haze 41 998 16 9000 9.3 280 11:37 09.08.2019
3951 Haze 39 998 16 9000 9.3 280 11:18 09.08.2019
3952 Haze 37 999 22 10000 7.7 270 10:40 09.08.2019
3953 Haze 37 999 22 10000 7.7 270 10:21 09.08.2019
3954 Haze 36 999 29 10000 7.2 280 09:46 09.08.2019
3955 Haze 36 999 29 10000 7.2 280 09:20 09.08.2019
3956 Haze 33 999 33 10000 5.1 270 08:58 09.08.2019
3957 Haze 33 999 33 10000 5.1 270 08:39 09.08.2019
3958 Haze 33 999 33 10000 5.1 270 08:19 09.08.2019
3959 Clear 31 999 31 10000 6.2 280 07:44 09.08.2019
3960 Clear 31 999 31 10000 6.2 280 07:23 09.08.2019
3961 Clear 30 999 31 10000 6.2 280 06:56 09.08.2019
3962 Clear 30 999 31 10000 6.2 280 06:56 09.08.2019
3963 Clear 30 999 31 10000 6.2 280 06:56 09.08.2019
3964 Clear 30 999 31 10000 6.2 280 06:56 09.08.2019
3965 Clear 29 999 35 10000 5.7 270 06:30 09.08.2019
3966 Clear 27 998 32 10000 4.1 270 05:57 09.08.2019
3967 Clear 27 998 35 10000 4.1 280 04:22 09.08.2019
3968 Clear 32 998 19 10000 6.7 290 01:58 09.08.2019
3969 Clear 33 998 16 10000 5.1 280 00:49 09.08.2019
3970 Clear 33 998 16 10000 5.1 280 00:27 09.08.2019
3971 Clear 34 998 15 10000 5.7 270 23:59 08.08.2019
3972 Clear 34 998 15 10000 5.7 270 23:38 08.08.2019
3973 Clear 34 998 15 10000 5.7 270 23:20 08.08.2019
3974 Clear 33 998 15 10000 5.1 270 22:59 08.08.2019
3975 Clear 33 998 15 10000 5.1 270 22:37 08.08.2019
3976 Clear 33 998 15 10000 5.1 270 22:37 08.08.2019
3977 Clear 32 998 15 10000 5.1 270 22:18 08.08.2019
3978 Clear 33 998 15 10000 5.1 270 21:58 08.08.2019
3979 Clear 33 998 15 10000 5.1 270 21:58 08.08.2019
3980 Clear 33 998 15 10000 5.1 270 21:40 08.08.2019
3981 Clear 33 998 15 10000 5.1 270 21:21 08.08.2019
3982 Clear 34 998 16 10000 4.1 270 20:55 08.08.2019
3983 Clear 34 998 16 10000 4.1 270 20:36 08.08.2019
3984 Clear 34 998 16 10000 4.1 270 20:18 08.08.2019
3985 Clear 37 998 13 10000 5.7 280 19:42 08.08.2019
3986 Clear 37 998 13 10000 5.7 280 19:20 08.08.2019
3987 Clear 38 997 13 10000 6.2 280 18:43 08.08.2019
3988 Clear 38 997 13 10000 6.2 280 18:23 08.08.2019
3989 Clear 42 997 11 10000 7.2 280 17:56 08.08.2019
3990 Clear 42 997 11 10000 7.2 280 17:37 08.08.2019
3991 Clear 42 997 11 10000 7.2 280 17:19 08.08.2019
3992 Clear 42 997 11 10000 7.2 280 17:19 08.08.2019
3993 Clear 42 997 12 10000 7.7 280 16:42 08.08.2019
3994 Clear 43 997 7 10000 9.3 290 16:24 08.08.2019
3995 Clear 44 997 9 10000 9.8 290 15:59 08.08.2019
3996 Clear 44 997 9 10000 9.8 290 15:40 08.08.2019
3997 Clear 44 997 9 10000 9.8 290 15:22 08.08.2019
3998 Clear 44 998 8 10000 10.8 290 14:42 08.08.2019
3999 Clear 44 998 8 10000 10.8 290 14:23 08.08.2019
4000 Haze 44 998 8 10000 9.3 280 13:59 08.08.2019
4001 Haze 44 998 8 10000 9.3 280 13:59 08.08.2019
4002 Haze 44 998 8 10000 9.3 280 13:38 08.08.2019
4003 Haze 44 998 8 10000 9.3 280 13:18 08.08.2019
4004 Haze 44 998 8 10000 9.3 280 13:18 08.08.2019
4005 Haze 44 998 10 10000 9.8 280 12:40 08.08.2019
4006 Haze 44 998 10 10000 9.8 280 12:20 08.08.2019
4007 Haze 43 999 10 10000 11.8 300 11:56 08.08.2019
4008 Haze 43 999 10 10000 11.8 300 11:37 08.08.2019
4009 Haze 43 999 10 10000 11.8 300 11:19 08.08.2019
4010 Clear 41 999 11 10000 12.9 300 10:41 08.08.2019
4011 Clear 41 999 11 10000 12.9 300 10:41 08.08.2019
4012 Clear 41 999 11 10000 12.9 300 10:21 08.08.2019
4013 Clear 39 999 16 10000 10.3 290 09:49 08.08.2019
4014 Clear 39 999 16 10000 10.3 290 09:30 08.08.2019
4015 Clear 36 999 30 10000 7.7 280 08:57 08.08.2019
4016 Clear 36 999 30 10000 7.7 280 08:37 08.08.2019
4017 Clear 36 999 30 10000 7.7 280 08:18 08.08.2019
4018 Clear 33 999 38 10000 7.2 280 07:40 08.08.2019
4019 Clear 33 999 38 10000 7.2 280 07:19 08.08.2019
4020 Clear 31 999 33 10000 6.7 290 06:47 08.08.2019
4021 Clear 31 999 33 10000 6.7 290 06:23 08.08.2019
4022 Clear 29 999 25 10000 6.7 290 05:51 08.08.2019
4023 Haze 30 999 27 10000 7.2 300 04:53 08.08.2019
4024 Clear 31 998 29 10000 7.2 300 03:52 08.08.2019
4025 Clear 33 998 26 10000 7.2 300 02:21 08.08.2019
4026 Clear 34 998 23 10000 8.7 290 01:35 08.08.2019
4027 Clear 35 998 21 10000 9.8 290 00:26 08.08.2019
4028 Clear 35 998 21 10000 8.7 290 23:50 07.08.2019
4029 Clear 35 998 21 10000 7.7 290 23:19 07.08.2019
4030 Clear 36 998 20 10000 8.7 290 22:56 07.08.2019
4031 Clear 36 998 19 10000 8.2 290 22:38 07.08.2019
4032 Clear 35 998 19 10000 8.2 290 22:19 07.08.2019
4033 Clear 35 998 18 10000 8.2 290 21:55 07.08.2019
4034 Clear 35 998 22 10000 7.2 280 21:37 07.08.2019
4035 Clear 35 998 22 10000 7.2 280 21:18 07.08.2019
4036 Clear 36 998 18 10000 5.7 270 20:42 07.08.2019
4037 Clear 36 998 18 10000 5.7 270 20:23 07.08.2019
4038 Clear 37 997 13 10000 6.2 280 19:57 07.08.2019
4039 Clear 37 997 13 10000 6.2 280 19:39 07.08.2019
4040 Clear 37 997 13 10000 6.2 280 19:21 07.08.2019
4041 Clear 40 997 13 10000 7.2 280 18:43 07.08.2019
4042 Clear 40 997 13 10000 7.2 280 18:21 07.08.2019
4043 Clear 43 997 13 10000 7.2 280 17:59 07.08.2019
4044 Clear 43 997 13 10000 7.2 280 17:40 07.08.2019
4045 Clear 43 997 13 10000 7.2 280 17:21 07.08.2019
4046 Clear 45 997 11 10000 8.7 280 16:57 07.08.2019
4047 Clear 45 997 11 10000 8.7 280 16:39 07.08.2019
4048 Clear 45 997 11 10000 8.7 280 16:20 07.08.2019
4049 Clear 45 997 10 10000 9.8 290 15:56 07.08.2019
4050 Clear 45 997 10 10000 9.8 290 15:37 07.08.2019
4051 Clear 45 997 10 10000 9.8 290 15:19 07.08.2019
4052 Haze 45 998 10 10000 9.3 290 14:46 07.08.2019
4053 Haze 45 998 10 10000 9.3 290 14:27 07.08.2019
4054 Haze 45 998 11 10000 9.8 280 13:55 07.08.2019
4055 Haze 45 998 11 10000 9.8 280 13:36 07.08.2019
4056 Haze 45 998 11 10000 9.8 280 13:18 07.08.2019
4057 Haze 45 998 12 10000 10.8 290 12:55 07.08.2019
4058 Haze 45 998 12 10000 10.8 290 12:36 07.08.2019
4059 Haze 45 998 12 10000 10.8 290 12:18 07.08.2019
4060 Haze 44 999 13 10000 10.8 300 11:42 07.08.2019
4061 Haze 44 999 13 10000 10.8 300 11:20 07.08.2019
4062 Haze 43 999 17 10000 10.3 300 10:56 07.08.2019
4063 Haze 43 999 17 10000 10.3 300 10:38 07.08.2019
4064 Haze 43 999 17 10000 10.3 300 10:18 07.08.2019
4065 Haze 41 999 20 10000 8.7 300 09:44 07.08.2019
4066 Haze 41 999 20 10000 8.7 300 09:22 07.08.2019
4067 Clear 39 999 24 10000 8.7 290 08:56 07.08.2019
4068 Clear 39 999 24 10000 8.7 290 08:38 07.08.2019
4069 Clear 39 999 24 10000 8.7 290 08:20 07.08.2019
4070 Clear 35 998 30 10000 7.2 300 07:39 07.08.2019
4071 Clear 35 998 30 10000 7.2 300 07:20 07.08.2019
4072 Clear 33 998 33 10000 7.2 290 06:29 07.08.2019
4073 Clear 30 998 33 10000 7.2 290 05:50 07.08.2019
4074 Clear 30 998 33 10000 7.2 290 04:57 07.08.2019
4075 Clear 31 998 33 10000 6.7 290 03:21 07.08.2019
4076 Clear 33 997 25 0 8.19 312.817 02:49 07.08.2019
4077 Clear 33 997 33 10000 6.7 290 01:58 07.08.2019
4078 Clear 33 997 33 10000 6.7 290 01:39 07.08.2019
4079 Clear 34 997 28 10000 7.2 290 00:51 07.08.2019
4080 Clear 34 997 28 10000 7.2 290 00:22 07.08.2019
4081 Clear 35 998 26 10000 5.7 300 23:42 06.08.2019
4082 Clear 35 998 26 10000 5.7 300 23:21 06.08.2019
4083 Clear 36 997 25 10000 6.2 290 22:57 06.08.2019
4084 Clear 36 997 25 10000 6.2 290 22:38 06.08.2019
4085 Clear 36 997 25 10000 6.2 290 22:19 06.08.2019
4086 Clear 36 998 22 10000 6.7 280 21:43 06.08.2019
4087 Clear 36 998 22 10000 6.7 280 21:25 06.08.2019
4088 Clear 36 997 19 10000 5.7 270 20:58 06.08.2019
4089 Clear 36 997 19 10000 5.7 270 20:40 06.08.2019
4090 Clear 36 997 19 10000 5.7 270 20:21 06.08.2019
4091 Clear 38 997 18 10000 6.2 270 19:43 06.08.2019
4092 Clear 38 997 18 10000 6.2 270 19:25 06.08.2019
4093 Clear 40 997 16 10000 6.2 280 18:54 06.08.2019
4094 Clear 40 997 16 10000 6.2 280 18:36 06.08.2019
4095 Clear 40 997 16 10000 6.2 280 18:18 06.08.2019
4096 Clear 43 997 16 10000 7.2 280 17:54 06.08.2019
4097 Clear 43 997 16 10000 7.2 280 17:36 06.08.2019
4098 Clear 43 997 16 10000 7.2 280 17:18 06.08.2019
4099 Clear 43 997 16 10000 7.2 280 17:18 06.08.2019
4100 Clear 45 997 14 10000 9.8 280 16:41 06.08.2019
4101 Clear 45 997 14 10000 9.8 280 16:21 06.08.2019
4102 Clear 45 997 14 10000 9.3 280 15:57 06.08.2019
4103 Clear 45 997 14 10000 9.3 280 15:38 06.08.2019
4104 Clear 45 997 14 10000 9.3 280 15:19 06.08.2019
4105 Haze 45 997 15 10000 9.3 290 14:44 06.08.2019
4106 Haze 45 997 15 10000 9.3 290 14:25 06.08.2019
4107 Haze 45 997 13 10000 8.7 280 13:58 06.08.2019
4108 Haze 45 997 13 10000 8.7 280 13:39 06.08.2019
4109 Haze 45 997 13 10000 8.7 280 13:20 06.08.2019
4110 Haze 44 998 13 10000 8.7 290 12:57 06.08.2019
4111 Haze 44 998 13 10000 8.7 290 12:39 06.08.2019
4112 Haze 44 998 13 10000 8.7 290 12:21 06.08.2019
4113 Haze 44 998 14 10000 10.3 290 11:42 06.08.2019
4114 Haze 44 998 14 10000 10.3 290 11:19 06.08.2019
4115 Haze 42 999 23 10000 8.2 290 10:55 06.08.2019
4116 Haze 42 999 23 10000 8.2 290 10:37 06.08.2019
4117 Haze 42 999 23 10000 8.2 290 10:19 06.08.2019
4118 Haze 40 999 24 10000 7.7 300 09:39 06.08.2019
4119 Haze 40 999 24 10000 7.7 300 09:20 06.08.2019
4120 Haze 37 999 25 10000 8.2 300 08:47 06.08.2019
4121 Haze 37 999 25 10000 8.2 300 08:26 06.08.2019
4122 Haze 34 999 34 10000 7.2 320 07:40 06.08.2019
4123 Haze 34 999 34 10000 7.2 320 07:22 06.08.2019
4124 Clear 32 998 38 10000 5.7 310 06:43 06.08.2019
4125 Clear 29 998 40 10000 5.1 300 05:55 06.08.2019
4126 Clear 30 998 35 10000 5.1 300 04:35 06.08.2019
4127 Clear 33 997 33 10000 6.2 290 01:59 06.08.2019
4128 Clear 33 997 33 10000 6.2 290 01:24 06.08.2019
4129 Clear 34 997 30 10000 5.1 300 00:37 06.08.2019
4130 Clear 35 997 24 10000 6.2 300 23:47 05.08.2019
4131 Clear 35 997 24 10000 6.2 300 23:19 05.08.2019
4132 Clear 36 997 20 10000 4.1 270 22:42 05.08.2019
4133 Clear 34 997 20 10000 4.1 270 22:23 05.08.2019
4134 Clear 34 997 27 7000 2.6 310 21:56 05.08.2019
4135 Clear 34 997 24 10000 3.1 260 21:37 05.08.2019
4136 Clear 34 997 24 10000 3.1 260 21:19 05.08.2019
4137 Clear 34 997 28 10000 3.1 240 20:55 05.08.2019
4138 Clear 34 997 28 10000 3.1 240 20:37 05.08.2019
4139 Clear 34 997 28 10000 3.1 240 20:18 05.08.2019
4140 Clear 36 996 26 10000 1 0 19:43 05.08.2019
4141 Clear 36 996 26 10000 1 0 19:24 05.08.2019
4142 Clear 39 996 21 10000 2.6 310 18:57 05.08.2019
4143 Clear 39 996 21 10000 2.6 310 18:39 05.08.2019
4144 Clear 39 996 21 10000 2.6 310 18:19 05.08.2019
4145 Clear 42 995 17 10000 5.7 300 17:42 05.08.2019
4146 Clear 42 995 17 10000 5.7 300 17:24 05.08.2019
4147 Clear 43 996 11 10000 7.7 290 16:46 05.08.2019
4148 Clear 43 996 11 10000 7.7 290 16:26 05.08.2019
4149 Clear 43 996 14 10000 7.2 290 15:56 05.08.2019
4150 Clear 43 996 14 10000 7.2 290 15:37 05.08.2019
4151 Clear 43 996 14 10000 7.2 290 15:18 05.08.2019
4152 Clear 42 996 13 10000 8.7 300 14:39 05.08.2019
4153 Clear 42 996 13 10000 8.7 300 14:19 05.08.2019
4154 Clear 42 997 18 10000 6.7 290 13:44 05.08.2019
4155 Clear 42 997 18 10000 6.7 290 13:22 05.08.2019
4156 Haze 42 997 17 10000 6.7 290 12:48 05.08.2019
4157 Haze 42 997 17 10000 6.7 290 12:20 05.08.2019
4158 Haze 41 998 28 10000 6.2 280 11:47 05.08.2019
4159 Haze 41 998 28 10000 6.2 280 11:28 05.08.2019
4160 Haze 39 998 29 10000 5.7 290 10:59 05.08.2019
4161 Haze 39 998 29 10000 5.7 290 10:41 05.08.2019
4162 Haze 39 998 29 10000 5.7 290 10:21 05.08.2019
4163 Haze 37 999 35 10000 6.7 310 09:43 05.08.2019
4164 Haze 37 999 35 10000 6.7 310 09:24 05.08.2019
4165 Clear 35 999 34 10000 6.2 290 08:51 05.08.2019
4166 Clear 35 999 34 10000 6.2 290 08:28 05.08.2019
4167 Clear 34 999 41 10000 5.1 290 07:59 05.08.2019
4168 Clear 34 999 41 10000 5.1 290 07:41 05.08.2019
4169 Clear 34 999 41 10000 5.1 290 07:20 05.08.2019
4170 Clear 31 999 40 10000 4.6 280 06:30 05.08.2019
4171 Clear 29 998 40 10000 3.1 300 05:51 05.08.2019
4172 Clear 29 998 40 10000 3.1 300 05:19 05.08.2019
4173 Clear 29 998 40 10000 3.1 280 04:24 05.08.2019
4174 Clear 31 997 30 10000 4.1 320 03:30 05.08.2019
4175 Clear 32 997 38 10000 4.1 290 02:35 05.08.2019
4176 Clear 33 997 31 10000 4.6 290 01:34 05.08.2019
4177 Clear 34 997 28 10000 3.6 300 00:42 05.08.2019
4178 Clear 34 997 28 10000 3.6 300 00:21 05.08.2019
4179 Clear 34 997 23 10000 4.1 250 23:57 04.08.2019
4180 Clear 34 997 23 10000 4.1 250 23:39 04.08.2019
4181 Clear 34 997 23 10000 4.1 250 23:19 04.08.2019
4182 Clear 35 997 23 10000 4.1 250 22:54 04.08.2019
4183 Clear 35 997 23 10000 4.1 250 22:54 04.08.2019
4184 Clear 33 997 27 10000 1 220 22:36 04.08.2019
4185 Clear 33 997 27 10000 1 220 22:18 04.08.2019
4186 Clear 33 997 26 10000 1 0 21:42 04.08.2019
4187 Clear 33 997 26 10000 1 0 21:20 04.08.2019
4188 Clear 36 996 22 10000 3.1 270 20:45 04.08.2019
4189 Clear 36 996 22 10000 3.1 270 20:21 04.08.2019
4190 Clear 37 996 21 10000 2.6 260 19:58 04.08.2019
4191 Clear 37 996 21 10000 2.6 260 19:38 04.08.2019
4192 Clear 37 996 21 10000 2.6 260 19:20 04.08.2019
4193 Clear 40 996 20 10000 2.6 260 18:42 04.08.2019
4194 Clear 40 996 20 10000 2.6 260 18:21 04.08.2019
4195 Clear 42 995 18 10000 4.6 290 17:45 04.08.2019
4196 Clear 42 995 18 10000 4.6 290 17:26 04.08.2019
4197 Clear 43 995 17 10000 4.6 240 16:59 04.08.2019
4198 Clear 43 995 17 10000 4.6 240 16:40 04.08.2019
4199 Clear 43 995 17 10000 4.6 240 16:20 04.08.2019
4200 Clear 44 995 17 10000 4.6 270 15:44 04.08.2019
4201 Clear 44 995 17 10000 4.6 270 15:23 04.08.2019
4202 Clear 43 996 17 10000 5.1 290 14:45 04.08.2019
4203 Clear 43 996 17 10000 5.1 290 14:27 04.08.2019
4204 Clear 43 996 19 10000 5.7 270 13:56 04.08.2019
4205 Clear 43 996 19 10000 5.7 270 13:38 04.08.2019
4206 Clear 43 996 19 10000 5.7 270 13:20 04.08.2019
4207 Clear 41 997 24 10000 5.7 250 12:44 04.08.2019
4208 Clear 41 997 24 10000 5.7 250 12:25 04.08.2019
4209 Haze 40 997 30 10000 5.7 260 11:56 04.08.2019
4210 Haze 40 997 30 10000 5.7 260 11:37 04.08.2019
4211 Haze 40 997 30 10000 5.7 260 11:18 04.08.2019
4212 Clear 38 998 35 10000 6.2 280 10:40 04.08.2019
4213 Clear 38 998 35 10000 6.2 280 10:19 04.08.2019
4214 Haze 36 998 39 10000 5.7 280 09:43 04.08.2019
4215 Haze 36 998 39 10000 5.7 280 09:22 04.08.2019
4216 Haze 34 998 39 10000 6.7 280 08:44 04.08.2019
4217 Haze 34 998 39 10000 6.7 280 08:26 04.08.2019
4218 Clear 33 998 43 10000 6.7 270 07:52 04.08.2019
4219 Clear 32 998 43 10000 5.1 280 06:56 04.08.2019
4220 Clear 32 998 43 10000 5.1 280 06:28 04.08.2019
4221 Haze 30 997 35 10000 4.6 300 03:46 04.08.2019
4222 Clear 30 996 42 10000 3.1 300 02:24 04.08.2019
4223 Clear 30 996 40 10000 3.1 310 01:33 04.08.2019
4224 Clear 30 996 40 10000 3.1 310 01:33 04.08.2019
4225 Clear 34 996 32 10000 4.1 290 00:59 04.08.2019
4226 Clear 34 996 32 10000 4.1 290 00:40 04.08.2019
4227 Clear 34 996 32 10000 4.1 290 00:18 04.08.2019
4228 Clear 35 996 28 10000 4.6 300 23:39 03.08.2019
4229 Clear 35 996 28 10000 4.6 300 23:18 03.08.2019
4230 Clear 37 996 22 10000 5.7 280 22:44 03.08.2019
4231 Clear 35 996 22 10000 5.7 280 22:20 03.08.2019
4232 Clear 35 996 25 10000 3.6 260 21:42 03.08.2019
4233 Clear 35 996 25 10000 3.6 260 21:24 03.08.2019
4234 Clear 35 996 28 10000 1.5 230 20:58 03.08.2019
4235 Clear 35 996 28 10000 1.5 230 20:40 03.08.2019
4236 Clear 35 996 28 10000 1.5 230 20:20 03.08.2019
4237 Haze 37 995 24 10000 2.1 220 19:42 03.08.2019
4238 Haze 37 995 24 10000 2.1 220 19:23 03.08.2019
4239 Haze 39 995 21 10000 2.6 250 18:50 03.08.2019
4240 Haze 39 995 21 10000 2.6 250 18:27 03.08.2019
4241 Clear 42 995 19 10000 5.1 290 17:49 03.08.2019
4242 Clear 42 995 19 10000 5.1 290 17:21 03.08.2019
4243 Clear 42 995 18 10000 6.2 300 16:56 03.08.2019
4244 Clear 42 995 18 10000 6.2 300 16:37 03.08.2019
4245 Clear 42 995 18 10000 6.2 300 16:19 03.08.2019
4246 Haze 42 995 19 10000 5.1 280 15:43 03.08.2019
4247 Haze 42 995 19 10000 5.1 280 15:22 03.08.2019
4248 Haze 42 996 19 10000 7.2 250 14:40 03.08.2019
4249 Haze 42 996 19 10000 7.2 250 14:21 03.08.2019
4250 Haze 42 996 23 10000 7.7 240 13:51 03.08.2019
4251 Haze 42 996 23 10000 7.7 240 13:24 03.08.2019
4252 Haze 41 997 29 10000 6.2 270 12:57 03.08.2019
4253 Haze 41 997 29 10000 6.2 270 12:38 03.08.2019
4254 Haze 41 997 29 10000 6.2 270 12:20 03.08.2019
4255 Haze 39 997 29 10000 6.7 280 11:47 03.08.2019
4256 Haze 39 997 29 10000 6.7 280 11:25 03.08.2019
4257 Haze 38 998 35 10000 6.7 280 10:40 03.08.2019
4258 Haze 38 998 35 10000 6.7 280 10:22 03.08.2019
4259 Haze 36 998 37 10000 7.2 300 09:41 03.08.2019
4260 Haze 36 998 37 10000 7.2 300 09:21 03.08.2019
4261 Haze 35 998 39 10000 7.7 290 08:46 03.08.2019
4262 Clear 34 997 41 10000 8.7 310 07:49 03.08.2019
4263 Clear 34 997 41 10000 8.7 310 07:30 03.08.2019
4264 Clear 32 997 38 10000 7.2 310 06:23 03.08.2019
4265 Clear 30 996 28 10000 4.6 310 03:58 03.08.2019
4266 Clear 31 995 27 10000 4.6 310 02:36 03.08.2019
4267 Clear 32 995 27 10000 3.6 320 01:36 03.08.2019
4268 Clear 34 996 28 10000 4.6 320 00:38 03.08.2019
4269 Clear 35 996 23 10000 5.1 300 23:58 02.08.2019
4270 Clear 35 996 23 10000 5.1 300 23:40 02.08.2019
4271 Clear 35 996 23 10000 5.1 300 23:18 02.08.2019
4272 Clear 37 996 19 10000 5.7 290 22:56 02.08.2019
4273 Clear 37 996 19 10000 5.7 290 22:38 02.08.2019
4274 Clear 35 996 19 10000 5.7 290 22:18 02.08.2019
4275 Clear 36 996 17 10000 4.1 270 21:43 02.08.2019
4276 Clear 36 996 17 10000 4.1 270 21:23 02.08.2019
4277 Clear 37 996 14 10000 3.6 280 20:55 02.08.2019
4278 Clear 37 996 14 10000 3.6 280 20:37 02.08.2019
4279 Clear 38 996 14 10000 3.6 280 20:19 02.08.2019
4280 Smoke 38 995 17 10000 3.6 280 19:42 02.08.2019
4281 Smoke 38 995 17 10000 3.6 280 19:24 02.08.2019
4282 Smoke 41 995 15 10000 2.6 300 18:44 02.08.2019
4283 Smoke 41 995 15 10000 2.6 300 18:24 02.08.2019
4284 Clear 45 995 14 10000 2.6 340 17:42 02.08.2019
4285 Clear 45 995 14 10000 2.6 340 17:24 02.08.2019
4286 Clear 46 995 11 10000 2.1 270 16:56 02.08.2019
4287 Clear 46 995 11 10000 2.1 270 16:37 02.08.2019
4288 Clear 46 995 11 10000 2.1 270 16:18 02.08.2019
4289 Clear 47 996 11 10000 2.6 0 15:39 02.08.2019
4290 Clear 47 996 11 10000 2.6 0 15:19 02.08.2019
4291 Clear 46 996 11 10000 2.6 0 14:45 02.08.2019
4292 Clear 46 996 11 10000 2.6 0 14:18 02.08.2019
4293 Clear 46 997 12 10000 3.1 340 13:48 02.08.2019
4294 Clear 46 997 12 10000 3.1 340 13:25 02.08.2019
4295 Haze 46 997 12 10000 3.6 350 12:45 02.08.2019
4296 Haze 46 997 12 10000 3.6 350 12:21 02.08.2019
4297 Haze 44 998 14 10000 4.1 350 11:51 02.08.2019
4298 Haze 44 998 14 10000 4.1 350 11:32 02.08.2019
4299 Haze 42 998 15 8000 2.6 0 10:55 02.08.2019
4300 Haze 42 998 15 8000 2.6 0 10:37 02.08.2019
4301 Haze 41 998 15 8000 2.6 0 10:19 02.08.2019
4302 Haze 41 999 16 10000 4.1 280 09:51 02.08.2019
4303 Haze 41 999 16 10000 4.1 280 09:25 02.08.2019
4304 Haze 38 999 18 10000 3.6 270 08:47 02.08.2019
4305 Haze 38 999 18 10000 3.6 270 08:21 02.08.2019
4306 Haze 35 998 23 10000 3.1 270 07:49 02.08.2019
4307 Haze 35 998 23 10000 3.1 270 07:31 02.08.2019
4308 Haze 32 998 27 10000 3.1 300 06:44 02.08.2019
4309 Haze 28 998 36 10000 2.1 300 05:52 02.08.2019
4310 Haze 28 998 36 10000 2.1 300 05:21 02.08.2019
4311 Clear 29 997 32 10000 2.1 300 03:27 02.08.2019
4312 Clear 27 997 30 10000 2.6 300 02:33 02.08.2019
4313 Clear 31 997 13 0 2.89 1.946 00:38 02.08.2019
4314 Clear 33 998 21 10000 3.1 360 23:46 01.08.2019
4315 Clear 33 998 21 10000 3.1 360 23:28 01.08.2019
4316 Clear 33 999 24 10000 2.1 340 22:59 01.08.2019
4317 Clear 33 999 24 10000 2.1 340 22:39 01.08.2019
4318 Clear 33 999 24 10000 2.1 340 22:20 01.08.2019
4319 Clear 34 999 19 10000 2.6 310 21:43 01.08.2019
4320 Clear 34 999 19 10000 2.6 310 21:24 01.08.2019
4321 Clear 36 999 15 10000 3.6 280 20:55 01.08.2019
4322 Clear 36 999 15 10000 3.6 280 20:37 01.08.2019
4323 Clear 36 999 15 10000 3.6 280 20:19 01.08.2019
4324 Clear 38 999 16 10000 4.1 270 19:42 01.08.2019
4325 Clear 38 999 16 10000 4.1 270 19:20 01.08.2019
4326 Clear 40 998 14 10000 5.1 280 18:44 01.08.2019
4327 Clear 41 998 14 10000 5.7 280 18:24 01.08.2019
4328 Clear 44 998 12 10000 6.2 280 17:55 01.08.2019
4329 Clear 44 998 11 10000 6.2 290 17:36 01.08.2019
4330 Clear 44 998 11 10000 6.2 290 17:18 01.08.2019
4331 Clear 46 998 11 10000 8.2 300 16:44 01.08.2019
4332 Clear 46 998 11 10000 8.2 300 16:21 01.08.2019
4333 Clear 47 998 10 10000 9.8 300 15:41 01.08.2019
4334 Clear 47 998 10 10000 9.8 300 15:20 01.08.2019
4335 Clear 47 999 11 10000 8.7 300 14:44 01.08.2019
4336 Clear 47 999 11 10000 8.7 300 14:21 01.08.2019
4337 Clear 47 999 10 10000 7.2 290 13:58 01.08.2019
4338 Clear 47 999 10 10000 7.2 290 13:40 01.08.2019
4339 Clear 47 999 10 10000 7.2 290 13:21 01.08.2019
4340 Haze 47 1000 12 10000 8.2 290 12:49 01.08.2019
4341 Haze 47 1000 12 10000 8.2 290 12:28 01.08.2019
4342 Haze 45 1000 13 10000 6.7 290 11:58 01.08.2019
4343 Haze 45 1000 13 10000 6.7 290 11:40 01.08.2019
4344 Haze 45 1000 13 10000 6.7 290 11:22 01.08.2019
4345 Clear 44 1001 15 10000 5.7 290 10:41 01.08.2019
4346 Clear 44 1001 15 10000 5.7 290 10:23 01.08.2019
4347 Haze 42 1001 16 10000 5.1 290 09:50 01.08.2019
4348 Haze 42 1001 16 10000 5.1 290 09:24 01.08.2019
4349 Clear 39 1001 21 10000 5.7 310 08:57 01.08.2019
4350 Clear 39 1001 21 10000 5.7 310 08:39 01.08.2019
4351 Clear 39 1001 21 10000 5.7 310 08:18 01.08.2019
4352 Smoke 35 1000 30 10000 3.6 340 07:42 01.08.2019
4353 Smoke 35 1000 30 10000 3.6 340 07:18 01.08.2019
4354 Clear 32 1000 33 10000 3.1 310 06:39 01.08.2019
4355 Haze 29 1000 40 10000 4.6 300 05:32 01.08.2019
4356 Clear 29 999 35 10000 2.1 300 02:36 01.08.2019
4357 Clear 31 999 29 10000 2.6 310 01:41 01.08.2019
4358 Clear 36 999 20 10000 4.6 280 00:27 01.08.2019
4359 Clear 36 999 20 10000 5.1 280 23:59 31.07.2019
4360 Clear 36 999 20 10000 5.1 280 23:41 31.07.2019
4361 Clear 36 999 20 10000 5.1 280 23:20 31.07.2019
4362 Clear 37 999 18 10000 5.1 270 22:45 31.07.2019
4363 Clear 35 999 18 10000 5.1 270 22:27 31.07.2019
4364 Clear 35 999 18 10000 5.1 270 22:27 31.07.2019
4365 Clear 36 999 16 10000 5.1 270 21:45 31.07.2019
4366 Clear 36 999 16 10000 5.1 270 21:23 31.07.2019
4367 Clear 37 999 15 10000 4.6 270 20:51 31.07.2019
4368 Clear 37 999 15 10000 4.6 270 20:25 31.07.2019
4369 Clear 39 998 14 10000 5.7 280 19:58 31.07.2019
4370 Clear 39 998 14 10000 5.7 280 19:39 31.07.2019
4371 Clear 39 998 14 10000 5.7 280 19:20 31.07.2019
4372 Clear 41 997 12 10000 5.7 280 18:41 31.07.2019
4373 Clear 41 997 12 10000 5.7 280 18:22 31.07.2019
4374 Clear 44 997 12 10000 5.1 270 17:55 31.07.2019
4375 Clear 44 997 12 10000 5.1 270 17:37 31.07.2019
4376 Clear 44 997 12 10000 5.1 270 17:18 31.07.2019
4377 Clouds 46 997 12 10000 7.7 280 16:41 31.07.2019
4378 Clouds 46 997 12 10000 7.7 280 16:19 31.07.2019
4379 Clear 46 997 12 10000 9.3 290 15:44 31.07.2019
4380 Clear 46 997 12 10000 9.3 290 15:24 31.07.2019
4381 Haze 46 998 12 10000 8.2 280 14:42 31.07.2019
4382 Haze 46 998 12 10000 8.2 280 14:21 31.07.2019
4383 Haze 46 998 13 10000 7.7 290 13:57 31.07.2019
4384 Haze 46 998 13 10000 7.7 290 13:38 31.07.2019
4385 Haze 46 998 13 10000 7.7 290 13:19 31.07.2019
4386 Clear 45 999 13 10000 10.3 300 12:44 31.07.2019
4387 Clear 45 999 13 10000 10.3 300 12:26 31.07.2019
4388 Haze 44 1000 15 10000 8.2 270 11:54 31.07.2019
4389 Haze 44 1000 15 10000 8.2 270 11:36 31.07.2019
4390 Haze 44 1000 15 10000 8.2 270 11:18 31.07.2019
4391 Haze 43 1000 17 10000 5.7 270 10:40 31.07.2019
4392 Haze 43 1000 17 10000 5.7 270 10:20 31.07.2019
4393 Haze 41 1001 21 10000 4.6 260 09:43 31.07.2019
4394 Haze 41 1001 21 10000 4.6 260 09:24 31.07.2019
4395 Haze 39 1001 22 10000 4.1 280 08:44 31.07.2019
4396 Haze 39 1001 22 10000 4.1 280 08:26 31.07.2019
4397 Clear 36 1000 26 10000 3.1 330 07:56 31.07.2019
4398 Clear 36 1000 26 10000 3.1 330 07:56 31.07.2019
4399 Clear 36 1000 26 10000 3.1 330 07:33 31.07.2019
4400 Clear 27 1000 34 10000 3.1 300 05:54 31.07.2019
4401 Clear 29 1000 32 10000 1 330 04:41 31.07.2019
4402 Clear 33 1000 24 10000 4.6 300 00:58 31.07.2019
4403 Clear 31 1000 23 10000 3.1 320 23:56 30.07.2019
4404 Clear 31 1000 23 10000 3.1 320 23:38 30.07.2019
4405 Clear 31 1000 23 10000 3.1 320 23:18 30.07.2019
4406 Clear 33 1000 21 10000 3.1 320 22:42 30.07.2019
4407 Clear 35 1000 21 10000 3.1 320 22:22 30.07.2019
4408 Clear 36 1000 17 10000 3.6 310 21:38 30.07.2019
4409 Clear 36 1000 17 10000 3.6 310 21:20 30.07.2019
4410 Clear 38 999 14 10000 5.1 280 20:57 30.07.2019
4411 Clear 38 999 14 10000 5.1 280 20:39 30.07.2019
4412 Clear 38 999 14 10000 5.1 280 20:19 30.07.2019
4413 Smoke 39 999 14 10000 4.6 280 19:49 30.07.2019
4414 Smoke 39 999 14 10000 4.6 280 19:29 30.07.2019
4415 Clear 41 999 14 10000 5.1 290 18:48 30.07.2019
4416 Clear 41 999 14 10000 5.1 290 18:27 30.07.2019
4417 Clear 44 999 12 10000 7.7 300 17:59 30.07.2019
4418 Clear 44 999 12 10000 7.7 300 17:40 30.07.2019
4419 Clear 44 999 12 10000 7.7 300 17:19 30.07.2019
4420 Smoke 45 998 12 10000 4.6 270 16:46 30.07.2019
4421 Smoke 45 998 12 10000 4.6 270 16:19 30.07.2019
4422 Smoke 46 999 12 10000 2.1 0 15:44 30.07.2019
4423 Smoke 46 999 12 10000 2.1 0 15:22 30.07.2019
4424 Clear 46 999 12 10000 3.6 310 14:46 30.07.2019
4425 Clear 46 999 12 10000 3.6 310 14:27 30.07.2019
4426 Clear 46 1000 11 10000 4.1 310 13:59 30.07.2019
4427 Clear 46 1000 11 10000 4.1 310 13:39 30.07.2019
4428 Clear 46 1000 11 10000 4.1 310 13:21 30.07.2019
4429 Clear 45 1000 12 10000 4.6 350 12:46 30.07.2019
4430 Clear 45 1000 12 10000 4.6 350 12:28 30.07.2019
4431 Clear 45 1001 13 10000 4.6 340 11:56 30.07.2019
4432 Clear 45 1001 13 10000 4.6 340 11:37 30.07.2019
4433 Clear 45 1001 13 10000 4.6 340 11:18 30.07.2019
4434 Clear 45 1001 9 10000 2.6 0 10:39 30.07.2019
4435 Clear 43 1001 9 10000 2.6 0 10:20 30.07.2019
4436 Clear 42 1002 16 10000 4.1 330 09:48 30.07.2019
4437 Clear 42 1002 16 10000 4.1 330 09:29 30.07.2019
4438 Smoke 39 1002 19 10000 5.1 320 08:43 30.07.2019
4439 Smoke 39 1002 19 10000 5.1 320 08:20 30.07.2019
4440 Smoke 35 1002 21 10000 4.6 330 07:46 30.07.2019
4441 Smoke 35 1002 21 10000 4.6 330 07:25 30.07.2019
4442 Smoke 33 1001 24 10000 3.6 330 06:46 30.07.2019
4443 Clear 30 1001 32 10000 4.1 330 05:52 30.07.2019
4444 Clear 30 1001 32 10000 4.1 330 05:32 30.07.2019
4445 Clear 30 1000 33 8000 3.6 310 01:38 30.07.2019
4446 Clear 33 1000 31 7000 2.1 270 00:41 30.07.2019
4447 Clear 33 1000 31 7000 2.1 270 00:20 30.07.2019
4448 Clear 33 1000 29 6000 1.5 250 23:44 29.07.2019
4449 Clear 33 1000 29 6000 1.5 250 23:25 29.07.2019
4450 Clear 34 1000 26 9000 1 10 22:57 29.07.2019
4451 Clear 34 1000 26 9000 1 10 22:38 29.07.2019
4452 Clear 36 1000 26 9000 1 10 22:19 29.07.2019
4453 Clear 36 1000 26 9000 1 10 22:19 29.07.2019
4454 Clear 37 1000 23 10000 3.1 20 21:55 29.07.2019
4455 Clear 37 1000 23 10000 3.1 20 21:37 29.07.2019
4456 Clear 37 1000 23 10000 3.1 20 21:18 29.07.2019
4457 Haze 36 999 23 10000 4.04 348.565 20:45 29.07.2019
4458 Haze 36 999 23 10000 4.04 348.565 20:23 29.07.2019
4459 Haze 37 999 22 10000 1 0 19:55 29.07.2019
4460 Haze 37 999 22 10000 1 0 19:36 29.07.2019
4461 Haze 37 999 22 10000 1 0 19:18 29.07.2019
4462 Haze 39 999 17 10000 2.1 100 18:41 29.07.2019
4463 Haze 39 999 17 10000 2.1 100 18:21 29.07.2019
4464 Haze 43 998 14 10000 1 0 17:50 29.07.2019
4465 Haze 43 998 14 10000 1 0 17:32 29.07.2019
4466 Haze 44 999 13 10000 2.6 120 16:57 29.07.2019
4467 Haze 44 999 13 10000 2.6 120 16:57 29.07.2019
4468 Haze 44 999 13 10000 2.6 120 16:39 29.07.2019
4469 Haze 44 999 13 10000 2.6 120 16:20 29.07.2019
4470 Haze 44 999 13 10000 2.1 0 15:50 29.07.2019
4471 Haze 44 999 13 10000 2.1 0 15:30 29.07.2019
4472 Haze 44 999 12 10000 4.1 80 14:45 29.07.2019
4473 Haze 44 999 12 10000 4.1 80 14:21 29.07.2019
4474 Haze 44 999 12 10000 4.1 80 14:21 29.07.2019
4475 Haze 44 999 12 10000 4.1 80 14:21 29.07.2019
4476 Haze 44 999 13 10000 3.1 0 13:59 29.07.2019
4477 Haze 44 999 13 10000 3.1 0 13:40 29.07.2019
4478 Haze 44 999 13 10000 3.1 0 13:22 29.07.2019
4479 Haze 43 1000 15 10000 2.1 0 12:42 29.07.2019
4480 Haze 43 1000 15 10000 2.1 0 12:22 29.07.2019
4481 Haze 43 1001 14 10000 2.6 150 11:42 29.07.2019
4482 Haze 43 1001 14 10000 2.6 150 11:21 29.07.2019
4483 Clear 42 1001 15 10000 2.6 210 10:45 29.07.2019
4484 Clear 42 1001 15 10000 2.6 210 10:24 29.07.2019
4485 Clear 40 1001 17 10000 3.6 200 09:45 29.07.2019
4486 Clear 40 1001 17 10000 3.6 200 09:25 29.07.2019
4487 Clear 37 1001 21 10000 2.1 260 08:57 29.07.2019
4488 Clear 37 1001 21 10000 2.1 260 08:28 29.07.2019
4489 Clear 34 1001 24 10000 3.1 260 07:56 29.07.2019
4490 Clear 34 1001 24 10000 3.1 260 07:32 29.07.2019
4491 Clear 32 1000 29 10000 3.1 210 06:44 29.07.2019
4492 Smoke 28 1000 32 6000 6.2 220 05:39 29.07.2019
4493 Smoke 28 998 37 9000 1.5 60 04:49 29.07.2019
4494 Clear 30 998 27 10000 2.02 55.655 01:57 29.07.2019
4495 Clear 30 998 27 10000 2.02 55.655 01:39 29.07.2019
4496 Clear 30 998 27 10000 1.69 68.753 01:18 29.07.2019
4497 Clear 31 998 25 10000 2.6 130 00:38 29.07.2019
4498 Clear 31 998 25 10000 2.6 130 00:18 29.07.2019
4499 Clear 33 998 27 10000 2.6 80 23:38 28.07.2019
4500 Clear 33 998 27 10000 2.6 80 23:18 28.07.2019
4501 Clear 34 999 30 8000 2.6 80 22:37 28.07.2019
4502 Clear 32 999 30 8000 2.6 80 22:18 28.07.2019
4503 Clear 32 999 32 10000 3.1 70 21:43 28.07.2019
4504 Clear 32 999 32 10000 3.1 70 21:18 28.07.2019
4505 Clear 35 998 26 10000 2.6 100 20:44 28.07.2019
4506 Clear 35 998 26 10000 2.6 100 20:26 28.07.2019
4507 Smoke 35 998 19 10000 3.1 140 19:42 28.07.2019
4508 Smoke 35 998 19 10000 3.1 140 19:22 28.07.2019
4509 Smoke 40 997 17 10000 1 0 18:51 28.07.2019
4510 Smoke 40 997 17 10000 1 0 18:30 28.07.2019
4511 Smoke 41 997 14 10000 4.1 300 17:58 28.07.2019
4512 Smoke 41 997 14 10000 4.1 300 17:40 28.07.2019
4513 Smoke 41 997 14 10000 4.1 300 17:20 28.07.2019
4514 Clear 42 997 13 10000 3.6 270 16:47 28.07.2019
4515 Clear 42 997 13 10000 3.6 270 16:28 28.07.2019
4516 Smoke 43 997 12 10000 4.6 290 15:59 28.07.2019
4517 Smoke 43 997 12 10000 4.6 290 15:41 28.07.2019
4518 Smoke 43 997 12 10000 4.6 290 15:21 28.07.2019
4519 Smoke 43 998 15 10000 2.6 230 14:37 28.07.2019
4520 Smoke 43 998 15 10000 2.6 230 14:18 28.07.2019
4521 Smoke 43 998 13 10000 2.1 0 13:42 28.07.2019
4522 Smoke 43 998 13 10000 2.1 0 13:22 28.07.2019
4523 Clear 42 999 13 10000 3.1 0 12:59 28.07.2019
4524 Clear 42 999 13 10000 3.1 0 12:40 28.07.2019
4525 Clear 42 999 13 10000 3.1 0 12:22 28.07.2019
4526 Clear 42 999 18 10000 2.1 0 11:46 28.07.2019
4527 Clear 40 999 13 10000 4.1 290 11:27 28.07.2019
4528 Clear 40 999 21 10000 4.1 340 10:40 28.07.2019
4529 Clear 40 999 21 10000 4.1 340 10:21 28.07.2019
4530 Clear 38 999 23 10000 4.1 330 09:45 28.07.2019
4531 Clear 38 999 23 10000 4.1 330 09:27 28.07.2019
4532 Haze 36 999 26 10000 5.7 330 08:51 28.07.2019
4533 Haze 36 999 26 10000 5.7 330 08:28 28.07.2019
4534 Clear 33 998 26 10000 5.1 310 07:57 28.07.2019
4535 Clear 33 998 26 10000 5.1 310 07:37 28.07.2019
4536 Clear 31 998 33 10000 2.6 260 06:42 28.07.2019
4537 Clear 26 997 36 10000 1 280 05:27 28.07.2019
4538 Clear 28 996 36 10000 1 230 03:31 28.07.2019
4539 Clear 25 995 38 10000 1 0 02:24 28.07.2019
4540 Clear 28 995 32 10000 1 0 01:19 28.07.2019
4541 Clear 29 995 30 10000 1.5 210 00:45 28.07.2019
4542 Clear 29 995 30 10000 1.5 210 00:19 28.07.2019
4543 Clear 31 995 27 10000 1 0 23:46 27.07.2019
4544 Clear 31 995 27 10000 1 0 23:22 27.07.2019
4545 Clear 31 995 29 10000 1.5 220 22:41 27.07.2019
4546 Clear 32 995 29 10000 1.5 220 22:22 27.07.2019
4547 Clear 32 995 29 10000 1.5 220 22:22 27.07.2019
4548 Clear 32 996 25 10000 0.5 280 21:41 27.07.2019
4549 Clear 32 996 25 10000 0.5 280 21:20 27.07.2019
4550 Clear 34 995 24 10000 1 0 20:52 27.07.2019
4551 Clear 34 995 24 10000 1 0 20:26 27.07.2019
4552 Clear 35 995 20 10000 0.5 350 19:56 27.07.2019
4553 Clear 35 995 20 10000 0.5 350 19:38 27.07.2019
4554 Clear 35 995 20 10000 0.5 350 19:18 27.07.2019
4555 Clear 39 995 19 10000 2.1 340 18:42 27.07.2019
4556 Clear 39 995 19 10000 2.1 340 18:24 27.07.2019
4557 Clear 42 994 13 10000 6.2 300 17:42 27.07.2019
4558 Clear 42 994 13 10000 6.2 300 17:23 27.07.2019
4559 Clear 43 994 12 10000 7.7 300 16:50 27.07.2019
4560 Clear 43 994 12 10000 7.7 300 16:32 27.07.2019
4561 Clear 43 995 12 10000 9.8 300 15:54 27.07.2019
4562 Clear 43 995 12 10000 9.8 300 15:24 27.07.2019
4563 Clear 43 995 12 10000 8.7 280 14:51 27.07.2019
4564 Clear 43 995 12 10000 8.7 280 14:32 27.07.2019
4565 Clear 43 995 11 10000 9.8 290 13:58 27.07.2019
4566 Clear 43 995 11 10000 9.8 290 13:39 27.07.2019
4567 Clear 43 995 11 10000 9.8 290 13:19 27.07.2019
4568 Clear 43 996 11 10000 9.8 300 12:42 27.07.2019
4569 Clear 42 996 11 10000 9.8 300 12:22 27.07.2019
4570 Clear 42 996 13 10000 8.2 280 11:44 27.07.2019
4571 Clear 42 996 13 10000 8.2 280 11:25 27.07.2019
4572 Clear 42 996 13 10000 8.2 280 11:25 27.07.2019
4573 Clear 41 997 15 10000 8.7 290 10:56 27.07.2019
4574 Clear 41 997 15 10000 8.7 290 10:38 27.07.2019
4575 Clear 41 997 15 10000 8.7 290 10:18 27.07.2019
4576 Clear 40 997 16 10000 8.2 300 09:39 27.07.2019
4577 Clear 40 997 16 10000 8.2 300 09:21 27.07.2019
4578 Clear 38 997 18 10000 8.2 300 08:45 27.07.2019
4579 Clear 34 997 18 10000 8.2 300 08:25 27.07.2019
4580 Clear 34 996 21 10000 7.2 320 07:45 27.07.2019
4581 Clear 35 996 21 10000 7.2 320 07:22 27.07.2019
4582 Clear 33 996 24 10000 6.7 310 06:54 27.07.2019
4583 Clear 31 996 24 10000 6.7 310 06:28 27.07.2019
4584 Clear 30 996 27 10000 5.7 310 05:42 27.07.2019
4585 Clear 31 996 29 10000 6.2 310 04:52 27.07.2019
4586 Clear 32 995 31 10000 6.2 300 03:56 27.07.2019
4587 Clear 32 995 29 10000 7.2 300 02:43 27.07.2019
4588 Clear 32 995 29 10000 7.2 300 02:24 27.07.2019
4589 Clear 34 995 20 10000 6.2 280 01:41 27.07.2019
4590 Clear 34 996 18 10000 4.6 280 00:51 27.07.2019
4591 Clear 34 996 18 10000 4.6 280 00:31 27.07.2019
4592 Clear 34 996 18 10000 4.6 290 23:50 26.07.2019
4593 Clear 34 996 18 10000 4.6 290 23:26 26.07.2019
4594 Clear 34 997 18 10000 4.6 300 22:45 26.07.2019
4595 Clear 34 997 18 10000 4.6 300 22:45 26.07.2019
4596 Clear 33 997 18 10000 4.6 300 22:26 26.07.2019
4597 Clear 33 997 16 10000 4.1 310 21:58 26.07.2019
4598 Clear 33 997 16 10000 4.1 310 21:37 26.07.2019
4599 Clear 33 997 16 10000 4.1 310 21:18 26.07.2019
4600 Smoke 35 997 15 10000 4.1 300 20:41 26.07.2019
4601 Smoke 35 997 15 10000 4.1 300 20:21 26.07.2019
4602 Smoke 35 997 16 10000 4.6 310 19:42 26.07.2019
4603 Smoke 35 997 16 10000 4.6 310 19:23 26.07.2019
4604 Smoke 39 997 14 10000 5.1 310 18:46 26.07.2019
4605 Smoke 39 997 14 10000 5.1 310 18:22 26.07.2019
4606 Clear 42 997 11 10000 8.2 310 17:58 26.07.2019
4607 Clear 42 997 11 10000 8.2 310 17:39 26.07.2019
4608 Clear 42 997 11 10000 8.2 310 17:18 26.07.2019
4609 Clear 43 997 10 10000 10.3 310 16:55 26.07.2019
4610 Clear 43 997 10 10000 10.3 310 16:37 26.07.2019
4611 Clear 43 997 10 10000 10.3 310 16:18 26.07.2019
4612 Clear 44 998 10 10000 12.3 300 15:45 26.07.2019
4613 Clear 44 998 10 10000 12.3 300 15:22 26.07.2019
4614 Clear 44 998 11 10000 12.9 300 14:58 26.07.2019
4615 Clear 44 998 11 10000 12.9 300 14:40 26.07.2019
4616 Clear 44 998 11 10000 12.9 300 14:21 26.07.2019
4617 Clear 44 999 11 10000 11.8 300 13:40 26.07.2019
4618 Clear 44 999 11 10000 11.8 300 13:21 26.07.2019
4619 Clear 43 999 10 10000 11.8 310 12:45 26.07.2019
4620 Smoke 43 999 10 10000 11.8 310 12:20 26.07.2019
4621 Clear 43 1000 13 10000 11.3 300 11:40 26.07.2019
4622 Clear 43 1000 13 10000 11.3 300 11:20 26.07.2019
4623 Clear 41 1000 18 10000 9.3 310 10:55 26.07.2019
4624 Clear 41 1000 18 10000 9.3 310 10:36 26.07.2019
4625 Clear 39 1001 20 10000 4.6 330 09:55 26.07.2019
4626 Clear 39 1001 20 10000 4.6 330 09:36 26.07.2019
4627 Dust 31 1002 19 10000 5.7 310 08:44 26.07.2019
4628 Dust 32 1002 19 10000 5.7 310 08:22 26.07.2019
4629 Dust 30 1002 18 10000 4.6 300 07:59 26.07.2019
4630 Dust 30 1002 18 10000 4.6 300 07:29 26.07.2019
4631 Clear 29 1001 22 10000 4.6 290 06:53 26.07.2019
4632 Dust 27 1001 27 10000 2.1 310 05:23 26.07.2019
4633 Clear 26 1001 27 10000 3.1 320 04:28 26.07.2019
4634 Clear 25 1000 22 10000 4.6 310 03:18 26.07.2019
4635 Clear 30 1000 22 10000 3.1 330 01:43 26.07.2019
4636 Clear 31 1001 25 10000 4.1 330 00:47 26.07.2019
4637 Clear 32 1001 24 10000 4.1 330 23:59 25.07.2019
4638 Clear 32 1001 24 10000 4.1 330 23:25 25.07.2019
4639 Clear 32 1002 24 10000 3.6 330 22:58 25.07.2019
4640 Clear 32 1002 24 10000 3.6 330 22:39 25.07.2019
4641 Clear 34 1002 24 10000 3.6 330 22:20 25.07.2019
4642 Clear 34 1002 20 10000 4.6 330 21:45 25.07.2019
4643 Clear 34 1002 20 10000 4.6 330 21:22 25.07.2019
4644 Clear 35 1002 20 10000 3.1 330 20:48 25.07.2019
4645 Clear 35 1002 20 10000 3.1 330 20:29 25.07.2019
4646 Clear 36 1002 17 10000 2.6 300 19:54 25.07.2019
4647 Clear 36 1002 17 10000 2.6 300 19:36 25.07.2019
4648 Clear 36 1002 17 10000 2.6 300 19:18 25.07.2019
4649 Smoke 40 1001 13 10000 6.2 300 18:39 25.07.2019
4650 Smoke 40 1001 13 10000 6.2 300 18:20 25.07.2019
4651 Clear 43 1001 11 10000 7.7 290 17:44 25.07.2019
4652 Clear 43 1001 11 10000 7.7 290 17:24 25.07.2019
4653 Clear 45 1000 11 10000 8.2 290 16:45 25.07.2019
4654 Clear 45 1000 11 10000 8.2 290 16:26 25.07.2019
4655 Clear 46 1001 11 10000 7.7 290 15:56 25.07.2019
4656 Clear 46 1001 11 10000 7.7 290 15:36 25.07.2019
4657 Clear 46 1001 11 10000 7.7 290 15:18 25.07.2019
4658 Clear 46 1001 12 10000 3.6 330 14:41 25.07.2019
4659 Clear 46 1001 12 10000 3.6 330 14:22 25.07.2019
4660 Clear 46 1001 12 10000 3.1 340 13:44 25.07.2019
4661 Clear 46 1001 12 10000 3.1 340 13:25 25.07.2019
4662 Haze 46 1002 12 10000 5.1 330 12:46 25.07.2019
4663 Haze 46 1002 12 10000 5.1 330 12:27 25.07.2019
4664 Haze 45 1002 13 10000 5.7 320 11:43 25.07.2019
4665 Haze 45 1002 13 10000 5.7 320 11:23 25.07.2019
4666 Haze 45 1002 13 10000 5.7 320 11:23 25.07.2019
4667 Haze 44 1003 15 10000 5.7 310 10:46 25.07.2019
4668 Haze 44 1003 15 10000 5.7 310 10:26 25.07.2019
4669 Clear 42 1003 16 10000 4.6 330 09:59 25.07.2019
4670 Clear 42 1003 16 10000 4.6 330 09:40 25.07.2019
4671 Smoke 39 1003 19 10000 4.6 330 08:55 25.07.2019
4672 Smoke 39 1003 19 10000 4.6 330 08:37 25.07.2019
4673 Smoke 36 1002 21 10000 5.7 310 07:51 25.07.2019
4674 Smoke 36 1002 21 10000 5.7 310 07:27 25.07.2019
4675 Smoke 33 1002 24 10000 4.6 310 06:41 25.07.2019
4676 Clear 30 1001 26 10000 3.6 320 05:37 25.07.2019
4677 Haze 31 1001 25 10000 5.7 280 04:56 25.07.2019
4678 Haze 31 1001 25 10000 5.7 280 04:19 25.07.2019
4679 Clear 35 1000 20 10000 4.6 360 01:31 25.07.2019
4680 Clear 34 1000 21 10000 4.1 350 00:45 25.07.2019
4681 Clear 34 1000 21 10000 4.1 350 00:19 25.07.2019
4682 Clear 35 1000 20 10000 4.6 340 23:44 24.07.2019
4683 Clear 35 1000 20 10000 4.6 340 23:25 24.07.2019
4684 Clear 33 1001 22 10000 3.6 340 22:47 24.07.2019
4685 Clear 33 1001 22 10000 3.6 340 22:25 24.07.2019
4686 Clear 33 1001 21 10000 3.1 300 21:59 24.07.2019
4687 Clear 33 1001 21 10000 3.1 300 21:41 24.07.2019
4688 Clear 33 1001 21 10000 3.1 300 21:21 24.07.2019
4689 Clear 37 1001 23 10000 2.6 310 20:48 24.07.2019
4690 Clear 37 1001 23 10000 2.1 330 20:30 24.07.2019
4691 Smoke 36 1000 20 10000 2.6 320 19:59 24.07.2019
4692 Smoke 38 1000 14 10000 3.6 300 19:41 24.07.2019
4693 Smoke 38 1000 14 10000 3.6 300 19:21 24.07.2019
4694 Smoke 41 999 15 10000 3.1 290 18:45 24.07.2019
4695 Smoke 41 999 15 10000 3.1 290 18:25 24.07.2019
4696 Clear 44 999 12 10000 3.1 350 17:55 24.07.2019
4697 Clear 44 999 12 10000 3.1 350 17:37 24.07.2019
4698 Clear 44 999 12 10000 3.1 350 17:37 24.07.2019
4699 Clear 44 999 12 10000 3.1 350 17:18 24.07.2019
4700 Clear 46 999 12 10000 4.1 350 16:40 24.07.2019
4701 Clear 46 999 12 10000 4.1 350 16:21 24.07.2019
4702 Clear 46 999 11 10000 4.1 340 15:39 24.07.2019
4703 Clear 46 999 11 10000 4.1 340 15:21 24.07.2019
4704 Clear 46 999 11 10000 5.7 360 14:47 24.07.2019
4705 Clear 46 999 11 10000 5.7 360 14:22 24.07.2019
4706 Clear 46 1000 12 10000 5.1 340 13:58 24.07.2019
4707 Clear 46 1000 12 10000 5.1 340 13:36 24.07.2019
4708 Clear 46 1000 12 10000 5.1 340 13:18 24.07.2019
4709 Clear 46 1000 12 10000 5.7 350 12:45 24.07.2019
4710 Clear 46 1000 12 10000 5.7 350 12:22 24.07.2019
4711 Clear 45 1001 11 10000 4.6 330 11:37 24.07.2019
4712 Clear 45 1001 11 10000 4.6 330 11:19 24.07.2019
4713 Clear 42 1001 14 10000 4.6 330 10:43 24.07.2019
4714 Clear 42 1001 14 10000 4.6 330 10:24 24.07.2019
4715 Clear 42 1001 16 10000 4.1 330 09:44 24.07.2019
4716 Clear 42 1001 16 10000 4.1 330 09:44 24.07.2019
4717 Clear 42 1001 16 10000 4.1 330 09:24 24.07.2019
4718 Clear 38 1001 18 10000 3.1 320 08:54 24.07.2019
4719 Clear 38 1001 18 10000 3.1 320 08:27 24.07.2019
4720 Haze 35 1001 20 10000 2.6 300 07:51 24.07.2019
4721 Haze 35 1001 20 10000 2.6 300 07:23 24.07.2019
4722 Clear 31 1000 23 10000 3.6 300 06:28 24.07.2019
4723 Clear 31 1000 23 10000 3.6 300 06:28 24.07.2019
4724 Clear 26 1000 34 10000 2.1 300 05:26 24.07.2019
4725 Clear 29 999 25 10000 2.6 340 01:59 24.07.2019
4726 Clear 29 999 25 10000 2.6 340 01:29 24.07.2019
4727 Clear 31 999 23 10000 2.1 350 00:57 24.07.2019
4728 Clear 31 999 23 10000 2.1 350 00:22 24.07.2019
4729 Clear 32 999 24 10000 3.6 340 23:42 23.07.2019
4730 Clear 32 999 24 10000 3.6 340 23:23 23.07.2019
4731 Clear 32 999 21 10000 2.6 340 22:39 23.07.2019
4732 Clear 32 999 21 10000 2.6 340 22:19 23.07.2019
4733 Clear 32 1000 19 10000 2.6 320 21:58 23.07.2019
4734 Clear 32 1000 19 10000 2.6 320 21:58 23.07.2019
4735 Clear 32 1000 19 10000 3.6 320 21:40 23.07.2019
4736 Clear 32 1000 19 10000 3.6 320 21:21 23.07.2019
4737 Clear 33 1000 16 10000 3.6 300 20:44 23.07.2019
4738 Clear 33 1000 16 10000 3.6 300 20:21 23.07.2019
4739 Smoke 36 999 15 10000 4.1 300 19:42 23.07.2019
4740 Smoke 36 999 15 10000 4.1 300 19:19 23.07.2019
4741 Smoke 39 999 12 10000 4.6 300 18:48 23.07.2019
4742 Smoke 39 999 12 10000 4.6 300 18:23 23.07.2019
4743 Smoke 43 999 10 10000 8.2 300 17:45 23.07.2019
4744 Smoke 43 999 10 10000 8.2 300 17:26 23.07.2019
4745 Clear 45 999 10 10000 9.8 300 16:58 23.07.2019
4746 Clear 45 999 10 10000 9.8 300 16:39 23.07.2019
4747 Clear 45 999 10 10000 9.8 300 16:19 23.07.2019
4748 Clear 46 999 11 10000 9.3 310 15:45 23.07.2019
4749 Clear 46 999 11 10000 9.3 310 15:45 23.07.2019
4750 Clear 46 999 11 10000 9.3 310 15:24 23.07.2019
4751 Clear 45 999 10 10000 9.3 310 14:39 23.07.2019
4752 Clear 45 999 10 10000 9.3 310 14:20 23.07.2019
4753 Clear 45 999 10 10000 8.7 300 13:58 23.07.2019
4754 Clear 45 999 10 10000 8.7 300 13:39 23.07.2019
4755 Clear 45 999 10 10000 8.7 300 13:20 23.07.2019
4756 Clear 45 999 10 10000 9.8 290 12:48 23.07.2019
4757 Clear 45 999 10 10000 9.8 290 12:25 23.07.2019
4758 Clear 44 999 11 10000 8.7 300 11:49 23.07.2019
4759 Clear 44 999 11 10000 8.7 300 11:31 23.07.2019
4760 Clear 43 1000 19 10000 5.1 340 10:57 23.07.2019
4761 Clear 43 1000 19 10000 5.1 340 10:38 23.07.2019
4762 Clear 43 1000 19 10000 5.1 340 10:20 23.07.2019
4763 Clear 41 1000 20 10000 6.2 330 09:40 23.07.2019
4764 Clear 41 1000 20 10000 6.2 330 09:19 23.07.2019
4765 Clear 38 1000 25 10000 6.2 330 08:42 23.07.2019
4766 Clear 38 1000 25 10000 6.2 330 08:19 23.07.2019
4767 Clear 35 1000 25 10000 6.2 320 07:55 23.07.2019
4768 Clear 34 1000 28 10000 5.1 340 07:33 23.07.2019
4769 Clear 31 1000 29 10000 4.1 330 06:44 23.07.2019
4770 Clear 31 1000 29 10000 4.1 330 06:26 23.07.2019
4771 Clear 28 998 37 10000 2.6 340 02:44 23.07.2019
4772 Clear 29 998 35 10000 2.1 340 01:31 23.07.2019
4773 Clear 31 998 29 10000 3.1 320 00:30 23.07.2019
4774 Clear 33 999 24 10000 4.1 310 23:43 22.07.2019
4775 Clear 33 999 24 10000 4.1 310 23:22 22.07.2019
4776 Clear 35 999 21 10000 4.1 300 22:59 22.07.2019
4777 Clear 35 999 21 10000 4.1 300 22:41 22.07.2019
4778 Clear 33 999 21 10000 4.1 300 22:20 22.07.2019
4779 Clear 34 999 20 10000 4.6 300 21:42 22.07.2019
4780 Clear 34 999 20 10000 4.6 300 21:21 22.07.2019
4781 Clear 36 999 18 10000 4.1 290 20:48 22.07.2019
4782 Clear 36 999 18 10000 4.1 290 20:30 22.07.2019
4783 Clear 37 999 17 10000 3.6 290 19:55 22.07.2019
4784 Clear 37 999 17 10000 3.6 290 19:37 22.07.2019
4785 Clear 37 999 17 10000 3.6 290 19:18 22.07.2019
4786 Clear 37 999 17 10000 3.6 290 19:18 22.07.2019
4787 Smoke 40 999 15 10000 5.1 300 18:41 22.07.2019
4788 Smoke 40 999 15 10000 5.1 300 18:23 22.07.2019
4789 Smoke 43 999 16 10000 7.2 310 17:43 22.07.2019
4790 Smoke 43 999 16 10000 7.2 310 17:25 22.07.2019
4791 Smoke 44 999 15 10000 8.2 300 16:54 22.07.2019
4792 Smoke 44 999 15 10000 8.2 300 16:36 22.07.2019
4793 Smoke 44 999 15 10000 8.2 300 16:18 22.07.2019
4794 Smoke 45 999 15 10000 7.7 290 15:38 22.07.2019
4795 Smoke 45 999 15 10000 7.7 290 15:19 22.07.2019
4796 Clear 45 999 16 10000 8.2 280 14:43 22.07.2019
4797 Clear 45 999 16 10000 8.2 280 14:22 22.07.2019
4798 Clear 45 1000 14 10000 8.2 280 13:50 22.07.2019
4799 Clear 45 1000 14 10000 8.2 280 13:30 22.07.2019
4800 Clear 44 1000 18 10000 7.7 270 12:50 22.07.2019
4801 Clear 44 1000 18 10000 7.7 270 12:31 22.07.2019
4802 Clear 43 1001 20 10000 6.7 290 11:46 22.07.2019
4803 -273 0 0 0 0 0 11:27 22.07.2019
4804 Clear 42 1001 22 10000 6.2 280 10:59 22.07.2019
4805 Clear 42 1001 22 10000 6.2 280 10:34 22.07.2019
4806 Clear 40 1001 22 10000 6.7 300 09:46 22.07.2019
4807 Clear 40 1001 22 10000 6.7 300 09:26 22.07.2019
4808 Clear 38 1001 27 10000 6.7 290 08:59 22.07.2019
4809 Clear 38 1001 27 10000 6.7 290 08:38 22.07.2019
4810 Clear 38 1001 27 10000 6.7 290 08:19 22.07.2019
4811 Clear 34 1001 32 10000 6.2 300 07:47 22.07.2019
4812 Clear 34 1001 32 10000 6.2 300 07:27 22.07.2019
4813 Clear 29 1001 42 10000 4.6 290 05:20 22.07.2019
4814 Clear 32 1000 31 10000 3.6 290 02:59 22.07.2019
4815 Clear 33 1000 27 10000 2.6 280 01:25 22.07.2019
4816 Clear 31 1000 29 10000 3.6 300 00:42 22.07.2019
4817 Clear 31 1000 29 10000 3.6 300 00:20 22.07.2019
4818 Clear 31 1000 29 10000 2.6 290 23:46 21.07.2019
4819 Clear 31 1000 29 10000 3.1 300 22:59 21.07.2019
4820 Clear 31 1000 29 10000 3.1 300 22:40 21.07.2019
4821 Clear 34 1000 29 10000 3.1 300 22:21 21.07.2019
4822 Clear 35 1000 23 10000 4.1 280 21:49 21.07.2019
4823 Clear 35 1000 23 10000 4.1 280 21:26 21.07.2019
4824 Clear 37 1000 21 10000 4.6 280 20:59 21.07.2019
4825 Clear 37 1000 21 10000 4.6 280 20:41 21.07.2019
4826 Clear 37 1000 21 10000 4.6 280 20:22 21.07.2019
4827 Clear 38 1000 20 10000 4.6 280 19:52 21.07.2019
4828 Clear 38 1000 20 10000 4.6 280 19:29 21.07.2019
4829 Haze 40 1000 18 10000 5.7 290 18:56 21.07.2019
4830 Haze 40 1000 18 10000 5.7 290 18:37 21.07.2019
4831 Haze 40 1000 18 10000 5.7 290 18:19 21.07.2019
4832 Clear 43 999 17 10000 6.7 290 17:40 21.07.2019
4833 Clear 43 999 17 10000 6.7 290 17:19 21.07.2019
4834 Clear 44 1000 16 10000 7.7 300 16:42 21.07.2019
4835 Clear 44 1000 16 10000 7.7 300 16:24 21.07.2019
4836 Clear 44 1000 17 10000 6.2 290 15:43 21.07.2019
4837 Clear 44 1000 17 10000 6.2 290 15:22 21.07.2019
4838 Clear 45 1000 15 10000 7.2 300 14:53 21.07.2019
4839 Clear 45 1000 15 10000 7.2 300 14:25 21.07.2019
4840 Clear 44 1001 17 10000 8.2 300 13:57 21.07.2019
4841 Clear 44 1001 17 10000 8.2 300 13:57 21.07.2019
4842 Clear 44 1001 17 10000 8.2 300 13:39 21.07.2019
4843 Clear 44 1001 17 10000 8.2 300 13:19 21.07.2019
4844 Clear 44 1001 16 10000 8.2 290 12:40 21.07.2019
4845 Clear 44 1001 16 10000 8.2 290 12:40 21.07.2019
4846 Clear 44 1001 16 10000 8.2 290 12:21 21.07.2019
4847 Clear 42 1002 18 10000 8.7 290 11:45 21.07.2019
4848 Clear 42 1002 18 10000 8.7 290 11:26 21.07.2019
4849 Haze 41 1002 20 10000 9.3 300 10:47 21.07.2019
4850 Haze 41 1002 20 10000 9.3 300 10:25 21.07.2019
4851 Clear 39 1002 26 10000 8.7 300 09:55 21.07.2019
4852 Clear 39 1002 26 10000 8.7 300 09:36 21.07.2019
4853 Haze 37 1002 30 10000 7.7 290 08:49 21.07.2019
4854 Haze 37 1002 30 10000 7.7 290 08:30 21.07.2019
4855 Haze 34 1001 32 9000 7.2 320 07:56 21.07.2019
4856 Haze 33 1001 32 9000 7.2 320 07:19 21.07.2019
4857 Clear 32 1001 31 10000 6.2 310 06:34 21.07.2019
4858 Clear 31 1000 33 10000 5.7 290 03:51 21.07.2019
4859 Clear 32 1000 31 10000 4.1 270 01:53 21.07.2019
4860 Clear 32 1000 31 10000 4.1 250 00:47 21.07.2019
4861 Clear 32 1000 31 10000 4.1 250 00:21 21.07.2019
4862 Clear 33 1000 29 10000 3.1 250 23:46 20.07.2019
4863 Clear 33 1000 29 10000 3.1 250 23:27 20.07.2019
4864 Clear 34 1000 28 10000 3.6 250 22:55 20.07.2019
4865 Clear 34 1000 28 10000 3.6 250 22:37 20.07.2019
4866 Clear 33 1000 28 10000 3.6 250 22:18 20.07.2019
4867 Clear 34 1000 26 10000 3.1 250 21:42 20.07.2019
4868 Clear 34 1000 26 10000 3.1 250 21:24 20.07.2019
4869 Clear 35 1000 26 10000 2.6 250 20:43 20.07.2019
4870 Clear 35 1000 23 10000 3.1 250 20:23 20.07.2019
4871 Smoke 37 1000 23 10000 2.1 240 19:51 20.07.2019
4872 Smoke 37 1000 23 10000 2.1 240 19:28 20.07.2019
4873 Smoke 40 1000 19 10000 3.6 260 18:56 20.07.2019
4874 Smoke 40 1000 19 10000 3.6 260 18:37 20.07.2019
4875 Smoke 40 1000 19 10000 3.6 260 18:18 20.07.2019
4876 Clear 43 1000 15 10000 4.6 270 17:43 20.07.2019
4877 Clear 43 1000 15 10000 4.6 270 17:19 20.07.2019
4878 Clear 43 1000 17 10000 5.1 270 16:41 20.07.2019
4879 Clear 43 1000 17 10000 5.1 270 16:22 20.07.2019
4880 Clear 43 1000 16 10000 5.1 270 15:42 20.07.2019
4881 Clear 43 1000 16 10000 5.1 270 15:42 20.07.2019
4882 Clear 43 1000 16 10000 5.1 270 15:21 20.07.2019
4883 Clear 43 1001 17 10000 5.1 280 14:54 20.07.2019
4884 Clear 43 1001 17 10000 5.1 280 14:36 20.07.2019
4885 Clear 43 1001 17 10000 5.1 280 14:18 20.07.2019
4886 Clear 43 1001 18 10000 7.7 290 13:38 20.07.2019
4887 Clear 43 1001 18 10000 7.7 290 13:19 20.07.2019
4888 Clear 42 1002 20 10000 7.2 280 12:49 20.07.2019
4889 Clear 42 1002 20 10000 7.2 280 12:20 20.07.2019
4890 Clear 41 1002 21 10000 8.2 290 11:49 20.07.2019
4891 Clear 41 1002 21 10000 8.2 290 11:22 20.07.2019
4892 Clear 38 1002 27 10000 7.7 270 10:49 20.07.2019
4893 Clear 38 1002 27 10000 7.7 270 10:26 20.07.2019
4894 Clear 37 1002 31 10000 7.7 280 09:52 20.07.2019
4895 Clear 37 1002 31 10000 7.7 280 09:27 20.07.2019
4896 Clear 35 1002 36 10000 8.2 290 08:57 20.07.2019
4897 Clear 35 1002 36 10000 8.2 290 08:36 20.07.2019
4898 Clear 35 1002 36 10000 8.2 290 08:18 20.07.2019
4899 Clear 30 1002 45 10000 7.7 290 06:47 20.07.2019
4900 Clear 30 1002 45 10000 7.7 290 06:21 20.07.2019
4901 Clear 28 1001 45 10000 6.2 290 04:31 20.07.2019
4902 Clear 31 1001 40 10000 4.6 280 02:36 20.07.2019
4903 Clear 31 1001 38 10000 4.6 280 01:21 20.07.2019
4904 Clear 33 1001 31 10000 6.7 290 00:45 20.07.2019
4905 Clear 33 1001 31 10000 6.7 290 00:18 20.07.2019
4906 Clear 33 1002 31 10000 6.2 290 23:43 19.07.2019
4907 Clear 33 1002 31 10000 6.2 290 23:22 19.07.2019
4908 Clear 34 1002 30 10000 7.2 290 22:44 19.07.2019
4909 Clear 32 1002 30 10000 7.2 290 22:25 19.07.2019
4910 Clear 33 1002 28 10000 7.2 280 21:47 19.07.2019
4911 Clear 33 1002 28 10000 7.2 280 21:29 19.07.2019
4912 Clear 35 1002 26 10000 6.7 280 20:50 19.07.2019
4913 Clear 35 1002 26 10000 6.7 280 20:31 19.07.2019
4914 Smoke 36 1002 23 10000 7.2 280 19:55 19.07.2019
4915 Smoke 36 1002 23 10000 7.2 280 19:34 19.07.2019
4916 Smoke 38 1001 21 10000 7.7 280 18:43 19.07.2019
4917 Smoke 38 1001 21 10000 7.7 280 18:23 19.07.2019
4918 Clear 41 1000 19 10000 9.3 280 17:55 19.07.2019
4919 Clear 41 1000 19 10000 9.3 280 17:29 19.07.2019
4920 Clear 42 1000 18 10000 9.3 280 16:49 19.07.2019
4921 Clear 42 1000 18 10000 9.3 280 16:29 19.07.2019
4922 Clear 43 1001 17 10000 9.8 290 15:56 19.07.2019
4923 Clear 43 1001 17 10000 9.8 290 15:38 19.07.2019
4924 Clear 43 1001 17 10000 9.8 290 15:20 19.07.2019
4925 Clear 42 1001 18 10000 9.3 280 14:44 19.07.2019
4926 Clear 42 1001 18 10000 9.3 280 14:25 19.07.2019
4927 Smoke 42 1001 18 10000 9.3 290 13:46 19.07.2019
4928 Smoke 42 1001 18 10000 9.3 290 13:27 19.07.2019
4929 Clear 42 1002 17 10000 9.3 290 12:57 19.07.2019
4930 Clear 42 1002 17 10000 9.3 290 12:37 19.07.2019
4931 Clear 42 1002 17 10000 9.3 290 12:19 19.07.2019
4932 Clear 42 1002 15 10000 8.7 310 11:44 19.07.2019
4933 Clear 42 1002 15 10000 8.7 310 11:18 19.07.2019
4934 Clear 41 1003 17 10000 7.7 310 10:48 19.07.2019
4935 Clear 41 1003 17 10000 7.7 310 10:23 19.07.2019
4936 Clear 39 1003 22 10000 7.7 310 09:58 19.07.2019
4937 Clear 39 1003 22 10000 7.7 310 09:40 19.07.2019
4938 Clear 39 1003 22 10000 7.7 310 09:21 19.07.2019
4939 Clear 37 1003 25 10000 7.2 310 08:48 19.07.2019
4940 Clear 34 1003 26 10000 5.1 320 07:59 19.07.2019
4941 Clear 34 1003 26 10000 5.1 320 07:29 19.07.2019
4942 Clear 28 1002 34 10000 3.1 310 05:57 19.07.2019
4943 Clear 27 1002 34 10000 3.1 310 02:43 19.07.2019
4944 Clear 30 1001 33 10000 2.1 320 01:20 19.07.2019
4945 Clear 29 1002 32 10000 2.6 310 00:45 19.07.2019
4946 Clear 32 1002 29 10000 2.1 320 23:58 18.07.2019
4947 Clear 32 1002 29 10000 2.1 320 23:39 18.07.2019
4948 Clear 32 1002 29 10000 2.1 320 23:21 18.07.2019
4949 Clear 32 1002 29 10000 2.6 330 22:40 18.07.2019
4950 Haze 31 1002 29 10000 2.6 330 22:20 18.07.2019
4951 Haze 32 1002 26 10000 2.6 330 21:49 18.07.2019
4952 Haze 32 1002 26 10000 2.6 330 21:30 18.07.2019
4953 Clear 33 1002 24 10000 3.1 330 20:54 18.07.2019
4954 Clear 33 1002 24 10000 3.1 330 20:36 18.07.2019
4955 Clear 33 1002 24 10000 3.1 330 20:18 18.07.2019
4956 Clear 34 1002 24 10000 3.1 320 19:43 18.07.2019
4957 Clear 34 1002 24 10000 3.1 320 19:20 18.07.2019
4958 Clear 38 1001 21 10000 5.1 310 18:43 18.07.2019
4959 Clear 38 1001 21 10000 5.1 310 18:21 18.07.2019
4960 Clear 41 1001 16 10000 8.2 310 17:44 18.07.2019
4961 Clear 41 1001 16 10000 8.2 310 17:25 18.07.2019
4962 Dust 43 1001 13 10000 8.7 310 16:57 18.07.2019
4963 Dust 43 1001 13 10000 8.7 310 16:39 18.07.2019
4964 Dust 43 1001 13 10000 8.7 310 16:19 18.07.2019
4965 Haze 44 1001 14 10000 8.2 290 15:51 18.07.2019
4966 Haze 44 1001 14 10000 8.2 290 15:33 18.07.2019
4967 Haze 45 1001 14 10000 7.7 310 14:53 18.07.2019
4968 Haze 45 1001 14 10000 7.7 310 14:33 18.07.2019
4969 Dust 44 1001 14 10000 7.7 290 13:50 18.07.2019
4970 Dust 44 1001 14 10000 7.7 290 13:27 18.07.2019
4971 Dust 43 1002 14 9000 7.2 290 12:54 18.07.2019
4972 Clear 43 1002 18 10000 6.7 300 12:36 18.07.2019
4973 Clear 42 1003 17 10000 6.2 280 12:18 18.07.2019
4974 Clear 42 1003 17 10000 6.2 280 12:18 18.07.2019
4975 Clear 42 1003 17 10000 6.2 280 11:46 18.07.2019
4976 Clear 41 1003 17 10000 6.2 280 11:22 18.07.2019
4977 Clear 41 1003 18 10000 6.2 280 10:51 18.07.2019
4978 Clear 39 1003 22 10000 5.7 270 09:50 18.07.2019
4979 Clear 39 1003 22 10000 5.7 270 09:27 18.07.2019
4980 Clear 37 1003 23 10000 6.2 290 08:54 18.07.2019
4981 Clear 37 1003 23 10000 6.2 290 08:25 18.07.2019
4982 Clear 34 1003 31 10000 5.1 290 07:58 18.07.2019
4983 Clear 34 1003 31 10000 5.1 290 07:36 18.07.2019
4984 Clear 30 1002 40 10000 2.6 340 06:51 18.07.2019
4985 Clear 30 1002 40 10000 2.6 340 06:30 18.07.2019
4986 Clear 29 1000 35 10000 3.1 270 03:46 18.07.2019
4987 Clear 29 1000 35 10000 2.6 300 02:50 18.07.2019
4988 Clear 28 1000 39 10000 2.1 350 01:36 18.07.2019
4989 Clear 29 1001 32 10000 3.1 300 00:22 18.07.2019
4990 Clear 29 1001 32 10000 3.1 300 23:22 17.07.2019
4991 Clear 34 1001 24 10000 4.6 300 22:59 17.07.2019
4992 Clear 34 1001 24 10000 4.6 300 22:41 17.07.2019
4993 Clear 31 1001 24 10000 4.6 300 22:22 17.07.2019
4994 Clear 32 1001 23 10000 4.6 280 21:58 17.07.2019
4995 Clear 32 1001 23 10000 4.6 280 21:38 17.07.2019
4996 Clear 32 1001 23 10000 4.6 280 21:19 17.07.2019
4997 Clear 34 1001 23 10000 3.6 270 20:55 17.07.2019
4998 Clear 34 1001 23 10000 3.6 270 20:37 17.07.2019
4999 Clear 34 1001 24 9000 2.6 310 20:18 17.07.2019
5000 Clear 34 1001 24 9000 2.6 310 20:18 17.07.2019
5001 Clear 34 1001 23 10000 3.1 290 19:41 17.07.2019
5002 Clear 34 1001 23 10000 3.1 290 19:20 17.07.2019
5003 Smoke 39 1000 18 10000 5.7 300 18:45 17.07.2019
5004 Smoke 40 1000 17 10000 8.7 300 18:21 17.07.2019
5005 Smoke 40 1000 17 10000 8.7 300 17:57 17.07.2019
5006 Smoke 40 1000 17 10000 8.7 300 17:39 17.07.2019
5007 Smoke 40 1000 17 10000 8.7 300 17:20 17.07.2019
5008 Clear 40 1000 15 10000 9.8 300 16:40 17.07.2019
5009 Clear 40 1000 15 10000 9.8 300 16:20 17.07.2019
5010 Clear 40 1000 19 10000 7.2 290 15:51 17.07.2019
5011 Clear 40 1000 19 10000 7.2 290 15:29 17.07.2019
5012 Clear 40 1001 20 10000 7.2 280 14:56 17.07.2019
5013 Clear 40 1001 20 10000 7.2 280 14:38 17.07.2019
5014 Clear 41 1001 20 10000 7.7 280 14:19 17.07.2019
5015 Clear 41 1001 20 10000 7.7 280 13:48 17.07.2019
5016 Clear 41 1001 20 10000 7.7 280 13:30 17.07.2019
5017 Clear 40 1001 20 10000 8.2 290 12:44 17.07.2019
5018 Clear 40 1001 20 10000 8.2 290 12:24 17.07.2019
5019 Clear 39 1001 22 10000 7.7 290 11:59 17.07.2019
5020 Clear 39 1001 22 10000 7.7 290 11:39 17.07.2019
5021 Clear 39 1001 22 10000 7.7 290 11:19 17.07.2019
5022 Clear 39 1002 22 10000 8.2 290 10:43 17.07.2019
5023 Clear 39 1002 22 10000 8.2 290 10:20 17.07.2019
5024 Clear 37 1002 24 10000 7.2 300 09:45 17.07.2019
5025 Clear 37 1002 24 10000 7.2 300 09:26 17.07.2019
5026 Clear 36 1002 28 10000 7.2 310 08:44 17.07.2019
5027 Clear 36 1002 28 10000 7.2 310 08:23 17.07.2019
5028 Clear 33 1001 29 10000 8.2 310 07:55 17.07.2019
5029 Clear 33 1001 29 10000 8.2 310 07:36 17.07.2019
5030 Clear 30 1001 33 10000 6.7 310 07:18 17.07.2019
5031 Clear 30 1001 33 10000 6.7 310 06:41 17.07.2019
5032 Clear 30 1001 33 10000 6.7 310 06:22 17.07.2019
5033 Clear 28 1001 42 10000 4.1 310 05:33 17.07.2019
5034 Clear 26 1000 50 10000 3.6 320 04:56 17.07.2019
5035 Clear 27 1000 45 10000 3.6 320 03:50 17.07.2019
5036 Clear 30 1000 37 10000 5.7 300 02:43 17.07.2019
5037 Clear 31 1000 31 10000 4.6 300 01:41 17.07.2019
5038 Clear 31 1000 31 10000 4.6 300 01:21 17.07.2019
5039 Clear 32 1000 29 10000 5.1 290 00:39 17.07.2019
5040 Clear 32 1001 29 10000 5.7 290 00:20 17.07.2019
5041 Clear 32 1001 29 10000 5.7 290 23:44 16.07.2019
5042 Clear 32 1001 29 10000 5.7 290 23:22 16.07.2019
5043 Clear 32 1001 25 10000 4.1 300 22:44 16.07.2019
5044 Clear 32 1001 25 10000 4.1 300 22:25 16.07.2019
5045 Clear 33 1001 21 10000 4.6 290 21:59 16.07.2019
5046 Clear 33 1001 21 10000 4.6 290 21:59 16.07.2019
5047 Clear 33 1001 21 10000 4.6 290 21:40 16.07.2019
5048 Clear 33 1001 21 10000 3.6 300 21:19 16.07.2019
5049 Clear 33 1001 21 10000 3.6 300 20:41 16.07.2019
5050 Clear 33 1001 21 10000 3.6 300 20:23 16.07.2019
5051 Clear 35 1000 20 10000 4.1 290 19:55 16.07.2019
5052 Clear 35 1000 20 10000 4.1 290 19:30 16.07.2019
5053 Clear 37 1000 18 10000 6.2 290 18:59 16.07.2019
5054 Clear 37 1000 18 10000 6.2 290 18:41 16.07.2019
5055 Clear 40 999 18 10000 7.7 280 18:21 16.07.2019
5056 Clear 40 999 18 10000 7.7 280 17:49 16.07.2019
5057 Clear 40 999 18 10000 7.7 280 17:28 16.07.2019
5058 Clear 41 999 13 10000 8.7 280 16:51 16.07.2019
5059 Clear 41 999 13 10000 8.7 280 16:27 16.07.2019
5060 Clear 41 1000 10 10000 8.7 290 15:57 16.07.2019
5061 Clear 41 1000 10 10000 8.7 290 15:39 16.07.2019
5062 Clear 42 1000 14 10000 8.7 300 15:19 16.07.2019
5063 Clear 42 1000 14 10000 8.7 300 14:55 16.07.2019
5064 Clear 42 1000 14 10000 8.7 300 14:37 16.07.2019
5065 Clear 41 1000 14 10000 9.3 300 14:18 16.07.2019
5066 Clear 41 1000 14 10000 9.3 300 13:43 16.07.2019
5067 Clear 41 1001 15 10000 8.2 310 13:18 16.07.2019
5068 Clear 41 1001 15 10000 8.2 310 12:44 16.07.2019
5069 Clear 41 1001 18 10000 8.2 310 12:20 16.07.2019
5070 Clear 41 1001 18 10000 8.2 310 11:55 16.07.2019
5071 Clear 41 1001 18 10000 8.2 310 11:36 16.07.2019
5072 Clear 40 1001 18 10000 6.7 330 11:18 16.07.2019
5073 Clear 40 1001 18 10000 6.7 330 11:18 16.07.2019
5074 Clear 40 1001 18 10000 6.7 330 10:44 16.07.2019
5075 Clear 40 1001 18 10000 6.7 330 10:20 16.07.2019
5076 Clear 37 1002 23 10000 7.2 340 09:44 16.07.2019
5077 Clear 37 1002 23 10000 7.2 340 09:21 16.07.2019
5078 Clear 36 1001 26 10000 7.2 330 08:49 16.07.2019
5079 Clear 36 1001 26 10000 7.2 330 08:29 16.07.2019
5080 Clear 33 1001 29 10000 5.7 330 07:58 16.07.2019
5081 Clear 33 1001 29 10000 5.7 330 07:39 16.07.2019
5082 Clear 30 1001 30 10000 5.1 320 06:59 16.07.2019
5083 Clear 29 1001 32 10000 5.1 320 06:38 16.07.2019
5084 Clear 29 1001 30 10000 4.6 310 05:57 16.07.2019
5085 Clear 28 1001 36 10000 3.1 320 05:31 16.07.2019
5086 Clear 28 1001 36 10000 3.6 320 04:52 16.07.2019
5087 Clear 28 1000 34 10000 4.1 330 03:44 16.07.2019
5088 Clear 27 1000 34 10000 3.6 330 02:53 16.07.2019
5089 Clear 28 1000 32 10000 3.6 330 02:28 16.07.2019
5090 Clear 30 999 28 10000 4.1 330 01:40 16.07.2019
5091 Clear 30 1000 30 10000 5.1 320 00:39 16.07.2019
5092 Clear 30 1000 30 10000 4.6 310 00:19 16.07.2019
5093 Clear 32 1000 27 10000 5.1 320 23:42 15.07.2019
5094 Clear 32 1000 27 10000 5.1 320 23:23 15.07.2019
5095 Clear 33 1000 24 10000 5.1 320 22:47 15.07.2019
5096 Clear 34 1000 24 10000 5.1 320 22:21 15.07.2019
5097 Clear 34 1000 21 10000 5.7 310 21:57 15.07.2019
5098 Clear 34 1000 21 10000 5.7 310 21:39 15.07.2019
5099 Clear 34 1000 21 10000 6.2 310 21:19 15.07.2019
5100 Clear 34 1000 19 10000 5.1 310 20:45 15.07.2019
5101 Clear 34 1000 19 10000 5.1 310 20:24 15.07.2019
5102 Clear 36 1000 20 10000 5.1 310 19:58 15.07.2019
5103 Clear 36 1000 18 10000 3.6 300 19:39 15.07.2019
5104 Clear 39 999 16 10000 4.6 310 19:19 15.07.2019
5105 Clear 39 999 16 10000 4.6 310 18:46 15.07.2019
5106 Clear 39 999 16 10000 4.6 310 18:22 15.07.2019
5107 Clear 42 999 14 10000 6.7 320 17:58 15.07.2019
5108 Clear 42 999 14 10000 6.7 320 17:39 15.07.2019
5109 Clear 42 999 15 10000 7.2 320 17:21 15.07.2019
5110 Clear 42 999 15 10000 7.2 320 16:58 15.07.2019
5111 Clear 42 999 15 10000 7.2 320 16:37 15.07.2019
5112 Clear 43 999 14 10000 7.7 290 16:18 15.07.2019
5113 Clear 43 999 14 10000 7.7 290 15:41 15.07.2019
5114 Clear 43 999 14 10000 7.7 290 15:41 15.07.2019
5115 Clear 43 999 14 10000 7.7 290 15:23 15.07.2019
5116 Clear 43 1000 13 10000 9.3 290 14:59 15.07.2019
5117 Clear 43 1000 13 10000 9.3 290 14:38 15.07.2019
5118 Clear 43 1000 12 10000 8.7 280 14:19 15.07.2019
5119 Clear 43 1000 12 10000 8.7 280 13:47 15.07.2019
5120 Clear 43 1000 14 10000 7.7 290 13:19 15.07.2019
5121 Clear 43 1000 14 10000 7.7 290 12:47 15.07.2019
5122 Clear 43 1000 14 10000 7.7 290 12:27 15.07.2019
5123 Clear 43 1001 13 10000 7.7 290 11:57 15.07.2019
5124 Clear 43 1001 13 10000 7.7 290 11:38 15.07.2019
5125 Clear 41 1001 14 10000 5.7 320 11:18 15.07.2019
5126 Clear 41 1001 16 10000 5.7 320 10:40 15.07.2019
5127 Clear 41 1001 16 10000 5.7 320 10:22 15.07.2019
5128 Clear 40 1001 12 9000 4.6 330 09:42 15.07.2019
5129 Clear 38 1001 12 9000 4.6 330 09:20 15.07.2019
5130 Clear 37 1002 22 10000 5.1 320 08:46 15.07.2019
5131 Clear 37 1002 22 10000 5.1 320 08:25 15.07.2019
5132 Clear 35 1002 23 10000 5.1 320 07:52 15.07.2019
5133 Clear 34 1001 24 10000 3.6 340 07:30 15.07.2019
5134 Clear 30 1001 28 10000 3.1 320 06:41 15.07.2019
5135 Clear 27 1001 39 10000 1.5 300 06:20 15.07.2019
5136 Clear 27 1001 39 10000 1.5 300 05:42 15.07.2019
5137 Clear 26 1000 41 10000 3.6 310 04:46 15.07.2019
5138 Clear 26 1000 41 10000 3.6 310 04:26 15.07.2019
5139 Clear 27 1000 44 10000 3.6 320 03:23 15.07.2019
5140 Clear 27 1000 39 10000 4.1 320 02:23 15.07.2019
5141 Clear 31 1000 31 10000 5.1 290 01:34 15.07.2019
5142 Clear 31 1000 31 10000 5.1 290 01:34 15.07.2019
5143 Clear 32 1000 24 10000 4.6 290 00:53 15.07.2019
5144 Clear 32 1000 24 10000 4.6 290 00:28 15.07.2019
5145 Clear 33 1001 22 10000 5.1 280 23:59 14.07.2019
5146 Clear 33 1001 22 10000 5.1 280 23:40 14.07.2019
5147 Clear 33 1001 22 10000 5.1 280 23:20 14.07.2019
5148 Clear 33 1001 24 10000 4.1 270 22:57 14.07.2019
5149 Clear 33 1001 24 10000 4.1 270 22:38 14.07.2019
5150 Clear 32 1001 24 10000 4.1 270 22:20 14.07.2019
5151 Clear 33 1001 21 10000 3.1 270 21:46 14.07.2019
5152 Clear 34 1001 20 10000 3.6 270 21:19 14.07.2019
5153 Clear 34 1001 20 10000 3.6 270 20:59 14.07.2019
5154 Clear 34 1001 20 10000 3.6 270 20:38 14.07.2019
5155 Clear 34 1001 20 10000 3.6 270 20:20 14.07.2019
5156 Clear 35 1001 20 10000 3.1 280 19:55 14.07.2019
5157 Clear 35 1001 20 10000 3.1 280 19:36 14.07.2019
5158 Clear 37 1001 23 10000 5.1 260 19:18 14.07.2019
5159 Clear 38 1001 19 10000 4.6 300 18:40 14.07.2019
5160 Clear 38 1001 19 10000 4.6 300 18:22 14.07.2019
5161 Clear 39 1000 19 10000 3.6 260 17:58 14.07.2019
5162 Clear 40 1000 17 10000 7.2 300 17:23 14.07.2019
5163 Clear 41 1000 17 10000 7.2 310 16:54 14.07.2019
5164 Clear 41 1000 17 10000 7.2 310 16:26 14.07.2019
5165 Clear 41 1000 19 10000 7.7 300 15:58 14.07.2019
5166 Clear 41 1000 19 10000 7.7 300 15:38 14.07.2019
5167 Clear 42 1001 18 10000 7.2 290 15:19 14.07.2019
5168 Clear 42 1001 18 10000 7.2 290 14:44 14.07.2019
5169 Clear 42 1001 18 10000 7.2 290 14:20 14.07.2019
5170 Clear 41 1001 15 10000 9.3 300 13:45 14.07.2019
5171 Clear 41 1001 15 10000 9.3 300 13:23 14.07.2019
5172 Clear 41 1001 16 10000 7.7 280 12:56 14.07.2019
5173 Clear 41 1001 16 10000 7.7 280 12:37 14.07.2019
5174 Clear 41 1002 19 10000 8.2 310 12:18 14.07.2019
5175 Clear 41 1002 19 10000 8.2 310 11:45 14.07.2019
5176 Clear 41 1002 19 10000 8.2 310 11:20 14.07.2019
5177 Clear 40 1002 22 10000 8.7 310 10:42 14.07.2019
5178 Clear 40 1002 22 10000 8.7 310 10:20 14.07.2019
5179 Clear 38 1002 25 10000 5.7 320 09:45 14.07.2019
5180 Clear 38 1002 25 10000 5.7 320 09:27 14.07.2019
5181 Clear 36 1002 30 10000 4.6 340 08:46 14.07.2019
5182 Clear 36 1002 30 10000 4.6 340 08:27 14.07.2019
5183 Haze 33 1002 33 10000 4.6 330 07:43 14.07.2019
5184 Clear 29 1002 35 10000 5.1 310 07:19 14.07.2019
5185 Clear 28 1001 44 10000 3.6 310 05:46 14.07.2019
5186 Clear 26 1000 47 10000 3.1 330 03:53 14.07.2019
5187 Clear 26 1000 47 10000 3.1 330 03:34 14.07.2019
5188 Clear 29 1000 35 10000 4.1 310 02:52 14.07.2019
5189 Clear 29 1000 35 10000 4.1 310 02:22 14.07.2019
5190 Clear 30 1000 33 10000 3.1 300 01:35 14.07.2019
5191 Clear 30 1000 33 10000 3.1 300 01:35 14.07.2019
5192 Clear 32 1000 27 10000 4.6 280 00:59 14.07.2019
5193 Clear 32 1000 27 10000 4.6 280 00:40 14.07.2019
5194 Clear 33 1001 24 10000 4.6 280 00:20 14.07.2019
5195 Clear 33 1001 24 10000 4.6 280 23:56 13.07.2019
5196 Clear 33 1001 24 10000 4.6 280 23:37 13.07.2019
5197 Clear 33 1001 22 10000 5.1 280 23:19 13.07.2019
5198 Clear 33 1001 22 10000 5.1 280 22:41 13.07.2019
5199 Clear 31 1001 22 10000 5.1 280 22:21 13.07.2019
5200 Clear 32 1001 21 10000 3.6 290 21:45 13.07.2019
5201 Clear 32 1001 21 10000 3.6 290 21:20 13.07.2019
5202 Clear 34 1001 18 10000 3.1 290 20:51 13.07.2019
5203 Clear 34 1001 18 10000 3.1 290 20:32 13.07.2019
5204 Clouds 34 1001 22 10000 3.6 320 19:50 13.07.2019
5205 Clouds 34 1001 22 10000 3.6 320 19:29 13.07.2019
5206 Clear 37 1000 17 10000 4.6 300 18:46 13.07.2019
5207 Clear 37 1000 17 10000 4.6 300 18:24 13.07.2019
5208 Clear 40 1000 16 10000 4.6 280 17:49 13.07.2019
5209 Clear 40 1000 16 10000 4.6 280 17:22 13.07.2019
5210 Clear 41 1000 16 10000 3.6 270 16:59 13.07.2019
5211 Clear 41 1000 16 10000 3.6 270 16:39 13.07.2019
5212 Clear 41 1000 16 10000 3.6 270 16:21 13.07.2019
5213 Clear 41 1000 16 10000 4.6 300 15:46 13.07.2019
5214 Clear 41 1000 16 10000 4.6 300 15:23 13.07.2019
5215 Clear 42 1000 16 10000 5.1 270 14:46 13.07.2019
5216 Clear 42 1000 16 10000 5.1 270 14:26 13.07.2019
5217 Clear 41 1001 16 10000 6.7 260 13:56 13.07.2019
5218 Clear 41 1001 16 10000 6.7 260 13:37 13.07.2019
5219 Haze 41 1001 15 10000 6.7 290 13:18 13.07.2019
5220 Haze 41 1001 15 10000 6.7 290 12:40 13.07.2019
5221 Haze 41 1001 15 10000 6.7 290 12:40 13.07.2019
5222 Haze 41 1001 15 10000 6.7 290 12:22 13.07.2019
5223 Haze 41 1001 15 10000 6.7 290 12:22 13.07.2019
5224 Haze 41 1002 21 10000 6.7 290 11:52 13.07.2019
5225 Haze 41 1002 21 10000 6.7 290 11:20 13.07.2019
5226 Haze 39 1002 24 10000 7.7 300 10:45 13.07.2019
5227 Haze 39 1002 24 10000 7.7 300 10:25 13.07.2019
5228 Haze 37 1002 25 10000 8.2 300 09:59 13.07.2019
5229 Haze 37 1002 25 10000 8.2 300 09:41 13.07.2019
5230 Haze 36 1003 28 10000 8.2 300 09:18 13.07.2019
5231 Haze 36 1003 28 10000 8.2 300 08:41 13.07.2019
5232 Haze 36 1003 28 10000 8.2 300 08:22 13.07.2019
5233 Haze 33 1002 30 10000 8.7 310 07:30 13.07.2019
5234 Haze 31 1002 31 10000 8.7 310 06:49 13.07.2019
5235 Haze 31 1002 31 10000 8.7 310 06:22 13.07.2019
5236 Haze 31 1002 27 10000 7.2 310 05:33 13.07.2019
5237 Clear 29 1001 25 10000 5.7 300 04:24 13.07.2019
5238 Clear 29 1000 28 10000 3.1 300 03:59 13.07.2019
5239 Clear 29 1000 28 10000 3.1 300 03:39 13.07.2019
5240 Clear 31 1000 29 10000 5.1 270 02:20 13.07.2019
5241 Clear 30 1000 28 10000 1 0 01:43 13.07.2019
5242 Clear 29 1000 30 10000 1 340 01:19 13.07.2019
5243 Clear 29 1000 30 10000 1 340 00:57 13.07.2019
5244 Clear 32 1000 24 10000 1 20 00:20 13.07.2019
5245 Clear 32 1000 24 10000 1 20 23:49 12.07.2019
5246 Clear 32 1000 24 10000 1 20 23:29 12.07.2019
5247 Clear 34 1001 21 10000 1.5 280 22:46 12.07.2019
5248 Clear 32 1001 21 10000 1.5 280 22:25 12.07.2019
5249 Clear 33 1001 18 10000 4.6 280 21:57 12.07.2019
5250 Clear 33 1001 18 10000 4.6 280 21:39 12.07.2019
5251 Clear 34 1001 18 10000 3.6 270 21:19 12.07.2019
5252 Clear 34 1001 18 10000 3.6 270 21:19 12.07.2019
5253 Clear 35 1001 18 10000 3.6 270 20:42 12.07.2019
5254 Clear 35 1001 18 10000 3.6 270 20:21 12.07.2019
5255 Clear 37 1000 16 10000 4.1 270 19:42 12.07.2019
5256 Clear 37 1000 16 10000 4.1 270 19:24 12.07.2019
5257 Clear 40 1000 14 10000 5.1 270 18:46 12.07.2019
5258 Clear 40 1000 14 10000 5.1 270 18:22 12.07.2019
5259 Clear 43 999 11 10000 6.2 280 17:55 12.07.2019
5260 Clear 43 999 11 10000 6.2 280 17:37 12.07.2019
5261 Clear 44 999 10 10000 8.7 300 17:19 12.07.2019
5262 Clear 44 999 10 10000 8.7 300 16:36 12.07.2019
5263 Clear 44 999 11 10000 7.2 300 16:18 12.07.2019
5264 Clear 44 999 11 10000 7.2 300 15:38 12.07.2019
5265 Clear 45 1000 13 10000 7.7 290 15:19 12.07.2019
5266 Clear 45 1000 13 10000 7.7 290 14:44 12.07.2019
5267 Clear 45 1000 13 10000 7.7 290 14:21 12.07.2019
5268 Clear 44 1000 15 10000 8.7 300 13:47 12.07.2019
5269 Clear 44 1000 15 10000 8.7 300 13:23 12.07.2019
5270 Clear 43 1000 16 10000 7.7 290 12:43 12.07.2019
5271 Clear 43 1000 16 10000 7.7 290 12:23 12.07.2019
5272 Clear 42 1001 20 10000 5.1 310 11:56 12.07.2019
5273 Clear 42 1001 20 10000 5.1 310 11:38 12.07.2019
5274 Haze 40 1001 21 10000 5.7 310 11:19 12.07.2019
5275 Haze 40 1001 21 10000 5.7 310 10:41 12.07.2019
5276 Haze 40 1001 21 10000 5.7 310 10:23 12.07.2019
5277 Haze 39 1001 24 10000 6.7 320 09:53 12.07.2019
5278 Haze 39 1001 24 10000 6.7 320 09:28 12.07.2019
5279 Haze 37 1001 27 10000 7.2 310 08:51 12.07.2019
5280 Haze 37 1001 27 10000 7.2 310 08:24 12.07.2019
5281 Haze 35 1001 28 10000 7.2 310 07:51 12.07.2019
5282 Haze 35 1001 28 10000 7.2 310 07:29 12.07.2019
5283 Clear 33 1000 27 10000 5.7 310 06:32 12.07.2019
5284 Clear 29 1000 32 10000 3.6 310 05:52 12.07.2019
5285 Clear 29 999 34 10000 3.6 320 04:53 12.07.2019
5286 Clear 29 999 34 10000 3.6 320 04:53 12.07.2019
5287 Clear 31 998 33 10000 4.1 320 02:36 12.07.2019
5288 Clear 34 997 24 10000 4.6 290 01:37 12.07.2019
5289 Clear 34 997 21 10000 4.1 270 00:37 12.07.2019
5290 Clear 33 997 21 10000 3.1 260 00:19 12.07.2019
5291 Clear 33 997 21 10000 3.1 260 23:42 11.07.2019
5292 Clear 33 997 21 10000 3.1 260 23:22 11.07.2019
5293 Clear 34 997 20 10000 3.1 240 22:47 11.07.2019
5294 Clear 35 997 20 10000 3.1 240 22:24 11.07.2019
5295 Clear 35 997 20 10000 2.1 270 21:55 11.07.2019
5296 Clear 35 997 20 10000 2.1 270 21:36 11.07.2019
5297 Clear 35 997 26 10000 0.5 0 21:18 11.07.2019
5298 Clear 35 997 26 10000 0.5 0 20:41 11.07.2019
5299 Clear 35 997 26 10000 0.5 0 20:22 11.07.2019
5300 Clear 35 997 26 10000 0.5 0 20:22 11.07.2019
5301 Clear 38 996 18 10000 2.6 270 19:56 11.07.2019
5302 Clear 38 996 18 10000 2.6 270 19:37 11.07.2019
5303 Smoke 41 996 16 10000 3.1 260 19:19 11.07.2019
5304 Smoke 41 996 16 10000 3.1 260 18:41 11.07.2019
5305 Smoke 41 996 16 10000 3.1 260 18:23 11.07.2019
5306 Clear 43 995 15 10000 5.1 240 17:48 11.07.2019
5307 Clear 43 995 15 10000 5.1 240 17:29 11.07.2019
5308 Clear 44 995 14 10000 5.7 240 16:53 11.07.2019
5309 Clear 44 995 13 10000 5.1 230 16:25 11.07.2019
5310 Clear 45 995 13 10000 6.7 240 15:58 11.07.2019
5311 Clear 45 995 13 10000 6.7 240 15:39 11.07.2019
5312 Clear 45 995 13 10000 6.7 240 15:20 11.07.2019
5313 Smoke 45 996 12 10000 5.7 250 14:44 11.07.2019
5314 Smoke 45 996 12 10000 5.7 250 14:23 11.07.2019
5315 Clear 45 996 12 10000 7.2 230 13:48 11.07.2019
5316 Clear 45 996 12 10000 7.2 230 13:29 11.07.2019
5317 Clear 44 996 13 10000 7.2 270 12:57 11.07.2019
5318 Clear 44 996 13 10000 7.2 270 12:37 11.07.2019
5319 Clear 44 997 16 10000 7.7 280 12:18 11.07.2019
5320 Clear 44 997 16 10000 7.7 280 11:41 11.07.2019
5321 Clear 44 997 16 10000 7.7 280 11:23 11.07.2019
5322 Haze 41 997 23 10000 7.7 260 10:51 11.07.2019
5323 Haze 38 997 24 10000 8.2 280 10:19 11.07.2019
5324 Haze 38 997 24 10000 8.2 280 09:49 11.07.2019
5325 Haze 38 997 24 10000 8.2 280 09:30 11.07.2019
5326 Haze 36 997 30 10000 6.7 280 08:56 11.07.2019
5327 Haze 36 997 30 10000 6.7 280 08:36 11.07.2019
5328 Clear 34 997 32 10000 6.2 290 08:18 11.07.2019
5329 Clear 34 997 32 10000 6.2 290 07:41 11.07.2019
5330 Clear 31 996 33 10000 6.7 280 06:49 11.07.2019
5331 Clear 29 996 29 10000 5.7 270 06:18 11.07.2019
5332 Clear 29 996 29 10000 5.7 270 05:31 11.07.2019
5333 Clear 28 995 27 10000 5.1 260 04:56 11.07.2019
5334 Clear 32 995 25 10000 5.1 280 02:43 11.07.2019
5335 Clear 33 995 19 10000 4.1 270 01:53 11.07.2019
5336 Clear 34 995 17 10000 4.6 270 00:32 11.07.2019
5337 Clear 35 995 16 10000 4.6 270 23:50 10.07.2019
5338 Clear 35 995 16 10000 4.6 270 23:24 10.07.2019
5339 Clear 36 995 16 10000 6.2 280 22:54 10.07.2019
5340 Clear 35 995 16 10000 6.2 280 22:22 10.07.2019
5341 Clear 36 995 17 10000 6.7 280 21:55 10.07.2019
5342 Clear 36 995 17 10000 6.7 280 21:37 10.07.2019
5343 Clear 37 995 15 10000 7.2 280 21:19 10.07.2019
5344 Clear 37 995 15 10000 7.2 280 20:41 10.07.2019
5345 Clear 37 995 17 8000 5.7 280 20:21 10.07.2019
5346 Clear 37 995 17 8000 5.7 280 19:55 10.07.2019
5347 Clear 37 995 17 8000 5.7 280 19:37 10.07.2019
5348 Clear 40 995 14 10000 6.2 280 19:19 10.07.2019
5349 Clear 40 995 14 10000 6.2 280 18:44 10.07.2019
5350 Clear 40 995 14 10000 6.2 280 18:23 10.07.2019
5351 Clear 40 995 14 10000 6.2 280 18:23 10.07.2019
5352 Clear 43 994 13 10000 7.7 280 17:46 10.07.2019
5353 Clear 43 994 13 10000 7.7 280 17:27 10.07.2019
5354 Clear 44 994 11 10000 9.8 290 16:46 10.07.2019
5355 Clear 44 994 11 10000 9.8 290 16:21 10.07.2019
5356 Haze 45 994 13 10000 4.6 350 15:47 10.07.2019
5357 Haze 45 994 13 10000 4.6 350 15:25 10.07.2019
5358 Haze 45 994 12 10000 3.6 340 14:48 10.07.2019
5359 Haze 45 994 12 10000 3.6 340 14:29 10.07.2019
5360 Haze 45 994 13 10000 4.6 330 13:59 10.07.2019
5361 Haze 45 994 13 10000 4.6 330 13:36 10.07.2019
5362 Haze 44 995 13 10000 6.2 290 13:18 10.07.2019
5363 Haze 44 995 13 10000 6.2 290 12:41 10.07.2019
5364 Haze 44 995 13 10000 6.2 290 12:21 10.07.2019
5365 Haze 42 996 18 10000 5.7 280 11:49 10.07.2019
5366 Haze 42 996 18 10000 5.7 280 11:22 10.07.2019
5367 Haze 40 996 21 10000 5.7 310 10:58 10.07.2019
5368 Haze 40 996 21 10000 5.7 310 10:24 10.07.2019
5369 Clear 39 997 24 10000 6.2 290 09:56 10.07.2019
5370 Clear 39 997 24 10000 6.2 290 09:37 10.07.2019
5371 Clear 35 997 28 10000 5.1 300 09:19 10.07.2019
5372 Clear 35 997 28 10000 5.1 300 08:48 10.07.2019
5373 Clear 35 997 28 10000 5.1 300 08:23 10.07.2019
5374 Clear 33 997 27 10000 6.2 270 07:46 10.07.2019
5375 Clear 33 997 27 10000 6.2 270 07:23 10.07.2019
5376 Clear 30 997 27 10000 5.1 280 06:39 10.07.2019
5377 Clear 28 996 24 10000 3.6 270 05:40 10.07.2019
5378 Clear 29 996 25 10000 5.1 270 04:31 10.07.2019
5379 Clear 33 996 29 10000 6.2 290 02:18 10.07.2019
5380 Clear 34 996 26 10000 6.7 280 00:44 10.07.2019
5381 Clear 35 997 24 10000 4.6 300 23:42 09.07.2019
5382 Clear 35 997 24 10000 4.6 300 23:23 09.07.2019
5383 Clear 33 997 27 10000 3.6 290 22:57 09.07.2019
5384 Clear 33 997 27 10000 3.6 290 22:37 09.07.2019
5385 Clear 34 997 28 10000 2.6 260 22:19 09.07.2019
5386 Clear 34 997 28 10000 2.6 260 21:46 09.07.2019
5387 Clear 34 997 28 10000 2.6 260 21:26 09.07.2019
5388 Clear 35 997 25 10000 2.1 230 20:45 09.07.2019
5389 Clear 35 997 25 10000 2.1 230 20:26 09.07.2019
5390 Clear 37 996 22 10000 6.89 295.728 19:56 09.07.2019
5391 Clear 37 996 22 10000 6.89 295.728 19:36 09.07.2019
5392 Clear 38 996 27 8000 2.1 200 19:18 09.07.2019
5393 Smoke 39 996 22 10000 1 330 18:38 09.07.2019
5394 Haze 42 995 19 10000 4.1 340 18:19 09.07.2019
5395 Haze 42 995 19 10000 4.1 340 17:43 09.07.2019
5396 Haze 42 995 19 10000 4.1 340 17:21 09.07.2019
5397 Haze 42 995 16 10000 6.7 320 16:55 09.07.2019
5398 Haze 42 995 16 10000 6.7 320 16:36 09.07.2019
5399 Haze 42 996 17 10000 6.2 290 16:18 09.07.2019
5400 Haze 42 996 17 10000 6.2 290 15:40 09.07.2019
5401 Haze 42 996 17 10000 6.2 290 15:22 09.07.2019
5402 Clear 42 997 22 10000 4.6 290 14:43 09.07.2019
5403 Haze 41 997 19 10000 8.2 250 14:22 09.07.2019
5404 Haze 41 997 19 10000 8.2 250 13:47 09.07.2019
5405 Haze 41 997 19 10000 8.2 250 13:28 09.07.2019
5406 Clear 40 998 23 10000 5.1 270 12:59 09.07.2019
5407 Clear 40 998 23 10000 5.1 270 12:38 09.07.2019
5408 Clear 39 999 24 10000 6.7 290 12:18 09.07.2019
5409 Clear 39 999 24 10000 6.7 290 11:41 09.07.2019
5410 Clear 39 999 24 10000 6.7 290 11:22 09.07.2019
5411 Clear 38 999 30 10000 7.2 280 10:58 09.07.2019
5412 Clear 38 999 30 10000 7.2 280 10:35 09.07.2019
5413 Haze 36 1000 32 10000 6.2 280 09:59 09.07.2019
5414 Haze 36 1000 32 10000 6.2 280 09:38 09.07.2019
5415 Haze 36 1000 32 10000 6.2 280 09:19 09.07.2019
5416 Haze 35 1000 36 10000 6.2 280 08:44 09.07.2019
5417 Clear 26 1001 34 10000 3.1 290 04:19 05.07.2019
5418 Clear 26 1001 34 10000 3.1 290 03:39 05.07.2019
5419 Clear 26 1001 34 10000 3.1 290 03:21 05.07.2019
5420 Clear 29 1001 30 10000 3.6 240 02:52 05.07.2019
5421 Clear 30 1001 27 10000 2.1 260 01:56 05.07.2019
5422 Clear 30 1001 27 10000 2.1 260 01:28 05.07.2019
5423 Clear 29 1001 26 10000 1.5 290 00:51 05.07.2019
5424 Clear 29 1001 26 10000 1.5 290 00:31 05.07.2019
5425 Clear 31 1002 23 10000 1 0 23:40 04.07.2019
5426 Clear 31 1002 22 10000 2.1 300 23:19 04.07.2019
5427 Clear 31 1002 22 10000 2.1 300 22:42 04.07.2019
5428 Clear 32 1002 22 10000 2.1 300 22:23 04.07.2019
5429 Clear 32 1002 20 10000 3.1 310 21:45 04.07.2019
5430 Clear 32 1002 20 10000 3.1 310 21:26 04.07.2019
5431 Clear 33 1002 19 10000 3.6 310 20:59 04.07.2019
5432 Clear 33 1002 19 10000 3.6 310 20:38 04.07.2019
5433 Clear 35 1002 18 10000 4.6 310 20:19 04.07.2019
5434 Clear 35 1002 18 10000 4.6 310 19:42 04.07.2019
5435 Clear 35 1002 18 10000 4.6 310 19:22 04.07.2019
5436 Clear 35 1002 19 10000 4.1 320 18:56 04.07.2019
5437 Clear 38 1002 16 10000 3.1 320 18:36 04.07.2019
5438 Smoke 41 1002 14 10000 5.1 320 18:18 04.07.2019
5439 Smoke 41 1002 14 10000 5.1 320 17:42 04.07.2019
5440 Clear 42 1002 12 10000 6.2 300 17:18 04.07.2019
5441 Clear 43 1002 11 10000 6.2 290 15:57 04.07.2019
5442 Clear 43 1002 11 10000 6.2 290 15:39 04.07.2019
5443 Smoke 43 1003 12 10000 7.2 270 15:18 04.07.2019
5444 Smoke 43 1003 12 10000 7.2 270 14:41 04.07.2019
5445 Smoke 43 1003 12 10000 7.2 270 14:22 04.07.2019
5446 Clear 43 1003 10 10000 7.7 260 13:58 04.07.2019
5447 Clear 43 1003 10 10000 7.7 260 13:39 04.07.2019
5448 Clear 43 1003 12 10000 8.2 280 13:21 04.07.2019
5449 Clear 43 1003 12 10000 8.2 280 12:40 04.07.2019
5450 Clear 43 1003 12 10000 8.2 280 12:21 04.07.2019
5451 Clear 42 1004 12 10000 7.2 320 11:57 04.07.2019
5452 Clear 42 1004 12 10000 7.2 320 11:37 04.07.2019
5453 Clear 42 1004 14 10000 6.7 310 11:19 04.07.2019
5454 Clear 42 1004 14 10000 6.7 310 10:40 04.07.2019
5455 Clear 41 1004 15 10000 6.7 310 10:19 04.07.2019
5456 Clear 41 1004 15 10000 6.7 310 09:41 04.07.2019
5457 Clear 41 1004 15 10000 6.7 310 09:21 04.07.2019
5458 Clear 37 1004 19 10000 6.7 320 08:56 04.07.2019
5459 Clear 37 1004 19 10000 6.7 320 08:22 04.07.2019
5460 Clear 33 1004 23 10000 5.7 300 07:43 04.07.2019
5461 Clear 33 1004 23 10000 5.7 300 07:22 04.07.2019
5462 Clear 30 1003 23 10000 5.1 310 06:39 04.07.2019
5463 Clear 29 1003 25 10000 4.6 310 05:51 04.07.2019
5464 Clear 27 1003 21 10000 4.1 330 05:32 04.07.2019
5465 Clear 27 1002 28 10000 3.6 310 02:42 04.07.2019
5466 Clear 30 1002 22 10000 3.6 270 01:41 04.07.2019
5467 Clear 30 1002 22 10000 3.6 270 01:21 04.07.2019
5468 Clear 31 1002 23 10000 2.1 330 23:56 03.07.2019
5469 Clear 31 1002 23 10000 2.1 330 23:37 03.07.2019
5470 Clear 33 1002 18 10000 2.1 300 23:18 03.07.2019
5471 Clear 33 1002 18 10000 2.1 300 22:42 03.07.2019
5472 Clear 33 1002 18 10000 2.1 300 22:24 03.07.2019
5473 Clear 33 1002 19 10000 2.1 300 21:59 03.07.2019
5474 Clear 33 1002 19 10000 2.1 300 21:39 03.07.2019
5475 Clear 33 1002 19 10000 2.1 300 21:20 03.07.2019
5476 Clear 34 1002 21 10000 2.1 310 20:43 03.07.2019
5477 Clear 34 1002 21 10000 2.1 310 20:23 03.07.2019
5478 Clear 36 1002 20 10000 2.6 290 19:50 03.07.2019
5479 Clear 36 1002 21 10000 2.1 310 19:50 03.07.2019
5480 Clear 36 1002 20 10000 2.6 290 19:32 03.07.2019
5481 Clear 39 1001 16 10000 3.6 320 18:48 03.07.2019
5482 Clear 39 1001 16 10000 3.6 320 18:29 03.07.2019
5483 Clear 42 1001 14 10000 3.6 320 17:57 03.07.2019
5484 Clear 43 1001 13 10000 4.6 320 17:37 03.07.2019
5485 Clear 44 1001 11 10000 4.1 290 17:18 03.07.2019
5486 Clear 44 1001 11 10000 4.1 290 16:43 03.07.2019
5487 Clear 44 1001 11 10000 4.1 290 16:21 03.07.2019
5488 Clear 45 1001 11 10000 5.1 250 15:49 03.07.2019
5489 Clear 45 1001 11 10000 5.1 250 15:31 03.07.2019
5490 Clear 44 1002 11 10000 4.6 300 14:56 03.07.2019
5491 Clear 44 1002 11 10000 4.6 300 14:37 03.07.2019
5492 Clear 44 1002 11 10000 6.2 290 14:18 03.07.2019
5493 Clear 44 1002 11 10000 5.7 280 13:35 03.07.2019
5494 Haze 44 1001 11 9000 5.1 270 12:55 03.07.2019
5495 Haze 42 1001 11 9000 5.1 270 12:22 03.07.2019
5496 Haze 42 1002 19 10000 4.6 280 11:59 03.07.2019
5497 Haze 42 1002 19 10000 4.6 280 11:40 03.07.2019
5498 Haze 42 1002 19 10000 4.6 280 11:21 03.07.2019
5499 Clear 41 1002 21 10000 5.7 270 10:42 03.07.2019
5500 Clear 41 1002 21 10000 5.7 270 10:23 03.07.2019
5501 Clear 40 1002 26 10000 4.6 260 09:43 03.07.2019
5502 Clear 38 1002 17 10000 4.1 320 09:22 03.07.2019
5503 Clear 38 1002 17 10000 4.1 320 08:57 03.07.2019
5504 Clear 38 1002 17 10000 4.1 320 08:38 03.07.2019
5505 Clear 38 1002 17 10000 4.6 310 08:18 03.07.2019
5506 Clear 35 1002 20 10000 5.1 310 07:37 03.07.2019
5507 Clear 31 1001 22 10000 4.6 300 06:55 03.07.2019
5508 Clear 28 1001 24 10000 3.1 300 05:57 03.07.2019
5509 -273 0 0 0 0 0 05:27 03.07.2019
5510 Clear 29 1000 21 10000 3.6 320 03:58 03.07.2019
5511 Clear 30 1000 17 10000 4.6 330 02:55 03.07.2019
5512 Clear 32 1000 22 10000 5.1 320 01:39 03.07.2019
5513 Clear 32 1000 22 10000 5.1 320 01:21 03.07.2019
5514 Clear 32 1001 27 10000 5.7 310 00:40 03.07.2019
5515 Clear 33 1001 26 10000 6.2 290 23:55 02.07.2019
5516 Clear 33 1001 26 10000 6.2 290 23:37 02.07.2019
5517 Clear 33 1001 26 10000 6.2 290 23:18 02.07.2019
5518 Clear 34 1001 23 10000 5.7 270 22:41 02.07.2019
5519 Clear 32 1001 23 10000 5.7 270 22:23 02.07.2019
5520 Clear 33 1001 23 10000 5.7 270 21:58 02.07.2019
5521 Clear 33 1001 15 10000 4.6 270 21:39 02.07.2019
5522 Clear 33 1001 15 10000 4.6 270 21:20 02.07.2019
5523 Clear 35 1001 13 10000 5.7 280 20:57 02.07.2019
5524 Clear 35 1001 13 10000 5.7 280 20:38 02.07.2019
5525 Clear 35 1001 13 10000 5.7 280 20:19 02.07.2019
5526 Smoke 36 1000 11 10000 6.2 280 19:41 02.07.2019
5527 Smoke 36 1000 11 10000 6.2 280 19:22 02.07.2019
5528 Smoke 39 1000 12 10000 6.2 290 18:46 02.07.2019
5529 Smoke 39 1000 12 10000 6.2 290 18:18 02.07.2019
5530 Clear 42 999 11 10000 9.3 290 17:41 02.07.2019
5531 Clear 43 999 9 9000 7.2 280 17:22 02.07.2019
5532 Haze 43 999 11 10000 10.8 290 16:49 02.07.2019
5533 Haze 43 999 11 10000 10.8 290 16:31 02.07.2019
5534 Haze 44 999 8 10000 9.8 300 15:46 02.07.2019
5535 Haze 44 999 8 10000 9.8 300 15:26 02.07.2019
5536 Clear 44 1000 10 10000 8.7 280 14:56 02.07.2019
5537 Clear 44 1000 10 10000 8.7 280 14:38 02.07.2019
5538 Haze 42 1000 10 10000 8.2 300 13:58 02.07.2019
5539 Haze 42 1000 10 10000 8.2 300 13:36 02.07.2019
5540 Haze 42 1000 10 10000 8.2 300 13:18 02.07.2019
5541 Haze 42 1001 10 10000 8.2 280 12:43 02.07.2019
5542 Haze 42 1001 10 10000 8.2 280 12:22 02.07.2019
5543 Haze 41 1001 9 10000 7.7 310 11:43 02.07.2019
5544 Haze 41 1001 9 10000 7.7 310 11:43 02.07.2019
5545 Haze 41 1001 9 10000 7.7 310 11:23 02.07.2019
5546 Haze 40 1002 10 10000 7.2 300 10:51 02.07.2019
5547 Haze 40 1002 10 10000 7.2 300 10:26 02.07.2019
5548 Clear 37 1002 13 10000 6.7 320 09:49 02.07.2019
5549 Clear 36 1002 16 10000 4.1 320 09:22 02.07.2019
5550 Clear 36 1002 16 10000 4.1 320 08:55 02.07.2019
5551 Clear 34 1002 16 10000 6.2 310 08:35 02.07.2019
5552 Clear 34 1002 16 10000 6.2 310 07:57 02.07.2019
5553 Clear 32 1002 18 10000 7.2 310 07:21 02.07.2019
5554 Clear 28 1002 20 10000 6.2 300 06:54 02.07.2019
5555 Clear 28 1002 20 10000 6.2 300 06:35 02.07.2019
5556 Clear 23 1002 27 10000 4.1 320 04:59 02.07.2019
5557 Clear 28 1001 24 10000 4.1 320 02:30 02.07.2019
5558 Clear 29 1002 30 10000 4.6 310 00:24 02.07.2019
5559 Clear 30 1003 33 10000 5.1 310 23:26 01.07.2019
5560 Clear 31 1003 31 10000 4.6 310 22:52 01.07.2019
5561 Clear 31 1003 31 10000 4.6 310 22:28 01.07.2019
5562 Clear 32 1003 26 10000 5.7 300 21:55 01.07.2019
5563 Clear 32 1003 26 10000 5.7 300 21:36 01.07.2019
5564 Clear 32 1003 21 10000 4.6 290 21:18 01.07.2019
5565 Clear 32 1003 21 10000 4.6 290 20:42 01.07.2019
5566 Clear 34 1003 25 9000 4.1 300 20:20 01.07.2019
5567 Clear 35 1002 18 10000 5.7 280 19:43 01.07.2019
5568 Clear 35 1002 18 10000 5.7 280 19:24 01.07.2019
5569 Clear 35 1002 18 10000 5.7 280 18:56 01.07.2019
5570 Clear 38 1002 17 10000 6.2 280 18:37 01.07.2019
5571 Clear 40 1001 14 10000 8.7 290 18:19 01.07.2019
5572 Clear 40 1001 14 10000 8.7 290 17:42 01.07.2019
5573 Clear 40 1001 14 10000 8.7 290 17:23 01.07.2019
5574 Clear 42 1001 14 10000 10.3 290 16:48 01.07.2019
5575 Clear 42 1001 14 10000 10.3 290 16:27 01.07.2019
5576 Clear 42 1001 14 10000 9.8 290 15:56 01.07.2019
5577 Clear 42 1001 14 10000 9.8 290 15:38 01.07.2019
5578 Clear 42 1001 14 10000 9.8 290 15:20 01.07.2019
5579 Clear 42 1001 14 10000 8.7 300 14:43 01.07.2019
5580 Clear 42 1001 14 10000 8.7 300 14:20 01.07.2019
5581 Clear 42 1001 16 10000 7.2 310 13:44 01.07.2019
5582 Clear 42 1001 16 10000 7.2 310 13:23 01.07.2019
5583 Haze 42 1002 13 10000 6.2 290 12:55 01.07.2019
5584 Haze 42 1002 13 10000 6.2 290 12:36 01.07.2019
5585 Haze 42 1002 13 10000 6.2 290 12:18 01.07.2019
5586 Clear 40 1002 13 10000 5.7 330 11:43 01.07.2019
5587 Haze 40 1002 13 10000 5.7 330 11:20 01.07.2019
5588 Haze 40 1002 14 10000 6.2 300 10:47 01.07.2019
5589 Haze 40 1002 14 10000 6.2 300 10:23 01.07.2019
5590 Haze 37 1002 14 10000 5.1 310 09:58 01.07.2019
5591 Haze 37 1002 14 10000 5.1 310 09:39 01.07.2019
5592 Haze 37 1002 14 10000 5.1 310 09:20 01.07.2019
5593 Haze 35 1002 18 10000 4.1 310 08:37 01.07.2019
5594 Haze 33 1002 19 10000 3.1 310 07:40 01.07.2019
5595 Haze 33 1002 19 10000 3.1 310 07:20 01.07.2019
5596 Haze 31 1002 23 10000 3.6 310 06:20 01.07.2019
5597 Clear 32 1000 24 10000 5.7 330 01:42 01.07.2019
5598 Clear 32 1000 22 10000 5.7 330 00:47 01.07.2019
5599 Clear 32 1000 22 10000 5.7 330 00:28 01.07.2019
5600 Clear 33 1000 24 10000 5.7 330 23:52 30.06.2019
5601 Clear 33 1000 24 10000 5.7 330 23:21 30.06.2019
5602 Clear 33 1000 24 10000 4.6 320 22:44 30.06.2019
5603 Clear 33 1000 24 10000 4.6 320 22:20 30.06.2019
5604 Clear 33 1000 24 10000 4.6 320 22:20 30.06.2019
5605 Clear 33 1000 24 10000 4.6 320 22:20 30.06.2019
5606 Clear 33 1000 23 10000 4.6 320 21:42 30.06.2019
5607 Clear 33 1000 23 10000 4.6 320 21:20 30.06.2019
5608 Clear 34 1000 20 10000 4.6 310 20:56 30.06.2019
5609 Clear 34 1000 20 10000 4.6 310 20:38 30.06.2019
5610 Clear 34 1000 20 10000 4.6 310 20:19 30.06.2019
5611 Smoke 36 999 18 10000 4.1 300 19:44 30.06.2019
5612 Smoke 36 999 18 10000 4.1 300 19:24 30.06.2019
5613 Clear 39 999 15 10000 6.2 300 18:27 30.06.2019
5614 Clear 42 999 14 10000 8.2 310 17:59 30.06.2019
5615 Clear 42 999 14 10000 8.2 310 17:39 30.06.2019
5616 Clear 42 999 14 10000 8.2 310 17:18 30.06.2019
5617 Clear 43 998 15 10000 8.2 310 16:49 30.06.2019
5618 Clear 43 998 15 10000 8.2 310 16:27 30.06.2019
5619 Clear 43 998 15 10000 8.2 310 16:27 30.06.2019
5620 Clear 43 999 15 10000 8.7 300 15:38 30.06.2019
5621 Clear 43 999 15 10000 8.7 300 15:19 30.06.2019
5622 Clear 43 999 17 10000 6.7 280 14:55 30.06.2019
5623 Clear 43 999 17 10000 6.7 280 14:36 30.06.2019
5624 Clear 43 999 17 10000 6.7 280 13:57 30.06.2019
5625 Clear 43 999 17 10000 7.2 300 13:37 30.06.2019
5626 Clear 43 999 17 10000 7.2 300 13:18 30.06.2019
5627 Haze 42 999 16 10000 5.7 300 12:42 30.06.2019
5628 Haze 42 999 16 10000 5.7 300 12:20 30.06.2019
5629 Haze 42 1000 18 10000 6.7 310 11:45 30.06.2019
5630 Haze 42 1000 18 10000 6.7 310 11:21 30.06.2019
5631 Haze 41 1000 20 10000 6.2 320 10:55 30.06.2019
5632 Haze 41 1000 20 10000 6.2 320 10:36 30.06.2019
5633 Haze 41 1000 20 10000 6.2 320 10:18 30.06.2019
5634 Haze 40 1000 26 10000 6.2 330 09:43 30.06.2019
5635 Haze 40 1000 26 10000 6.2 330 09:21 30.06.2019
5636 Haze 38 1000 25 10000 4.6 330 08:40 30.06.2019
5637 Haze 38 1000 25 10000 4.6 330 08:22 30.06.2019
5638 Haze 33 1000 30 10000 5.7 340 07:52 30.06.2019
5639 Haze 33 1000 30 10000 5.7 340 07:26 30.06.2019
5640 Haze 32 999 33 10000 3.1 320 06:39 30.06.2019
5641 Clear 28 998 30 10000 3.1 320 04:48 30.06.2019
5642 Clear 31 997 29 10000 5.1 310 02:27 30.06.2019
5643 Clear 32 997 25 10000 5.1 310 01:24 30.06.2019
5644 Clear 32 997 27 10000 4.6 310 00:26 30.06.2019
5645 Clear 32 997 29 10000 5.1 310 23:53 29.06.2019
5646 Clear 32 997 29 10000 5.1 310 23:24 29.06.2019
5647 Clear 32 997 27 10000 4.6 320 22:55 29.06.2019
5648 Clear 34 997 27 10000 4.6 320 22:25 29.06.2019
5649 Clear 34 997 26 10000 2.1 330 21:57 29.06.2019
5650 Clear 34 997 26 10000 2.1 330 21:57 29.06.2019
5651 Clear 34 997 26 10000 2.1 330 21:39 29.06.2019
5652 Clear 34 997 26 10000 2.1 330 21:20 29.06.2019
5653 Clear 37 997 25 10000 3.1 340 20:40 29.06.2019
5654 Clear 37 997 25 10000 3.1 340 20:21 29.06.2019
5655 Clear 37 996 22 10000 3.1 320 19:43 29.06.2019
5656 Clear 37 996 22 10000 3.1 320 19:23 29.06.2019
5657 Clear 40 996 17 10000 3.1 320 18:49 29.06.2019
5658 Clear 42 996 17 10000 3.1 320 18:25 29.06.2019
5659 Clear 43 996 15 10000 4.1 300 17:42 29.06.2019
5660 Clear 43 996 15 10000 4.1 300 17:22 29.06.2019
5661 Clear 45 996 15 10000 4.1 260 16:54 29.06.2019
5662 Clear 45 996 15 10000 4.1 260 16:29 29.06.2019
5663 Clear 45 996 14 10000 2.6 270 15:42 29.06.2019
5664 Clear 45 996 14 10000 2.6 270 15:23 29.06.2019
5665 Clear 44 996 14 10000 4.6 260 14:43 29.06.2019
5666 Clear 44 996 14 10000 4.6 260 14:25 29.06.2019
5667 Clear 45 996 16 10000 5.1 270 13:46 29.06.2019
5668 Clear 45 996 17 10000 4.6 340 13:26 29.06.2019
5669 Clear 44 997 16 10000 3.6 290 12:49 29.06.2019
5670 Clear 44 997 16 10000 3.6 290 12:31 29.06.2019
5671 Clear 43 997 18 10000 4.6 310 11:53 29.06.2019
5672 Clear 43 997 18 10000 4.6 310 11:31 29.06.2019
5673 Haze 42 998 20 10000 6.2 310 10:56 29.06.2019
5674 Haze 42 998 20 10000 6.2 310 10:36 29.06.2019
5675 Haze 42 998 20 10000 6.2 310 10:36 29.06.2019
5676 Haze 41 998 18 10000 6.2 310 09:59 29.06.2019
5677 Haze 41 998 21 10000 6.7 310 09:38 29.06.2019
5678 Haze 38 998 24 10000 7.2 320 08:42 29.06.2019
5679 Haze 37 998 24 10000 6.7 310 07:46 29.06.2019
5680 Haze 36 998 23 10000 6.2 300 07:21 29.06.2019
5681 Haze 33 997 29 10000 5.1 300 06:44 29.06.2019
5682 Haze 33 997 29 10000 5.1 300 06:21 29.06.2019
5683 Clear 30 996 35 10000 2.1 310 02:51 29.06.2019
5684 Clear 32 995 27 10000 1 0 00:58 29.06.2019
5685 Clear 32 995 27 10000 1 0 00:24 29.06.2019
5686 Clear 33 996 26 10000 1.5 290 23:27 28.06.2019
5687 Clear 35 996 21 10000 3.1 290 22:57 28.06.2019
5688 Clear 35 996 21 10000 3.1 290 22:37 28.06.2019
5689 Clear 34 996 23 10000 2.1 300 21:52 28.06.2019
5690 Clear 34 996 23 10000 2.1 300 21:25 28.06.2019
5691 Clear 37 995 23 10000 2.6 320 20:49 28.06.2019
5692 Clear 37 995 23 10000 2.6 320 20:28 28.06.2019
5693 Smoke 39 995 21 10000 2.6 300 19:54 28.06.2019
5694 Smoke 39 995 21 10000 2.6 300 19:30 28.06.2019
5695 Clear 42 994 16 10000 2.6 270 18:59 28.06.2019
5696 Clear 42 994 16 10000 2.6 270 18:38 28.06.2019
5697 Clear 42 994 16 10000 2.6 270 18:20 28.06.2019
5698 Clear 45 994 13 10000 5.1 290 17:33 28.06.2019
5699 Clear 47 994 10 10000 5.7 290 16:54 28.06.2019
5700 Clear 47 994 10 10000 5.7 290 16:29 28.06.2019
5701 Clear 48 994 14 10000 6.7 270 15:49 28.06.2019
5702 Clear 48 994 14 10000 6.7 270 15:26 28.06.2019
5703 Haze 47 994 13 10000 6.7 260 14:57 28.06.2019
5704 Haze 47 994 13 10000 6.7 260 14:38 28.06.2019
5705 Haze 47 994 13 10000 6.7 260 14:20 28.06.2019
5706 Haze 47 995 16 10000 6.7 270 13:44 28.06.2019
5707 Haze 47 995 16 10000 6.7 270 13:22 28.06.2019
5708 Haze 45 995 21 10000 6.2 270 12:49 28.06.2019
5709 Haze 45 995 21 10000 6.2 270 12:25 28.06.2019
5710 Haze 44 995 22 10000 6.2 270 11:28 28.06.2019
5711 Haze 43 996 13 5000 2.1 0 10:47 28.06.2019
5712 Haze 41 996 13 5000 2.1 0 10:23 28.06.2019
5713 Haze 40 996 26 10000 6.7 290 09:59 28.06.2019
5714 Haze 40 996 26 10000 6.7 290 09:41 28.06.2019
5715 Haze 40 996 26 10000 6.7 290 09:22 28.06.2019
5716 Haze 37 996 29 10000 6.7 290 08:41 28.06.2019
5717 Haze 37 996 29 10000 6.7 290 08:23 28.06.2019
5718 Haze 35 996 34 10000 6.7 290 07:41 28.06.2019
5719 Haze 32 996 36 10000 4.1 260 06:49 28.06.2019
5720 Smoke 30 995 35 10000 2.6 200 03:35 28.06.2019
5721 Clear 33 995 21 10000 3.1 230 00:46 28.06.2019
5722 Clear 36 996 18 10000 2.1 160 23:59 27.06.2019
5723 Clear 36 996 18 10000 2.1 160 23:41 27.06.2019
5724 Clear 36 996 18 10000 2.1 160 23:22 27.06.2019
5725 Clear 33 996 26 10000 3.6 150 22:43 27.06.2019
5726 Smoke 36 996 26 10000 3.6 150 22:24 27.06.2019
5727 Smoke 38 996 17 10000 2.1 200 21:57 27.06.2019
5728 Smoke 38 996 17 10000 2.1 200 21:38 27.06.2019
5729 Smoke 38 996 17 10000 2.1 200 21:19 27.06.2019
5730 Clear 36 996 19 10000 2.6 180 20:45 27.06.2019
5731 Clear 36 996 19 10000 2.6 180 20:26 27.06.2019
5732 Smoke 39 996 14 10000 3.61 317.696 19:47 27.06.2019
5733 Smoke 39 996 14 10000 3.61 317.696 19:27 27.06.2019
5734 Haze 43 996 13 10000 1 360 18:51 27.06.2019
5735 Haze 43 996 13 10000 1 360 18:30 27.06.2019
5736 Clear 46 996 8 10000 3.1 360 17:47 27.06.2019
5737 Clear 46 996 8 10000 3.1 360 17:24 27.06.2019
5738 Clear 48 996 6 10000 3.6 300 16:55 27.06.2019
5739 Clear 48 996 6 10000 3.6 300 16:37 27.06.2019
5740 Clear 48 996 6 10000 3.6 300 16:18 27.06.2019
5741 Clear 48 997 7 10000 3.6 220 15:45 27.06.2019
5742 Clear 48 997 7 10000 3.6 220 15:21 27.06.2019
5743 Haze 49 997 7 10000 3.6 240 14:46 27.06.2019
5744 Haze 49 997 7 10000 3.6 240 14:28 27.06.2019
5745 Haze 49 998 7 10000 4.6 270 13:49 27.06.2019
5746 Haze 49 998 7 10000 4.6 270 13:30 27.06.2019
5747 Haze 48 999 9 10000 3.6 260 12:53 27.06.2019
5748 Haze 48 999 9 10000 3.6 260 12:35 27.06.2019
5749 Haze 48 999 11 10000 3.1 300 11:57 27.06.2019
5750 Haze 48 999 11 10000 3.1 300 11:39 27.06.2019
5751 Haze 48 999 11 10000 3.1 300 11:20 27.06.2019
5752 Haze 46 1000 17 10000 3.1 270 10:45 27.06.2019
5753 Haze 46 1000 17 10000 3.1 270 10:22 27.06.2019
5754 Haze 43 1000 11 4000 3.6 290 09:54 27.06.2019
5755 Haze 43 1000 20 6000 3.6 270 09:22 27.06.2019
5756 Haze 41 1001 20 7000 3.6 300 08:52 27.06.2019
5757 Haze 41 1001 20 7000 3.6 300 08:31 27.06.2019
5758 Haze 37 1001 20 10000 3.6 300 07:57 27.06.2019
5759 Haze 37 1001 20 10000 3.6 300 07:30 27.06.2019
5760 Haze 33 1001 27 10000 3.6 270 06:53 27.06.2019
5761 Haze 33 1001 27 10000 3.6 270 06:24 27.06.2019
5762 Clear 30 1000 27 10000 2.6 280 02:45 27.06.2019
5763 Clear 32 999 24 10000 2.1 360 01:50 27.06.2019
5764 Clear 32 1000 22 10000 2.1 320 00:58 27.06.2019
5765 Clear 32 1000 22 10000 2.1 320 00:39 27.06.2019
5766 Clear 32 1000 22 10000 2.1 320 00:18 27.06.2019
5767 Clear 34 1001 18 10000 3.6 320 23:40 26.06.2019
5768 Clear 34 1001 18 10000 3.6 320 23:20 26.06.2019
5769 Clear 34 1001 17 10000 4.6 320 22:43 26.06.2019
5770 Clear 34 1001 17 10000 4.6 320 22:25 26.06.2019
5771 Clear 35 1001 16 10000 4.1 330 21:56 26.06.2019
5772 Clear 35 1001 16 10000 4.1 330 21:37 26.06.2019
5773 Clear 35 1001 16 10000 4.1 330 21:19 26.06.2019
5774 Clear 37 1002 14 10000 4.1 280 20:44 26.06.2019
5775 Clear 38 1002 14 10000 4.1 280 20:26 26.06.2019
5776 Smoke 38 1001 14 10000 4.1 270 19:49 26.06.2019
5777 Smoke 38 1001 14 10000 4.1 270 19:31 26.06.2019
5778 Haze 43 1001 12 10000 5.1 270 18:55 26.06.2019
5779 Haze 43 1001 12 10000 5.1 270 18:55 26.06.2019
5780 Haze 43 1001 12 10000 5.1 270 18:37 26.06.2019
5781 Haze 43 1001 12 10000 5.1 270 18:18 26.06.2019
5782 Clear 46 1001 9 10000 6.7 280 17:41 26.06.2019
5783 Clear 46 1001 9 10000 6.7 280 17:23 26.06.2019
5784 Clear 48 1001 9 10000 7.7 280 16:50 26.06.2019
5785 Clear 48 1001 9 10000 7.7 280 16:28 26.06.2019
5786 Clear 48 1002 9 10000 9.3 280 15:49 26.06.2019
5787 Clear 48 1002 9 10000 9.3 280 15:27 26.06.2019
5788 Clear 49 1002 9 10000 8.2 280 14:42 26.06.2019
5789 Clear 49 1002 9 10000 8.2 280 14:21 26.06.2019
5790 Clear 48 1003 10 10000 8.7 290 13:45 26.06.2019
5791 Clear 48 1003 10 10000 8.7 290 13:21 26.06.2019
5792 Haze 47 1003 10 10000 7.2 310 12:45 26.06.2019
5793 Haze 47 1003 10 10000 7.2 310 12:27 26.06.2019
5794 Haze 46 1004 10 10000 5.1 320 11:55 26.06.2019
5795 Haze 46 1004 10 10000 5.1 320 11:24 26.06.2019
5796 Haze 45 1004 10 10000 5.1 330 10:49 26.06.2019
5797 Haze 45 1004 13 10000 5.1 310 10:31 26.06.2019
5798 Haze 45 1004 13 10000 5.1 310 10:31 26.06.2019
5799 Haze 43 1005 16 10000 3.1 310 09:51 26.06.2019
5800 Haze 43 1005 16 10000 3.1 310 09:29 26.06.2019
5801 Haze 41 1005 20 10000 2.6 280 08:52 26.06.2019
5802 Haze 41 1005 20 10000 2.6 280 08:22 26.06.2019
5803 Haze 37 1005 17 10000 2.6 290 07:57 26.06.2019
5804 Haze 36 1005 22 10000 4.1 300 07:37 26.06.2019
5805 Smoke 33 1004 26 10000 3.1 290 06:33 26.06.2019
5806 Clear 30 1003 23 10000 3.6 300 01:59 26.06.2019
5807 Clear 32 1003 21 10000 2.6 340 00:35 26.06.2019
5808 Clear 30 1003 25 8000 3.1 340 23:52 25.06.2019
5809 Clear 30 1003 25 8000 3.1 340 23:32 25.06.2019
5810 Smoke 32 1003 21 7000 2.6 330 22:59 25.06.2019
5811 Smoke 33 1004 19 10000 2.6 300 22:41 25.06.2019
5812 Smoke 36 1004 19 10000 2.6 300 22:22 25.06.2019
5813 Clear 37 1004 16 10000 2.6 300 21:46 25.06.2019
5814 Clear 37 1004 16 10000 2.6 300 21:25 25.06.2019
5815 Smoke 35 1004 18 10000 2.6 330 20:49 25.06.2019
5816 Smoke 35 1004 18 10000 2.6 330 20:49 25.06.2019
5817 Smoke 35 1004 18 10000 2.6 330 20:49 25.06.2019
5818 Smoke 35 1004 18 10000 2.6 330 20:24 25.06.2019
5819 Smoke 35 1004 18 10000 2.6 330 20:24 25.06.2019
5820 Smoke 37 1003 16 10000 3.6 310 19:56 25.06.2019
5821 Smoke 37 1003 16 10000 3.6 310 19:56 25.06.2019
5822 Smoke 37 1003 16 10000 3.6 310 19:56 25.06.2019
5823 Smoke 37 1003 16 10000 3.6 310 19:56 25.06.2019
5824 Smoke 37 1003 16 10000 3.6 310 19:56 25.06.2019
5825 Smoke 37 1003 16 10000 3.6 310 19:37 25.06.2019
5826 Smoke 37 1003 16 10000 3.6 310 19:19 25.06.2019
5827 Clear 42 1003 12 10000 4.1 300 18:42 25.06.2019
5828 Clear 42 1003 12 10000 4.1 300 18:23 25.06.2019
5829 -273 0 0 0 0 0 17:45 25.06.2019
5830 -273 0 0 0 0 0 17:25 25.06.2019
5831 -273 0 0 0 0 0 17:24 25.06.2019
5832 -273 0 0 0 0 0 17:24 25.06.2019
5833 Clear 46 1003 8 10000 9.3 310 16:44 25.06.2019
5834 Clear 46 1003 8 10000 9.3 310 16:25 25.06.2019
5835 Clear 47 1003 10 10000 9.8 300 15:54 25.06.2019
5836 Clear 47 1003 10 10000 9.8 300 15:36 25.06.2019
5837 Clear 47 1003 10 10000 9.8 300 15:18 25.06.2019
5838 Clear 47 1003 10 10000 9.8 300 15:18 25.06.2019
5839 Clear 47 1004 10 10000 7.7 310 14:42 25.06.2019
5840 Clear 47 1004 10 10000 7.7 310 14:23 25.06.2019
5841 Clear 47 1004 10 10000 8.2 270 13:42 25.06.2019
5842 Clear 47 1004 10 10000 8.2 270 13:21 25.06.2019
5843 Clear 46 1004 11 10000 6.7 290 12:42 25.06.2019
5844 Clear 46 1004 11 10000 6.7 290 12:24 25.06.2019
5845 Clear 46 1004 11 10000 6.7 290 12:24 25.06.2019
5846 Clear 45 1005 13 10000 3.6 350 11:44 25.06.2019
5847 Clear 45 1005 13 10000 3.6 350 11:23 25.06.2019
5848 Clear 45 1005 13 10000 3.6 350 11:23 25.06.2019
5849 -273 0 0 0 0 0 10:56 25.06.2019
5850 Clear 44 1005 12 10000 4.6 340 10:36 25.06.2019
5851 Clear 44 1005 12 10000 4.6 340 10:18 25.06.2019
5852 Haze 43 1005 17 10000 4.6 340 09:39 25.06.2019
5853 Haze 43 1005 17 10000 4.6 340 09:21 25.06.2019
5854 Haze 43 1005 17 10000 4.6 340 09:21 25.06.2019
5855 Haze 41 1005 16 10000 4.6 330 08:51 25.06.2019
5856 Haze 40 1005 19 10000 3.6 340 08:31 25.06.2019
5857 Haze 37 1005 22 10000 3.6 330 07:44 25.06.2019
5858 Haze 37 1005 22 10000 3.6 330 07:24 25.06.2019
5859 Haze 33 1005 22 10000 3.1 300 06:44 25.06.2019
5860 Haze 28 1004 28 10000 2.6 300 05:48 25.06.2019
5861 Clear 28 1003 30 10000 2.6 360 02:37 25.06.2019
5862 Clear 30 1003 28 10000 2.1 340 00:38 25.06.2019
5863 Clear 30 1003 28 10000 2.1 340 00:19 25.06.2019
5864 Clear 32 1004 22 10000 4.1 300 23:51 24.06.2019
5865 Clear 32 1004 22 10000 4.1 300 23:32 24.06.2019
5866 Clear 33 1004 19 10000 3.1 280 22:46 24.06.2019
5867 Clear 32 1004 19 10000 3.1 280 22:20 24.06.2019
5868 Clear 34 1004 16 10000 4.1 260 21:54 24.06.2019
5869 Clear 34 1004 16 10000 4.1 260 21:36 24.06.2019
5870 Clear 34 1004 16 10000 4.1 260 21:18 24.06.2019
5871 Clear 35 1003 18 10000 3.1 280 20:42 24.06.2019
5872 Clear 35 1003 18 10000 3.1 280 20:22 24.06.2019
5873 Clear 36 1003 20 9000 5.1 290 19:48 24.06.2019
5874 Clear 37 1003 17 10000 4.1 290 19:26 24.06.2019
5875 Clear 41 1003 14 10000 4.6 290 18:56 24.06.2019
5876 Clear 41 1003 14 10000 4.6 290 18:37 24.06.2019
5877 Clear 41 1003 14 10000 4.6 290 18:18 24.06.2019
5878 Clear 44 1002 12 10000 7.7 300 17:37 24.06.2019
5879 Clear 45 1002 11 10000 8.7 290 16:57 24.06.2019
5880 Clear 45 1002 11 10000 8.7 290 16:39 24.06.2019
5881 Clear 45 1002 11 10000 8.7 290 16:19 24.06.2019
5882 Clear 46 1003 11 10000 8.2 300 15:40 24.06.2019
5883 Clear 46 1003 11 10000 8.2 300 15:22 24.06.2019
5884 Clear 46 1003 11 10000 6.7 310 14:35 24.06.2019
5885 Clear 46 1003 12 10000 5.7 330 13:58 24.06.2019
5886 Clear 46 1003 12 10000 5.7 330 13:32 24.06.2019
5887 Clear 46 1003 10 10000 7.7 300 12:54 24.06.2019
5888 Clear 46 1003 10 10000 7.7 300 12:36 24.06.2019
5889 Clear 46 1003 10 10000 7.7 300 12:18 24.06.2019
5890 Clear 45 1004 13 10000 4.6 340 11:43 24.06.2019
5891 Clear 45 1004 13 10000 4.6 340 11:23 24.06.2019
5892 Clear 45 1004 11 10000 6.2 320 10:51 24.06.2019
5893 Clear 45 1004 11 10000 6.2 320 10:28 24.06.2019
5894 Clear 43 1005 18 10000 4.6 330 09:51 24.06.2019
5895 Clear 43 1005 18 10000 4.6 330 09:23 24.06.2019
5896 Clear 40 1005 21 10000 5.7 340 08:55 24.06.2019
5897 Clear 40 1005 21 10000 5.7 340 08:32 24.06.2019
5898 Clear 39 1005 21 10000 5.1 360 07:47 24.06.2019
5899 Clear 39 1005 21 10000 5.1 360 07:27 24.06.2019
5900 Clear 34 1004 20 10000 5.7 360 06:56 24.06.2019
5901 Clear 34 1004 20 10000 5.7 360 06:23 24.06.2019
5902 Clear 30 1004 29 10000 3.1 350 05:29 24.06.2019
5903 Clear 28 1004 28 10000 3.1 360 04:31 24.06.2019
5904 Clear 28 1004 28 10000 4.1 340 03:32 24.06.2019
5905 Clear 29 1003 28 10000 3.6 330 02:33 24.06.2019
5906 Clear 29 1003 26 10000 3.6 320 01:54 24.06.2019
5907 Clear 29 1003 26 10000 3.6 320 01:28 24.06.2019
5908 Clear 34 1003 18 10000 4.6 300 00:45 24.06.2019
5909 Clear 34 1003 18 10000 4.6 300 00:20 24.06.2019
5910 Clear 32 1004 19 10000 3.6 290 23:47 23.06.2019
5911 Clear 32 1004 19 10000 3.6 290 23:27 23.06.2019
5912 Clear 32 1004 21 10000 2.6 280 22:55 23.06.2019
5913 Clear 32 1004 21 10000 2.6 280 22:37 23.06.2019
5914 Clear 34 1004 21 10000 2.6 280 22:19 23.06.2019
5915 Clear 33 1004 22 10000 1 0 21:40 23.06.2019
5916 Clear 33 1004 22 10000 1 0 21:21 23.06.2019
5917 Clear 34 1004 19 10000 1.5 270 20:45 23.06.2019
5918 Clear 34 1004 19 10000 1.5 270 20:26 23.06.2019
5919 Clear 37 1003 14 10000 3.6 270 19:46 23.06.2019
5920 Clear 37 1003 14 10000 3.6 270 19:21 23.06.2019
5921 Haze 40 1003 12 10000 3.6 270 18:54 23.06.2019
5922 Haze 40 1003 12 10000 3.6 270 18:25 23.06.2019
5923 Clear 43 1003 11 10000 6.2 270 17:54 23.06.2019
5924 Clear 43 1003 11 10000 6.2 270 17:28 23.06.2019
5925 Clear 43 1003 10 10000 6.2 300 16:59 23.06.2019
5926 Clear 43 1003 10 10000 6.2 300 16:41 23.06.2019
5927 Clear 43 1003 10 10000 6.2 300 16:22 23.06.2019
5928 Clear 43 1004 11 10000 6.2 280 15:41 23.06.2019
5929 Clear 43 1004 11 10000 6.2 280 15:22 23.06.2019
5930 Clear 44 1004 12 10000 7.7 270 14:42 23.06.2019
5931 Clear 44 1004 12 10000 7.7 270 14:24 23.06.2019
5932 Clear 43 1004 12 10000 7.2 270 13:59 23.06.2019
5933 Clear 43 1004 12 10000 7.2 270 13:40 23.06.2019
5934 Clear 43 1004 12 10000 7.2 270 13:19 23.06.2019
5935 Clear 43 1004 13 10000 5.7 290 12:47 23.06.2019
5936 Clear 43 1004 13 10000 5.7 290 12:23 23.06.2019
5937 Clear 42 1004 15 10000 3.6 360 11:58 23.06.2019
5938 Clear 42 1004 15 10000 3.6 360 11:40 23.06.2019
5939 Clear 42 1004 15 10000 3.6 360 11:21 23.06.2019
5940 Clear 42 1005 18 10000 6.7 340 10:46 23.06.2019
5941 Clear 42 1005 18 10000 6.7 340 10:20 23.06.2019
5942 Clear 40 1005 21 10000 4.6 350 09:44 23.06.2019
5943 Clear 40 1005 21 10000 4.6 350 09:21 23.06.2019
5944 Clear 38 1005 25 10000 4.6 340 08:45 23.06.2019
5945 Clear 38 1005 25 10000 4.6 340 08:27 23.06.2019
5946 Clear 35 1005 27 10000 4.6 310 07:54 23.06.2019
5947 Clear 35 1005 27 10000 4.6 310 07:24 23.06.2019
5948 Clear 32 1004 35 10000 2.6 340 06:54 23.06.2019
5949 Clear 30 1004 37 10000 3.1 320 05:55 23.06.2019
5950 Clear 30 1003 30 10000 3.6 350 04:38 23.06.2019
5951 Clear 28 1003 34 10000 3.1 350 02:20 23.06.2019
5952 Clear 29 1003 30 10000 3.1 340 01:37 23.06.2019
5953 Clear 30 1003 30 10000 3.1 340 00:37 23.06.2019
5954 Clear 30 1003 28 10000 4.1 320 23:57 22.06.2019
5955 Clear 30 1003 28 10000 4.1 320 23:38 22.06.2019
5956 Clear 30 1003 28 10000 4.1 320 23:20 22.06.2019
5957 Clear 35 1003 21 10000 4.1 280 22:44 22.06.2019
5958 Clear 34 1003 21 10000 4.1 280 22:22 22.06.2019
5959 Clear 34 1003 24 10000 3.6 280 21:41 22.06.2019
5960 Clear 34 1003 24 10000 3.6 280 21:20 22.06.2019
5961 Clear 35 1003 26 10000 5.1 280 20:51 22.06.2019
5962 Clear 35 1003 23 10000 4.1 270 20:26 22.06.2019
5963 Clear 36 1003 23 10000 5.1 280 19:53 22.06.2019
5964 Clear 36 1003 23 10000 5.1 280 19:28 22.06.2019
5965 Clear 38 1002 20 9000 4.1 280 18:59 22.06.2019
5966 Clear 39 1003 20 10000 5.1 270 18:41 22.06.2019
5967 Clear 41 1003 20 10000 5.1 270 18:19 22.06.2019
5968 Clear 42 1002 18 10000 6.7 270 17:40 22.06.2019
5969 Clear 42 1002 18 10000 6.7 270 17:22 22.06.2019
5970 Clear 42 1002 18 10000 7.2 280 16:39 22.06.2019
5971 Clear 42 1002 18 10000 7.2 280 16:21 22.06.2019
5972 Clear 43 1003 17 10000 7.2 300 15:42 22.06.2019
5973 Clear 43 1003 17 10000 7.2 300 15:24 22.06.2019
5974 Clear 42 1003 16 10000 7.2 290 14:50 22.06.2019
5975 Clear 42 1003 16 10000 7.2 290 14:29 22.06.2019
5976 Clear 41 1003 19 10000 7.7 280 13:55 22.06.2019
5977 Clear 41 1003 19 10000 7.7 280 13:36 22.06.2019
5978 Clear 41 1003 19 10000 7.7 280 13:18 22.06.2019
5979 Clear 42 1003 15 10000 7.7 280 12:41 22.06.2019
5980 Clear 41 1004 20 10000 7.7 310 11:59 22.06.2019
5981 Clear 41 1004 20 10000 7.7 310 11:40 22.06.2019
5982 Clear 39 1004 22 10000 6.7 300 10:54 22.06.2019
5983 Clear 39 1004 22 10000 6.7 300 10:22 22.06.2019
5984 Clear 38 1004 24 10000 6.2 290 09:56 22.06.2019
5985 Clear 38 1004 24 10000 6.2 290 09:28 22.06.2019
5986 Clear 36 1004 26 10000 6.2 300 08:45 22.06.2019
5987 Clear 36 1004 26 10000 6.2 300 08:26 22.06.2019
5988 Clear 33 1004 29 10000 5.7 320 07:43 22.06.2019
5989 Clear 33 1004 29 10000 5.7 320 07:18 22.06.2019
5990 Smoke 30 1004 33 10000 4.1 320 06:33 22.06.2019
5991 Clear 24 1003 47 10000 1.5 330 03:21 22.06.2019
5992 Clear 26 1003 44 10000 2.6 320 02:21 22.06.2019
5993 Clear 27 1003 34 10000 3.6 310 00:48 22.06.2019
5994 Clear 27 1003 34 10000 3.6 310 00:24 22.06.2019
5995 Clear 31 1003 25 10000 5.1 300 23:49 21.06.2019
5996 Clear 31 1003 25 10000 5.1 300 23:23 21.06.2019
5997 Clear 32 1003 24 10000 5.1 290 22:54 21.06.2019
5998 Clear 32 1003 24 10000 5.1 290 22:27 21.06.2019
5999 Clear 32 1003 22 10000 5.1 290 21:58 21.06.2019
6000 Clear 32 1003 22 10000 3.6 280 21:38 21.06.2019
6001 Clear 32 1003 22 10000 3.6 280 21:38 21.06.2019
6002 Clear 32 1003 22 10000 3.6 280 21:19 21.06.2019
6003 Clear 33 1003 25 9000 5.1 280 20:47 21.06.2019
6004 Clear 33 1003 23 10000 4.1 290 20:24 21.06.2019
6005 Clear 34 1003 23 10000 4.1 290 19:45 21.06.2019
6006 Clear 37 1003 19 10000 4.6 280 18:59 21.06.2019
6007 Clear 37 1003 19 10000 4.6 280 18:35 21.06.2019
6008 Haze 38 1002 18 10000 5.7 280 17:58 21.06.2019
6009 Haze 38 1002 18 10000 5.7 280 17:30 21.06.2019
6010 Clear 39 1002 18 10000 6.2 280 16:43 21.06.2019
6011 Clear 39 1002 18 10000 6.2 280 16:24 21.06.2019
6012 Clear 40 1003 17 10000 7.2 260 15:58 21.06.2019
6013 Clear 40 1003 17 10000 7.2 260 15:36 21.06.2019
6014 Clear 40 1003 20 10000 7.2 260 14:56 21.06.2019
6015 Clear 40 1003 20 10000 7.2 260 14:37 21.06.2019
6016 Clear 40 1003 20 10000 7.2 260 14:19 21.06.2019
6017 Clear 40 1003 21 10000 6.7 260 13:39 21.06.2019
6018 Clear 40 1003 21 10000 6.7 260 13:21 21.06.2019
6019 Clear 40 1003 20 10000 6.7 270 12:49 21.06.2019
6020 Clear 40 1003 20 10000 6.7 270 12:22 21.06.2019
6021 Clear 40 1003 20 10000 6.7 270 12:22 21.06.2019
6022 Clear 39 1004 18 10000 6.2 290 11:49 21.06.2019
6023 Clear 39 1004 18 10000 6.2 290 11:28 21.06.2019
6024 Clear 38 1004 21 10000 5.7 290 10:59 21.06.2019
6025 Clear 38 1004 22 10000 5.1 320 10:40 21.06.2019
6026 Clear 38 1004 22 10000 5.1 320 10:20 21.06.2019
6027 Clear 36 1004 23 10000 5.1 310 09:43 21.06.2019
6028 Clear 35 1004 23 10000 5.1 310 09:22 21.06.2019
6029 Clear 35 1004 26 10000 4.1 320 08:55 21.06.2019
6030 Clear 35 1004 26 10000 4.1 320 08:37 21.06.2019
6031 Clear 35 1004 26 10000 4.1 320 08:18 21.06.2019
6032 Clear 33 1004 29 10000 5.1 300 07:40 21.06.2019
6033 Clear 30 1004 40 10000 4.1 270 06:59 21.06.2019
6034 Clear 30 1004 40 10000 4.1 270 06:25 21.06.2019
6035 Smoke 26 1003 47 10000 2.1 320 05:33 21.06.2019
6036 Smoke 25 1003 50 10000 2.6 310 04:40 21.06.2019
6037 Clear 26 1003 47 10000 3.6 310 03:41 21.06.2019
6038 Clear 26 1003 47 10000 3.6 310 03:23 21.06.2019
6039 Clear 27 1003 42 10000 3.1 300 02:21 21.06.2019
6040 Clear 31 1003 33 10000 5.1 290 01:27 21.06.2019
6041 Clear 29 1003 32 10000 3.6 300 00:29 21.06.2019
6042 Clear 31 1003 31 10000 3.6 290 23:55 20.06.2019
6043 Clear 31 1003 31 10000 3.6 290 23:37 20.06.2019
6044 Clear 31 1003 31 10000 3.6 290 23:37 20.06.2019
6045 Clear 31 1003 31 10000 3.6 290 23:18 20.06.2019
6046 Clear 32 1003 29 10000 4.1 300 22:41 20.06.2019
6047 Clear 32 1003 29 10000 4.1 300 22:22 20.06.2019
6048 Clear 33 1003 24 10000 3.6 280 21:55 20.06.2019
6049 Clear 33 1003 24 10000 3.6 280 21:37 20.06.2019
6050 Clear 33 1003 24 10000 3.6 280 21:18 20.06.2019
6051 Clear 34 1003 24 10000 3.6 300 20:41 20.06.2019
6052 Clear 34 1003 24 10000 3.6 300 20:22 20.06.2019
6053 Clear 35 1002 24 10000 4.1 310 19:45 20.06.2019
6054 Clear 35 1002 24 10000 4.1 310 19:19 20.06.2019
6055 Clear 37 1002 22 10000 5.1 300 18:57 20.06.2019
6056 Clear 37 1002 22 10000 5.1 300 18:38 20.06.2019
6057 Clear 37 1002 22 10000 5.1 300 18:20 20.06.2019
6058 Clear 39 1001 20 10000 7.7 290 17:46 20.06.2019
6059 Haze 40 1001 20 10000 7.7 290 17:27 20.06.2019
6060 Clear 39 1001 20 10000 7.7 280 16:42 20.06.2019
6061 Clear 39 1001 20 10000 7.7 280 16:19 20.06.2019
6062 Clear 39 1001 21 10000 7.7 280 15:56 20.06.2019
6063 Clear 39 1001 21 10000 7.7 280 15:37 20.06.2019
6064 Clear 39 1001 21 10000 7.7 280 15:18 20.06.2019
6065 Clear 40 1002 16 10000 7.7 280 14:42 20.06.2019
6066 Clear 40 1002 16 10000 7.7 280 14:21 20.06.2019
6067 Clear 40 1002 16 10000 7.2 270 13:40 20.06.2019
6068 Haze 39 1002 16 10000 7.2 270 13:19 20.06.2019
6069 Haze 39 1002 20 10000 8.2 280 12:44 20.06.2019
6070 Haze 39 1002 20 10000 8.2 280 12:22 20.06.2019
6071 Clear 39 1003 21 10000 8.7 300 11:45 20.06.2019
6072 Clear 39 1003 21 10000 8.7 300 11:24 20.06.2019
6073 Clear 38 1003 22 10000 8.7 300 10:47 20.06.2019
6074 Clear 38 1003 22 10000 8.7 300 10:47 20.06.2019
6075 Clear 38 1003 22 10000 8.7 300 10:25 20.06.2019
6076 Haze 37 1003 25 10000 6.7 270 09:59 20.06.2019
6077 Haze 37 1003 25 10000 6.7 270 09:40 20.06.2019
6078 Haze 37 1003 25 10000 6.7 270 09:21 20.06.2019
6079 Haze 35 1003 28 10000 4.6 320 08:45 20.06.2019
6080 Haze 35 1003 28 10000 4.6 320 08:27 20.06.2019
6081 Smoke 34 1003 31 10000 5.7 320 07:53 20.06.2019
6082 Smoke 34 1003 31 10000 5.7 320 07:28 20.06.2019
6083 Smoke 30 1003 37 10000 3.6 340 06:27 20.06.2019
6084 Clear 25 1003 53 10000 2.6 310 04:54 20.06.2019
6085 Clear 29 1003 37 10000 4.6 310 02:29 20.06.2019
6086 Clear 31 1003 33 10000 4.6 300 00:34 20.06.2019
6087 Clear 32 1004 29 10000 5.1 290 23:56 19.06.2019
6088 Clear 32 1004 29 10000 5.1 290 23:37 19.06.2019
6089 Clear 32 1004 29 10000 5.1 290 23:19 19.06.2019
6090 Clear 33 1004 26 10000 5.1 290 22:40 19.06.2019
6091 Clear 32 1004 26 10000 5.1 290 22:18 19.06.2019
6092 Clear 32 1004 26 10000 3.6 280 21:42 19.06.2019
6093 Clear 32 1004 26 10000 3.6 280 21:23 19.06.2019
6094 Clear 33 1003 28 10000 3.1 280 20:42 19.06.2019
6095 Clear 33 1003 28 10000 3.1 280 20:22 19.06.2019
6096 Clear 34 1003 26 10000 4.6 290 19:55 19.06.2019
6097 Clear 34 1003 26 10000 4.6 290 19:36 19.06.2019
6098 Clear 34 1003 26 10000 4.6 290 19:18 19.06.2019
6099 Clear 36 1003 23 10000 5.7 290 18:43 19.06.2019
6100 Clear 36 1003 23 10000 5.7 290 18:20 19.06.2019
6101 Clear 38 1003 22 10000 6.7 300 17:35 19.06.2019
6102 -273 0 0 0 0 0 16:59 19.06.2019
6103 Clear 39 1003 20 10000 5.7 290 16:39 19.06.2019
6104 Clear 39 1003 20 10000 5.7 290 16:21 19.06.2019
6105 Clear 40 1003 17 10000 5.7 260 15:48 19.06.2019
6106 -273 0 0 0 0 0 15:27 19.06.2019
6107 Clear 39 1003 18 10000 6.2 270 14:50 19.06.2019
6108 Clear 39 1003 18 10000 6.2 270 14:31 19.06.2019
6109 Clear 39 1004 17 10000 6.2 270 13:59 19.06.2019
6110 Clear 39 1004 17 10000 6.2 270 13:41 19.06.2019
6111 Clear 39 1004 17 10000 6.2 270 13:23 19.06.2019
6112 Clouds 39 1004 14 10000 6.2 280 12:44 19.06.2019
6113 Clouds 39 1004 14 10000 6.2 280 12:22 19.06.2019
6114 Clouds 39 1004 21 10000 4.1 300 11:55 19.06.2019
6115 Clouds 39 1004 21 10000 4.1 300 11:37 19.06.2019
6116 Clouds 39 1004 21 10000 4.1 300 11:18 19.06.2019
6117 Clear 38 1005 25 10000 4.6 330 10:41 19.06.2019
6118 Clear 38 1005 25 10000 4.6 330 10:23 19.06.2019
6119 Clear 37 1005 25 10000 4.6 340 09:41 19.06.2019
6120 Clear 37 1005 25 10000 4.6 340 09:21 19.06.2019
6121 Clear 35 1005 30 10000 4.1 330 08:50 19.06.2019
6122 Clear 35 1005 30 10000 4.1 330 08:29 19.06.2019
6123 Clear 33 1005 31 10000 4.6 330 07:48 19.06.2019
6124 Clear 33 1005 31 10000 4.6 330 07:29 19.06.2019
6125 Smoke 30 1005 33 10000 3.6 330 06:53 19.06.2019
6126 Smoke 30 1005 33 10000 3.6 330 06:29 19.06.2019
6127 Smoke 27 1005 36 10000 3.1 320 05:50 19.06.2019
6128 Smoke 25 1004 36 10000 3.6 330 04:41 19.06.2019
6129 Clear 26 1004 34 10000 5.1 330 03:36 19.06.2019
6130 Clear 29 1004 32 10000 4.6 340 02:28 19.06.2019
6131 Clear 27 1005 36 10000 3.6 320 01:27 19.06.2019
6132 Clear 29 1005 35 10000 4.1 310 00:46 19.06.2019
6133 Clear 29 1005 35 10000 4.1 310 00:27 19.06.2019
6134 Clear 30 1005 30 10000 4.1 320 23:55 18.06.2019
6135 Clear 30 1005 30 10000 4.1 320 23:28 18.06.2019
6136 Clear 31 1005 29 10000 4.1 320 22:55 18.06.2019
6137 Clear 31 1005 29 10000 4.1 320 22:37 18.06.2019
6138 Clear 32 1005 29 10000 4.1 320 22:18 18.06.2019
6139 Clear 32 1005 24 10000 4.1 320 21:42 18.06.2019
6140 Clear 32 1005 24 10000 4.1 320 21:21 18.06.2019
6141 Clear 34 1005 20 10000 3.6 280 20:44 18.06.2019
6142 Clear 34 1005 20 10000 3.6 280 20:25 18.06.2019
6143 Clear 35 1004 18 10000 2.6 270 19:55 18.06.2019
6144 Clear 35 1004 18 10000 2.6 270 19:37 18.06.2019
6145 Clear 35 1004 18 10000 2.6 270 19:19 18.06.2019
6146 Clear 38 1004 17 10000 4.1 270 18:43 18.06.2019
6147 Clear 38 1004 17 10000 4.1 270 18:24 18.06.2019
6148 Clouds 40 1004 17 10000 5.7 280 17:40 18.06.2019
6149 Clouds 40 1004 17 10000 5.7 280 17:20 18.06.2019
6150 Clouds 41 1004 16 10000 6.7 270 16:47 18.06.2019
6151 Clouds 41 1004 16 10000 6.7 270 16:27 18.06.2019
6152 Clouds 42 1004 13 9000 7.2 310 15:55 18.06.2019
6153 Clouds 42 1004 15 10000 6.7 250 15:36 18.06.2019
6154 Clouds 42 1004 15 10000 6.7 250 15:18 18.06.2019
6155 Clouds 42 1004 14 10000 3.6 300 14:42 18.06.2019
6156 Clouds 42 1004 14 10000 3.6 300 14:22 18.06.2019
6157 Clear 42 1005 16 10000 3.6 290 13:53 18.06.2019
6158 Clear 42 1005 16 10000 3.6 290 13:32 18.06.2019
6159 Haze 42 1005 16 10000 4.1 270 12:59 18.06.2019
6160 Haze 42 1005 16 10000 4.1 270 12:41 18.06.2019
6161 Haze 42 1005 16 10000 4.1 270 12:23 18.06.2019
6162 Clear 41 1006 18 10000 5.1 260 11:42 18.06.2019
6163 Clear 41 1006 18 10000 5.1 260 11:21 18.06.2019
6164 Clear 41 1006 16 10000 2.6 10 10:57 18.06.2019
6165 Clear 41 1006 16 10000 2.6 10 10:37 18.06.2019
6166 Clear 41 1006 16 10000 2.6 10 10:18 18.06.2019
6167 Clear 40 1006 19 10000 3.6 270 09:39 18.06.2019
6168 Clear 40 1006 19 10000 3.6 270 09:18 18.06.2019
6169 Clear 38 1006 20 10000 2.6 310 08:43 18.06.2019
6170 Clear 38 1006 20 10000 2.6 310 08:43 18.06.2019
6171 Clear 38 1006 20 10000 2.6 310 08:21 18.06.2019
6172 Haze 36 1006 23 10000 4.1 300 07:40 18.06.2019
6173 Haze 36 1006 23 10000 4.1 300 07:19 18.06.2019
6174 Dust 28 1006 28 6000 1.5 0 05:39 18.06.2019
6175 Dust 27 1005 34 10000 4.1 340 04:24 18.06.2019
6176 Clear 27 1005 32 10000 3.6 320 02:52 18.06.2019
6177 Clear 29 1004 30 10000 2.6 290 01:54 18.06.2019
6178 Clear 28 1004 34 10000 2.1 290 01:24 18.06.2019
6179 Clear 29 1004 30 10000 0.5 0 00:54 18.06.2019
6180 Clear 29 1004 30 10000 0.5 0 00:26 18.06.2019
6181 Clear 32 1005 25 10000 0.5 0 23:41 17.06.2019
6182 Clear 32 1005 25 10000 0.5 0 23:20 17.06.2019
6183 Clear 29 1005 28 10000 1 0 22:55 17.06.2019
6184 Clear 30 1005 28 10000 2.1 350 22:36 17.06.2019
6185 Clear 32 1005 28 10000 2.1 350 22:18 17.06.2019
6186 Clear 33 1005 24 10000 2.1 310 21:41 17.06.2019
6187 Clear 33 1005 24 10000 2.1 310 21:21 17.06.2019
6188 Clear 34 1005 21 10000 3.1 340 20:37 17.06.2019
6189 Clear 34 1005 21 10000 3.1 340 20:19 17.06.2019
6190 Clear 35 1004 20 10000 3.1 330 19:42 17.06.2019
6191 Clear 35 1004 20 10000 3.1 330 19:23 17.06.2019
6192 Smoke 38 1004 17 10000 3.1 330 18:58 17.06.2019
6193 Smoke 38 1004 17 10000 3.1 330 18:37 17.06.2019
6194 Clear 41 1004 12 10000 4.6 280 18:18 17.06.2019
6195 Clear 41 1004 12 10000 4.6 280 17:46 17.06.2019
6196 Clear 41 1004 12 10000 4.6 280 17:28 17.06.2019
6197 Smoke 43 1003 14 10000 5.7 270 16:49 17.06.2019
6198 Smoke 43 1003 14 10000 5.7 270 16:31 17.06.2019
6199 Smoke 43 1004 9 9000 7.2 280 15:58 17.06.2019
6200 Clear 43 1004 13 10000 4.6 300 15:39 17.06.2019
6201 Clear 43 1004 7 9000 7.2 270 15:19 17.06.2019
6202 Clear 43 1004 7 9000 7.2 270 14:53 17.06.2019
6203 Clear 43 1004 11 10000 6.2 260 14:34 17.06.2019
6204 Clear 43 1004 9 10000 5.1 260 13:56 17.06.2019
6205 Clear 43 1004 11 10000 6.7 280 13:38 17.06.2019
6206 Clear 43 1005 14 10000 5.7 280 13:19 17.06.2019
6207 Clear 43 1005 14 10000 5.7 280 12:33 17.06.2019
6208 -273 0 0 0 0 0 11:58 17.06.2019
6209 Haze 42 1005 15 10000 6.2 320 11:39 17.06.2019
6210 Haze 41 1005 16 9000 6.2 310 11:18 17.06.2019
6211 Haze 40 1005 23 10000 5.7 290 10:46 17.06.2019
6212 Haze 40 1005 23 10000 5.7 290 10:28 17.06.2019
6213 Haze 39 1005 20 9000 5.7 320 09:56 17.06.2019
6214 Haze 38 1005 26 10000 6.2 290 09:32 17.06.2019
6215 Haze 35 1005 30 10000 6.7 310 08:46 17.06.2019
6216 Haze 35 1005 30 10000 6.7 310 08:24 17.06.2019
6217 Clear 33 1004 34 10000 6.2 320 07:52 17.06.2019
6218 Clear 33 1004 34 10000 6.2 320 07:32 17.06.2019
6219 Clear 32 1004 27 10000 7.2 310 06:53 17.06.2019
6220 Clear 32 1003 27 10000 4.6 300 06:18 17.06.2019
6221 Clear 29 1002 21 10000 5.7 300 05:20 17.06.2019
6222 Clear 29 1002 21 10000 5.7 300 04:23 17.06.2019
6223 Clear 29 1002 23 10000 4.6 280 03:31 17.06.2019
6224 Clear 31 1001 25 10000 3.6 250 02:43 17.06.2019
6225 Clear 31 1001 25 10000 3.6 250 02:25 17.06.2019
6226 Clear 32 1001 21 10000 3.6 280 01:35 17.06.2019
6227 Clear 32 1001 19 10000 2.6 260 00:57 17.06.2019
6228 Clear 32 1001 19 10000 2.6 260 00:36 17.06.2019
6229 Clear 34 1001 17 10000 4.1 250 00:18 17.06.2019
6230 Clear 34 1001 17 10000 4.1 250 23:39 16.06.2019
6231 Clear 34 1000 20 10000 3.6 230 23:20 16.06.2019
6232 Clear 34 1000 20 10000 3.6 230 22:44 16.06.2019
6233 Haze 34 1000 15 10000 3.6 220 22:20 16.06.2019
6234 Haze 34 1000 15 10000 3.6 220 21:57 16.06.2019
6235 Haze 34 1000 15 10000 3.6 220 21:39 16.06.2019
6236 Clear 35 999 17 10000 2.1 240 21:20 16.06.2019
6237 Clear 35 999 17 10000 2.1 240 20:40 16.06.2019
6238 Smoke 36 999 17 10000 4.6 200 20:19 16.06.2019
6239 Smoke 36 999 17 10000 4.6 200 19:58 16.06.2019
6240 Smoke 36 999 17 10000 4.6 200 19:39 16.06.2019
6241 Smoke 38 999 20 9000 5.1 160 19:21 16.06.2019
6242 Clear 40 998 12 10000 3.1 210 18:42 16.06.2019
6243 Haze 43 998 10 10000 3.6 220 18:21 16.06.2019
6244 Haze 43 998 10 10000 3.6 220 18:21 16.06.2019
6245 Haze 43 998 10 10000 3.6 220 17:57 16.06.2019
6246 Haze 43 998 10 10000 3.6 220 17:38 16.06.2019
6247 Haze 45 998 8 10000 5.7 210 17:20 16.06.2019
6248 Haze 45 998 8 10000 5.7 210 16:55 16.06.2019
6249 Haze 45 998 8 10000 5.7 210 16:36 16.06.2019
6250 Haze 46 998 7 9000 6.7 170 16:18 16.06.2019
6251 Haze 45 998 7 10000 6.2 210 15:39 16.06.2019
6252 Haze 45 999 8 10000 6.2 190 15:20 16.06.2019
6253 Haze 45 999 8 10000 6.2 190 14:40 16.06.2019
6254 Haze 45 999 9 10000 5.7 180 14:21 16.06.2019
6255 Haze 45 999 9 10000 5.7 180 13:50 16.06.2019
6256 Haze 45 999 9 10000 5.7 180 13:25 16.06.2019
6257 Haze 45 1000 10 10000 6.7 190 12:47 16.06.2019
6258 Haze 45 1000 10 10000 6.7 190 12:23 16.06.2019
6259 Haze 45 1000 10 10000 6.7 190 12:23 16.06.2019
6260 Haze 44 1000 8 6000 5.7 160 11:59 16.06.2019
6261 Haze 45 1000 10 10000 4.6 190 11:38 16.06.2019
6262 Haze 43 1001 14 10000 6.2 190 11:19 16.06.2019
6263 Haze 43 1001 14 10000 6.2 190 10:45 16.06.2019
6264 Haze 41 1000 12 10000 5.7 110 10:20 16.06.2019
6265 Haze 41 1000 12 10000 5.7 110 10:20 16.06.2019
6266 Haze 42 1000 12 10000 5.7 110 09:46 16.06.2019
6267 Haze 42 1000 12 10000 5.7 110 09:25 16.06.2019
6268 Haze 39 1000 17 10000 3.1 90 08:50 16.06.2019
6269 Haze 39 1000 17 10000 3.1 90 08:22 16.06.2019
6270 Haze 36 1001 20 9000 2.6 110 07:50 16.06.2019
6271 Haze 36 1001 20 9000 2.6 110 07:32 16.06.2019
6272 -273 0 0 0 0 0 06:57 16.06.2019
6273 Haze 30 1001 21 8000 1.5 80 06:21 16.06.2019
6274 Haze 29 1000 34 7000 1 200 05:28 16.06.2019
6275 Haze 29 1000 39 6000 2.1 100 04:36 16.06.2019
6276 Haze 28 1000 34 8000 1 0 03:51 16.06.2019
6277 Haze 28 1000 34 8000 1 0 03:30 16.06.2019
6278 Clear 30 1000 28 10000 1 280 01:57 16.06.2019
6279 Clear 30 1000 28 10000 1 280 01:37 16.06.2019
6280 Clear 30 1000 28 10000 1 340 01:18 16.06.2019
6281 Clear 30 1000 28 10000 1 340 00:39 16.06.2019
6282 Clear 31 1000 25 10000 1 330 00:19 16.06.2019
6283 Clear 31 1000 25 10000 1 330 23:40 15.06.2019
6284 Clear 33 1000 21 10000 1 0 23:21 15.06.2019
6285 Clear 33 1000 21 10000 1 0 22:49 15.06.2019
6286 Clear 35 1000 21 10000 1 0 22:26 15.06.2019
6287 Clear 35 1000 23 10000 2.1 310 21:45 15.06.2019
6288 Clear 35 1000 23 10000 2.1 310 21:27 15.06.2019
6289 Clear 35 1001 19 9000 1.5 10 20:56 15.06.2019
6290 Clear 35 1000 23 10000 2.1 330 20:36 15.06.2019
6291 Clear 39 1000 16 10000 2.1 140 20:18 15.06.2019
6292 Clear 39 1000 16 10000 2.1 140 19:40 15.06.2019
6293 Clear 40 1000 14 9000 1.5 310 19:22 15.06.2019
6294 Clear 40 999 15 10000 2.6 130 18:39 15.06.2019
6295 Clear 44 999 10 10000 4.1 160 18:20 15.06.2019
6296 Clear 44 999 10 10000 4.1 160 17:43 15.06.2019
6297 Clear 44 999 10 10000 4.1 160 17:43 15.06.2019
6298 Clear 44 1000 8 9000 3.1 280 17:21 15.06.2019
6299 Clear 45 999 11 10000 2.1 60 16:46 15.06.2019
6300 Clouds 44 1000 8 9000 2.6 0 16:19 15.06.2019
6301 Clear 44 999 11 10000 2.1 0 15:43 15.06.2019
6302 Clear 44 999 11 10000 2.1 0 15:23 15.06.2019
6303 Clear 44 1000 10 10000 3.1 190 14:42 15.06.2019
6304 Clear 45 1000 11 10000 4.1 240 14:19 15.06.2019
6305 Clear 45 1000 11 10000 4.1 240 13:56 15.06.2019
6306 Clear 45 1000 11 10000 4.1 240 13:38 15.06.2019
6307 Clear 44 1001 11 10000 2.1 50 13:18 15.06.2019
6308 Clear 44 1001 11 10000 2.1 50 12:47 15.06.2019
6309 Clear 44 1001 11 10000 2.1 50 12:23 15.06.2019
6310 Clear 44 1001 10 10000 2.1 0 11:51 15.06.2019
6311 Clear 44 1001 10 10000 2.1 0 11:32 15.06.2019
6312 Haze 43 1002 12 10000 1.5 80 10:47 15.06.2019
6313 Haze 43 1002 12 10000 1.5 80 10:26 15.06.2019
6314 Smoke 41 1002 20 10000 1 0 09:56 15.06.2019
6315 Smoke 41 1002 20 10000 1 0 09:38 15.06.2019
6316 Smoke 38 1002 23 10000 3.1 340 09:18 15.06.2019
6317 Smoke 38 1002 23 10000 3.1 340 08:43 15.06.2019
6318 Smoke 38 1002 23 10000 3.1 340 08:24 15.06.2019
6319 Clear 35 1002 22 10000 4.1 330 07:27 15.06.2019
6320 Clear 32 1002 25 10000 4.6 310 06:50 15.06.2019
6321 Clear 32 1002 25 10000 4.6 310 06:30 15.06.2019
6322 Clear 31 1001 27 10000 3.6 280 05:41 15.06.2019
6323 Clear 31 1001 25 10000 2.1 320 05:18 15.06.2019
6324 Clear 31 1001 25 10000 2.1 320 04:30 15.06.2019
6325 Clear 32 1000 22 10000 3.6 360 03:33 15.06.2019
6326 Clear 32 1000 22 10000 3.6 360 03:33 15.06.2019
6327 Clear 33 1000 22 10000 5.1 360 02:37 15.06.2019
6328 Clear 32 1001 25 10000 4.6 350 01:59 15.06.2019
6329 Clear 32 1001 25 10000 4.6 350 01:25 15.06.2019
6330 Clear 31 1001 17 0 6.07 29.156 00:43 15.06.2019
6331 Clear 31 1001 35 8000 2.6 360 00:25 15.06.2019
6332 Clear 31 1001 35 8000 2.6 360 23:51 14.06.2019
6333 Clear 31 1001 35 8000 2.6 360 23:23 14.06.2019
6334 Clear 30 1001 35 10000 2.1 350 22:42 14.06.2019
6335 Haze 32 1001 35 10000 2.1 350 22:22 14.06.2019
6336 Haze 33 1002 24 10000 1 90 21:49 14.06.2019
6337 Haze 33 1002 24 10000 1 90 21:30 14.06.2019
6338 Haze 33 1002 21 10000 1 0 20:58 14.06.2019
6339 Haze 33 1002 21 10000 1 0 20:39 14.06.2019
6340 Haze 37 1001 22 10000 3.7 331.328 20:18 14.06.2019
6341 Haze 37 1001 22 10000 3.7 331.328 19:43 14.06.2019
6342 -273 0 0 0 0 0 19:23 14.06.2019
6343 Haze 38 1001 14 9000 2.1 260 18:58 14.06.2019
6344 Haze 39 1001 17 10000 1 350 18:40 14.06.2019
6345 Haze 41 1001 13 9000 3.1 270 18:21 14.06.2019
6346 Clear 42 1001 13 10000 3.1 350 17:46 14.06.2019
6347 Clear 42 1001 13 10000 3.1 350 17:25 14.06.2019
6348 Clouds 42 1001 10 10000 4.6 290 16:55 14.06.2019
6349 Clouds 43 1001 13 10000 1.5 10 16:37 14.06.2019
6350 Clouds 43 1001 9 10000 6.2 300 16:18 14.06.2019
6351 Clouds 44 1001 11 10000 3.1 310 15:39 14.06.2019
6352 Smoke 44 1001 11 10000 4.1 310 15:20 14.06.2019
6353 Smoke 44 1001 11 10000 4.1 310 14:52 14.06.2019
6354 -273 0 0 0 0 0 14:32 14.06.2019
6355 -273 0 0 0 0 0 14:32 14.06.2019
6356 Smoke 43 1002 9 10000 5.1 320 13:54 14.06.2019
6357 Smoke 44 1002 12 10000 2.6 340 13:36 14.06.2019
6358 Smoke 43 1002 9 10000 2.6 0 13:18 14.06.2019
6359 Smoke 43 1002 9 10000 2.6 0 13:18 14.06.2019
6360 Clear 44 1002 11 10000 3.1 360 12:41 14.06.2019
6361 Clear 43 1003 10 10000 2.1 0 12:22 14.06.2019
6362 Clear 43 1003 10 10000 2.1 0 11:44 14.06.2019
6363 Clear 43 1003 10 10000 2.1 0 11:24 14.06.2019
6364 Clear 42 1003 11 10000 3.1 20 10:50 14.06.2019
6365 Clear 42 1003 11 10000 3.1 20 10:23 14.06.2019
6366 Clear 41 1004 9 10000 2.6 0 09:58 14.06.2019
6367 Clear 41 1004 14 10000 2.6 20 09:39 14.06.2019
6368 Clear 39 1004 10 10000 5.1 90 09:20 14.06.2019
6369 Clear 38 1003 20 10000 2.1 330 08:41 14.06.2019
6370 Clear 35 1004 14 10000 4.1 60 08:18 14.06.2019
6371 Clear 33 1003 29 10000 2.1 330 07:46 14.06.2019
6372 Clear 33 1003 29 10000 2.6 330 07:19 14.06.2019
6373 Clear 30 1003 33 10000 2.1 340 06:31 14.06.2019
6374 Clear 28 1004 23 10000 2.6 340 05:55 14.06.2019
6375 -273 0 0 0 0 0 05:55 14.06.2019
6376 Smoke 25 1003 36 10000 3.6 320 04:57 14.06.2019
6377 Smoke 25 1003 36 10000 2.1 300 04:36 14.06.2019
6378 Clear 25 1003 36 10000 1.5 340 03:51 14.06.2019
6379 Clear 25 1003 36 10000 1.5 340 03:25 14.06.2019
6380 Clear 25 1003 36 10000 1.5 340 03:25 14.06.2019
6381 Clear 25 1002 36 10000 3.1 320 02:47 14.06.2019
6382 -273 0 0 0 0 0 01:58 14.06.2019
6383 Clear 31 1002 25 10000 1.5 350 00:49 14.06.2019
6384 Clear 31 1002 25 10000 2.6 360 00:22 14.06.2019
6385 Clear 31 1002 25 10000 2.6 360 23:56 13.06.2019
6386 Clear 31 1002 25 10000 3.1 10 23:27 13.06.2019
6387 Clear 30 1003 28 10000 2.1 360 22:59 13.06.2019
6388 Clear 30 1003 28 10000 2.1 360 22:39 13.06.2019
6389 Smoke 32 1003 22 10000 5.13 25.041 22:20 13.06.2019
6390 Smoke 32 1003 22 10000 5.13 25.041 21:39 13.06.2019
6391 Smoke 33 1003 17 10000 0.5 0 21:20 13.06.2019
6392 Smoke 33 1003 17 10000 0.5 0 20:45 13.06.2019
6393 Smoke 33 1003 17 10000 0.5 0 20:22 13.06.2019
6394 Smoke 34 1003 17 10000 1.5 330 19:59 13.06.2019
6395 Smoke 33 1003 18 10000 3.1 310 19:40 13.06.2019
6396 Clear 37 1003 17 10000 2.6 340 19:21 13.06.2019
6397 Clear 37 1003 17 10000 2.6 340 18:54 13.06.2019
6398 Clear 37 1003 17 10000 2.6 340 18:36 13.06.2019
6399 Clear 40 1003 14 10000 3.1 340 18:18 13.06.2019
6400 Clear 40 1003 14 10000 3.1 340 17:41 13.06.2019
6401 Smoke 42 1003 11 10000 4.6 10 17:20 13.06.2019
6402 Smoke 42 1003 11 10000 4.6 10 16:46 13.06.2019
6403 Smoke 41 1003 11 9000 5.7 300 16:21 13.06.2019
6404 Smoke 41 1003 11 9000 5.7 300 15:57 13.06.2019
6405 Smoke 42 1003 12 10000 3.1 350 15:38 13.06.2019
6406 Smoke 41 1003 11 9000 5.1 290 15:18 13.06.2019
6407 Smoke 42 1004 13 10000 3.6 300 14:44 13.06.2019
6408 Smoke 42 1004 13 10000 3.6 300 14:25 13.06.2019
6409 Smoke 42 1004 13 10000 3.6 340 13:46 13.06.2019
6410 Clear 41 1005 11 10000 4.1 330 13:21 13.06.2019
6411 Clear 41 1005 11 10000 4.1 330 12:44 13.06.2019
6412 Clear 41 1005 11 10000 4.1 330 12:24 13.06.2019
6413 Clear 41 1005 11 10000 2.6 0 11:59 13.06.2019
6414 Clear 41 1005 13 10000 2.6 340 11:41 13.06.2019
6415 Clear 40 1005 12 10000 3.6 350 11:21 13.06.2019
6416 Clear 40 1006 14 10000 3.1 330 10:46 13.06.2019
6417 Clear 40 1006 14 10000 3.1 330 10:27 13.06.2019
6418 Clear 40 1006 14 10000 3.1 330 10:27 13.06.2019
6419 Clear 39 1006 14 10000 3.1 330 09:45 13.06.2019
6420 Clear 39 1006 14 10000 3.1 330 09:25 13.06.2019
6421 Clear 36 1006 16 10000 4.6 360 08:50 13.06.2019
6422 Clear 36 1006 16 10000 4.6 360 08:29 13.06.2019
6423 Clear 34 1005 16 10000 4.1 350 07:59 13.06.2019
6424 Clear 34 1005 16 10000 4.1 350 07:59 13.06.2019
6425 Clear 34 1005 16 10000 4.1 350 07:31 13.06.2019
6426 Clear 30 1005 27 10000 3.1 350 06:52 13.06.2019
6427 Clear 30 1005 27 10000 3.1 350 06:24 13.06.2019
6428 Clear 28 1005 19 8000 2.1 330 05:57 13.06.2019
6429 Clear 25 1005 29 10000 2.6 310 05:38 13.06.2019
6430 Clear 23 1005 25 10000 2.6 290 05:18 13.06.2019
6431 Clear 26 1005 38 10000 3.6 310 03:36 13.06.2019
6432 Clear 27 1005 28 10000 1.5 310 01:43 13.06.2019
6433 Clear 28 1005 26 10000 1 310 00:30 13.06.2019
6434 Clear 29 1005 25 10000 2.1 340 23:26 12.06.2019
6435 Clear 30 1005 25 10000 2.6 350 22:58 12.06.2019
6436 Clear 30 1005 25 10000 2.6 350 22:39 12.06.2019
6437 Clear 30 1005 25 10000 2.6 350 22:39 12.06.2019
6438 Clear 31 1006 23 10000 2.1 350 22:21 12.06.2019
6439 Clear 31 1006 23 10000 2.1 350 21:42 12.06.2019
6440 Clear 31 1006 23 10000 2.1 350 21:42 12.06.2019
6441 Clear 31 1006 23 10000 2.1 350 21:22 12.06.2019
6442 Clear 33 1005 18 10000 2.6 320 20:48 12.06.2019
6443 Clear 33 1005 18 10000 2.6 320 20:48 12.06.2019
6444 Clear 33 1005 18 10000 2.6 320 20:29 12.06.2019
6445 Clear 34 1005 17 10000 4.1 310 19:57 12.06.2019
6446 Clear 34 1005 17 10000 4.1 310 19:38 12.06.2019
6447 Clear 37 1005 12 10000 4.6 300 19:19 12.06.2019
6448 Clear 37 1005 12 10000 4.6 300 18:44 12.06.2019
6449 Clear 37 1005 12 10000 4.6 300 18:25 12.06.2019
6450 Clear 40 1005 10 10000 7.7 300 17:47 12.06.2019
6451 Clear 40 1005 10 10000 7.7 300 17:23 12.06.2019
6452 Clear 41 1004 9 10000 9.8 300 16:44 12.06.2019
6453 Clear 41 1004 9 10000 9.8 300 16:25 12.06.2019
6454 Clear 42 1005 9 10000 6.7 300 15:58 12.06.2019
6455 Clear 42 1005 9 10000 6.7 300 15:34 12.06.2019
6456 Clear 42 1005 8 10000 8.7 310 14:58 12.06.2019
6457 Clear 42 1005 8 10000 8.7 310 14:34 12.06.2019
6458 Clear 42 1005 8 10000 7.2 320 13:58 12.06.2019
6459 -273 0 0 0 0 0 13:39 12.06.2019
6460 Clear 42 1006 10 10000 4.6 340 13:19 12.06.2019
6461 Clear 42 1006 10 10000 4.6 340 12:44 12.06.2019
6462 Clear 41 1006 9 10000 9.8 290 12:22 12.06.2019
6463 Clear 41 1006 9 10000 9.8 290 11:58 12.06.2019
6464 Clear 41 1006 10 10000 6.2 340 11:38 12.06.2019
6465 Clear 40 1006 10 10000 5.7 350 11:20 12.06.2019
6466 Clear 40 1006 10 10000 5.7 350 10:44 12.06.2019
6467 Haze 37 1007 14 10000 5.1 340 10:20 12.06.2019
6468 Haze 37 1007 14 10000 5.1 340 09:43 12.06.2019
6469 Haze 37 1007 14 10000 5.1 340 09:22 12.06.2019
6470 Haze 35 1007 16 10000 5.7 320 08:38 12.06.2019
6471 Clear 34 1007 19 10000 5.7 290 08:19 12.06.2019
6472 Clear 34 1007 19 10000 5.7 290 07:25 12.06.2019
6473 Clear 31 1006 17 10000 4.6 360 06:40 12.06.2019
6474 Clear 28 1006 20 10000 3.6 350 05:25 12.06.2019
6475 Clear 27 1005 25 10000 2.6 330 03:41 12.06.2019
6476 Clear 29 1005 23 10000 4.6 320 00:54 12.06.2019
6477 Clear 29 1005 23 10000 4.6 320 00:35 12.06.2019
6478 Clear 31 1005 20 10000 4.6 310 23:44 11.06.2019
6479 Clear 31 1005 20 10000 4.6 310 23:26 11.06.2019
6480 Clear 33 1005 18 10000 5.1 310 22:43 11.06.2019
6481 Haze 32 1004 16 10000 4.6 310 22:18 11.06.2019
6482 Haze 32 1004 16 10000 4.6 310 21:57 11.06.2019
6483 Haze 32 1004 16 10000 4.6 310 21:37 11.06.2019
6484 Haze 34 1005 22 9000 4.6 300 21:19 11.06.2019
6485 Haze 35 1004 15 10000 5.7 300 20:47 11.06.2019
6486 Haze 35 1004 15 10000 5.7 300 20:24 11.06.2019
6487 Smoke 37 1003 15 10000 5.1 290 19:54 11.06.2019
6488 Smoke 37 1003 15 10000 5.1 290 19:31 11.06.2019
6489 -273 0 0 0 0 0 18:56 11.06.2019
6490 -273 0 0 0 0 0 18:55 11.06.2019
6491 Smoke 41 1003 13 9000 5.7 290 18:21 11.06.2019
6492 Haze 43 1003 13 10000 5.7 270 17:42 11.06.2019
6493 Haze 44 1002 10 9000 6.2 290 17:22 11.06.2019
6494 Haze 44 1002 10 9000 6.2 290 16:56 11.06.2019
6495 Haze 44 1002 10 10000 7.7 300 16:37 11.06.2019
6496 Haze 44 1002 10 9000 7.2 300 16:19 11.06.2019
6497 Haze 45 1003 10 10000 8.7 300 15:42 11.06.2019
6498 Haze 45 1003 10 10000 8.7 300 15:42 11.06.2019
6499 Haze 45 1003 10 10000 8.7 300 15:22 11.06.2019
6500 Haze 45 1003 12 10000 9.3 300 14:47 11.06.2019
6501 Haze 45 1003 13 10000 8.7 310 14:21 11.06.2019
6502 Haze 45 1003 13 10000 8.7 310 13:51 11.06.2019
6503 Haze 45 1003 13 10000 8.7 310 13:24 11.06.2019
6504 Haze 45 1003 13 10000 8.7 310 13:24 11.06.2019
6505 Haze 43 1003 12 9000 8.2 300 12:58 11.06.2019
6506 Haze 43 1004 15 10000 9.3 290 12:40 11.06.2019
6507 Haze 43 1004 15 10000 9.3 290 12:19 11.06.2019
6508 Haze 43 1004 15 10000 9.3 290 11:39 11.06.2019
6509 Haze 41 1004 14 6000 9.3 290 11:19 11.06.2019
6510 Haze 40 1004 19 10000 8.7 290 10:46 11.06.2019
6511 Haze 40 1004 19 10000 8.7 290 10:46 11.06.2019
6512 Haze 40 1004 19 10000 8.7 290 10:25 11.06.2019
6513 Haze 38 1005 25 10000 9.3 290 09:49 11.06.2019
6514 Haze 38 1005 25 10000 9.3 290 09:24 11.06.2019
6515 Clouds 36 1004 30 10000 9.8 300 08:45 11.06.2019
6516 Clouds 36 1004 30 10000 9.8 300 08:26 11.06.2019
6517 Smoke 34 1003 30 10000 7.7 300 07:38 11.06.2019
6518 Smoke 33 1003 28 6000 4.6 270 06:56 11.06.2019
6519 Smoke 33 1003 24 10000 6.7 280 06:34 11.06.2019
6520 Clouds 33 1001 24 6000 3.6 70 04:55 11.06.2019
6521 Clouds 32 1001 27 8000 2.1 0 03:42 11.06.2019
6522 Clear 33 1000 33 10000 0.5 0 01:40 11.06.2019
6523 Clear 33 1001 29 10000 0.5 0 00:47 11.06.2019
6524 Clear 33 1001 29 10000 3.04 59.379 23:50 10.06.2019
6525 Clear 33 1001 29 10000 3.04 59.379 23:32 10.06.2019
6526 Clear 40 1000 11 0 3.98 50.634 22:56 10.06.2019
6527 Clear 40 1000 11 0 3.98 50.634 22:37 10.06.2019
6528 Haze 36 1001 24 10000 0.5 0 22:19 10.06.2019
6529 Haze 36 1001 24 10000 0.5 0 21:41 10.06.2019
6530 Haze 36 1001 24 10000 0.5 0 21:22 10.06.2019
6531 Haze 39 1001 22 10000 1 0 20:46 10.06.2019
6532 Haze 39 1001 22 10000 1 0 20:25 10.06.2019
6533 Haze 41 1001 20 10000 2.1 140 19:57 10.06.2019
6534 Haze 41 1001 20 10000 2.1 140 19:38 10.06.2019
6535 Haze 42 1001 15 9000 1.5 0 19:20 10.06.2019
6536 Haze 42 1001 15 9000 1.5 0 18:55 10.06.2019
6537 Haze 42 1000 16 10000 2.6 110 18:37 10.06.2019
6538 Haze 44 1001 25 9000 1.5 170 18:18 10.06.2019
6539 Haze 45 1000 9 10000 1.5 280 17:40 10.06.2019
6540 Haze 46 1000 9 10000 2.6 300 17:21 10.06.2019
6541 Haze 46 1000 9 10000 2.6 300 16:45 10.06.2019
6542 Haze 46 1000 9 10000 2.6 300 16:27 10.06.2019
6543 Haze 46 1000 9 10000 1.5 0 15:43 10.06.2019
6544 Haze 46 1000 9 10000 1.5 0 15:24 10.06.2019
6545 Haze 47 1001 10 10000 2.1 0 14:59 10.06.2019
6546 Haze 47 1001 10 10000 2.1 0 14:38 10.06.2019
6547 Haze 47 1001 10 9000 4.6 170 14:20 10.06.2019
6548 Haze 47 1001 10 10000 3.1 240 13:43 10.06.2019
6549 Haze 46 1002 11 9000 3.6 180 13:22 10.06.2019
6550 Haze 46 1002 12 10000 3.6 200 12:45 10.06.2019
6551 Haze 46 1002 12 10000 3.6 200 12:27 10.06.2019
6552 Haze 45 1002 13 10000 1.5 190 11:48 10.06.2019
6553 Haze 45 1002 13 10000 1.5 190 11:29 10.06.2019
6554 Haze 45 1002 11 8000 3.6 160 10:57 10.06.2019
6555 Clear 45 1003 12 10000 1.5 0 10:38 10.06.2019
6556 Smoke 43 1002 15 10000 1.5 0 10:18 10.06.2019
6557 Smoke 43 1002 15 10000 1.5 0 09:45 10.06.2019
6558 Smoke 43 1002 15 10000 1.5 0 09:26 10.06.2019
6559 Smoke 41 1002 13 10000 1.5 240 08:45 10.06.2019
6560 Smoke 41 1002 13 10000 1.5 240 08:25 10.06.2019
6561 Haze 38 1002 19 10000 1.5 310 07:26 10.06.2019
6562 Clear 32 1001 33 10000 2.1 300 04:41 10.06.2019
6563 Clear 33 1001 27 10000 1.5 310 01:59 10.06.2019
6564 Clear 30 1001 30 10000 2.6 320 01:27 10.06.2019
6565 Clear 32 1001 27 10000 0.5 0 00:58 10.06.2019
6566 Clear 32 1001 27 10000 0.5 0 00:23 10.06.2019
6567 Clear 33 1001 26 10000 0.5 330 23:44 09.06.2019
6568 Clear 34 1002 24 10000 2.1 330 23:20 09.06.2019
6569 Clear 34 1002 24 10000 2.1 330 22:45 09.06.2019
6570 Haze 38 1002 24 10000 2.1 330 22:25 09.06.2019
6571 Haze 39 1002 20 10000 2.1 210 21:46 09.06.2019
6572 Haze 39 1002 20 10000 2.1 210 21:46 09.06.2019
6573 Haze 39 1002 20 10000 2.1 210 21:27 09.06.2019
6574 Haze 39 1002 20 10000 2.1 210 21:27 09.06.2019
6575 Clear 40 1002 17 10000 2.1 240 20:45 09.06.2019
6576 Clear 40 1002 17 10000 2.1 240 20:24 09.06.2019
6577 Haze 41 1002 14 10000 4.02 33.216 19:59 09.06.2019
6578 Haze 41 1002 14 10000 4.02 33.216 19:41 09.06.2019
6579 Haze 42 1003 18 9000 1 210 19:18 09.06.2019
6580 Haze 42 1002 14 10000 2.6 270 18:42 09.06.2019
6581 Haze 42 1002 14 10000 2.6 270 18:24 09.06.2019
6582 Haze 44 1002 11 10000 3.6 290 17:48 09.06.2019
6583 Haze 44 1002 11 10000 3.6 290 17:29 09.06.2019
6584 Smoke 46 1002 10 10000 3.6 290 16:57 09.06.2019
6585 Smoke 46 1002 10 10000 3.6 290 16:38 09.06.2019
6586 Smoke 46 1002 10 10000 3.6 300 16:19 09.06.2019
6587 Smoke 47 1002 10 10000 2.1 70 15:48 09.06.2019
6588 Smoke 47 1002 10 10000 2.1 70 15:28 09.06.2019
6589 Smoke 47 1003 9 10000 2.6 50 14:47 09.06.2019
6590 Smoke 47 1003 9 10000 2.6 50 14:29 09.06.2019
6591 Smoke 47 1003 9 10000 3.1 20 13:56 09.06.2019
6592 Smoke 47 1003 9 10000 3.1 20 13:37 09.06.2019
6593 Haze 46 1004 9 10000 4.6 30 12:46 09.06.2019
6594 Haze 46 1004 9 10000 4.6 30 12:27 09.06.2019
6595 Clear 45 1004 10 10000 6.7 20 11:48 09.06.2019
6596 Clear 45 1004 10 10000 6.7 20 11:29 09.06.2019
6597 Clear 44 1005 12 10000 7.2 20 10:47 09.06.2019
6598 Clear 44 1005 12 10000 7.2 20 10:47 09.06.2019
6599 Clear 44 1005 12 10000 7.2 20 10:25 09.06.2019
6600 Haze 42 1006 17 10000 8.2 360 09:56 09.06.2019
6601 Haze 42 1006 17 10000 8.2 360 09:37 09.06.2019
6602 Dust 39 1006 18 10000 8.7 360 09:18 09.06.2019
6603 Dust 39 1006 18 10000 8.7 360 08:43 09.06.2019
6604 Dust 36 1007 21 8000 8.2 350 07:51 09.06.2019
6605 Dust 33 1006 25 8000 7.2 350 06:40 09.06.2019
6606 Dust 31 1006 27 10000 6.2 340 05:52 09.06.2019
6607 Clear 31 1005 27 10000 4.6 330 02:55 09.06.2019
6608 -273 0 0 0 0 0 01:37 09.06.2019
6609 -273 0 0 0 0 0 01:37 09.06.2019
6610 Clear 33 1005 22 10000 4.1 350 01:37 09.06.2019
6611 Clear 33 1005 26 10000 3.6 350 01:18 09.06.2019
6612 Clear 33 1005 26 10000 3.6 350 00:22 09.06.2019
6613 Clear 32 1006 27 10000 3.1 330 23:40 08.06.2019
6614 Clear 32 1006 27 10000 3.1 330 23:22 08.06.2019
6615 Clear 32 1006 31 10000 2.1 340 22:45 08.06.2019
6616 Clear 35 1006 31 10000 2.1 340 22:26 08.06.2019
6617 Clear 35 1006 27 10000 2.6 330 21:58 08.06.2019
6618 Clear 35 1006 27 10000 2.6 330 21:39 08.06.2019
6619 Clouds 35 1006 18 10000 3.6 360 21:20 08.06.2019
6620 Clear 36 1006 24 10000 3.1 340 20:43 08.06.2019
6621 Clear 36 1006 24 10000 3.1 340 20:24 08.06.2019
6622 Clear 37 1005 22 10000 3.1 340 19:55 08.06.2019
6623 Clear 37 1005 22 10000 3.1 340 19:36 08.06.2019
6624 Clouds 39 1006 17 10000 3.1 350 19:18 08.06.2019
6625 Clear 40 1005 18 10000 3.1 330 18:40 08.06.2019
6626 Clear 43 1005 16 10000 4.1 340 18:20 08.06.2019
6627 Clear 43 1005 16 10000 4.1 340 17:43 08.06.2019
6628 Clear 44 1005 14 10000 6.2 360 17:19 08.06.2019
6629 Clear 44 1005 14 10000 6.2 360 16:47 08.06.2019
6630 Clear 44 1005 14 10000 6.2 360 16:28 08.06.2019
6631 Clear 44 1006 11 10000 6.7 350 15:49 08.06.2019
6632 Clear 44 1006 11 10000 6.7 350 15:30 08.06.2019
6633 Clear 44 1006 12 10000 5.7 340 14:47 08.06.2019
6634 Clear 44 1006 12 10000 5.7 340 14:28 08.06.2019
6635 Clear 44 1006 13 10000 6.7 360 13:44 08.06.2019
6636 Haze 43 1006 13 10000 7.7 360 12:52 08.06.2019
6637 Haze 43 1006 13 10000 7.7 360 12:32 08.06.2019
6638 Haze 42 1007 18 10000 8.7 10 11:44 08.06.2019
6639 Haze 42 1007 18 10000 8.7 10 11:26 08.06.2019
6640 Clear 41 1008 19 10000 9.3 350 10:47 08.06.2019
6641 Clear 41 1008 19 10000 9.3 350 10:24 08.06.2019
6642 Dust 39 1008 21 10000 10.8 350 09:54 08.06.2019
6643 Dust 39 1008 21 10000 10.8 350 09:29 08.06.2019
6644 Haze 36 1009 25 10000 9.3 340 08:40 08.06.2019
6645 Clouds 34 1011 26 10000 9.3 320 08:19 08.06.2019
6646 Clear 33 1010 29 10000 8.7 320 06:51 08.06.2019
6647 Clear 33 1010 29 10000 8.7 320 06:32 08.06.2019
6648 Clear 29 1009 28 10000 6.7 300 03:35 08.06.2019
6649 Clear 29 1007 32 10000 3.6 310 01:59 08.06.2019
6650 Clear 29 1007 32 10000 3.6 320 00:29 08.06.2019
6651 Clear 30 1007 30 10000 3.6 330 23:56 07.06.2019
6652 Clear 33 1007 26 10000 3.6 340 23:21 07.06.2019
6653 Clear 33 1007 26 10000 3.6 340 22:50 07.06.2019
6654 Clear 33 1007 26 10000 3.6 340 22:32 07.06.2019
6655 Clear 32 1007 26 10000 4.1 320 21:54 07.06.2019
6656 Clear 32 1007 26 10000 4.1 320 21:32 07.06.2019
6657 Clear 33 1008 24 10000 4.1 320 20:59 07.06.2019
6658 Clear 33 1008 23 10000 4.1 320 20:41 07.06.2019
6659 Clear 33 1008 23 10000 4.1 320 20:22 07.06.2019
6660 Clear 37 1007 20 10000 4.6 320 19:38 07.06.2019
6661 Clouds 39 1007 19 9000 5.1 340 19:19 07.06.2019
6662 Clear 38 1007 18 10000 5.7 330 18:38 07.06.2019
6663 Clear 38 1007 18 10000 5.7 330 18:38 07.06.2019
6664 Clouds 40 1007 19 9000 5.7 320 18:20 07.06.2019
6665 Clear 41 1007 16 10000 7.2 330 17:42 07.06.2019
6666 Clear 43 1007 16 10000 9.3 330 17:19 07.06.2019
6667 Clear 43 1007 16 10000 9.3 330 16:41 07.06.2019
6668 Clouds 43 1007 14 10000 10.3 330 15:56 07.06.2019
6669 Clear 43 1007 16 10000 8.2 340 15:38 07.06.2019
6670 Clear 44 1007 16 10000 9.3 330 15:18 07.06.2019
6671 Clear 44 1007 16 10000 9.3 330 14:39 07.06.2019
6672 Clouds 43 1007 13 10000 8.7 350 14:19 07.06.2019
6673 Dust 43 1007 14 10000 8.2 340 13:28 07.06.2019
6674 Smoke 43 1008 16 10000 10.3 330 12:51 07.06.2019
6675 Smoke 43 1008 16 10000 10.3 330 12:29 07.06.2019
6676 Smoke 42 1008 15 10000 10.3 330 11:57 07.06.2019
6677 Smoke 42 1008 15 10000 10.3 330 11:34 07.06.2019
6678 Clear 42 1009 16 10000 9.8 330 10:59 07.06.2019
6679 Clear 42 1009 16 10000 9.8 330 10:41 07.06.2019
6680 Clear 40 1009 18 10000 9.3 330 10:19 07.06.2019
6681 Clear 40 1009 18 10000 9.3 330 09:48 07.06.2019
6682 Clear 40 1009 18 10000 9.3 330 09:21 07.06.2019
6683 Clear 38 1009 20 10000 9.3 330 08:46 07.06.2019
6684 Clear 38 1009 20 10000 9.3 330 08:26 07.06.2019
6685 Clear 35 1008 24 10000 7.7 340 07:49 07.06.2019
6686 Clouds 33 1009 21 10000 6.7 350 07:22 07.06.2019
6687 Clear 32 1008 27 10000 7.2 320 06:48 07.06.2019
6688 Clear 32 1008 27 10000 7.2 320 06:23 07.06.2019
6689 Clear 30 1008 32 10000 3.6 320 05:43 07.06.2019
6690 Clear 32 1006 24 10000 5.1 330 02:41 07.06.2019
6691 Clear 35 1006 18 0 5.95 352.033 01:37 07.06.2019
6692 Clear 33 1006 22 10000 7.2 320 00:46 07.06.2019
6693 Clear 33 1006 22 10000 4.6 320 23:46 06.06.2019
6694 Clear 33 1006 22 10000 4.6 320 23:25 06.06.2019
6695 Clear 33 1006 22 10000 4.1 320 22:57 06.06.2019
6696 Clear 33 1006 22 10000 4.1 320 22:37 06.06.2019
6697 Clear 35 1006 22 10000 4.1 320 22:19 06.06.2019
6698 Clear 35 1006 22 10000 4.1 320 21:45 06.06.2019
6699 Clear 35 1006 22 10000 4.1 320 21:22 06.06.2019
6700 Clouds 35 1006 18 9000 4.6 340 20:55 06.06.2019
6701 Clear 36 1006 18 10000 3.6 320 20:34 06.06.2019
6702 Clear 38 1005 17 10000 4.6 320 19:59 06.06.2019
6703 Clear 38 1005 17 10000 4.6 320 19:37 06.06.2019
6704 Clear 40 1005 13 10000 7.7 300 19:19 06.06.2019
6705 Clear 40 1005 13 10000 7.7 300 18:44 06.06.2019
6706 Clear 40 1005 13 10000 7.7 300 18:24 06.06.2019
6707 Clear 43 1004 10 10000 9.3 300 17:49 06.06.2019
6708 Clear 43 1004 10 10000 9.3 300 17:26 06.06.2019
6709 Clear 45 1005 10 10000 8.7 300 16:56 06.06.2019
6710 Clear 45 1005 10 10000 8